<?xml version="1.0" encoding="UTF-8" standalone="no" ?>
<gpx xmlns="http://www.topografix.com/GPX/1/1" xmlns:xsi="http://www.w3.org/2001/XMLSchema-instance" xsi:schemaLocation="http://www.topografix.com/GPX/1/1 http://www.topografix.com/GPX/1/1/gpx.xsd" version="1.1" creator="VisuGPX - https://www.visugpx.com">
  <metadata>
    <name>3c calvisson 2019</name>
  </metadata>
  <trk>
    <name><![CDATA[3c calvisson 2019]]></name>
    <trkseg>
      <trkpt lat="43.77941" lon="4.19156">
        <ele>52.5</ele>
        <time>2019-11-08T12:34:11Z</time>
      </trkpt>
      <trkpt lat="43.77937" lon="4.19144">
        <ele>53</ele>
        <time>2019-11-08T12:34:15Z</time>
      </trkpt>
      <trkpt lat="43.77932" lon="4.19134">
        <ele>53.6</ele>
        <time>2019-11-08T12:34:17Z</time>
      </trkpt>
      <trkpt lat="43.7793" lon="4.19129">
        <ele>54</ele>
        <time>2019-11-08T12:34:18Z</time>
      </trkpt>
      <trkpt lat="43.77928" lon="4.19122">
        <ele>54.3</ele>
        <time>2019-11-08T12:34:19Z</time>
      </trkpt>
      <trkpt lat="43.7792" lon="4.19101">
        <ele>55</ele>
        <time>2019-11-08T12:34:23Z</time>
      </trkpt>
      <trkpt lat="43.77919" lon="4.19095">
        <ele>55.2</ele>
        <time>2019-11-08T12:34:24Z</time>
      </trkpt>
      <trkpt lat="43.77915" lon="4.19084">
        <ele>55.6</ele>
        <time>2019-11-08T12:34:26Z</time>
      </trkpt>
      <trkpt lat="43.77911" lon="4.19074">
        <ele>55.5</ele>
        <time>2019-11-08T12:34:28Z</time>
      </trkpt>
      <trkpt lat="43.77909" lon="4.19069">
        <ele>55.4</ele>
        <time>2019-11-08T12:34:29Z</time>
      </trkpt>
      <trkpt lat="43.77904" lon="4.19058">
        <ele>55</ele>
        <time>2019-11-08T12:34:31Z</time>
      </trkpt>
      <trkpt lat="43.77901" lon="4.19047">
        <ele>54.4</ele>
        <time>2019-11-08T12:34:33Z</time>
      </trkpt>
      <trkpt lat="43.77896" lon="4.19035">
        <ele>53.6</ele>
        <time>2019-11-08T12:34:35Z</time>
      </trkpt>
      <trkpt lat="43.77891" lon="4.19024">
        <ele>53</ele>
        <time>2019-11-08T12:34:37Z</time>
      </trkpt>
      <trkpt lat="43.77888" lon="4.19019">
        <ele>52.8</ele>
        <time>2019-11-08T12:34:38Z</time>
      </trkpt>
      <trkpt lat="43.7788" lon="4.1901">
        <ele>52.6</ele>
        <time>2019-11-08T12:34:40Z</time>
      </trkpt>
      <trkpt lat="43.77875" lon="4.19007">
        <ele>52.6</ele>
        <time>2019-11-08T12:34:41Z</time>
      </trkpt>
      <trkpt lat="43.77862" lon="4.19004">
        <ele>52.5</ele>
        <time>2019-11-08T12:34:43Z</time>
      </trkpt>
      <trkpt lat="43.77855" lon="4.19002">
        <ele>52.5</ele>
        <time>2019-11-08T12:34:44Z</time>
      </trkpt>
      <trkpt lat="43.77844" lon="4.18989">
        <ele>52.5</ele>
        <time>2019-11-08T12:34:46Z</time>
      </trkpt>
      <trkpt lat="43.7784" lon="4.18969">
        <ele>52.9</ele>
        <time>2019-11-08T12:34:48Z</time>
      </trkpt>
      <trkpt lat="43.77839" lon="4.1896">
        <ele>53.1</ele>
        <time>2019-11-08T12:34:49Z</time>
      </trkpt>
      <trkpt lat="43.77839" lon="4.18944">
        <ele>53.3</ele>
        <time>2019-11-08T12:34:51Z</time>
      </trkpt>
      <trkpt lat="43.77839" lon="4.18937">
        <ele>53.4</ele>
        <time>2019-11-08T12:34:52Z</time>
      </trkpt>
      <trkpt lat="43.77838" lon="4.18921">
        <ele>53.7</ele>
        <time>2019-11-08T12:34:54Z</time>
      </trkpt>
      <trkpt lat="43.77836" lon="4.18913">
        <ele>53.8</ele>
        <time>2019-11-08T12:34:55Z</time>
      </trkpt>
      <trkpt lat="43.77834" lon="4.18897">
        <ele>54</ele>
        <time>2019-11-08T12:34:57Z</time>
      </trkpt>
      <trkpt lat="43.77833" lon="4.1889">
        <ele>54.2</ele>
        <time>2019-11-08T12:34:58Z</time>
      </trkpt>
      <trkpt lat="43.7783" lon="4.18875">
        <ele>54.4</ele>
        <time>2019-11-08T12:35:00Z</time>
      </trkpt>
      <trkpt lat="43.77829" lon="4.18867">
        <ele>54.5</ele>
        <time>2019-11-08T12:35:01Z</time>
      </trkpt>
      <trkpt lat="43.77825" lon="4.18853">
        <ele>54.9</ele>
        <time>2019-11-08T12:35:03Z</time>
      </trkpt>
      <trkpt lat="43.77824" lon="4.18846">
        <ele>55.1</ele>
        <time>2019-11-08T12:35:04Z</time>
      </trkpt>
      <trkpt lat="43.77823" lon="4.18839">
        <ele>55.3</ele>
        <time>2019-11-08T12:35:05Z</time>
      </trkpt>
      <trkpt lat="43.7782" lon="4.18826">
        <ele>55.6</ele>
        <time>2019-11-08T12:35:07Z</time>
      </trkpt>
      <trkpt lat="43.77818" lon="4.18813">
        <ele>55.8</ele>
        <time>2019-11-08T12:35:09Z</time>
      </trkpt>
      <trkpt lat="43.77818" lon="4.18808">
        <ele>55.8</ele>
        <time>2019-11-08T12:35:10Z</time>
      </trkpt>
      <trkpt lat="43.77818" lon="4.18801">
        <ele>55.9</ele>
        <time>2019-11-08T12:35:13Z</time>
      </trkpt>
      <trkpt lat="43.77819" lon="4.18794">
        <ele>56</ele>
        <time>2019-11-08T12:35:15Z</time>
      </trkpt>
      <trkpt lat="43.77819" lon="4.18782">
        <ele>56.4</ele>
        <time>2019-11-08T12:35:17Z</time>
      </trkpt>
      <trkpt lat="43.77821" lon="4.18774">
        <ele>57</ele>
        <time>2019-11-08T12:35:18Z</time>
      </trkpt>
      <trkpt lat="43.77826" lon="4.18771">
        <ele>57.4</ele>
        <time>2019-11-08T12:35:19Z</time>
      </trkpt>
      <trkpt lat="43.7783" lon="4.1877">
        <ele>57.8</ele>
        <time>2019-11-08T12:35:20Z</time>
      </trkpt>
      <trkpt lat="43.77836" lon="4.18764">
        <ele>58.2</ele>
        <time>2019-11-08T12:35:23Z</time>
      </trkpt>
      <trkpt lat="43.77838" lon="4.18761">
        <ele>58.2</ele>
        <time>2019-11-08T12:35:24Z</time>
      </trkpt>
      <trkpt lat="43.77839" lon="4.18755">
        <ele>58.3</ele>
        <time>2019-11-08T12:35:25Z</time>
      </trkpt>
      <trkpt lat="43.77839" lon="4.18747">
        <ele>58.4</ele>
        <time>2019-11-08T12:35:26Z</time>
      </trkpt>
      <trkpt lat="43.77839" lon="4.18738">
        <ele>58.5</ele>
        <time>2019-11-08T12:35:27Z</time>
      </trkpt>
      <trkpt lat="43.77839" lon="4.18729">
        <ele>58.6</ele>
        <time>2019-11-08T12:35:28Z</time>
      </trkpt>
      <trkpt lat="43.7784" lon="4.18723">
        <ele>58.7</ele>
        <time>2019-11-08T12:35:29Z</time>
      </trkpt>
      <trkpt lat="43.7784" lon="4.18718">
        <ele>58.7</ele>
        <time>2019-11-08T12:35:30Z</time>
      </trkpt>
      <trkpt lat="43.77841" lon="4.18709">
        <ele>58.9</ele>
        <time>2019-11-08T12:35:32Z</time>
      </trkpt>
      <trkpt lat="43.77843" lon="4.18703">
        <ele>59</ele>
        <time>2019-11-08T12:35:33Z</time>
      </trkpt>
      <trkpt lat="43.77845" lon="4.18695">
        <ele>59.1</ele>
        <time>2019-11-08T12:35:34Z</time>
      </trkpt>
      <trkpt lat="43.77845" lon="4.18687">
        <ele>59.3</ele>
        <time>2019-11-08T12:35:37Z</time>
      </trkpt>
      <trkpt lat="43.77846" lon="4.18679">
        <ele>59.5</ele>
        <time>2019-11-08T12:35:38Z</time>
      </trkpt>
      <trkpt lat="43.77847" lon="4.18672">
        <ele>59.6</ele>
        <time>2019-11-08T12:35:39Z</time>
      </trkpt>
      <trkpt lat="43.77847" lon="4.1866">
        <ele>60</ele>
        <time>2019-11-08T12:35:41Z</time>
      </trkpt>
      <trkpt lat="43.77848" lon="4.18654">
        <ele>60.3</ele>
        <time>2019-11-08T12:35:42Z</time>
      </trkpt>
      <trkpt lat="43.77849" lon="4.18642">
        <ele>60.7</ele>
        <time>2019-11-08T12:35:44Z</time>
      </trkpt>
      <trkpt lat="43.7785" lon="4.18636">
        <ele>61</ele>
        <time>2019-11-08T12:35:45Z</time>
      </trkpt>
      <trkpt lat="43.77851" lon="4.18628">
        <ele>61.4</ele>
        <time>2019-11-08T12:35:47Z</time>
      </trkpt>
      <trkpt lat="43.7786" lon="4.18622">
        <ele>63.1</ele>
        <time>2019-11-08T12:35:50Z</time>
      </trkpt>
      <trkpt lat="43.7787" lon="4.18623">
        <ele>64</ele>
        <time>2019-11-08T12:35:51Z</time>
      </trkpt>
      <trkpt lat="43.77874" lon="4.18624">
        <ele>64.5</ele>
        <time>2019-11-08T12:35:54Z</time>
      </trkpt>
      <trkpt lat="43.77882" lon="4.18626">
        <ele>65.4</ele>
        <time>2019-11-08T12:35:56Z</time>
      </trkpt>
      <trkpt lat="43.77886" lon="4.18628">
        <ele>65.9</ele>
        <time>2019-11-08T12:35:58Z</time>
      </trkpt>
      <trkpt lat="43.77927" lon="4.18644">
        <ele>70.2</ele>
        <time>2019-11-08T12:36:00Z</time>
      </trkpt>
      <trkpt lat="43.77943" lon="4.1865">
        <ele>71.7</ele>
        <time>2019-11-08T12:36:01Z</time>
      </trkpt>
      <trkpt lat="43.77948" lon="4.18649">
        <ele>72.2</ele>
        <time>2019-11-08T12:36:02Z</time>
      </trkpt>
      <trkpt lat="43.77952" lon="4.1865">
        <ele>72.5</ele>
        <time>2019-11-08T12:36:03Z</time>
      </trkpt>
      <trkpt lat="43.77955" lon="4.18647">
        <ele>72.8</ele>
        <time>2019-11-08T12:36:04Z</time>
      </trkpt>
      <trkpt lat="43.77958" lon="4.18642">
        <ele>73.2</ele>
        <time>2019-11-08T12:36:07Z</time>
      </trkpt>
      <trkpt lat="43.77963" lon="4.18634">
        <ele>73.8</ele>
        <time>2019-11-08T12:36:09Z</time>
      </trkpt>
      <trkpt lat="43.77968" lon="4.18629">
        <ele>74.3</ele>
        <time>2019-11-08T12:36:13Z</time>
      </trkpt>
      <trkpt lat="43.77973" lon="4.18626">
        <ele>74.7</ele>
        <time>2019-11-08T12:36:14Z</time>
      </trkpt>
      <trkpt lat="43.77977" lon="4.18622">
        <ele>75.1</ele>
        <time>2019-11-08T12:36:18Z</time>
      </trkpt>
      <trkpt lat="43.77981" lon="4.1862">
        <ele>75.3</ele>
        <time>2019-11-08T12:36:19Z</time>
      </trkpt>
      <trkpt lat="43.77984" lon="4.18617">
        <ele>75.6</ele>
        <time>2019-11-08T12:36:20Z</time>
      </trkpt>
      <trkpt lat="43.77985" lon="4.18614">
        <ele>75.8</ele>
        <time>2019-11-08T12:36:21Z</time>
      </trkpt>
      <trkpt lat="43.77987" lon="4.18608">
        <ele>76.2</ele>
        <time>2019-11-08T12:36:24Z</time>
      </trkpt>
      <trkpt lat="43.77979" lon="4.18589">
        <ele>76.2</ele>
        <time>2019-11-08T12:36:27Z</time>
      </trkpt>
      <trkpt lat="43.77975" lon="4.1858">
        <ele>76.3</ele>
        <time>2019-11-08T12:36:28Z</time>
      </trkpt>
      <trkpt lat="43.77968" lon="4.18559">
        <ele>76.6</ele>
        <time>2019-11-08T12:36:30Z</time>
      </trkpt>
      <trkpt lat="43.77965" lon="4.18545">
        <ele>76.7</ele>
        <time>2019-11-08T12:36:32Z</time>
      </trkpt>
      <trkpt lat="43.77965" lon="4.18537">
        <ele>76.8</ele>
        <time>2019-11-08T12:36:33Z</time>
      </trkpt>
      <trkpt lat="43.77964" lon="4.18528">
        <ele>76.9</ele>
        <time>2019-11-08T12:36:35Z</time>
      </trkpt>
      <trkpt lat="43.77962" lon="4.18516">
        <ele>77</ele>
        <time>2019-11-08T12:36:37Z</time>
      </trkpt>
      <trkpt lat="43.77961" lon="4.18504">
        <ele>77.1</ele>
        <time>2019-11-08T12:36:39Z</time>
      </trkpt>
      <trkpt lat="43.77959" lon="4.18492">
        <ele>77.2</ele>
        <time>2019-11-08T12:36:41Z</time>
      </trkpt>
      <trkpt lat="43.77958" lon="4.18486">
        <ele>77.2</ele>
        <time>2019-11-08T12:36:42Z</time>
      </trkpt>
      <trkpt lat="43.77957" lon="4.18481">
        <ele>77.2</ele>
        <time>2019-11-08T12:36:43Z</time>
      </trkpt>
      <trkpt lat="43.77955" lon="4.18468">
        <ele>77.3</ele>
        <time>2019-11-08T12:36:45Z</time>
      </trkpt>
      <trkpt lat="43.77954" lon="4.18462">
        <ele>77.3</ele>
        <time>2019-11-08T12:36:46Z</time>
      </trkpt>
      <trkpt lat="43.77951" lon="4.1845">
        <ele>77.4</ele>
        <time>2019-11-08T12:36:48Z</time>
      </trkpt>
      <trkpt lat="43.77948" lon="4.18439">
        <ele>77.4</ele>
        <time>2019-11-08T12:36:50Z</time>
      </trkpt>
      <trkpt lat="43.77945" lon="4.18428">
        <ele>77.5</ele>
        <time>2019-11-08T12:36:52Z</time>
      </trkpt>
      <trkpt lat="43.77942" lon="4.18416">
        <ele>77.5</ele>
        <time>2019-11-08T12:36:54Z</time>
      </trkpt>
      <trkpt lat="43.77941" lon="4.18402">
        <ele>77.5</ele>
        <time>2019-11-08T12:36:56Z</time>
      </trkpt>
      <trkpt lat="43.77939" lon="4.18389">
        <ele>77.5</ele>
        <time>2019-11-08T12:36:58Z</time>
      </trkpt>
      <trkpt lat="43.77938" lon="4.18382">
        <ele>77.5</ele>
        <time>2019-11-08T12:36:59Z</time>
      </trkpt>
      <trkpt lat="43.77936" lon="4.18376">
        <ele>77.5</ele>
        <time>2019-11-08T12:37:00Z</time>
      </trkpt>
      <trkpt lat="43.77932" lon="4.1837">
        <ele>77.5</ele>
        <time>2019-11-08T12:37:01Z</time>
      </trkpt>
      <trkpt lat="43.77922" lon="4.18357">
        <ele>75.4</ele>
        <time>2019-11-08T12:37:03Z</time>
      </trkpt>
      <trkpt lat="43.77917" lon="4.1835">
        <ele>74.8</ele>
        <time>2019-11-08T12:37:04Z</time>
      </trkpt>
      <trkpt lat="43.77912" lon="4.18343">
        <ele>74.2</ele>
        <time>2019-11-08T12:37:05Z</time>
      </trkpt>
      <trkpt lat="43.77904" lon="4.18326">
        <ele>72.9</ele>
        <time>2019-11-08T12:37:07Z</time>
      </trkpt>
      <trkpt lat="43.77896" lon="4.1831">
        <ele>72.1</ele>
        <time>2019-11-08T12:37:09Z</time>
      </trkpt>
      <trkpt lat="43.77886" lon="4.18296">
        <ele>71.5</ele>
        <time>2019-11-08T12:37:11Z</time>
      </trkpt>
      <trkpt lat="43.77881" lon="4.18291">
        <ele>71.2</ele>
        <time>2019-11-08T12:37:12Z</time>
      </trkpt>
      <trkpt lat="43.77872" lon="4.18277">
        <ele>70.5</ele>
        <time>2019-11-08T12:37:14Z</time>
      </trkpt>
      <trkpt lat="43.77865" lon="4.18261">
        <ele>69.9</ele>
        <time>2019-11-08T12:37:16Z</time>
      </trkpt>
      <trkpt lat="43.77864" lon="4.18252">
        <ele>69.6</ele>
        <time>2019-11-08T12:37:17Z</time>
      </trkpt>
      <trkpt lat="43.77861" lon="4.18235">
        <ele>69.3</ele>
        <time>2019-11-08T12:37:19Z</time>
      </trkpt>
      <trkpt lat="43.7786" lon="4.18227">
        <ele>69</ele>
        <time>2019-11-08T12:37:20Z</time>
      </trkpt>
      <trkpt lat="43.77858" lon="4.1822">
        <ele>68.9</ele>
        <time>2019-11-08T12:37:21Z</time>
      </trkpt>
      <trkpt lat="43.77856" lon="4.18213">
        <ele>68.8</ele>
        <time>2019-11-08T12:37:22Z</time>
      </trkpt>
      <trkpt lat="43.77853" lon="4.18198">
        <ele>68.7</ele>
        <time>2019-11-08T12:37:24Z</time>
      </trkpt>
      <trkpt lat="43.7785" lon="4.18182">
        <ele>68.6</ele>
        <time>2019-11-08T12:37:26Z</time>
      </trkpt>
      <trkpt lat="43.77849" lon="4.18165">
        <ele>68.6</ele>
        <time>2019-11-08T12:37:28Z</time>
      </trkpt>
      <trkpt lat="43.77848" lon="4.18156">
        <ele>68.7</ele>
        <time>2019-11-08T12:37:29Z</time>
      </trkpt>
      <trkpt lat="43.77844" lon="4.18137">
        <ele>68.8</ele>
        <time>2019-11-08T12:37:31Z</time>
      </trkpt>
      <trkpt lat="43.7784" lon="4.18128">
        <ele>68.9</ele>
        <time>2019-11-08T12:37:32Z</time>
      </trkpt>
      <trkpt lat="43.77836" lon="4.18119">
        <ele>69.1</ele>
        <time>2019-11-08T12:37:33Z</time>
      </trkpt>
      <trkpt lat="43.7783" lon="4.18098">
        <ele>69.4</ele>
        <time>2019-11-08T12:37:35Z</time>
      </trkpt>
      <trkpt lat="43.77825" lon="4.18077">
        <ele>69.7</ele>
        <time>2019-11-08T12:37:37Z</time>
      </trkpt>
      <trkpt lat="43.77824" lon="4.18057">
        <ele>69.9</ele>
        <time>2019-11-08T12:37:39Z</time>
      </trkpt>
      <trkpt lat="43.77825" lon="4.18048">
        <ele>70</ele>
        <time>2019-11-08T12:37:40Z</time>
      </trkpt>
      <trkpt lat="43.77826" lon="4.18032">
        <ele>70.2</ele>
        <time>2019-11-08T12:37:42Z</time>
      </trkpt>
      <trkpt lat="43.77826" lon="4.18026">
        <ele>70.3</ele>
        <time>2019-11-08T12:37:43Z</time>
      </trkpt>
      <trkpt lat="43.77825" lon="4.18021">
        <ele>70.4</ele>
        <time>2019-11-08T12:37:44Z</time>
      </trkpt>
      <trkpt lat="43.77824" lon="4.18008">
        <ele>70.6</ele>
        <time>2019-11-08T12:37:46Z</time>
      </trkpt>
      <trkpt lat="43.77824" lon="4.18">
        <ele>70.9</ele>
        <time>2019-11-08T12:37:47Z</time>
      </trkpt>
      <trkpt lat="43.77824" lon="4.17992">
        <ele>71</ele>
        <time>2019-11-08T12:37:48Z</time>
      </trkpt>
      <trkpt lat="43.77823" lon="4.17984">
        <ele>71.1</ele>
        <time>2019-11-08T12:37:49Z</time>
      </trkpt>
      <trkpt lat="43.77822" lon="4.17976">
        <ele>71.2</ele>
        <time>2019-11-08T12:37:50Z</time>
      </trkpt>
      <trkpt lat="43.7782" lon="4.1796">
        <ele>71.4</ele>
        <time>2019-11-08T12:37:52Z</time>
      </trkpt>
      <trkpt lat="43.77818" lon="4.17944">
        <ele>71.8</ele>
        <time>2019-11-08T12:37:54Z</time>
      </trkpt>
      <trkpt lat="43.77817" lon="4.17935">
        <ele>71.9</ele>
        <time>2019-11-08T12:37:55Z</time>
      </trkpt>
      <trkpt lat="43.77816" lon="4.17918">
        <ele>72.2</ele>
        <time>2019-11-08T12:37:57Z</time>
      </trkpt>
      <trkpt lat="43.77815" lon="4.17909">
        <ele>72.3</ele>
        <time>2019-11-08T12:37:58Z</time>
      </trkpt>
      <trkpt lat="43.77813" lon="4.17892">
        <ele>72.7</ele>
        <time>2019-11-08T12:38:00Z</time>
      </trkpt>
      <trkpt lat="43.77812" lon="4.17876">
        <ele>72.9</ele>
        <time>2019-11-08T12:38:02Z</time>
      </trkpt>
      <trkpt lat="43.77812" lon="4.17869">
        <ele>73.1</ele>
        <time>2019-11-08T12:38:03Z</time>
      </trkpt>
      <trkpt lat="43.77812" lon="4.17854">
        <ele>73.3</ele>
        <time>2019-11-08T12:38:05Z</time>
      </trkpt>
      <trkpt lat="43.77811" lon="4.17846">
        <ele>73.4</ele>
        <time>2019-11-08T12:38:06Z</time>
      </trkpt>
      <trkpt lat="43.7781" lon="4.17831">
        <ele>73.7</ele>
        <time>2019-11-08T12:38:08Z</time>
      </trkpt>
      <trkpt lat="43.77809" lon="4.17824">
        <ele>73.9</ele>
        <time>2019-11-08T12:38:09Z</time>
      </trkpt>
      <trkpt lat="43.77809" lon="4.1781">
        <ele>74.2</ele>
        <time>2019-11-08T12:38:11Z</time>
      </trkpt>
      <trkpt lat="43.77809" lon="4.17796">
        <ele>74.5</ele>
        <time>2019-11-08T12:38:13Z</time>
      </trkpt>
      <trkpt lat="43.7781" lon="4.1779">
        <ele>74.7</ele>
        <time>2019-11-08T12:38:14Z</time>
      </trkpt>
      <trkpt lat="43.77813" lon="4.17776">
        <ele>74.9</ele>
        <time>2019-11-08T12:38:16Z</time>
      </trkpt>
      <trkpt lat="43.77814" lon="4.1777">
        <ele>75.1</ele>
        <time>2019-11-08T12:38:17Z</time>
      </trkpt>
      <trkpt lat="43.77818" lon="4.17756">
        <ele>75.4</ele>
        <time>2019-11-08T12:38:19Z</time>
      </trkpt>
      <trkpt lat="43.7782" lon="4.17749">
        <ele>75.6</ele>
        <time>2019-11-08T12:38:20Z</time>
      </trkpt>
      <trkpt lat="43.7782" lon="4.17742">
        <ele>75.7</ele>
        <time>2019-11-08T12:38:21Z</time>
      </trkpt>
      <trkpt lat="43.77821" lon="4.17734">
        <ele>75.9</ele>
        <time>2019-11-08T12:38:22Z</time>
      </trkpt>
      <trkpt lat="43.77821" lon="4.1772">
        <ele>76.1</ele>
        <time>2019-11-08T12:38:24Z</time>
      </trkpt>
      <trkpt lat="43.77821" lon="4.17709">
        <ele>76.4</ele>
        <time>2019-11-08T12:38:26Z</time>
      </trkpt>
      <trkpt lat="43.77821" lon="4.17703">
        <ele>76.5</ele>
        <time>2019-11-08T12:38:27Z</time>
      </trkpt>
      <trkpt lat="43.7782" lon="4.17698">
        <ele>76.5</ele>
        <time>2019-11-08T12:38:28Z</time>
      </trkpt>
      <trkpt lat="43.77818" lon="4.17687">
        <ele>76.7</ele>
        <time>2019-11-08T12:38:30Z</time>
      </trkpt>
      <trkpt lat="43.77818" lon="4.17676">
        <ele>76.7</ele>
        <time>2019-11-08T12:38:32Z</time>
      </trkpt>
      <trkpt lat="43.77817" lon="4.17661">
        <ele>76.5</ele>
        <time>2019-11-08T12:38:35Z</time>
      </trkpt>
      <trkpt lat="43.77815" lon="4.17655">
        <ele>76.3</ele>
        <time>2019-11-08T12:38:36Z</time>
      </trkpt>
      <trkpt lat="43.77812" lon="4.17642">
        <ele>75.7</ele>
        <time>2019-11-08T12:38:38Z</time>
      </trkpt>
      <trkpt lat="43.77811" lon="4.17635">
        <ele>75.3</ele>
        <time>2019-11-08T12:38:39Z</time>
      </trkpt>
      <trkpt lat="43.77808" lon="4.17621">
        <ele>74.7</ele>
        <time>2019-11-08T12:38:41Z</time>
      </trkpt>
      <trkpt lat="43.77807" lon="4.17614">
        <ele>74.5</ele>
        <time>2019-11-08T12:38:42Z</time>
      </trkpt>
      <trkpt lat="43.77803" lon="4.17599">
        <ele>74.2</ele>
        <time>2019-11-08T12:38:44Z</time>
      </trkpt>
      <trkpt lat="43.77801" lon="4.1759">
        <ele>74</ele>
        <time>2019-11-08T12:38:45Z</time>
      </trkpt>
      <trkpt lat="43.77798" lon="4.17573">
        <ele>73.8</ele>
        <time>2019-11-08T12:38:47Z</time>
      </trkpt>
      <trkpt lat="43.77798" lon="4.17566">
        <ele>73.8</ele>
        <time>2019-11-08T12:38:48Z</time>
      </trkpt>
      <trkpt lat="43.77797" lon="4.17558">
        <ele>73.7</ele>
        <time>2019-11-08T12:38:49Z</time>
      </trkpt>
      <trkpt lat="43.77797" lon="4.1755">
        <ele>73.7</ele>
        <time>2019-11-08T12:38:50Z</time>
      </trkpt>
      <trkpt lat="43.77797" lon="4.17542">
        <ele>73.6</ele>
        <time>2019-11-08T12:38:51Z</time>
      </trkpt>
      <trkpt lat="43.77796" lon="4.17525">
        <ele>73.5</ele>
        <time>2019-11-08T12:38:53Z</time>
      </trkpt>
      <trkpt lat="43.77796" lon="4.17516">
        <ele>73.5</ele>
        <time>2019-11-08T12:38:54Z</time>
      </trkpt>
      <trkpt lat="43.77794" lon="4.175">
        <ele>73.4</ele>
        <time>2019-11-08T12:38:56Z</time>
      </trkpt>
      <trkpt lat="43.77794" lon="4.17492">
        <ele>73.4</ele>
        <time>2019-11-08T12:38:57Z</time>
      </trkpt>
      <trkpt lat="43.77793" lon="4.17475">
        <ele>73.3</ele>
        <time>2019-11-08T12:38:59Z</time>
      </trkpt>
      <trkpt lat="43.77792" lon="4.17458">
        <ele>73.2</ele>
        <time>2019-11-08T12:39:01Z</time>
      </trkpt>
      <trkpt lat="43.77791" lon="4.1745">
        <ele>73.2</ele>
        <time>2019-11-08T12:39:02Z</time>
      </trkpt>
      <trkpt lat="43.77791" lon="4.17434">
        <ele>73.1</ele>
        <time>2019-11-08T12:39:04Z</time>
      </trkpt>
      <trkpt lat="43.77792" lon="4.17427">
        <ele>73.1</ele>
        <time>2019-11-08T12:39:05Z</time>
      </trkpt>
      <trkpt lat="43.77794" lon="4.17421">
        <ele>73.1</ele>
        <time>2019-11-08T12:39:06Z</time>
      </trkpt>
      <trkpt lat="43.77796" lon="4.17407">
        <ele>73.2</ele>
        <time>2019-11-08T12:39:08Z</time>
      </trkpt>
      <trkpt lat="43.77797" lon="4.17391">
        <ele>73.4</ele>
        <time>2019-11-08T12:39:10Z</time>
      </trkpt>
      <trkpt lat="43.77797" lon="4.17375">
        <ele>73.7</ele>
        <time>2019-11-08T12:39:12Z</time>
      </trkpt>
      <trkpt lat="43.77795" lon="4.17361">
        <ele>73.9</ele>
        <time>2019-11-08T12:39:14Z</time>
      </trkpt>
      <trkpt lat="43.77794" lon="4.17354">
        <ele>74.1</ele>
        <time>2019-11-08T12:39:15Z</time>
      </trkpt>
      <trkpt lat="43.77794" lon="4.17343">
        <ele>74.3</ele>
        <time>2019-11-08T12:39:17Z</time>
      </trkpt>
      <trkpt lat="43.77796" lon="4.1734">
        <ele>74.4</ele>
        <time>2019-11-08T12:39:18Z</time>
      </trkpt>
      <trkpt lat="43.77799" lon="4.17338">
        <ele>74.6</ele>
        <time>2019-11-08T12:39:19Z</time>
      </trkpt>
      <trkpt lat="43.77805" lon="4.17341">
        <ele>75.8</ele>
        <time>2019-11-08T12:39:21Z</time>
      </trkpt>
      <trkpt lat="43.7781" lon="4.17345">
        <ele>76.2</ele>
        <time>2019-11-08T12:39:23Z</time>
      </trkpt>
      <trkpt lat="43.77815" lon="4.17341">
        <ele>76.6</ele>
        <time>2019-11-08T12:39:24Z</time>
      </trkpt>
      <trkpt lat="43.77819" lon="4.17342">
        <ele>76.8</ele>
        <time>2019-11-08T12:39:26Z</time>
      </trkpt>
      <trkpt lat="43.77824" lon="4.17341">
        <ele>77.2</ele>
        <time>2019-11-08T12:39:28Z</time>
      </trkpt>
      <trkpt lat="43.7783" lon="4.17341">
        <ele>77.6</ele>
        <time>2019-11-08T12:39:29Z</time>
      </trkpt>
      <trkpt lat="43.77834" lon="4.17341">
        <ele>77.9</ele>
        <time>2019-11-08T12:39:32Z</time>
      </trkpt>
      <trkpt lat="43.77837" lon="4.1734">
        <ele>78.2</ele>
        <time>2019-11-08T12:39:33Z</time>
      </trkpt>
      <trkpt lat="43.77843" lon="4.1734">
        <ele>78.7</ele>
        <time>2019-11-08T12:39:34Z</time>
      </trkpt>
      <trkpt lat="43.77847" lon="4.17341">
        <ele>78.9</ele>
        <time>2019-11-08T12:39:35Z</time>
      </trkpt>
      <trkpt lat="43.7785" lon="4.17342">
        <ele>79.1</ele>
        <time>2019-11-08T12:39:37Z</time>
      </trkpt>
      <trkpt lat="43.77853" lon="4.17343">
        <ele>79.4</ele>
        <time>2019-11-08T12:39:38Z</time>
      </trkpt>
      <trkpt lat="43.7786" lon="4.17342">
        <ele>79.8</ele>
        <time>2019-11-08T12:39:40Z</time>
      </trkpt>
      <trkpt lat="43.77869" lon="4.17343">
        <ele>80.3</ele>
        <time>2019-11-08T12:39:43Z</time>
      </trkpt>
      <trkpt lat="43.77874" lon="4.17343">
        <ele>80.6</ele>
        <time>2019-11-08T12:39:44Z</time>
      </trkpt>
      <trkpt lat="43.77878" lon="4.17343">
        <ele>80.8</ele>
        <time>2019-11-08T12:39:45Z</time>
      </trkpt>
      <trkpt lat="43.77881" lon="4.17343">
        <ele>81</ele>
        <time>2019-11-08T12:39:46Z</time>
      </trkpt>
      <trkpt lat="43.77886" lon="4.17343">
        <ele>81.3</ele>
        <time>2019-11-08T12:39:47Z</time>
      </trkpt>
      <trkpt lat="43.77889" lon="4.17344">
        <ele>81.6</ele>
        <time>2019-11-08T12:39:48Z</time>
      </trkpt>
      <trkpt lat="43.77895" lon="4.17343">
        <ele>82</ele>
        <time>2019-11-08T12:39:50Z</time>
      </trkpt>
      <trkpt lat="43.77898" lon="4.17342">
        <ele>82.2</ele>
        <time>2019-11-08T12:39:52Z</time>
      </trkpt>
      <trkpt lat="43.77901" lon="4.1734">
        <ele>82.4</ele>
        <time>2019-11-08T12:39:53Z</time>
      </trkpt>
      <trkpt lat="43.77903" lon="4.17339">
        <ele>82.7</ele>
        <time>2019-11-08T12:39:54Z</time>
      </trkpt>
      <trkpt lat="43.77908" lon="4.17338">
        <ele>83.1</ele>
        <time>2019-11-08T12:39:55Z</time>
      </trkpt>
      <trkpt lat="43.77911" lon="4.17338">
        <ele>83.4</ele>
        <time>2019-11-08T12:39:57Z</time>
      </trkpt>
      <trkpt lat="43.77915" lon="4.17338">
        <ele>83.9</ele>
        <time>2019-11-08T12:39:59Z</time>
      </trkpt>
      <trkpt lat="43.77922" lon="4.17336">
        <ele>85</ele>
        <time>2019-11-08T12:40:02Z</time>
      </trkpt>
      <trkpt lat="43.77924" lon="4.17333">
        <ele>85.5</ele>
        <time>2019-11-08T12:40:04Z</time>
      </trkpt>
      <trkpt lat="43.77927" lon="4.17329">
        <ele>85.9</ele>
        <time>2019-11-08T12:40:05Z</time>
      </trkpt>
      <trkpt lat="43.7793" lon="4.17328">
        <ele>86.2</ele>
        <time>2019-11-08T12:40:08Z</time>
      </trkpt>
      <trkpt lat="43.77933" lon="4.1733">
        <ele>86.4</ele>
        <time>2019-11-08T12:40:10Z</time>
      </trkpt>
      <trkpt lat="43.77936" lon="4.1733">
        <ele>86.7</ele>
        <time>2019-11-08T12:40:12Z</time>
      </trkpt>
      <trkpt lat="43.77941" lon="4.17329">
        <ele>87.1</ele>
        <time>2019-11-08T12:40:15Z</time>
      </trkpt>
      <trkpt lat="43.77944" lon="4.17325">
        <ele>87.5</ele>
        <time>2019-11-08T12:40:18Z</time>
      </trkpt>
      <trkpt lat="43.77948" lon="4.17325">
        <ele>87.9</ele>
        <time>2019-11-08T12:40:20Z</time>
      </trkpt>
      <trkpt lat="43.77952" lon="4.17325">
        <ele>88.3</ele>
        <time>2019-11-08T12:40:22Z</time>
      </trkpt>
      <trkpt lat="43.77953" lon="4.17319">
        <ele>88.8</ele>
        <time>2019-11-08T12:40:25Z</time>
      </trkpt>
      <trkpt lat="43.77954" lon="4.17316">
        <ele>89.1</ele>
        <time>2019-11-08T12:40:27Z</time>
      </trkpt>
      <trkpt lat="43.77956" lon="4.17312">
        <ele>89.5</ele>
        <time>2019-11-08T12:40:31Z</time>
      </trkpt>
      <trkpt lat="43.77959" lon="4.1731">
        <ele>89.8</ele>
        <time>2019-11-08T12:40:34Z</time>
      </trkpt>
      <trkpt lat="43.77961" lon="4.17305">
        <ele>90.3</ele>
        <time>2019-11-08T12:40:37Z</time>
      </trkpt>
      <trkpt lat="43.77964" lon="4.17299">
        <ele>90.9</ele>
        <time>2019-11-08T12:40:40Z</time>
      </trkpt>
      <trkpt lat="43.77967" lon="4.17296">
        <ele>91.3</ele>
        <time>2019-11-08T12:40:42Z</time>
      </trkpt>
      <trkpt lat="43.7797" lon="4.17292">
        <ele>91.7</ele>
        <time>2019-11-08T12:40:44Z</time>
      </trkpt>
      <trkpt lat="43.7797" lon="4.17288">
        <ele>92.1</ele>
        <time>2019-11-08T12:40:47Z</time>
      </trkpt>
      <trkpt lat="43.77968" lon="4.17283">
        <ele>92.5</ele>
        <time>2019-11-08T12:40:48Z</time>
      </trkpt>
      <trkpt lat="43.77966" lon="4.17279">
        <ele>93.1</ele>
        <time>2019-11-08T12:40:49Z</time>
      </trkpt>
      <trkpt lat="43.77964" lon="4.17274">
        <ele>93.5</ele>
        <time>2019-11-08T12:40:50Z</time>
      </trkpt>
      <trkpt lat="43.77961" lon="4.17272">
        <ele>93.8</ele>
        <time>2019-11-08T12:40:54Z</time>
      </trkpt>
      <trkpt lat="43.77959" lon="4.17267">
        <ele>94.2</ele>
        <time>2019-11-08T12:40:56Z</time>
      </trkpt>
      <trkpt lat="43.77958" lon="4.17261">
        <ele>94.7</ele>
        <time>2019-11-08T12:40:58Z</time>
      </trkpt>
      <trkpt lat="43.77957" lon="4.17256">
        <ele>95.1</ele>
        <time>2019-11-08T12:40:59Z</time>
      </trkpt>
      <trkpt lat="43.77955" lon="4.17251">
        <ele>95.6</ele>
        <time>2019-11-08T12:41:00Z</time>
      </trkpt>
      <trkpt lat="43.77954" lon="4.17246">
        <ele>96.1</ele>
        <time>2019-11-08T12:41:01Z</time>
      </trkpt>
      <trkpt lat="43.77953" lon="4.17242">
        <ele>96.5</ele>
        <time>2019-11-08T12:41:03Z</time>
      </trkpt>
      <trkpt lat="43.7795" lon="4.17232">
        <ele>97.3</ele>
        <time>2019-11-08T12:41:05Z</time>
      </trkpt>
      <trkpt lat="43.77949" lon="4.17228">
        <ele>97.8</ele>
        <time>2019-11-08T12:41:07Z</time>
      </trkpt>
      <trkpt lat="43.77948" lon="4.17223">
        <ele>98.3</ele>
        <time>2019-11-08T12:41:08Z</time>
      </trkpt>
      <trkpt lat="43.77947" lon="4.17213">
        <ele>99.1</ele>
        <time>2019-11-08T12:41:10Z</time>
      </trkpt>
      <trkpt lat="43.77947" lon="4.17207">
        <ele>99.7</ele>
        <time>2019-11-08T12:41:11Z</time>
      </trkpt>
      <trkpt lat="43.77947" lon="4.17203">
        <ele>100.2</ele>
        <time>2019-11-08T12:41:12Z</time>
      </trkpt>
      <trkpt lat="43.77947" lon="4.17198">
        <ele>100.5</ele>
        <time>2019-11-08T12:41:14Z</time>
      </trkpt>
      <trkpt lat="43.77949" lon="4.17194">
        <ele>100.9</ele>
        <time>2019-11-08T12:41:15Z</time>
      </trkpt>
      <trkpt lat="43.77949" lon="4.17188">
        <ele>101.4</ele>
        <time>2019-11-08T12:41:18Z</time>
      </trkpt>
      <trkpt lat="43.77948" lon="4.17184">
        <ele>101.7</ele>
        <time>2019-11-08T12:41:19Z</time>
      </trkpt>
      <trkpt lat="43.77948" lon="4.17161">
        <ele>103.3</ele>
        <time>2019-11-08T12:41:21Z</time>
      </trkpt>
      <trkpt lat="43.77949" lon="4.17155">
        <ele>103.7</ele>
        <time>2019-11-08T12:41:22Z</time>
      </trkpt>
      <trkpt lat="43.77951" lon="4.17144">
        <ele>104.4</ele>
        <time>2019-11-08T12:41:23Z</time>
      </trkpt>
      <trkpt lat="43.77953" lon="4.1714">
        <ele>104.7</ele>
        <time>2019-11-08T12:41:25Z</time>
      </trkpt>
      <trkpt lat="43.77955" lon="4.17135">
        <ele>105.1</ele>
        <time>2019-11-08T12:41:26Z</time>
      </trkpt>
      <trkpt lat="43.77959" lon="4.17129">
        <ele>105.5</ele>
        <time>2019-11-08T12:41:27Z</time>
      </trkpt>
      <trkpt lat="43.77961" lon="4.17124">
        <ele>105.7</ele>
        <time>2019-11-08T12:41:28Z</time>
      </trkpt>
      <trkpt lat="43.77964" lon="4.1712">
        <ele>105.8</ele>
        <time>2019-11-08T12:41:30Z</time>
      </trkpt>
      <trkpt lat="43.77968" lon="4.17112">
        <ele>106</ele>
        <time>2019-11-08T12:41:31Z</time>
      </trkpt>
      <trkpt lat="43.77974" lon="4.17105">
        <ele>106.1</ele>
        <time>2019-11-08T12:41:34Z</time>
      </trkpt>
      <trkpt lat="43.77976" lon="4.17102">
        <ele>106.1</ele>
        <time>2019-11-08T12:41:35Z</time>
      </trkpt>
      <trkpt lat="43.77978" lon="4.17098">
        <ele>106.1</ele>
        <time>2019-11-08T12:41:37Z</time>
      </trkpt>
      <trkpt lat="43.77987" lon="4.17084">
        <ele>105.7</ele>
        <time>2019-11-08T12:41:40Z</time>
      </trkpt>
      <trkpt lat="43.77992" lon="4.17078">
        <ele>105.3</ele>
        <time>2019-11-08T12:41:42Z</time>
      </trkpt>
      <trkpt lat="43.77997" lon="4.17072">
        <ele>104.9</ele>
        <time>2019-11-08T12:41:43Z</time>
      </trkpt>
      <trkpt lat="43.78" lon="4.17069">
        <ele>104.7</ele>
        <time>2019-11-08T12:41:45Z</time>
      </trkpt>
      <trkpt lat="43.78004" lon="4.17065">
        <ele>104.3</ele>
        <time>2019-11-08T12:41:46Z</time>
      </trkpt>
      <trkpt lat="43.78009" lon="4.1706">
        <ele>103.8</ele>
        <time>2019-11-08T12:41:48Z</time>
      </trkpt>
      <trkpt lat="43.78023" lon="4.17033">
        <ele>100.7</ele>
        <time>2019-11-08T12:41:51Z</time>
      </trkpt>
      <trkpt lat="43.78028" lon="4.17024">
        <ele>99.2</ele>
        <time>2019-11-08T12:41:52Z</time>
      </trkpt>
      <trkpt lat="43.78033" lon="4.17017">
        <ele>98.5</ele>
        <time>2019-11-08T12:41:53Z</time>
      </trkpt>
      <trkpt lat="43.78043" lon="4.17008">
        <ele>97.3</ele>
        <time>2019-11-08T12:41:55Z</time>
      </trkpt>
      <trkpt lat="43.78048" lon="4.17004">
        <ele>96.7</ele>
        <time>2019-11-08T12:41:56Z</time>
      </trkpt>
      <trkpt lat="43.78053" lon="4.17003">
        <ele>96.4</ele>
        <time>2019-11-08T12:41:58Z</time>
      </trkpt>
      <trkpt lat="43.78057" lon="4.17001">
        <ele>96</ele>
        <time>2019-11-08T12:41:59Z</time>
      </trkpt>
      <trkpt lat="43.7806" lon="4.16998">
        <ele>95.8</ele>
        <time>2019-11-08T12:42:00Z</time>
      </trkpt>
      <trkpt lat="43.78064" lon="4.16979">
        <ele>93.7</ele>
        <time>2019-11-08T12:42:02Z</time>
      </trkpt>
      <trkpt lat="43.78071" lon="4.16965">
        <ele>92.3</ele>
        <time>2019-11-08T12:42:04Z</time>
      </trkpt>
      <trkpt lat="43.78081" lon="4.16958">
        <ele>92.7</ele>
        <time>2019-11-08T12:42:06Z</time>
      </trkpt>
      <trkpt lat="43.78086" lon="4.16952">
        <ele>92</ele>
        <time>2019-11-08T12:42:07Z</time>
      </trkpt>
      <trkpt lat="43.7809" lon="4.16946">
        <ele>91.6</ele>
        <time>2019-11-08T12:42:08Z</time>
      </trkpt>
      <trkpt lat="43.78094" lon="4.1694">
        <ele>91.2</ele>
        <time>2019-11-08T12:42:09Z</time>
      </trkpt>
      <trkpt lat="43.78102" lon="4.16929">
        <ele>90</ele>
        <time>2019-11-08T12:42:11Z</time>
      </trkpt>
      <trkpt lat="43.78105" lon="4.16923">
        <ele>89.5</ele>
        <time>2019-11-08T12:42:12Z</time>
      </trkpt>
      <trkpt lat="43.78107" lon="4.16916">
        <ele>88.5</ele>
        <time>2019-11-08T12:42:13Z</time>
      </trkpt>
      <trkpt lat="43.78111" lon="4.16904">
        <ele>87.1</ele>
        <time>2019-11-08T12:42:15Z</time>
      </trkpt>
      <trkpt lat="43.78115" lon="4.16902">
        <ele>87.1</ele>
        <time>2019-11-08T12:42:16Z</time>
      </trkpt>
      <trkpt lat="43.78124" lon="4.16895">
        <ele>86.1</ele>
        <time>2019-11-08T12:42:18Z</time>
      </trkpt>
      <trkpt lat="43.7813" lon="4.16894">
        <ele>86</ele>
        <time>2019-11-08T12:42:19Z</time>
      </trkpt>
      <trkpt lat="43.78133" lon="4.16895">
        <ele>85.9</ele>
        <time>2019-11-08T12:42:21Z</time>
      </trkpt>
      <trkpt lat="43.78138" lon="4.16895">
        <ele>85.7</ele>
        <time>2019-11-08T12:42:22Z</time>
      </trkpt>
      <trkpt lat="43.78148" lon="4.16887">
        <ele>84.7</ele>
        <time>2019-11-08T12:42:25Z</time>
      </trkpt>
      <trkpt lat="43.78154" lon="4.16882">
        <ele>84.1</ele>
        <time>2019-11-08T12:42:26Z</time>
      </trkpt>
      <trkpt lat="43.78161" lon="4.1688">
        <ele>83.7</ele>
        <time>2019-11-08T12:42:27Z</time>
      </trkpt>
      <trkpt lat="43.78167" lon="4.16878">
        <ele>83.7</ele>
        <time>2019-11-08T12:42:28Z</time>
      </trkpt>
      <trkpt lat="43.78179" lon="4.16876">
        <ele>83.8</ele>
        <time>2019-11-08T12:42:30Z</time>
      </trkpt>
      <trkpt lat="43.78185" lon="4.16875">
        <ele>83.6</ele>
        <time>2019-11-08T12:42:31Z</time>
      </trkpt>
      <trkpt lat="43.78187" lon="4.16873">
        <ele>83.6</ele>
        <time>2019-11-08T12:42:32Z</time>
      </trkpt>
      <trkpt lat="43.78193" lon="4.16872">
        <ele>83.7</ele>
        <time>2019-11-08T12:42:34Z</time>
      </trkpt>
      <trkpt lat="43.78206" lon="4.16872">
        <ele>83.8</ele>
        <time>2019-11-08T12:42:37Z</time>
      </trkpt>
      <trkpt lat="43.78223" lon="4.1687">
        <ele>83.4</ele>
        <time>2019-11-08T12:42:40Z</time>
      </trkpt>
      <trkpt lat="43.78229" lon="4.1687">
        <ele>83.3</ele>
        <time>2019-11-08T12:42:41Z</time>
      </trkpt>
      <trkpt lat="43.78236" lon="4.1687">
        <ele>83.3</ele>
        <time>2019-11-08T12:42:42Z</time>
      </trkpt>
      <trkpt lat="43.78247" lon="4.16868">
        <ele>83.4</ele>
        <time>2019-11-08T12:42:44Z</time>
      </trkpt>
      <trkpt lat="43.78258" lon="4.16866">
        <ele>83.5</ele>
        <time>2019-11-08T12:42:46Z</time>
      </trkpt>
      <trkpt lat="43.78264" lon="4.16866">
        <ele>83.6</ele>
        <time>2019-11-08T12:42:47Z</time>
      </trkpt>
      <trkpt lat="43.78269" lon="4.16866">
        <ele>83.8</ele>
        <time>2019-11-08T12:42:48Z</time>
      </trkpt>
      <trkpt lat="43.7828" lon="4.16866">
        <ele>84</ele>
        <time>2019-11-08T12:42:50Z</time>
      </trkpt>
      <trkpt lat="43.78285" lon="4.16865">
        <ele>84.1</ele>
        <time>2019-11-08T12:42:51Z</time>
      </trkpt>
      <trkpt lat="43.78296" lon="4.16865">
        <ele>84.3</ele>
        <time>2019-11-08T12:42:53Z</time>
      </trkpt>
      <trkpt lat="43.783" lon="4.16866">
        <ele>84.5</ele>
        <time>2019-11-08T12:42:54Z</time>
      </trkpt>
      <trkpt lat="43.78305" lon="4.16872">
        <ele>84.8</ele>
        <time>2019-11-08T12:42:56Z</time>
      </trkpt>
      <trkpt lat="43.78309" lon="4.16883">
        <ele>85.2</ele>
        <time>2019-11-08T12:43:00Z</time>
      </trkpt>
      <trkpt lat="43.78313" lon="4.16889">
        <ele>85.2</ele>
        <time>2019-11-08T12:43:02Z</time>
      </trkpt>
      <trkpt lat="43.78318" lon="4.16892">
        <ele>85.5</ele>
        <time>2019-11-08T12:43:03Z</time>
      </trkpt>
      <trkpt lat="43.78324" lon="4.16896">
        <ele>85.8</ele>
        <time>2019-11-08T12:43:04Z</time>
      </trkpt>
      <trkpt lat="43.78328" lon="4.16899">
        <ele>86.1</ele>
        <time>2019-11-08T12:43:06Z</time>
      </trkpt>
      <trkpt lat="43.78337" lon="4.16909">
        <ele>86.8</ele>
        <time>2019-11-08T12:43:08Z</time>
      </trkpt>
      <trkpt lat="43.78341" lon="4.16911">
        <ele>87</ele>
        <time>2019-11-08T12:43:09Z</time>
      </trkpt>
      <trkpt lat="43.78345" lon="4.16912">
        <ele>87.3</ele>
        <time>2019-11-08T12:43:11Z</time>
      </trkpt>
      <trkpt lat="43.78358" lon="4.16907">
        <ele>88.3</ele>
        <time>2019-11-08T12:43:14Z</time>
      </trkpt>
      <trkpt lat="43.78365" lon="4.16904">
        <ele>88.9</ele>
        <time>2019-11-08T12:43:16Z</time>
      </trkpt>
      <trkpt lat="43.7838" lon="4.169">
        <ele>90.1</ele>
        <time>2019-11-08T12:43:18Z</time>
      </trkpt>
      <trkpt lat="43.78385" lon="4.16901">
        <ele>90.5</ele>
        <time>2019-11-08T12:43:20Z</time>
      </trkpt>
      <trkpt lat="43.78394" lon="4.169">
        <ele>91.3</ele>
        <time>2019-11-08T12:43:22Z</time>
      </trkpt>
      <trkpt lat="43.78401" lon="4.16903">
        <ele>91.9</ele>
        <time>2019-11-08T12:43:24Z</time>
      </trkpt>
      <trkpt lat="43.78406" lon="4.16907">
        <ele>92.5</ele>
        <time>2019-11-08T12:43:25Z</time>
      </trkpt>
      <trkpt lat="43.7841" lon="4.16909">
        <ele>92.8</ele>
        <time>2019-11-08T12:43:28Z</time>
      </trkpt>
      <trkpt lat="43.78417" lon="4.16912">
        <ele>93.5</ele>
        <time>2019-11-08T12:43:30Z</time>
      </trkpt>
      <trkpt lat="43.78426" lon="4.16911">
        <ele>94.3</ele>
        <time>2019-11-08T12:43:31Z</time>
      </trkpt>
      <trkpt lat="43.78431" lon="4.1691">
        <ele>94.8</ele>
        <time>2019-11-08T12:43:33Z</time>
      </trkpt>
      <trkpt lat="43.78435" lon="4.16911">
        <ele>95.1</ele>
        <time>2019-11-08T12:43:35Z</time>
      </trkpt>
      <trkpt lat="43.78444" lon="4.16909">
        <ele>95.8</ele>
        <time>2019-11-08T12:43:36Z</time>
      </trkpt>
      <trkpt lat="43.78447" lon="4.16909">
        <ele>96.1</ele>
        <time>2019-11-08T12:43:38Z</time>
      </trkpt>
      <trkpt lat="43.7845" lon="4.16908">
        <ele>96.4</ele>
        <time>2019-11-08T12:43:39Z</time>
      </trkpt>
      <trkpt lat="43.78454" lon="4.16907">
        <ele>96.6</ele>
        <time>2019-11-08T12:43:40Z</time>
      </trkpt>
      <trkpt lat="43.78458" lon="4.16909">
        <ele>99.4</ele>
        <time>2019-11-08T12:43:41Z</time>
      </trkpt>
      <trkpt lat="43.7846" lon="4.1691">
        <ele>99.4</ele>
        <time>2019-11-08T12:43:42Z</time>
      </trkpt>
      <trkpt lat="43.78461" lon="4.16914">
        <ele>99.5</ele>
        <time>2019-11-08T12:43:45Z</time>
      </trkpt>
      <trkpt lat="43.78457" lon="4.16917">
        <ele>99.6</ele>
        <time>2019-11-08T12:43:48Z</time>
      </trkpt>
      <trkpt lat="43.78453" lon="4.16924">
        <ele>99.8</ele>
        <time>2019-11-08T12:43:52Z</time>
      </trkpt>
      <trkpt lat="43.7845" lon="4.16928">
        <ele>99.9</ele>
        <time>2019-11-08T12:43:53Z</time>
      </trkpt>
      <trkpt lat="43.78448" lon="4.16931">
        <ele>100</ele>
        <time>2019-11-08T12:43:54Z</time>
      </trkpt>
      <trkpt lat="43.78444" lon="4.16937">
        <ele>100.4</ele>
        <time>2019-11-08T12:43:57Z</time>
      </trkpt>
      <trkpt lat="43.78439" lon="4.1694">
        <ele>100.7</ele>
        <time>2019-11-08T12:44:00Z</time>
      </trkpt>
      <trkpt lat="43.78434" lon="4.16943">
        <ele>101.1</ele>
        <time>2019-11-08T12:44:02Z</time>
      </trkpt>
      <trkpt lat="43.78431" lon="4.16945">
        <ele>101.3</ele>
        <time>2019-11-08T12:44:03Z</time>
      </trkpt>
      <trkpt lat="43.78427" lon="4.1695">
        <ele>101.5</ele>
        <time>2019-11-08T12:44:06Z</time>
      </trkpt>
      <trkpt lat="43.78423" lon="4.16953">
        <ele>101.7</ele>
        <time>2019-11-08T12:44:10Z</time>
      </trkpt>
      <trkpt lat="43.7842" lon="4.16956">
        <ele>101.8</ele>
        <time>2019-11-08T12:44:11Z</time>
      </trkpt>
      <trkpt lat="43.78419" lon="4.1696">
        <ele>101.9</ele>
        <time>2019-11-08T12:44:14Z</time>
      </trkpt>
      <trkpt lat="43.7842" lon="4.16964">
        <ele>102.1</ele>
        <time>2019-11-08T12:44:16Z</time>
      </trkpt>
      <trkpt lat="43.78424" lon="4.16965">
        <ele>102.2</ele>
        <time>2019-11-08T12:44:19Z</time>
      </trkpt>
      <trkpt lat="43.78432" lon="4.16965">
        <ele>102.5</ele>
        <time>2019-11-08T12:44:22Z</time>
      </trkpt>
      <trkpt lat="43.78436" lon="4.16965">
        <ele>102.7</ele>
        <time>2019-11-08T12:44:25Z</time>
      </trkpt>
      <trkpt lat="43.78439" lon="4.16967">
        <ele>102.8</ele>
        <time>2019-11-08T12:44:26Z</time>
      </trkpt>
      <trkpt lat="43.78448" lon="4.16969">
        <ele>103.2</ele>
        <time>2019-11-08T12:44:29Z</time>
      </trkpt>
      <trkpt lat="43.78451" lon="4.1697">
        <ele>103.3</ele>
        <time>2019-11-08T12:44:30Z</time>
      </trkpt>
      <trkpt lat="43.78456" lon="4.16971">
        <ele>103.5</ele>
        <time>2019-11-08T12:44:32Z</time>
      </trkpt>
      <trkpt lat="43.78459" lon="4.16972">
        <ele>103.6</ele>
        <time>2019-11-08T12:44:33Z</time>
      </trkpt>
      <trkpt lat="43.78465" lon="4.16974">
        <ele>103.8</ele>
        <time>2019-11-08T12:44:37Z</time>
      </trkpt>
      <trkpt lat="43.78468" lon="4.16974">
        <ele>103.9</ele>
        <time>2019-11-08T12:44:38Z</time>
      </trkpt>
      <trkpt lat="43.78473" lon="4.16975">
        <ele>104.2</ele>
        <time>2019-11-08T12:44:41Z</time>
      </trkpt>
      <trkpt lat="43.78477" lon="4.16976">
        <ele>104.3</ele>
        <time>2019-11-08T12:44:42Z</time>
      </trkpt>
      <trkpt lat="43.78479" lon="4.16978">
        <ele>104.4</ele>
        <time>2019-11-08T12:44:43Z</time>
      </trkpt>
      <trkpt lat="43.78484" lon="4.1698">
        <ele>104.6</ele>
        <time>2019-11-08T12:44:46Z</time>
      </trkpt>
      <trkpt lat="43.78491" lon="4.16982">
        <ele>104.7</ele>
        <time>2019-11-08T12:44:49Z</time>
      </trkpt>
      <trkpt lat="43.78496" lon="4.16983">
        <ele>104.8</ele>
        <time>2019-11-08T12:44:52Z</time>
      </trkpt>
      <trkpt lat="43.785" lon="4.16989">
        <ele>104.9</ele>
        <time>2019-11-08T12:44:54Z</time>
      </trkpt>
      <trkpt lat="43.785" lon="4.16993">
        <ele>104.9</ele>
        <time>2019-11-08T12:44:57Z</time>
      </trkpt>
      <trkpt lat="43.78498" lon="4.16997">
        <ele>105</ele>
        <time>2019-11-08T12:45:02Z</time>
      </trkpt>
      <trkpt lat="43.78493" lon="4.16997">
        <ele>105</ele>
        <time>2019-11-08T12:45:05Z</time>
      </trkpt>
      <trkpt lat="43.78486" lon="4.17001">
        <ele>105.1</ele>
        <time>2019-11-08T12:45:08Z</time>
      </trkpt>
      <trkpt lat="43.78481" lon="4.17004">
        <ele>105.2</ele>
        <time>2019-11-08T12:45:11Z</time>
      </trkpt>
      <trkpt lat="43.78478" lon="4.17009">
        <ele>105.3</ele>
        <time>2019-11-08T12:45:12Z</time>
      </trkpt>
      <trkpt lat="43.78476" lon="4.17012">
        <ele>105.4</ele>
        <time>2019-11-08T12:45:15Z</time>
      </trkpt>
      <trkpt lat="43.78471" lon="4.17019">
        <ele>105.6</ele>
        <time>2019-11-08T12:45:18Z</time>
      </trkpt>
      <trkpt lat="43.78468" lon="4.17023">
        <ele>105.7</ele>
        <time>2019-11-08T12:45:20Z</time>
      </trkpt>
      <trkpt lat="43.78465" lon="4.17025">
        <ele>105.7</ele>
        <time>2019-11-08T12:45:21Z</time>
      </trkpt>
      <trkpt lat="43.78462" lon="4.17026">
        <ele>105.8</ele>
        <time>2019-11-08T12:45:23Z</time>
      </trkpt>
      <trkpt lat="43.78458" lon="4.1703">
        <ele>106</ele>
        <time>2019-11-08T12:45:26Z</time>
      </trkpt>
      <trkpt lat="43.78455" lon="4.17032">
        <ele>106.2</ele>
        <time>2019-11-08T12:45:27Z</time>
      </trkpt>
      <trkpt lat="43.78452" lon="4.17034">
        <ele>106.4</ele>
        <time>2019-11-08T12:45:29Z</time>
      </trkpt>
      <trkpt lat="43.78449" lon="4.17037">
        <ele>106.6</ele>
        <time>2019-11-08T12:45:30Z</time>
      </trkpt>
      <trkpt lat="43.78445" lon="4.1704">
        <ele>106.8</ele>
        <time>2019-11-08T12:45:32Z</time>
      </trkpt>
      <trkpt lat="43.7844" lon="4.17045">
        <ele>107.2</ele>
        <time>2019-11-08T12:45:34Z</time>
      </trkpt>
      <trkpt lat="43.78438" lon="4.17047">
        <ele>107.3</ele>
        <time>2019-11-08T12:45:37Z</time>
      </trkpt>
      <trkpt lat="43.78435" lon="4.17049">
        <ele>107.5</ele>
        <time>2019-11-08T12:45:38Z</time>
      </trkpt>
      <trkpt lat="43.78431" lon="4.17054">
        <ele>107.8</ele>
        <time>2019-11-08T12:45:41Z</time>
      </trkpt>
      <trkpt lat="43.7843" lon="4.17058">
        <ele>108</ele>
        <time>2019-11-08T12:45:42Z</time>
      </trkpt>
      <trkpt lat="43.78428" lon="4.17062">
        <ele>108.2</ele>
        <time>2019-11-08T12:45:45Z</time>
      </trkpt>
      <trkpt lat="43.78426" lon="4.17065">
        <ele>108.4</ele>
        <time>2019-11-08T12:45:46Z</time>
      </trkpt>
      <trkpt lat="43.78425" lon="4.17071">
        <ele>108.7</ele>
        <time>2019-11-08T12:45:47Z</time>
      </trkpt>
      <trkpt lat="43.78426" lon="4.17077">
        <ele>109</ele>
        <time>2019-11-08T12:45:48Z</time>
      </trkpt>
      <trkpt lat="43.78426" lon="4.17081">
        <ele>109.3</ele>
        <time>2019-11-08T12:45:50Z</time>
      </trkpt>
      <trkpt lat="43.78427" lon="4.17096">
        <ele>110.2</ele>
        <time>2019-11-08T12:45:55Z</time>
      </trkpt>
      <trkpt lat="43.78428" lon="4.171">
        <ele>110.4</ele>
        <time>2019-11-08T12:45:56Z</time>
      </trkpt>
      <trkpt lat="43.78432" lon="4.17109">
        <ele>111</ele>
        <time>2019-11-08T12:45:59Z</time>
      </trkpt>
      <trkpt lat="43.78436" lon="4.17113">
        <ele>111.3</ele>
        <time>2019-11-08T12:46:00Z</time>
      </trkpt>
      <trkpt lat="43.78442" lon="4.17121">
        <ele>111.9</ele>
        <time>2019-11-08T12:46:04Z</time>
      </trkpt>
      <trkpt lat="43.78445" lon="4.17123">
        <ele>112</ele>
        <time>2019-11-08T12:46:06Z</time>
      </trkpt>
      <trkpt lat="43.78449" lon="4.17128">
        <ele>112.4</ele>
        <time>2019-11-08T12:46:08Z</time>
      </trkpt>
      <trkpt lat="43.78452" lon="4.17132">
        <ele>112.7</ele>
        <time>2019-11-08T12:46:09Z</time>
      </trkpt>
      <trkpt lat="43.78456" lon="4.17136">
        <ele>113</ele>
        <time>2019-11-08T12:46:12Z</time>
      </trkpt>
      <trkpt lat="43.78458" lon="4.17137">
        <ele>113.2</ele>
        <time>2019-11-08T12:46:13Z</time>
      </trkpt>
      <trkpt lat="43.78461" lon="4.17139">
        <ele>113.4</ele>
        <time>2019-11-08T12:46:14Z</time>
      </trkpt>
      <trkpt lat="43.78465" lon="4.17141">
        <ele>113.7</ele>
        <time>2019-11-08T12:46:15Z</time>
      </trkpt>
      <trkpt lat="43.78469" lon="4.17144">
        <ele>114</ele>
        <time>2019-11-08T12:46:18Z</time>
      </trkpt>
      <trkpt lat="43.78473" lon="4.17148">
        <ele>114.4</ele>
        <time>2019-11-08T12:46:21Z</time>
      </trkpt>
      <trkpt lat="43.78477" lon="4.17152">
        <ele>114.8</ele>
        <time>2019-11-08T12:46:23Z</time>
      </trkpt>
      <trkpt lat="43.78481" lon="4.17151">
        <ele>115.1</ele>
        <time>2019-11-08T12:46:24Z</time>
      </trkpt>
      <trkpt lat="43.78485" lon="4.17148">
        <ele>115.4</ele>
        <time>2019-11-08T12:46:26Z</time>
      </trkpt>
      <trkpt lat="43.78487" lon="4.17143">
        <ele>115.1</ele>
        <time>2019-11-08T12:46:29Z</time>
      </trkpt>
      <trkpt lat="43.78492" lon="4.17136">
        <ele>114.8</ele>
        <time>2019-11-08T12:46:32Z</time>
      </trkpt>
      <trkpt lat="43.78498" lon="4.17132">
        <ele>114.3</ele>
        <time>2019-11-08T12:46:34Z</time>
      </trkpt>
      <trkpt lat="43.78503" lon="4.1713">
        <ele>114</ele>
        <time>2019-11-08T12:46:35Z</time>
      </trkpt>
      <trkpt lat="43.78507" lon="4.17131">
        <ele>113.6</ele>
        <time>2019-11-08T12:46:36Z</time>
      </trkpt>
      <trkpt lat="43.78511" lon="4.1713">
        <ele>113.3</ele>
        <time>2019-11-08T12:46:38Z</time>
      </trkpt>
      <trkpt lat="43.78514" lon="4.1713">
        <ele>112.9</ele>
        <time>2019-11-08T12:46:39Z</time>
      </trkpt>
      <trkpt lat="43.78519" lon="4.17126">
        <ele>112.3</ele>
        <time>2019-11-08T12:46:41Z</time>
      </trkpt>
      <trkpt lat="43.7852" lon="4.1712">
        <ele>111.8</ele>
        <time>2019-11-08T12:46:42Z</time>
      </trkpt>
      <trkpt lat="43.78525" lon="4.1711">
        <ele>110.8</ele>
        <time>2019-11-08T12:46:44Z</time>
      </trkpt>
      <trkpt lat="43.7853" lon="4.17108">
        <ele>110.1</ele>
        <time>2019-11-08T12:46:46Z</time>
      </trkpt>
      <trkpt lat="43.78533" lon="4.17106">
        <ele>109.6</ele>
        <time>2019-11-08T12:46:48Z</time>
      </trkpt>
      <trkpt lat="43.78539" lon="4.17108">
        <ele>109</ele>
        <time>2019-11-08T12:46:49Z</time>
      </trkpt>
      <trkpt lat="43.78542" lon="4.17109">
        <ele>108.6</ele>
        <time>2019-11-08T12:46:50Z</time>
      </trkpt>
      <trkpt lat="43.78546" lon="4.17108">
        <ele>108.2</ele>
        <time>2019-11-08T12:46:52Z</time>
      </trkpt>
      <trkpt lat="43.78551" lon="4.1711">
        <ele>107.8</ele>
        <time>2019-11-08T12:46:54Z</time>
      </trkpt>
      <trkpt lat="43.78554" lon="4.17111">
        <ele>107.5</ele>
        <time>2019-11-08T12:46:55Z</time>
      </trkpt>
      <trkpt lat="43.78559" lon="4.17114">
        <ele>107.2</ele>
        <time>2019-11-08T12:46:56Z</time>
      </trkpt>
      <trkpt lat="43.78562" lon="4.17115">
        <ele>107.1</ele>
        <time>2019-11-08T12:46:57Z</time>
      </trkpt>
      <trkpt lat="43.78566" lon="4.17114">
        <ele>107</ele>
        <time>2019-11-08T12:46:59Z</time>
      </trkpt>
      <trkpt lat="43.78569" lon="4.17112">
        <ele>106.9</ele>
        <time>2019-11-08T12:47:00Z</time>
      </trkpt>
      <trkpt lat="43.78575" lon="4.1711">
        <ele>106.9</ele>
        <time>2019-11-08T12:47:02Z</time>
      </trkpt>
      <trkpt lat="43.7858" lon="4.17112">
        <ele>106.8</ele>
        <time>2019-11-08T12:47:03Z</time>
      </trkpt>
      <trkpt lat="43.78584" lon="4.17114">
        <ele>106.8</ele>
        <time>2019-11-08T12:47:05Z</time>
      </trkpt>
      <trkpt lat="43.78588" lon="4.17115">
        <ele>106.8</ele>
        <time>2019-11-08T12:47:07Z</time>
      </trkpt>
      <trkpt lat="43.78593" lon="4.17111">
        <ele>106.8</ele>
        <time>2019-11-08T12:47:09Z</time>
      </trkpt>
      <trkpt lat="43.78596" lon="4.17107">
        <ele>106.8</ele>
        <time>2019-11-08T12:47:10Z</time>
      </trkpt>
      <trkpt lat="43.78599" lon="4.17102">
        <ele>106.8</ele>
        <time>2019-11-08T12:47:11Z</time>
      </trkpt>
      <trkpt lat="43.78605" lon="4.17091">
        <ele>106.8</ele>
        <time>2019-11-08T12:47:13Z</time>
      </trkpt>
      <trkpt lat="43.78612" lon="4.1708">
        <ele>106.8</ele>
        <time>2019-11-08T12:47:16Z</time>
      </trkpt>
      <trkpt lat="43.78616" lon="4.17072">
        <ele>106.8</ele>
        <time>2019-11-08T12:47:17Z</time>
      </trkpt>
      <trkpt lat="43.7862" lon="4.17063">
        <ele>107.4</ele>
        <time>2019-11-08T12:47:18Z</time>
      </trkpt>
      <trkpt lat="43.78624" lon="4.17053">
        <ele>107.6</ele>
        <time>2019-11-08T12:47:19Z</time>
      </trkpt>
      <trkpt lat="43.78628" lon="4.17044">
        <ele>107.8</ele>
        <time>2019-11-08T12:47:20Z</time>
      </trkpt>
      <trkpt lat="43.78632" lon="4.17035">
        <ele>108</ele>
        <time>2019-11-08T12:47:21Z</time>
      </trkpt>
      <trkpt lat="43.78636" lon="4.17028">
        <ele>108.2</ele>
        <time>2019-11-08T12:47:22Z</time>
      </trkpt>
      <trkpt lat="43.78642" lon="4.17021">
        <ele>108.3</ele>
        <time>2019-11-08T12:47:23Z</time>
      </trkpt>
      <trkpt lat="43.78653" lon="4.17009">
        <ele>108.5</ele>
        <time>2019-11-08T12:47:25Z</time>
      </trkpt>
      <trkpt lat="43.78661" lon="4.16998">
        <ele>108.5</ele>
        <time>2019-11-08T12:47:27Z</time>
      </trkpt>
      <trkpt lat="43.78665" lon="4.16993">
        <ele>108.5</ele>
        <time>2019-11-08T12:47:28Z</time>
      </trkpt>
      <trkpt lat="43.78672" lon="4.16983">
        <ele>107.8</ele>
        <time>2019-11-08T12:47:30Z</time>
      </trkpt>
      <trkpt lat="43.78682" lon="4.1697">
        <ele>107.2</ele>
        <time>2019-11-08T12:47:32Z</time>
      </trkpt>
      <trkpt lat="43.78689" lon="4.16965">
        <ele>107</ele>
        <time>2019-11-08T12:47:33Z</time>
      </trkpt>
      <trkpt lat="43.78695" lon="4.1696">
        <ele>106.7</ele>
        <time>2019-11-08T12:47:34Z</time>
      </trkpt>
      <trkpt lat="43.78701" lon="4.16956">
        <ele>106.4</ele>
        <time>2019-11-08T12:47:35Z</time>
      </trkpt>
      <trkpt lat="43.78712" lon="4.16947">
        <ele>105.7</ele>
        <time>2019-11-08T12:47:37Z</time>
      </trkpt>
      <trkpt lat="43.78719" lon="4.16941">
        <ele>105.4</ele>
        <time>2019-11-08T12:47:38Z</time>
      </trkpt>
      <trkpt lat="43.78733" lon="4.16932">
        <ele>104.9</ele>
        <time>2019-11-08T12:47:40Z</time>
      </trkpt>
      <trkpt lat="43.78746" lon="4.16916">
        <ele>104.8</ele>
        <time>2019-11-08T12:47:42Z</time>
      </trkpt>
      <trkpt lat="43.78754" lon="4.16899">
        <ele>104.9</ele>
        <time>2019-11-08T12:47:44Z</time>
      </trkpt>
      <trkpt lat="43.78754" lon="4.16888">
        <ele>105</ele>
        <time>2019-11-08T12:47:46Z</time>
      </trkpt>
      <trkpt lat="43.7875" lon="4.16881">
        <ele>105.1</ele>
        <time>2019-11-08T12:47:48Z</time>
      </trkpt>
      <trkpt lat="43.78749" lon="4.16878">
        <ele>105.5</ele>
        <time>2019-11-08T12:47:49Z</time>
      </trkpt>
      <trkpt lat="43.78748" lon="4.16869">
        <ele>105.8</ele>
        <time>2019-11-08T12:47:52Z</time>
      </trkpt>
      <trkpt lat="43.7875" lon="4.16863">
        <ele>106.1</ele>
        <time>2019-11-08T12:47:54Z</time>
      </trkpt>
      <trkpt lat="43.78751" lon="4.16854">
        <ele>106.4</ele>
        <time>2019-11-08T12:47:56Z</time>
      </trkpt>
      <trkpt lat="43.78753" lon="4.16842">
        <ele>107.1</ele>
        <time>2019-11-08T12:47:57Z</time>
      </trkpt>
      <trkpt lat="43.78754" lon="4.16836">
        <ele>107.1</ele>
        <time>2019-11-08T12:47:58Z</time>
      </trkpt>
      <trkpt lat="43.78755" lon="4.1683">
        <ele>107.1</ele>
        <time>2019-11-08T12:48:00Z</time>
      </trkpt>
      <trkpt lat="43.78758" lon="4.16823">
        <ele>107.1</ele>
        <time>2019-11-08T12:48:01Z</time>
      </trkpt>
      <trkpt lat="43.78761" lon="4.16815">
        <ele>107.1</ele>
        <time>2019-11-08T12:48:03Z</time>
      </trkpt>
      <trkpt lat="43.78769" lon="4.16797">
        <ele>107.1</ele>
        <time>2019-11-08T12:48:05Z</time>
      </trkpt>
      <trkpt lat="43.78772" lon="4.16789">
        <ele>107.2</ele>
        <time>2019-11-08T12:48:07Z</time>
      </trkpt>
      <trkpt lat="43.78784" lon="4.1676">
        <ele>107.4</ele>
        <time>2019-11-08T12:48:10Z</time>
      </trkpt>
      <trkpt lat="43.7879" lon="4.16744">
        <ele>107.9</ele>
        <time>2019-11-08T12:48:12Z</time>
      </trkpt>
      <trkpt lat="43.78795" lon="4.16729">
        <ele>108.3</ele>
        <time>2019-11-08T12:48:14Z</time>
      </trkpt>
      <trkpt lat="43.78797" lon="4.16724">
        <ele>108.4</ele>
        <time>2019-11-08T12:48:15Z</time>
      </trkpt>
      <trkpt lat="43.78804" lon="4.16714">
        <ele>108.6</ele>
        <time>2019-11-08T12:48:17Z</time>
      </trkpt>
      <trkpt lat="43.78808" lon="4.16703">
        <ele>108.8</ele>
        <time>2019-11-08T12:48:19Z</time>
      </trkpt>
      <trkpt lat="43.7881" lon="4.16697">
        <ele>108.9</ele>
        <time>2019-11-08T12:48:21Z</time>
      </trkpt>
      <trkpt lat="43.78817" lon="4.16673">
        <ele>109.3</ele>
        <time>2019-11-08T12:48:24Z</time>
      </trkpt>
      <trkpt lat="43.7882" lon="4.1666">
        <ele>109.5</ele>
        <time>2019-11-08T12:48:26Z</time>
      </trkpt>
      <trkpt lat="43.78824" lon="4.16649">
        <ele>109.9</ele>
        <time>2019-11-08T12:48:28Z</time>
      </trkpt>
      <trkpt lat="43.78826" lon="4.16644">
        <ele>110.2</ele>
        <time>2019-11-08T12:48:29Z</time>
      </trkpt>
      <trkpt lat="43.78826" lon="4.16639">
        <ele>110.5</ele>
        <time>2019-11-08T12:48:30Z</time>
      </trkpt>
      <trkpt lat="43.7883" lon="4.16634">
        <ele>111</ele>
        <time>2019-11-08T12:48:31Z</time>
      </trkpt>
      <trkpt lat="43.78835" lon="4.16629">
        <ele>111.5</ele>
        <time>2019-11-08T12:48:33Z</time>
      </trkpt>
      <trkpt lat="43.7884" lon="4.16624">
        <ele>112.1</ele>
        <time>2019-11-08T12:48:34Z</time>
      </trkpt>
      <trkpt lat="43.78843" lon="4.1662">
        <ele>112.5</ele>
        <time>2019-11-08T12:48:36Z</time>
      </trkpt>
      <trkpt lat="43.78845" lon="4.16617">
        <ele>112.7</ele>
        <time>2019-11-08T12:48:37Z</time>
      </trkpt>
      <trkpt lat="43.7885" lon="4.16612">
        <ele>113</ele>
        <time>2019-11-08T12:48:39Z</time>
      </trkpt>
      <trkpt lat="43.78856" lon="4.16605">
        <ele>113.4</ele>
        <time>2019-11-08T12:48:41Z</time>
      </trkpt>
      <trkpt lat="43.78858" lon="4.166">
        <ele>113.8</ele>
        <time>2019-11-08T12:48:43Z</time>
      </trkpt>
      <trkpt lat="43.7886" lon="4.16596">
        <ele>114</ele>
        <time>2019-11-08T12:48:44Z</time>
      </trkpt>
      <trkpt lat="43.78864" lon="4.16587">
        <ele>114.9</ele>
        <time>2019-11-08T12:48:46Z</time>
      </trkpt>
      <trkpt lat="43.78867" lon="4.16583">
        <ele>115.3</ele>
        <time>2019-11-08T12:48:48Z</time>
      </trkpt>
      <trkpt lat="43.7887" lon="4.16579">
        <ele>115.8</ele>
        <time>2019-11-08T12:48:49Z</time>
      </trkpt>
      <trkpt lat="43.78873" lon="4.16576">
        <ele>116.3</ele>
        <time>2019-11-08T12:48:51Z</time>
      </trkpt>
      <trkpt lat="43.78877" lon="4.16573">
        <ele>116.7</ele>
        <time>2019-11-08T12:48:52Z</time>
      </trkpt>
      <trkpt lat="43.7888" lon="4.16571">
        <ele>116.9</ele>
        <time>2019-11-08T12:48:54Z</time>
      </trkpt>
      <trkpt lat="43.78883" lon="4.16568">
        <ele>117.2</ele>
        <time>2019-11-08T12:48:56Z</time>
      </trkpt>
      <trkpt lat="43.78887" lon="4.16565">
        <ele>117.5</ele>
        <time>2019-11-08T12:48:58Z</time>
      </trkpt>
      <trkpt lat="43.78891" lon="4.16557">
        <ele>117.8</ele>
        <time>2019-11-08T12:49:00Z</time>
      </trkpt>
      <trkpt lat="43.78893" lon="4.16554">
        <ele>118</ele>
        <time>2019-11-08T12:49:01Z</time>
      </trkpt>
      <trkpt lat="43.78896" lon="4.16549">
        <ele>118.2</ele>
        <time>2019-11-08T12:49:02Z</time>
      </trkpt>
      <trkpt lat="43.78904" lon="4.16539">
        <ele>118.7</ele>
        <time>2019-11-08T12:49:06Z</time>
      </trkpt>
      <trkpt lat="43.7891" lon="4.16532">
        <ele>119</ele>
        <time>2019-11-08T12:49:09Z</time>
      </trkpt>
      <trkpt lat="43.78916" lon="4.16525">
        <ele>119.3</ele>
        <time>2019-11-08T12:49:11Z</time>
      </trkpt>
      <trkpt lat="43.78918" lon="4.16523">
        <ele>119.4</ele>
        <time>2019-11-08T12:49:12Z</time>
      </trkpt>
      <trkpt lat="43.78923" lon="4.16518">
        <ele>119.6</ele>
        <time>2019-11-08T12:49:13Z</time>
      </trkpt>
      <trkpt lat="43.78936" lon="4.16506">
        <ele>120</ele>
        <time>2019-11-08T12:49:18Z</time>
      </trkpt>
      <trkpt lat="43.78945" lon="4.16495">
        <ele>120.1</ele>
        <time>2019-11-08T12:49:21Z</time>
      </trkpt>
      <trkpt lat="43.78955" lon="4.16487">
        <ele>120.1</ele>
        <time>2019-11-08T12:49:24Z</time>
      </trkpt>
      <trkpt lat="43.78959" lon="4.16486">
        <ele>120.1</ele>
        <time>2019-11-08T12:49:25Z</time>
      </trkpt>
      <trkpt lat="43.78962" lon="4.16484">
        <ele>120.1</ele>
        <time>2019-11-08T12:49:26Z</time>
      </trkpt>
      <trkpt lat="43.78966" lon="4.16485">
        <ele>120</ele>
        <time>2019-11-08T12:49:27Z</time>
      </trkpt>
      <trkpt lat="43.78971" lon="4.16483">
        <ele>119.9</ele>
        <time>2019-11-08T12:49:30Z</time>
      </trkpt>
      <trkpt lat="43.78979" lon="4.16476">
        <ele>119.6</ele>
        <time>2019-11-08T12:49:32Z</time>
      </trkpt>
      <trkpt lat="43.78983" lon="4.16472">
        <ele>119.3</ele>
        <time>2019-11-08T12:49:34Z</time>
      </trkpt>
      <trkpt lat="43.78989" lon="4.16465">
        <ele>119</ele>
        <time>2019-11-08T12:49:35Z</time>
      </trkpt>
      <trkpt lat="43.78999" lon="4.16457">
        <ele>118.7</ele>
        <time>2019-11-08T12:49:37Z</time>
      </trkpt>
      <trkpt lat="43.79004" lon="4.16451">
        <ele>118.6</ele>
        <time>2019-11-08T12:49:38Z</time>
      </trkpt>
      <trkpt lat="43.79014" lon="4.16443">
        <ele>118.4</ele>
        <time>2019-11-08T12:49:40Z</time>
      </trkpt>
      <trkpt lat="43.79022" lon="4.16434">
        <ele>118.3</ele>
        <time>2019-11-08T12:49:42Z</time>
      </trkpt>
      <trkpt lat="43.79026" lon="4.1643">
        <ele>118.3</ele>
        <time>2019-11-08T12:49:43Z</time>
      </trkpt>
      <trkpt lat="43.79037" lon="4.1642">
        <ele>118.3</ele>
        <time>2019-11-08T12:49:45Z</time>
      </trkpt>
      <trkpt lat="43.79042" lon="4.16416">
        <ele>118.3</ele>
        <time>2019-11-08T12:49:46Z</time>
      </trkpt>
      <trkpt lat="43.79047" lon="4.16412">
        <ele>118.3</ele>
        <time>2019-11-08T12:49:47Z</time>
      </trkpt>
      <trkpt lat="43.79057" lon="4.16402">
        <ele>118.3</ele>
        <time>2019-11-08T12:49:49Z</time>
      </trkpt>
      <trkpt lat="43.79066" lon="4.16391">
        <ele>118.3</ele>
        <time>2019-11-08T12:49:51Z</time>
      </trkpt>
      <trkpt lat="43.7907" lon="4.16385">
        <ele>118.3</ele>
        <time>2019-11-08T12:49:52Z</time>
      </trkpt>
      <trkpt lat="43.79073" lon="4.1638">
        <ele>118.4</ele>
        <time>2019-11-08T12:49:53Z</time>
      </trkpt>
      <trkpt lat="43.79077" lon="4.16375">
        <ele>118.4</ele>
        <time>2019-11-08T12:49:54Z</time>
      </trkpt>
      <trkpt lat="43.7908" lon="4.1637">
        <ele>118.5</ele>
        <time>2019-11-08T12:49:55Z</time>
      </trkpt>
      <trkpt lat="43.79086" lon="4.16357">
        <ele>119</ele>
        <time>2019-11-08T12:49:57Z</time>
      </trkpt>
      <trkpt lat="43.79089" lon="4.16351">
        <ele>119.3</ele>
        <time>2019-11-08T12:49:58Z</time>
      </trkpt>
      <trkpt lat="43.79094" lon="4.16339">
        <ele>120.1</ele>
        <time>2019-11-08T12:50:00Z</time>
      </trkpt>
      <trkpt lat="43.79096" lon="4.16333">
        <ele>120.5</ele>
        <time>2019-11-08T12:50:01Z</time>
      </trkpt>
      <trkpt lat="43.79099" lon="4.16328">
        <ele>120.9</ele>
        <time>2019-11-08T12:50:02Z</time>
      </trkpt>
      <trkpt lat="43.79101" lon="4.16323">
        <ele>121.3</ele>
        <time>2019-11-08T12:50:03Z</time>
      </trkpt>
      <trkpt lat="43.79103" lon="4.16319">
        <ele>121.6</ele>
        <time>2019-11-08T12:50:04Z</time>
      </trkpt>
      <trkpt lat="43.79105" lon="4.16314">
        <ele>121.9</ele>
        <time>2019-11-08T12:50:05Z</time>
      </trkpt>
      <trkpt lat="43.79109" lon="4.16307">
        <ele>122.5</ele>
        <time>2019-11-08T12:50:07Z</time>
      </trkpt>
      <trkpt lat="43.79111" lon="4.16304">
        <ele>122.7</ele>
        <time>2019-11-08T12:50:08Z</time>
      </trkpt>
      <trkpt lat="43.79114" lon="4.16296">
        <ele>123.3</ele>
        <time>2019-11-08T12:50:10Z</time>
      </trkpt>
      <trkpt lat="43.79114" lon="4.16292">
        <ele>123.5</ele>
        <time>2019-11-08T12:50:11Z</time>
      </trkpt>
      <trkpt lat="43.79115" lon="4.16283">
        <ele>124</ele>
        <time>2019-11-08T12:50:13Z</time>
      </trkpt>
      <trkpt lat="43.79116" lon="4.16278">
        <ele>124.3</ele>
        <time>2019-11-08T12:50:15Z</time>
      </trkpt>
      <trkpt lat="43.79118" lon="4.16265">
        <ele>124.8</ele>
        <time>2019-11-08T12:50:16Z</time>
      </trkpt>
      <trkpt lat="43.79119" lon="4.16258">
        <ele>125.2</ele>
        <time>2019-11-08T12:50:18Z</time>
      </trkpt>
      <trkpt lat="43.79121" lon="4.16253">
        <ele>125.4</ele>
        <time>2019-11-08T12:50:20Z</time>
      </trkpt>
      <trkpt lat="43.79121" lon="4.16245">
        <ele>125.9</ele>
        <time>2019-11-08T12:50:21Z</time>
      </trkpt>
      <trkpt lat="43.79122" lon="4.1624">
        <ele>126.1</ele>
        <time>2019-11-08T12:50:23Z</time>
      </trkpt>
      <trkpt lat="43.79122" lon="4.16236">
        <ele>126.4</ele>
        <time>2019-11-08T12:50:24Z</time>
      </trkpt>
      <trkpt lat="43.79123" lon="4.16229">
        <ele>126.8</ele>
        <time>2019-11-08T12:50:25Z</time>
      </trkpt>
      <trkpt lat="43.79124" lon="4.16225">
        <ele>126.9</ele>
        <time>2019-11-08T12:50:26Z</time>
      </trkpt>
      <trkpt lat="43.79124" lon="4.1622">
        <ele>127.2</ele>
        <time>2019-11-08T12:50:27Z</time>
      </trkpt>
      <trkpt lat="43.79124" lon="4.16215">
        <ele>127.3</ele>
        <time>2019-11-08T12:50:28Z</time>
      </trkpt>
      <trkpt lat="43.79125" lon="4.16208">
        <ele>127.7</ele>
        <time>2019-11-08T12:50:32Z</time>
      </trkpt>
      <trkpt lat="43.79126" lon="4.16198">
        <ele>128.2</ele>
        <time>2019-11-08T12:50:34Z</time>
      </trkpt>
      <trkpt lat="43.79127" lon="4.16194">
        <ele>128.4</ele>
        <time>2019-11-08T12:50:36Z</time>
      </trkpt>
      <trkpt lat="43.79129" lon="4.16185">
        <ele>128.9</ele>
        <time>2019-11-08T12:50:38Z</time>
      </trkpt>
      <trkpt lat="43.79131" lon="4.1618">
        <ele>129.2</ele>
        <time>2019-11-08T12:50:39Z</time>
      </trkpt>
      <trkpt lat="43.79132" lon="4.16169">
        <ele>129.7</ele>
        <time>2019-11-08T12:50:40Z</time>
      </trkpt>
      <trkpt lat="43.79133" lon="4.16165">
        <ele>129.9</ele>
        <time>2019-11-08T12:50:42Z</time>
      </trkpt>
      <trkpt lat="43.79133" lon="4.16158">
        <ele>130.2</ele>
        <time>2019-11-08T12:50:43Z</time>
      </trkpt>
      <trkpt lat="43.79134" lon="4.16153">
        <ele>130.6</ele>
        <time>2019-11-08T12:50:46Z</time>
      </trkpt>
      <trkpt lat="43.79135" lon="4.16144">
        <ele>131</ele>
        <time>2019-11-08T12:50:48Z</time>
      </trkpt>
      <trkpt lat="43.79136" lon="4.16138">
        <ele>131.2</ele>
        <time>2019-11-08T12:50:51Z</time>
      </trkpt>
      <trkpt lat="43.79136" lon="4.16133">
        <ele>131.4</ele>
        <time>2019-11-08T12:50:52Z</time>
      </trkpt>
      <trkpt lat="43.79136" lon="4.16128">
        <ele>131.7</ele>
        <time>2019-11-08T12:50:53Z</time>
      </trkpt>
      <trkpt lat="43.79138" lon="4.16119">
        <ele>132.2</ele>
        <time>2019-11-08T12:50:55Z</time>
      </trkpt>
      <trkpt lat="43.79139" lon="4.16114">
        <ele>132.4</ele>
        <time>2019-11-08T12:50:56Z</time>
      </trkpt>
      <trkpt lat="43.7914" lon="4.16109">
        <ele>132.7</ele>
        <time>2019-11-08T12:50:59Z</time>
      </trkpt>
      <trkpt lat="43.79142" lon="4.16101">
        <ele>133.1</ele>
        <time>2019-11-08T12:51:01Z</time>
      </trkpt>
      <trkpt lat="43.79144" lon="4.16085">
        <ele>133.7</ele>
        <time>2019-11-08T12:51:05Z</time>
      </trkpt>
      <trkpt lat="43.79146" lon="4.16078">
        <ele>134</ele>
        <time>2019-11-08T12:51:06Z</time>
      </trkpt>
      <trkpt lat="43.79148" lon="4.16068">
        <ele>134.4</ele>
        <time>2019-11-08T12:51:10Z</time>
      </trkpt>
      <trkpt lat="43.79148" lon="4.16064">
        <ele>134.6</ele>
        <time>2019-11-08T12:51:11Z</time>
      </trkpt>
      <trkpt lat="43.79149" lon="4.16059">
        <ele>134.8</ele>
        <time>2019-11-08T12:51:12Z</time>
      </trkpt>
      <trkpt lat="43.79152" lon="4.16052">
        <ele>135.2</ele>
        <time>2019-11-08T12:51:13Z</time>
      </trkpt>
      <trkpt lat="43.79154" lon="4.16047">
        <ele>135.5</ele>
        <time>2019-11-08T12:51:15Z</time>
      </trkpt>
      <trkpt lat="43.79156" lon="4.16042">
        <ele>135.7</ele>
        <time>2019-11-08T12:51:16Z</time>
      </trkpt>
      <trkpt lat="43.79158" lon="4.16039">
        <ele>135.8</ele>
        <time>2019-11-08T12:51:17Z</time>
      </trkpt>
      <trkpt lat="43.7916" lon="4.16034">
        <ele>136.1</ele>
        <time>2019-11-08T12:51:18Z</time>
      </trkpt>
      <trkpt lat="43.79162" lon="4.16028">
        <ele>136.4</ele>
        <time>2019-11-08T12:51:20Z</time>
      </trkpt>
      <trkpt lat="43.79164" lon="4.16025">
        <ele>136.6</ele>
        <time>2019-11-08T12:51:22Z</time>
      </trkpt>
      <trkpt lat="43.79166" lon="4.16021">
        <ele>136.8</ele>
        <time>2019-11-08T12:51:23Z</time>
      </trkpt>
      <trkpt lat="43.7917" lon="4.16014">
        <ele>137.4</ele>
        <time>2019-11-08T12:51:24Z</time>
      </trkpt>
      <trkpt lat="43.79173" lon="4.1601">
        <ele>137.8</ele>
        <time>2019-11-08T12:51:27Z</time>
      </trkpt>
      <trkpt lat="43.79178" lon="4.16006">
        <ele>138.4</ele>
        <time>2019-11-08T12:51:29Z</time>
      </trkpt>
      <trkpt lat="43.79181" lon="4.16005">
        <ele>138.6</ele>
        <time>2019-11-08T12:51:30Z</time>
      </trkpt>
      <trkpt lat="43.79184" lon="4.16002">
        <ele>138.9</ele>
        <time>2019-11-08T12:51:31Z</time>
      </trkpt>
      <trkpt lat="43.7919" lon="4.15998">
        <ele>139.3</ele>
        <time>2019-11-08T12:51:34Z</time>
      </trkpt>
      <trkpt lat="43.79193" lon="4.15996">
        <ele>139.5</ele>
        <time>2019-11-08T12:51:35Z</time>
      </trkpt>
      <trkpt lat="43.79196" lon="4.15993">
        <ele>139.7</ele>
        <time>2019-11-08T12:51:36Z</time>
      </trkpt>
      <trkpt lat="43.792" lon="4.15991">
        <ele>139.8</ele>
        <time>2019-11-08T12:51:38Z</time>
      </trkpt>
      <trkpt lat="43.79207" lon="4.15989">
        <ele>140.1</ele>
        <time>2019-11-08T12:51:40Z</time>
      </trkpt>
      <trkpt lat="43.79209" lon="4.15988">
        <ele>140.2</ele>
        <time>2019-11-08T12:51:41Z</time>
      </trkpt>
      <trkpt lat="43.79212" lon="4.15986">
        <ele>140.3</ele>
        <time>2019-11-08T12:51:43Z</time>
      </trkpt>
      <trkpt lat="43.79219" lon="4.1598">
        <ele>140.5</ele>
        <time>2019-11-08T12:51:45Z</time>
      </trkpt>
      <trkpt lat="43.79221" lon="4.15975">
        <ele>140.5</ele>
        <time>2019-11-08T12:51:46Z</time>
      </trkpt>
      <trkpt lat="43.79225" lon="4.15964">
        <ele>140.7</ele>
        <time>2019-11-08T12:51:48Z</time>
      </trkpt>
      <trkpt lat="43.79228" lon="4.15957">
        <ele>140.8</ele>
        <time>2019-11-08T12:51:49Z</time>
      </trkpt>
      <trkpt lat="43.7923" lon="4.1595">
        <ele>140.9</ele>
        <time>2019-11-08T12:51:51Z</time>
      </trkpt>
      <trkpt lat="43.79236" lon="4.15933">
        <ele>141.6</ele>
        <time>2019-11-08T12:51:53Z</time>
      </trkpt>
      <trkpt lat="43.79238" lon="4.1593">
        <ele>141.8</ele>
        <time>2019-11-08T12:51:55Z</time>
      </trkpt>
      <trkpt lat="43.79239" lon="4.15925">
        <ele>142.1</ele>
        <time>2019-11-08T12:51:56Z</time>
      </trkpt>
      <trkpt lat="43.79242" lon="4.1592">
        <ele>142.4</ele>
        <time>2019-11-08T12:51:57Z</time>
      </trkpt>
      <trkpt lat="43.79246" lon="4.15913">
        <ele>142.8</ele>
        <time>2019-11-08T12:52:00Z</time>
      </trkpt>
      <trkpt lat="43.79247" lon="4.15908">
        <ele>143</ele>
        <time>2019-11-08T12:52:01Z</time>
      </trkpt>
      <trkpt lat="43.79248" lon="4.159">
        <ele>143.3</ele>
        <time>2019-11-08T12:52:02Z</time>
      </trkpt>
      <trkpt lat="43.79248" lon="4.15894">
        <ele>143.5</ele>
        <time>2019-11-08T12:52:04Z</time>
      </trkpt>
      <trkpt lat="43.79251" lon="4.15885">
        <ele>143.8</ele>
        <time>2019-11-08T12:52:06Z</time>
      </trkpt>
      <trkpt lat="43.79259" lon="4.15875">
        <ele>144.2</ele>
        <time>2019-11-08T12:52:08Z</time>
      </trkpt>
      <trkpt lat="43.79262" lon="4.15875">
        <ele>144.4</ele>
        <time>2019-11-08T12:52:10Z</time>
      </trkpt>
      <trkpt lat="43.79266" lon="4.15875">
        <ele>144.7</ele>
        <time>2019-11-08T12:52:11Z</time>
      </trkpt>
      <trkpt lat="43.79271" lon="4.15876">
        <ele>144.9</ele>
        <time>2019-11-08T12:52:12Z</time>
      </trkpt>
      <trkpt lat="43.79274" lon="4.15878">
        <ele>145</ele>
        <time>2019-11-08T12:52:13Z</time>
      </trkpt>
      <trkpt lat="43.79277" lon="4.15879">
        <ele>145.2</ele>
        <time>2019-11-08T12:52:14Z</time>
      </trkpt>
      <trkpt lat="43.7928" lon="4.15881">
        <ele>145.3</ele>
        <time>2019-11-08T12:52:16Z</time>
      </trkpt>
      <trkpt lat="43.79284" lon="4.15884">
        <ele>145.5</ele>
        <time>2019-11-08T12:52:17Z</time>
      </trkpt>
      <trkpt lat="43.79287" lon="4.15886">
        <ele>145.6</ele>
        <time>2019-11-08T12:52:19Z</time>
      </trkpt>
      <trkpt lat="43.79291" lon="4.15888">
        <ele>145.8</ele>
        <time>2019-11-08T12:52:20Z</time>
      </trkpt>
      <trkpt lat="43.79295" lon="4.1589">
        <ele>146</ele>
        <time>2019-11-08T12:52:21Z</time>
      </trkpt>
      <trkpt lat="43.79298" lon="4.15893">
        <ele>146.2</ele>
        <time>2019-11-08T12:52:23Z</time>
      </trkpt>
      <trkpt lat="43.79302" lon="4.15898">
        <ele>146.5</ele>
        <time>2019-11-08T12:52:25Z</time>
      </trkpt>
      <trkpt lat="43.79306" lon="4.15903">
        <ele>146.7</ele>
        <time>2019-11-08T12:52:26Z</time>
      </trkpt>
      <trkpt lat="43.7931" lon="4.15908">
        <ele>146.9</ele>
        <time>2019-11-08T12:52:28Z</time>
      </trkpt>
      <trkpt lat="43.79314" lon="4.15913">
        <ele>147</ele>
        <time>2019-11-08T12:52:29Z</time>
      </trkpt>
      <trkpt lat="43.79318" lon="4.15916">
        <ele>147</ele>
        <time>2019-11-08T12:52:31Z</time>
      </trkpt>
      <trkpt lat="43.79326" lon="4.15922">
        <ele>147.2</ele>
        <time>2019-11-08T12:52:33Z</time>
      </trkpt>
      <trkpt lat="43.79334" lon="4.15926">
        <ele>147.3</ele>
        <time>2019-11-08T12:52:35Z</time>
      </trkpt>
      <trkpt lat="43.79339" lon="4.15928">
        <ele>147.4</ele>
        <time>2019-11-08T12:52:36Z</time>
      </trkpt>
      <trkpt lat="43.79343" lon="4.15929">
        <ele>147.4</ele>
        <time>2019-11-08T12:52:38Z</time>
      </trkpt>
      <trkpt lat="43.79348" lon="4.15931">
        <ele>147.4</ele>
        <time>2019-11-08T12:52:39Z</time>
      </trkpt>
      <trkpt lat="43.79353" lon="4.15932">
        <ele>147.4</ele>
        <time>2019-11-08T12:52:40Z</time>
      </trkpt>
      <trkpt lat="43.79358" lon="4.15933">
        <ele>147.4</ele>
        <time>2019-11-08T12:52:41Z</time>
      </trkpt>
      <trkpt lat="43.79364" lon="4.15935">
        <ele>147.4</ele>
        <time>2019-11-08T12:52:42Z</time>
      </trkpt>
      <trkpt lat="43.79369" lon="4.15936">
        <ele>147.4</ele>
        <time>2019-11-08T12:52:44Z</time>
      </trkpt>
      <trkpt lat="43.79375" lon="4.15936">
        <ele>147.4</ele>
        <time>2019-11-08T12:52:45Z</time>
      </trkpt>
      <trkpt lat="43.79379" lon="4.15934">
        <ele>147.4</ele>
        <time>2019-11-08T12:52:46Z</time>
      </trkpt>
      <trkpt lat="43.79385" lon="4.15927">
        <ele>147.5</ele>
        <time>2019-11-08T12:52:48Z</time>
      </trkpt>
      <trkpt lat="43.79394" lon="4.15916">
        <ele>147.1</ele>
        <time>2019-11-08T12:52:50Z</time>
      </trkpt>
      <trkpt lat="43.79401" lon="4.15908">
        <ele>147</ele>
        <time>2019-11-08T12:52:52Z</time>
      </trkpt>
      <trkpt lat="43.79405" lon="4.15904">
        <ele>146.9</ele>
        <time>2019-11-08T12:52:53Z</time>
      </trkpt>
      <trkpt lat="43.7941" lon="4.15902">
        <ele>146.9</ele>
        <time>2019-11-08T12:52:54Z</time>
      </trkpt>
      <trkpt lat="43.79414" lon="4.15899">
        <ele>146.9</ele>
        <time>2019-11-08T12:52:55Z</time>
      </trkpt>
      <trkpt lat="43.79418" lon="4.15897">
        <ele>146.9</ele>
        <time>2019-11-08T12:52:56Z</time>
      </trkpt>
      <trkpt lat="43.79425" lon="4.15897">
        <ele>146.8</ele>
        <time>2019-11-08T12:52:57Z</time>
      </trkpt>
      <trkpt lat="43.79433" lon="4.15894">
        <ele>146.9</ele>
        <time>2019-11-08T12:52:59Z</time>
      </trkpt>
      <trkpt lat="43.79438" lon="4.15891">
        <ele>146.9</ele>
        <time>2019-11-08T12:53:00Z</time>
      </trkpt>
      <trkpt lat="43.79447" lon="4.15885">
        <ele>147</ele>
        <time>2019-11-08T12:53:02Z</time>
      </trkpt>
      <trkpt lat="43.79452" lon="4.15882">
        <ele>147</ele>
        <time>2019-11-08T12:53:03Z</time>
      </trkpt>
      <trkpt lat="43.79457" lon="4.15881">
        <ele>147</ele>
        <time>2019-11-08T12:53:04Z</time>
      </trkpt>
      <trkpt lat="43.79462" lon="4.15879">
        <ele>147.1</ele>
        <time>2019-11-08T12:53:05Z</time>
      </trkpt>
      <trkpt lat="43.79472" lon="4.15875">
        <ele>147.1</ele>
        <time>2019-11-08T12:53:07Z</time>
      </trkpt>
      <trkpt lat="43.79477" lon="4.15872">
        <ele>147.1</ele>
        <time>2019-11-08T12:53:08Z</time>
      </trkpt>
      <trkpt lat="43.79487" lon="4.15869">
        <ele>147.2</ele>
        <time>2019-11-08T12:53:10Z</time>
      </trkpt>
      <trkpt lat="43.79492" lon="4.15868">
        <ele>147.2</ele>
        <time>2019-11-08T12:53:11Z</time>
      </trkpt>
      <trkpt lat="43.79498" lon="4.15866">
        <ele>147.3</ele>
        <time>2019-11-08T12:53:12Z</time>
      </trkpt>
      <trkpt lat="43.79508" lon="4.15862">
        <ele>147.4</ele>
        <time>2019-11-08T12:53:14Z</time>
      </trkpt>
      <trkpt lat="43.79513" lon="4.1586">
        <ele>147.4</ele>
        <time>2019-11-08T12:53:15Z</time>
      </trkpt>
      <trkpt lat="43.79518" lon="4.15859">
        <ele>147.4</ele>
        <time>2019-11-08T12:53:16Z</time>
      </trkpt>
      <trkpt lat="43.79528" lon="4.15855">
        <ele>147.5</ele>
        <time>2019-11-08T12:53:18Z</time>
      </trkpt>
      <trkpt lat="43.79533" lon="4.15853">
        <ele>147.5</ele>
        <time>2019-11-08T12:53:19Z</time>
      </trkpt>
      <trkpt lat="43.79544" lon="4.15849">
        <ele>147.5</ele>
        <time>2019-11-08T12:53:21Z</time>
      </trkpt>
      <trkpt lat="43.79554" lon="4.15844">
        <ele>147.5</ele>
        <time>2019-11-08T12:53:23Z</time>
      </trkpt>
      <trkpt lat="43.79559" lon="4.15841">
        <ele>147.5</ele>
        <time>2019-11-08T12:53:24Z</time>
      </trkpt>
      <trkpt lat="43.79569" lon="4.15836">
        <ele>147.5</ele>
        <time>2019-11-08T12:53:26Z</time>
      </trkpt>
      <trkpt lat="43.79579" lon="4.15833">
        <ele>147.6</ele>
        <time>2019-11-08T12:53:28Z</time>
      </trkpt>
      <trkpt lat="43.79589" lon="4.1583">
        <ele>147.6</ele>
        <time>2019-11-08T12:53:30Z</time>
      </trkpt>
      <trkpt lat="43.79593" lon="4.1583">
        <ele>147.6</ele>
        <time>2019-11-08T12:53:31Z</time>
      </trkpt>
      <trkpt lat="43.79604" lon="4.15828">
        <ele>147.7</ele>
        <time>2019-11-08T12:53:33Z</time>
      </trkpt>
      <trkpt lat="43.79609" lon="4.15826">
        <ele>147.8</ele>
        <time>2019-11-08T12:53:34Z</time>
      </trkpt>
      <trkpt lat="43.79619" lon="4.15823">
        <ele>148.1</ele>
        <time>2019-11-08T12:53:36Z</time>
      </trkpt>
      <trkpt lat="43.7963" lon="4.15821">
        <ele>148.6</ele>
        <time>2019-11-08T12:53:38Z</time>
      </trkpt>
      <trkpt lat="43.7964" lon="4.15817">
        <ele>149</ele>
        <time>2019-11-08T12:53:40Z</time>
      </trkpt>
      <trkpt lat="43.79646" lon="4.15814">
        <ele>149.2</ele>
        <time>2019-11-08T12:53:41Z</time>
      </trkpt>
      <trkpt lat="43.79656" lon="4.1581">
        <ele>149.6</ele>
        <time>2019-11-08T12:53:43Z</time>
      </trkpt>
      <trkpt lat="43.79666" lon="4.15805">
        <ele>149.8</ele>
        <time>2019-11-08T12:53:45Z</time>
      </trkpt>
      <trkpt lat="43.79671" lon="4.15802">
        <ele>149.9</ele>
        <time>2019-11-08T12:53:46Z</time>
      </trkpt>
      <trkpt lat="43.79678" lon="4.15795">
        <ele>150</ele>
        <time>2019-11-08T12:53:48Z</time>
      </trkpt>
      <trkpt lat="43.79681" lon="4.1579">
        <ele>150</ele>
        <time>2019-11-08T12:53:49Z</time>
      </trkpt>
      <trkpt lat="43.79686" lon="4.1578">
        <ele>150</ele>
        <time>2019-11-08T12:53:51Z</time>
      </trkpt>
      <trkpt lat="43.79688" lon="4.15776">
        <ele>150</ele>
        <time>2019-11-08T12:53:52Z</time>
      </trkpt>
      <trkpt lat="43.7969" lon="4.15771">
        <ele>149.9</ele>
        <time>2019-11-08T12:53:53Z</time>
      </trkpt>
      <trkpt lat="43.79694" lon="4.15762">
        <ele>149.9</ele>
        <time>2019-11-08T12:53:55Z</time>
      </trkpt>
      <trkpt lat="43.79699" lon="4.15753">
        <ele>150.1</ele>
        <time>2019-11-08T12:53:57Z</time>
      </trkpt>
      <trkpt lat="43.79706" lon="4.15748">
        <ele>150.5</ele>
        <time>2019-11-08T12:53:59Z</time>
      </trkpt>
      <trkpt lat="43.79711" lon="4.15747">
        <ele>150.6</ele>
        <time>2019-11-08T12:54:00Z</time>
      </trkpt>
      <trkpt lat="43.79715" lon="4.15748">
        <ele>150.7</ele>
        <time>2019-11-08T12:54:02Z</time>
      </trkpt>
      <trkpt lat="43.79722" lon="4.15748">
        <ele>151</ele>
        <time>2019-11-08T12:54:03Z</time>
      </trkpt>
      <trkpt lat="43.79729" lon="4.15748">
        <ele>151.2</ele>
        <time>2019-11-08T12:54:04Z</time>
      </trkpt>
      <trkpt lat="43.79733" lon="4.15748">
        <ele>151.2</ele>
        <time>2019-11-08T12:54:06Z</time>
      </trkpt>
      <trkpt lat="43.79739" lon="4.1575">
        <ele>151.4</ele>
        <time>2019-11-08T12:54:07Z</time>
      </trkpt>
      <trkpt lat="43.79744" lon="4.15752">
        <ele>151.5</ele>
        <time>2019-11-08T12:54:09Z</time>
      </trkpt>
      <trkpt lat="43.79747" lon="4.15755">
        <ele>151.6</ele>
        <time>2019-11-08T12:54:11Z</time>
      </trkpt>
      <trkpt lat="43.79752" lon="4.15759">
        <ele>151.6</ele>
        <time>2019-11-08T12:54:13Z</time>
      </trkpt>
      <trkpt lat="43.79753" lon="4.15762">
        <ele>151.7</ele>
        <time>2019-11-08T12:54:15Z</time>
      </trkpt>
      <trkpt lat="43.79755" lon="4.15765">
        <ele>151.6</ele>
        <time>2019-11-08T12:54:16Z</time>
      </trkpt>
      <trkpt lat="43.79757" lon="4.15771">
        <ele>151.6</ele>
        <time>2019-11-08T12:54:17Z</time>
      </trkpt>
      <trkpt lat="43.79759" lon="4.15775">
        <ele>151.5</ele>
        <time>2019-11-08T12:54:19Z</time>
      </trkpt>
      <trkpt lat="43.79761" lon="4.15779">
        <ele>151.4</ele>
        <time>2019-11-08T12:54:20Z</time>
      </trkpt>
      <trkpt lat="43.79764" lon="4.15786">
        <ele>151.2</ele>
        <time>2019-11-08T12:54:21Z</time>
      </trkpt>
      <trkpt lat="43.79764" lon="4.15794">
        <ele>151.1</ele>
        <time>2019-11-08T12:54:22Z</time>
      </trkpt>
      <trkpt lat="43.79764" lon="4.15799">
        <ele>150.8</ele>
        <time>2019-11-08T12:54:23Z</time>
      </trkpt>
      <trkpt lat="43.79764" lon="4.15804">
        <ele>150.7</ele>
        <time>2019-11-08T12:54:25Z</time>
      </trkpt>
      <trkpt lat="43.79763" lon="4.15811">
        <ele>150.5</ele>
        <time>2019-11-08T12:54:26Z</time>
      </trkpt>
      <trkpt lat="43.79764" lon="4.15823">
        <ele>150.2</ele>
        <time>2019-11-08T12:54:28Z</time>
      </trkpt>
      <trkpt lat="43.79765" lon="4.15829">
        <ele>149.9</ele>
        <time>2019-11-08T12:54:29Z</time>
      </trkpt>
      <trkpt lat="43.79767" lon="4.15854">
        <ele>149.3</ele>
        <time>2019-11-08T12:54:32Z</time>
      </trkpt>
      <trkpt lat="43.79767" lon="4.15863">
        <ele>149</ele>
        <time>2019-11-08T12:54:33Z</time>
      </trkpt>
      <trkpt lat="43.79764" lon="4.15877">
        <ele>148.2</ele>
        <time>2019-11-08T12:54:35Z</time>
      </trkpt>
      <trkpt lat="43.79761" lon="4.15884">
        <ele>147.9</ele>
        <time>2019-11-08T12:54:36Z</time>
      </trkpt>
      <trkpt lat="43.79756" lon="4.15898">
        <ele>146.7</ele>
        <time>2019-11-08T12:54:38Z</time>
      </trkpt>
      <trkpt lat="43.79754" lon="4.15906">
        <ele>146</ele>
        <time>2019-11-08T12:54:39Z</time>
      </trkpt>
      <trkpt lat="43.79752" lon="4.15915">
        <ele>145.1</ele>
        <time>2019-11-08T12:54:40Z</time>
      </trkpt>
      <trkpt lat="43.79748" lon="4.1593">
        <ele>143.6</ele>
        <time>2019-11-08T12:54:42Z</time>
      </trkpt>
      <trkpt lat="43.79743" lon="4.15944">
        <ele>141.3</ele>
        <time>2019-11-08T12:54:44Z</time>
      </trkpt>
      <trkpt lat="43.79741" lon="4.15951">
        <ele>140.8</ele>
        <time>2019-11-08T12:54:45Z</time>
      </trkpt>
      <trkpt lat="43.79738" lon="4.15958">
        <ele>139.5</ele>
        <time>2019-11-08T12:54:46Z</time>
      </trkpt>
      <trkpt lat="43.79735" lon="4.15964">
        <ele>138.9</ele>
        <time>2019-11-08T12:54:47Z</time>
      </trkpt>
      <trkpt lat="43.79731" lon="4.15977">
        <ele>136.7</ele>
        <time>2019-11-08T12:54:49Z</time>
      </trkpt>
      <trkpt lat="43.7973" lon="4.15983">
        <ele>135.4</ele>
        <time>2019-11-08T12:54:50Z</time>
      </trkpt>
      <trkpt lat="43.79728" lon="4.15991">
        <ele>134.7</ele>
        <time>2019-11-08T12:54:51Z</time>
      </trkpt>
      <trkpt lat="43.79725" lon="4.16006">
        <ele>131.7</ele>
        <time>2019-11-08T12:54:53Z</time>
      </trkpt>
      <trkpt lat="43.79721" lon="4.16019">
        <ele>129.5</ele>
        <time>2019-11-08T12:54:55Z</time>
      </trkpt>
      <trkpt lat="43.79718" lon="4.16025">
        <ele>128.8</ele>
        <time>2019-11-08T12:54:56Z</time>
      </trkpt>
      <trkpt lat="43.79711" lon="4.16035">
        <ele>126.4</ele>
        <time>2019-11-08T12:54:58Z</time>
      </trkpt>
      <trkpt lat="43.79705" lon="4.16043">
        <ele>124.8</ele>
        <time>2019-11-08T12:55:00Z</time>
      </trkpt>
      <trkpt lat="43.79702" lon="4.16048">
        <ele>124</ele>
        <time>2019-11-08T12:55:01Z</time>
      </trkpt>
      <trkpt lat="43.79699" lon="4.16053">
        <ele>123.2</ele>
        <time>2019-11-08T12:55:02Z</time>
      </trkpt>
      <trkpt lat="43.79692" lon="4.16061">
        <ele>121.5</ele>
        <time>2019-11-08T12:55:04Z</time>
      </trkpt>
      <trkpt lat="43.79689" lon="4.16065">
        <ele>120.7</ele>
        <time>2019-11-08T12:55:05Z</time>
      </trkpt>
      <trkpt lat="43.79686" lon="4.16068">
        <ele>120.7</ele>
        <time>2019-11-08T12:55:06Z</time>
      </trkpt>
      <trkpt lat="43.79685" lon="4.16072">
        <ele>119.9</ele>
        <time>2019-11-08T12:55:08Z</time>
      </trkpt>
      <trkpt lat="43.79685" lon="4.16077">
        <ele>118.3</ele>
        <time>2019-11-08T12:55:10Z</time>
      </trkpt>
      <trkpt lat="43.79684" lon="4.16084">
        <ele>117.5</ele>
        <time>2019-11-08T12:55:12Z</time>
      </trkpt>
      <trkpt lat="43.79685" lon="4.1609">
        <ele>116.7</ele>
        <time>2019-11-08T12:55:14Z</time>
      </trkpt>
      <trkpt lat="43.79686" lon="4.16095">
        <ele>115.1</ele>
        <time>2019-11-08T12:55:15Z</time>
      </trkpt>
      <trkpt lat="43.79684" lon="4.161">
        <ele>114.3</ele>
        <time>2019-11-08T12:55:16Z</time>
      </trkpt>
      <trkpt lat="43.79678" lon="4.16104">
        <ele>113.4</ele>
        <time>2019-11-08T12:55:18Z</time>
      </trkpt>
      <trkpt lat="43.79669" lon="4.161">
        <ele>114</ele>
        <time>2019-11-08T12:55:20Z</time>
      </trkpt>
      <trkpt lat="43.79665" lon="4.16097">
        <ele>114.8</ele>
        <time>2019-11-08T12:55:21Z</time>
      </trkpt>
      <trkpt lat="43.79662" lon="4.16096">
        <ele>114.6</ele>
        <time>2019-11-08T12:55:22Z</time>
      </trkpt>
      <trkpt lat="43.7966" lon="4.16094">
        <ele>115.5</ele>
        <time>2019-11-08T12:55:24Z</time>
      </trkpt>
      <trkpt lat="43.79655" lon="4.16094">
        <ele>115.3</ele>
        <time>2019-11-08T12:55:26Z</time>
      </trkpt>
      <trkpt lat="43.79649" lon="4.16093">
        <ele>115</ele>
        <time>2019-11-08T12:55:28Z</time>
      </trkpt>
      <trkpt lat="43.79645" lon="4.16094">
        <ele>114.8</ele>
        <time>2019-11-08T12:55:29Z</time>
      </trkpt>
      <trkpt lat="43.79641" lon="4.16095">
        <ele>113.8</ele>
        <time>2019-11-08T12:55:31Z</time>
      </trkpt>
      <trkpt lat="43.79636" lon="4.16095">
        <ele>113.6</ele>
        <time>2019-11-08T12:55:32Z</time>
      </trkpt>
      <trkpt lat="43.79632" lon="4.16094">
        <ele>113.5</ele>
        <time>2019-11-08T12:55:33Z</time>
      </trkpt>
      <trkpt lat="43.79627" lon="4.16094">
        <ele>114.2</ele>
        <time>2019-11-08T12:55:35Z</time>
      </trkpt>
      <trkpt lat="43.7962" lon="4.16096">
        <ele>113.4</ele>
        <time>2019-11-08T12:55:36Z</time>
      </trkpt>
      <trkpt lat="43.79616" lon="4.16098">
        <ele>113.4</ele>
        <time>2019-11-08T12:55:38Z</time>
      </trkpt>
      <trkpt lat="43.79611" lon="4.161">
        <ele>112.8</ele>
        <time>2019-11-08T12:55:40Z</time>
      </trkpt>
      <trkpt lat="43.79604" lon="4.16104">
        <ele>112.3</ele>
        <time>2019-11-08T12:55:41Z</time>
      </trkpt>
      <trkpt lat="43.796" lon="4.16107">
        <ele>111.9</ele>
        <time>2019-11-08T12:55:43Z</time>
      </trkpt>
      <trkpt lat="43.79597" lon="4.1611">
        <ele>112</ele>
        <time>2019-11-08T12:55:44Z</time>
      </trkpt>
      <trkpt lat="43.79592" lon="4.16114">
        <ele>111.5</ele>
        <time>2019-11-08T12:55:46Z</time>
      </trkpt>
      <trkpt lat="43.79586" lon="4.16117">
        <ele>111.3</ele>
        <time>2019-11-08T12:55:49Z</time>
      </trkpt>
      <trkpt lat="43.79582" lon="4.16118">
        <ele>111.5</ele>
        <time>2019-11-08T12:55:51Z</time>
      </trkpt>
      <trkpt lat="43.79575" lon="4.16123">
        <ele>111.5</ele>
        <time>2019-11-08T12:55:53Z</time>
      </trkpt>
      <trkpt lat="43.79571" lon="4.16126">
        <ele>111.2</ele>
        <time>2019-11-08T12:55:54Z</time>
      </trkpt>
      <trkpt lat="43.79568" lon="4.16127">
        <ele>111.3</ele>
        <time>2019-11-08T12:55:56Z</time>
      </trkpt>
      <trkpt lat="43.79563" lon="4.1613">
        <ele>110.9</ele>
        <time>2019-11-08T12:55:58Z</time>
      </trkpt>
      <trkpt lat="43.79562" lon="4.16133">
        <ele>110.5</ele>
        <time>2019-11-08T12:55:59Z</time>
      </trkpt>
      <trkpt lat="43.7956" lon="4.16136">
        <ele>110.4</ele>
        <time>2019-11-08T12:56:00Z</time>
      </trkpt>
      <trkpt lat="43.79554" lon="4.16138">
        <ele>109.9</ele>
        <time>2019-11-08T12:56:02Z</time>
      </trkpt>
      <trkpt lat="43.79539" lon="4.16143">
        <ele>108.8</ele>
        <time>2019-11-08T12:56:04Z</time>
      </trkpt>
      <trkpt lat="43.79533" lon="4.16146">
        <ele>108</ele>
        <time>2019-11-08T12:56:05Z</time>
      </trkpt>
      <trkpt lat="43.79527" lon="4.16149">
        <ele>107.9</ele>
        <time>2019-11-08T12:56:07Z</time>
      </trkpt>
      <trkpt lat="43.79522" lon="4.16151">
        <ele>107.3</ele>
        <time>2019-11-08T12:56:08Z</time>
      </trkpt>
      <trkpt lat="43.79512" lon="4.1616">
        <ele>106.1</ele>
        <time>2019-11-08T12:56:11Z</time>
      </trkpt>
      <trkpt lat="43.79508" lon="4.16164">
        <ele>105.4</ele>
        <time>2019-11-08T12:56:12Z</time>
      </trkpt>
      <trkpt lat="43.79502" lon="4.16174">
        <ele>104.5</ele>
        <time>2019-11-08T12:56:13Z</time>
      </trkpt>
      <trkpt lat="43.795" lon="4.16179">
        <ele>104.1</ele>
        <time>2019-11-08T12:56:14Z</time>
      </trkpt>
      <trkpt lat="43.79496" lon="4.16184">
        <ele>103.8</ele>
        <time>2019-11-08T12:56:17Z</time>
      </trkpt>
      <trkpt lat="43.79494" lon="4.16196">
        <ele>102.8</ele>
        <time>2019-11-08T12:56:20Z</time>
      </trkpt>
      <trkpt lat="43.79494" lon="4.162">
        <ele>102.4</ele>
        <time>2019-11-08T12:56:22Z</time>
      </trkpt>
      <trkpt lat="43.79494" lon="4.16206">
        <ele>101.9</ele>
        <time>2019-11-08T12:56:24Z</time>
      </trkpt>
      <trkpt lat="43.79494" lon="4.16211">
        <ele>101.7</ele>
        <time>2019-11-08T12:56:26Z</time>
      </trkpt>
      <trkpt lat="43.79495" lon="4.16216">
        <ele>101.5</ele>
        <time>2019-11-08T12:56:27Z</time>
      </trkpt>
      <trkpt lat="43.79494" lon="4.16225">
        <ele>101.2</ele>
        <time>2019-11-08T12:56:30Z</time>
      </trkpt>
      <trkpt lat="43.79494" lon="4.16229">
        <ele>101</ele>
        <time>2019-11-08T12:56:31Z</time>
      </trkpt>
      <trkpt lat="43.79495" lon="4.16233">
        <ele>100.9</ele>
        <time>2019-11-08T12:56:32Z</time>
      </trkpt>
      <trkpt lat="43.79494" lon="4.1624">
        <ele>100.8</ele>
        <time>2019-11-08T12:56:36Z</time>
      </trkpt>
      <trkpt lat="43.79491" lon="4.16243">
        <ele>100.8</ele>
        <time>2019-11-08T12:56:37Z</time>
      </trkpt>
      <trkpt lat="43.79489" lon="4.1625">
        <ele>101.1</ele>
        <time>2019-11-08T12:56:40Z</time>
      </trkpt>
      <trkpt lat="43.795" lon="4.16272">
        <ele>99.2</ele>
        <time>2019-11-08T12:56:45Z</time>
      </trkpt>
      <trkpt lat="43.79505" lon="4.16284">
        <ele>97.9</ele>
        <time>2019-11-08T12:56:47Z</time>
      </trkpt>
      <trkpt lat="43.79509" lon="4.1629">
        <ele>97.5</ele>
        <time>2019-11-08T12:56:48Z</time>
      </trkpt>
      <trkpt lat="43.79512" lon="4.16294">
        <ele>97.2</ele>
        <time>2019-11-08T12:56:50Z</time>
      </trkpt>
      <trkpt lat="43.79519" lon="4.16305">
        <ele>97</ele>
        <time>2019-11-08T12:56:53Z</time>
      </trkpt>
      <trkpt lat="43.7952" lon="4.16309">
        <ele>96.8</ele>
        <time>2019-11-08T12:56:54Z</time>
      </trkpt>
      <trkpt lat="43.79522" lon="4.16318">
        <ele>96.6</ele>
        <time>2019-11-08T12:56:55Z</time>
      </trkpt>
      <trkpt lat="43.79523" lon="4.16324">
        <ele>96.6</ele>
        <time>2019-11-08T12:56:56Z</time>
      </trkpt>
      <trkpt lat="43.79527" lon="4.1633">
        <ele>96.5</ele>
        <time>2019-11-08T12:56:58Z</time>
      </trkpt>
      <trkpt lat="43.7953" lon="4.16335">
        <ele>96.4</ele>
        <time>2019-11-08T12:57:00Z</time>
      </trkpt>
      <trkpt lat="43.79533" lon="4.16339">
        <ele>96.3</ele>
        <time>2019-11-08T12:57:01Z</time>
      </trkpt>
      <trkpt lat="43.79541" lon="4.16345">
        <ele>96.4</ele>
        <time>2019-11-08T12:57:02Z</time>
      </trkpt>
      <trkpt lat="43.79544" lon="4.16346">
        <ele>96.6</ele>
        <time>2019-11-08T12:57:03Z</time>
      </trkpt>
      <trkpt lat="43.79548" lon="4.16346">
        <ele>96.9</ele>
        <time>2019-11-08T12:57:05Z</time>
      </trkpt>
      <trkpt lat="43.79551" lon="4.16347">
        <ele>97.5</ele>
        <time>2019-11-08T12:57:07Z</time>
      </trkpt>
      <trkpt lat="43.79555" lon="4.16349">
        <ele>97.9</ele>
        <time>2019-11-08T12:57:08Z</time>
      </trkpt>
      <trkpt lat="43.79555" lon="4.16354">
        <ele>97.8</ele>
        <time>2019-11-08T12:57:14Z</time>
      </trkpt>
      <trkpt lat="43.79556" lon="4.16358">
        <ele>97.7</ele>
        <time>2019-11-08T12:57:16Z</time>
      </trkpt>
      <trkpt lat="43.79555" lon="4.16364">
        <ele>97.6</ele>
        <time>2019-11-08T12:57:18Z</time>
      </trkpt>
      <trkpt lat="43.79554" lon="4.16368">
        <ele>97.5</ele>
        <time>2019-11-08T12:57:20Z</time>
      </trkpt>
      <trkpt lat="43.79552" lon="4.16371">
        <ele>96.8</ele>
        <time>2019-11-08T12:57:23Z</time>
      </trkpt>
      <trkpt lat="43.79546" lon="4.16393">
        <ele>95.5</ele>
        <time>2019-11-08T12:57:26Z</time>
      </trkpt>
      <trkpt lat="43.79539" lon="4.16413">
        <ele>94.6</ele>
        <time>2019-11-08T12:57:28Z</time>
      </trkpt>
      <trkpt lat="43.79538" lon="4.16429">
        <ele>94.3</ele>
        <time>2019-11-08T12:57:30Z</time>
      </trkpt>
      <trkpt lat="43.79537" lon="4.16437">
        <ele>94.3</ele>
        <time>2019-11-08T12:57:31Z</time>
      </trkpt>
      <trkpt lat="43.79536" lon="4.1645">
        <ele>94.2</ele>
        <time>2019-11-08T12:57:33Z</time>
      </trkpt>
      <trkpt lat="43.79536" lon="4.16457">
        <ele>94.2</ele>
        <time>2019-11-08T12:57:34Z</time>
      </trkpt>
      <trkpt lat="43.79534" lon="4.1647">
        <ele>94.1</ele>
        <time>2019-11-08T12:57:36Z</time>
      </trkpt>
      <trkpt lat="43.79534" lon="4.16478">
        <ele>94.2</ele>
        <time>2019-11-08T12:57:37Z</time>
      </trkpt>
      <trkpt lat="43.79535" lon="4.16485">
        <ele>94.2</ele>
        <time>2019-11-08T12:57:38Z</time>
      </trkpt>
      <trkpt lat="43.79536" lon="4.16493">
        <ele>94.6</ele>
        <time>2019-11-08T12:57:39Z</time>
      </trkpt>
      <trkpt lat="43.79535" lon="4.165">
        <ele>94.3</ele>
        <time>2019-11-08T12:57:40Z</time>
      </trkpt>
      <trkpt lat="43.79535" lon="4.16506">
        <ele>94.3</ele>
        <time>2019-11-08T12:57:41Z</time>
      </trkpt>
      <trkpt lat="43.79531" lon="4.16518">
        <ele>94.1</ele>
        <time>2019-11-08T12:57:43Z</time>
      </trkpt>
      <trkpt lat="43.79531" lon="4.16524">
        <ele>94.3</ele>
        <time>2019-11-08T12:57:44Z</time>
      </trkpt>
      <trkpt lat="43.79533" lon="4.16529">
        <ele>94.6</ele>
        <time>2019-11-08T12:57:45Z</time>
      </trkpt>
      <trkpt lat="43.79533" lon="4.16534">
        <ele>94.7</ele>
        <time>2019-11-08T12:57:46Z</time>
      </trkpt>
      <trkpt lat="43.79536" lon="4.16538">
        <ele>95.1</ele>
        <time>2019-11-08T12:57:48Z</time>
      </trkpt>
      <trkpt lat="43.79546" lon="4.16546">
        <ele>96.2</ele>
        <time>2019-11-08T12:57:50Z</time>
      </trkpt>
      <trkpt lat="43.79548" lon="4.16552">
        <ele>96.3</ele>
        <time>2019-11-08T12:57:51Z</time>
      </trkpt>
      <trkpt lat="43.79549" lon="4.16555">
        <ele>96.8</ele>
        <time>2019-11-08T12:57:52Z</time>
      </trkpt>
      <trkpt lat="43.79553" lon="4.16562">
        <ele>97.3</ele>
        <time>2019-11-08T12:57:55Z</time>
      </trkpt>
      <trkpt lat="43.79558" lon="4.16569">
        <ele>98.3</ele>
        <time>2019-11-08T12:57:58Z</time>
      </trkpt>
      <trkpt lat="43.7956" lon="4.16572">
        <ele>98.9</ele>
        <time>2019-11-08T12:57:59Z</time>
      </trkpt>
      <trkpt lat="43.79565" lon="4.16575">
        <ele>99.5</ele>
        <time>2019-11-08T12:58:00Z</time>
      </trkpt>
      <trkpt lat="43.79571" lon="4.16578">
        <ele>100.3</ele>
        <time>2019-11-08T12:58:04Z</time>
      </trkpt>
      <trkpt lat="43.7958" lon="4.1658">
        <ele>101.8</ele>
        <time>2019-11-08T12:58:08Z</time>
      </trkpt>
      <trkpt lat="43.79583" lon="4.16581">
        <ele>102.3</ele>
        <time>2019-11-08T12:58:11Z</time>
      </trkpt>
      <trkpt lat="43.79586" lon="4.16583">
        <ele>102.7</ele>
        <time>2019-11-08T12:58:12Z</time>
      </trkpt>
      <trkpt lat="43.79594" lon="4.16587">
        <ele>103.6</ele>
        <time>2019-11-08T12:58:13Z</time>
      </trkpt>
      <trkpt lat="43.79597" lon="4.16588">
        <ele>104.2</ele>
        <time>2019-11-08T12:58:15Z</time>
      </trkpt>
      <trkpt lat="43.796" lon="4.16589">
        <ele>104.1</ele>
        <time>2019-11-08T12:58:16Z</time>
      </trkpt>
      <trkpt lat="43.79604" lon="4.16591">
        <ele>104.5</ele>
        <time>2019-11-08T12:58:18Z</time>
      </trkpt>
      <trkpt lat="43.79607" lon="4.16593">
        <ele>104.6</ele>
        <time>2019-11-08T12:58:21Z</time>
      </trkpt>
      <trkpt lat="43.79613" lon="4.16594">
        <ele>104.8</ele>
        <time>2019-11-08T12:58:25Z</time>
      </trkpt>
      <trkpt lat="43.79615" lon="4.16598">
        <ele>104.9</ele>
        <time>2019-11-08T12:58:27Z</time>
      </trkpt>
      <trkpt lat="43.79619" lon="4.16602">
        <ele>105</ele>
        <time>2019-11-08T12:58:28Z</time>
      </trkpt>
      <trkpt lat="43.79623" lon="4.16605">
        <ele>105.1</ele>
        <time>2019-11-08T12:58:31Z</time>
      </trkpt>
      <trkpt lat="43.79629" lon="4.1661">
        <ele>105.4</ele>
        <time>2019-11-08T12:58:34Z</time>
      </trkpt>
      <trkpt lat="43.79632" lon="4.16614">
        <ele>105.6</ele>
        <time>2019-11-08T12:58:38Z</time>
      </trkpt>
      <trkpt lat="43.79631" lon="4.16619">
        <ele>105.7</ele>
        <time>2019-11-08T12:58:42Z</time>
      </trkpt>
      <trkpt lat="43.79631" lon="4.16625">
        <ele>105.9</ele>
        <time>2019-11-08T12:58:45Z</time>
      </trkpt>
      <trkpt lat="43.79636" lon="4.16629">
        <ele>106.1</ele>
        <time>2019-11-08T12:58:46Z</time>
      </trkpt>
      <trkpt lat="43.79639" lon="4.16633">
        <ele>106.3</ele>
        <time>2019-11-08T12:58:48Z</time>
      </trkpt>
      <trkpt lat="43.79641" lon="4.16639">
        <ele>106.4</ele>
        <time>2019-11-08T12:58:49Z</time>
      </trkpt>
      <trkpt lat="43.7964" lon="4.16645">
        <ele>106.5</ele>
        <time>2019-11-08T12:58:51Z</time>
      </trkpt>
      <trkpt lat="43.79638" lon="4.16649">
        <ele>106.6</ele>
        <time>2019-11-08T12:58:53Z</time>
      </trkpt>
      <trkpt lat="43.79637" lon="4.16657">
        <ele>106.8</ele>
        <time>2019-11-08T12:58:56Z</time>
      </trkpt>
      <trkpt lat="43.79638" lon="4.16662">
        <ele>106.8</ele>
        <time>2019-11-08T12:58:57Z</time>
      </trkpt>
      <trkpt lat="43.7964" lon="4.16667">
        <ele>106.8</ele>
        <time>2019-11-08T12:58:58Z</time>
      </trkpt>
      <trkpt lat="43.79643" lon="4.16672">
        <ele>106.8</ele>
        <time>2019-11-08T12:59:00Z</time>
      </trkpt>
      <trkpt lat="43.79648" lon="4.1668">
        <ele>106.7</ele>
        <time>2019-11-08T12:59:02Z</time>
      </trkpt>
      <trkpt lat="43.79652" lon="4.16684">
        <ele>106.6</ele>
        <time>2019-11-08T12:59:03Z</time>
      </trkpt>
      <trkpt lat="43.79665" lon="4.1669">
        <ele>106.7</ele>
        <time>2019-11-08T12:59:05Z</time>
      </trkpt>
      <trkpt lat="43.79673" lon="4.16692">
        <ele>106.8</ele>
        <time>2019-11-08T12:59:06Z</time>
      </trkpt>
      <trkpt lat="43.7968" lon="4.16693">
        <ele>106.9</ele>
        <time>2019-11-08T12:59:07Z</time>
      </trkpt>
      <trkpt lat="43.79692" lon="4.16692">
        <ele>106.8</ele>
        <time>2019-11-08T12:59:09Z</time>
      </trkpt>
      <trkpt lat="43.79697" lon="4.1669">
        <ele>106.9</ele>
        <time>2019-11-08T12:59:10Z</time>
      </trkpt>
      <trkpt lat="43.79702" lon="4.16688">
        <ele>106.9</ele>
        <time>2019-11-08T12:59:11Z</time>
      </trkpt>
      <trkpt lat="43.79707" lon="4.1669">
        <ele>107</ele>
        <time>2019-11-08T12:59:13Z</time>
      </trkpt>
      <trkpt lat="43.79712" lon="4.16701">
        <ele>107</ele>
        <time>2019-11-08T12:59:14Z</time>
      </trkpt>
      <trkpt lat="43.79715" lon="4.16707">
        <ele>107.3</ele>
        <time>2019-11-08T12:59:15Z</time>
      </trkpt>
      <trkpt lat="43.79722" lon="4.16717">
        <ele>107.9</ele>
        <time>2019-11-08T12:59:18Z</time>
      </trkpt>
      <trkpt lat="43.79724" lon="4.1672">
        <ele>108.2</ele>
        <time>2019-11-08T12:59:19Z</time>
      </trkpt>
      <trkpt lat="43.79729" lon="4.16712">
        <ele>108.6</ele>
        <time>2019-11-08T12:59:22Z</time>
      </trkpt>
      <trkpt lat="43.79729" lon="4.16708">
        <ele>108.7</ele>
        <time>2019-11-08T12:59:23Z</time>
      </trkpt>
      <trkpt lat="43.7973" lon="4.16703">
        <ele>108.9</ele>
        <time>2019-11-08T12:59:24Z</time>
      </trkpt>
      <trkpt lat="43.79731" lon="4.16697">
        <ele>109.1</ele>
        <time>2019-11-08T12:59:25Z</time>
      </trkpt>
      <trkpt lat="43.79733" lon="4.16691">
        <ele>109.3</ele>
        <time>2019-11-08T12:59:27Z</time>
      </trkpt>
      <trkpt lat="43.79736" lon="4.16683">
        <ele>109.5</ele>
        <time>2019-11-08T12:59:28Z</time>
      </trkpt>
      <trkpt lat="43.79738" lon="4.16679">
        <ele>109.6</ele>
        <time>2019-11-08T12:59:30Z</time>
      </trkpt>
      <trkpt lat="43.79739" lon="4.16674">
        <ele>109.8</ele>
        <time>2019-11-08T12:59:31Z</time>
      </trkpt>
      <trkpt lat="43.79742" lon="4.16666">
        <ele>110.1</ele>
        <time>2019-11-08T12:59:32Z</time>
      </trkpt>
      <trkpt lat="43.79744" lon="4.16662">
        <ele>110.2</ele>
        <time>2019-11-08T12:59:33Z</time>
      </trkpt>
      <trkpt lat="43.79746" lon="4.16656">
        <ele>110.4</ele>
        <time>2019-11-08T12:59:34Z</time>
      </trkpt>
      <trkpt lat="43.79749" lon="4.16649">
        <ele>110.5</ele>
        <time>2019-11-08T12:59:36Z</time>
      </trkpt>
      <trkpt lat="43.79751" lon="4.16643">
        <ele>110.7</ele>
        <time>2019-11-08T12:59:37Z</time>
      </trkpt>
      <trkpt lat="43.79753" lon="4.16638">
        <ele>110.9</ele>
        <time>2019-11-08T12:59:38Z</time>
      </trkpt>
      <trkpt lat="43.79756" lon="4.16632">
        <ele>111.1</ele>
        <time>2019-11-08T12:59:39Z</time>
      </trkpt>
      <trkpt lat="43.79757" lon="4.16628">
        <ele>111.2</ele>
        <time>2019-11-08T12:59:41Z</time>
      </trkpt>
      <trkpt lat="43.79759" lon="4.16622">
        <ele>111.4</ele>
        <time>2019-11-08T12:59:42Z</time>
      </trkpt>
      <trkpt lat="43.79761" lon="4.16617">
        <ele>111.5</ele>
        <time>2019-11-08T12:59:43Z</time>
      </trkpt>
      <trkpt lat="43.79766" lon="4.16604">
        <ele>111.9</ele>
        <time>2019-11-08T12:59:45Z</time>
      </trkpt>
      <trkpt lat="43.79769" lon="4.16596">
        <ele>112.2</ele>
        <time>2019-11-08T12:59:47Z</time>
      </trkpt>
      <trkpt lat="43.7977" lon="4.16591">
        <ele>112.3</ele>
        <time>2019-11-08T12:59:48Z</time>
      </trkpt>
      <trkpt lat="43.79772" lon="4.16587">
        <ele>112.4</ele>
        <time>2019-11-08T12:59:49Z</time>
      </trkpt>
      <trkpt lat="43.79775" lon="4.16581">
        <ele>112.6</ele>
        <time>2019-11-08T12:59:50Z</time>
      </trkpt>
      <trkpt lat="43.79778" lon="4.16574">
        <ele>112.8</ele>
        <time>2019-11-08T12:59:51Z</time>
      </trkpt>
      <trkpt lat="43.7978" lon="4.16568">
        <ele>113</ele>
        <time>2019-11-08T12:59:53Z</time>
      </trkpt>
      <trkpt lat="43.79784" lon="4.1656">
        <ele>113.2</ele>
        <time>2019-11-08T12:59:55Z</time>
      </trkpt>
      <trkpt lat="43.79788" lon="4.16549">
        <ele>113.6</ele>
        <time>2019-11-08T12:59:57Z</time>
      </trkpt>
      <trkpt lat="43.79791" lon="4.16541">
        <ele>113.9</ele>
        <time>2019-11-08T12:59:58Z</time>
      </trkpt>
      <trkpt lat="43.79793" lon="4.16536">
        <ele>114</ele>
        <time>2019-11-08T13:00:00Z</time>
      </trkpt>
      <trkpt lat="43.79794" lon="4.16531">
        <ele>114.3</ele>
        <time>2019-11-08T13:00:01Z</time>
      </trkpt>
      <trkpt lat="43.79796" lon="4.16523">
        <ele>114.6</ele>
        <time>2019-11-08T13:00:02Z</time>
      </trkpt>
      <trkpt lat="43.79797" lon="4.16518">
        <ele>114.8</ele>
        <time>2019-11-08T13:00:03Z</time>
      </trkpt>
      <trkpt lat="43.79798" lon="4.16512">
        <ele>115.1</ele>
        <time>2019-11-08T13:00:05Z</time>
      </trkpt>
      <trkpt lat="43.79799" lon="4.16506">
        <ele>115.4</ele>
        <time>2019-11-08T13:00:06Z</time>
      </trkpt>
      <trkpt lat="43.79801" lon="4.16499">
        <ele>115.7</ele>
        <time>2019-11-08T13:00:07Z</time>
      </trkpt>
      <trkpt lat="43.79804" lon="4.16493">
        <ele>116</ele>
        <time>2019-11-08T13:00:08Z</time>
      </trkpt>
      <trkpt lat="43.79807" lon="4.16488">
        <ele>116.2</ele>
        <time>2019-11-08T13:00:09Z</time>
      </trkpt>
      <trkpt lat="43.7981" lon="4.16482">
        <ele>116.4</ele>
        <time>2019-11-08T13:00:10Z</time>
      </trkpt>
      <trkpt lat="43.79813" lon="4.16477">
        <ele>116.5</ele>
        <time>2019-11-08T13:00:12Z</time>
      </trkpt>
      <trkpt lat="43.79816" lon="4.1647">
        <ele>116.7</ele>
        <time>2019-11-08T13:00:14Z</time>
      </trkpt>
      <trkpt lat="43.79818" lon="4.16465">
        <ele>116.7</ele>
        <time>2019-11-08T13:00:15Z</time>
      </trkpt>
      <trkpt lat="43.79821" lon="4.1646">
        <ele>116.8</ele>
        <time>2019-11-08T13:00:16Z</time>
      </trkpt>
      <trkpt lat="43.79828" lon="4.16445">
        <ele>117.2</ele>
        <time>2019-11-08T13:00:19Z</time>
      </trkpt>
      <trkpt lat="43.7983" lon="4.16441">
        <ele>117.3</ele>
        <time>2019-11-08T13:00:20Z</time>
      </trkpt>
      <trkpt lat="43.79833" lon="4.16436">
        <ele>117.4</ele>
        <time>2019-11-08T13:00:21Z</time>
      </trkpt>
      <trkpt lat="43.79836" lon="4.1643">
        <ele>117.6</ele>
        <time>2019-11-08T13:00:23Z</time>
      </trkpt>
      <trkpt lat="43.79837" lon="4.16427">
        <ele>117.6</ele>
        <time>2019-11-08T13:00:24Z</time>
      </trkpt>
      <trkpt lat="43.79839" lon="4.16422">
        <ele>117.6</ele>
        <time>2019-11-08T13:00:25Z</time>
      </trkpt>
      <trkpt lat="43.79843" lon="4.16412">
        <ele>117.7</ele>
        <time>2019-11-08T13:00:27Z</time>
      </trkpt>
      <trkpt lat="43.79847" lon="4.16406">
        <ele>117.7</ele>
        <time>2019-11-08T13:00:28Z</time>
      </trkpt>
      <trkpt lat="43.79855" lon="4.16395">
        <ele>117.7</ele>
        <time>2019-11-08T13:00:30Z</time>
      </trkpt>
      <trkpt lat="43.7986" lon="4.1639">
        <ele>117.6</ele>
        <time>2019-11-08T13:00:31Z</time>
      </trkpt>
      <trkpt lat="43.79864" lon="4.16386">
        <ele>117.6</ele>
        <time>2019-11-08T13:00:32Z</time>
      </trkpt>
      <trkpt lat="43.79867" lon="4.16382">
        <ele>117.6</ele>
        <time>2019-11-08T13:00:34Z</time>
      </trkpt>
      <trkpt lat="43.79874" lon="4.16373">
        <ele>117.3</ele>
        <time>2019-11-08T13:00:35Z</time>
      </trkpt>
      <trkpt lat="43.7988" lon="4.16363">
        <ele>117</ele>
        <time>2019-11-08T13:00:37Z</time>
      </trkpt>
      <trkpt lat="43.79889" lon="4.16349">
        <ele>116.6</ele>
        <time>2019-11-08T13:00:39Z</time>
      </trkpt>
      <trkpt lat="43.79893" lon="4.16344">
        <ele>116.4</ele>
        <time>2019-11-08T13:00:40Z</time>
      </trkpt>
      <trkpt lat="43.79897" lon="4.16338">
        <ele>116.2</ele>
        <time>2019-11-08T13:00:41Z</time>
      </trkpt>
      <trkpt lat="43.79905" lon="4.16328">
        <ele>115.9</ele>
        <time>2019-11-08T13:00:43Z</time>
      </trkpt>
      <trkpt lat="43.79909" lon="4.16323">
        <ele>115.8</ele>
        <time>2019-11-08T13:00:44Z</time>
      </trkpt>
      <trkpt lat="43.79913" lon="4.16319">
        <ele>115.6</ele>
        <time>2019-11-08T13:00:45Z</time>
      </trkpt>
      <trkpt lat="43.79922" lon="4.16311">
        <ele>115</ele>
        <time>2019-11-08T13:00:47Z</time>
      </trkpt>
      <trkpt lat="43.79927" lon="4.16306">
        <ele>114.6</ele>
        <time>2019-11-08T13:00:48Z</time>
      </trkpt>
      <trkpt lat="43.79936" lon="4.16293">
        <ele>114.1</ele>
        <time>2019-11-08T13:00:50Z</time>
      </trkpt>
      <trkpt lat="43.7994" lon="4.16287">
        <ele>113.8</ele>
        <time>2019-11-08T13:00:51Z</time>
      </trkpt>
      <trkpt lat="43.79945" lon="4.16281">
        <ele>113.5</ele>
        <time>2019-11-08T13:00:52Z</time>
      </trkpt>
      <trkpt lat="43.79949" lon="4.16276">
        <ele>113.2</ele>
        <time>2019-11-08T13:00:53Z</time>
      </trkpt>
      <trkpt lat="43.7996" lon="4.16271">
        <ele>112.5</ele>
        <time>2019-11-08T13:00:55Z</time>
      </trkpt>
      <trkpt lat="43.79965" lon="4.16269">
        <ele>112</ele>
        <time>2019-11-08T13:00:56Z</time>
      </trkpt>
      <trkpt lat="43.79973" lon="4.16267">
        <ele>112.4</ele>
        <time>2019-11-08T13:00:58Z</time>
      </trkpt>
      <trkpt lat="43.79978" lon="4.16266">
        <ele>112.5</ele>
        <time>2019-11-08T13:00:59Z</time>
      </trkpt>
      <trkpt lat="43.79986" lon="4.16265">
        <ele>113</ele>
        <time>2019-11-08T13:01:01Z</time>
      </trkpt>
      <trkpt lat="43.7999" lon="4.16265">
        <ele>113.2</ele>
        <time>2019-11-08T13:01:02Z</time>
      </trkpt>
      <trkpt lat="43.79995" lon="4.16265">
        <ele>113.4</ele>
        <time>2019-11-08T13:01:03Z</time>
      </trkpt>
      <trkpt lat="43.80003" lon="4.16266">
        <ele>113.8</ele>
        <time>2019-11-08T13:01:05Z</time>
      </trkpt>
      <trkpt lat="43.80007" lon="4.16269">
        <ele>114.1</ele>
        <time>2019-11-08T13:01:06Z</time>
      </trkpt>
      <trkpt lat="43.80012" lon="4.16271">
        <ele>114.3</ele>
        <time>2019-11-08T13:01:07Z</time>
      </trkpt>
      <trkpt lat="43.8002" lon="4.16275">
        <ele>114.6</ele>
        <time>2019-11-08T13:01:09Z</time>
      </trkpt>
      <trkpt lat="43.80029" lon="4.1628">
        <ele>115</ele>
        <time>2019-11-08T13:01:11Z</time>
      </trkpt>
      <trkpt lat="43.80037" lon="4.16284">
        <ele>115.3</ele>
        <time>2019-11-08T13:01:13Z</time>
      </trkpt>
      <trkpt lat="43.80046" lon="4.16287">
        <ele>115.6</ele>
        <time>2019-11-08T13:01:15Z</time>
      </trkpt>
      <trkpt lat="43.80054" lon="4.16293">
        <ele>116</ele>
        <time>2019-11-08T13:01:17Z</time>
      </trkpt>
      <trkpt lat="43.80058" lon="4.16296">
        <ele>116.2</ele>
        <time>2019-11-08T13:01:18Z</time>
      </trkpt>
      <trkpt lat="43.80066" lon="4.16301">
        <ele>116.6</ele>
        <time>2019-11-08T13:01:20Z</time>
      </trkpt>
      <trkpt lat="43.80073" lon="4.16307">
        <ele>116.9</ele>
        <time>2019-11-08T13:01:22Z</time>
      </trkpt>
      <trkpt lat="43.80076" lon="4.16314">
        <ele>117.1</ele>
        <time>2019-11-08T13:01:23Z</time>
      </trkpt>
      <trkpt lat="43.80083" lon="4.16317">
        <ele>117.4</ele>
        <time>2019-11-08T13:01:25Z</time>
      </trkpt>
      <trkpt lat="43.80089" lon="4.16321">
        <ele>117.6</ele>
        <time>2019-11-08T13:01:26Z</time>
      </trkpt>
      <trkpt lat="43.80098" lon="4.16329">
        <ele>118.1</ele>
        <time>2019-11-08T13:01:28Z</time>
      </trkpt>
      <trkpt lat="43.80103" lon="4.16333">
        <ele>118.3</ele>
        <time>2019-11-08T13:01:29Z</time>
      </trkpt>
      <trkpt lat="43.80107" lon="4.16337">
        <ele>118.4</ele>
        <time>2019-11-08T13:01:30Z</time>
      </trkpt>
      <trkpt lat="43.80116" lon="4.16344">
        <ele>118.8</ele>
        <time>2019-11-08T13:01:32Z</time>
      </trkpt>
      <trkpt lat="43.8012" lon="4.16349">
        <ele>118.9</ele>
        <time>2019-11-08T13:01:33Z</time>
      </trkpt>
      <trkpt lat="43.80129" lon="4.16355">
        <ele>119.3</ele>
        <time>2019-11-08T13:01:35Z</time>
      </trkpt>
      <trkpt lat="43.80131" lon="4.16358">
        <ele>119.4</ele>
        <time>2019-11-08T13:01:36Z</time>
      </trkpt>
      <trkpt lat="43.8014" lon="4.16365">
        <ele>119.8</ele>
        <time>2019-11-08T13:01:38Z</time>
      </trkpt>
      <trkpt lat="43.8015" lon="4.16371">
        <ele>120.3</ele>
        <time>2019-11-08T13:01:40Z</time>
      </trkpt>
      <trkpt lat="43.8016" lon="4.16378">
        <ele>120.7</ele>
        <time>2019-11-08T13:01:42Z</time>
      </trkpt>
      <trkpt lat="43.80169" lon="4.16385">
        <ele>121.1</ele>
        <time>2019-11-08T13:01:44Z</time>
      </trkpt>
      <trkpt lat="43.80173" lon="4.16388">
        <ele>121.3</ele>
        <time>2019-11-08T13:01:45Z</time>
      </trkpt>
      <trkpt lat="43.80182" lon="4.16394">
        <ele>121.7</ele>
        <time>2019-11-08T13:01:47Z</time>
      </trkpt>
      <trkpt lat="43.8019" lon="4.16397">
        <ele>122.1</ele>
        <time>2019-11-08T13:01:49Z</time>
      </trkpt>
      <trkpt lat="43.80195" lon="4.16397">
        <ele>122.4</ele>
        <time>2019-11-08T13:01:50Z</time>
      </trkpt>
      <trkpt lat="43.80203" lon="4.16401">
        <ele>122.7</ele>
        <time>2019-11-08T13:01:52Z</time>
      </trkpt>
      <trkpt lat="43.80211" lon="4.16411">
        <ele>123.1</ele>
        <time>2019-11-08T13:01:54Z</time>
      </trkpt>
      <trkpt lat="43.80215" lon="4.16415">
        <ele>123.3</ele>
        <time>2019-11-08T13:01:55Z</time>
      </trkpt>
      <trkpt lat="43.80224" lon="4.16419">
        <ele>123.7</ele>
        <time>2019-11-08T13:01:57Z</time>
      </trkpt>
      <trkpt lat="43.80229" lon="4.1642">
        <ele>123.9</ele>
        <time>2019-11-08T13:01:58Z</time>
      </trkpt>
      <trkpt lat="43.80238" lon="4.16425">
        <ele>124.3</ele>
        <time>2019-11-08T13:02:00Z</time>
      </trkpt>
      <trkpt lat="43.80243" lon="4.16427">
        <ele>124.5</ele>
        <time>2019-11-08T13:02:01Z</time>
      </trkpt>
      <trkpt lat="43.80253" lon="4.1643">
        <ele>125.1</ele>
        <time>2019-11-08T13:02:03Z</time>
      </trkpt>
      <trkpt lat="43.80258" lon="4.16431">
        <ele>125.4</ele>
        <time>2019-11-08T13:02:04Z</time>
      </trkpt>
      <trkpt lat="43.80268" lon="4.16432">
        <ele>125.8</ele>
        <time>2019-11-08T13:02:06Z</time>
      </trkpt>
      <trkpt lat="43.80277" lon="4.16433">
        <ele>126.1</ele>
        <time>2019-11-08T13:02:08Z</time>
      </trkpt>
      <trkpt lat="43.80285" lon="4.16435">
        <ele>126.5</ele>
        <time>2019-11-08T13:02:10Z</time>
      </trkpt>
      <trkpt lat="43.80289" lon="4.16436">
        <ele>126.7</ele>
        <time>2019-11-08T13:02:11Z</time>
      </trkpt>
      <trkpt lat="43.80294" lon="4.16438">
        <ele>126.9</ele>
        <time>2019-11-08T13:02:12Z</time>
      </trkpt>
      <trkpt lat="43.80304" lon="4.16438">
        <ele>127.3</ele>
        <time>2019-11-08T13:02:14Z</time>
      </trkpt>
      <trkpt lat="43.80314" lon="4.16437">
        <ele>127.9</ele>
        <time>2019-11-08T13:02:16Z</time>
      </trkpt>
      <trkpt lat="43.80319" lon="4.16436">
        <ele>128.2</ele>
        <time>2019-11-08T13:02:17Z</time>
      </trkpt>
      <trkpt lat="43.80327" lon="4.16431">
        <ele>128.5</ele>
        <time>2019-11-08T13:02:19Z</time>
      </trkpt>
      <trkpt lat="43.80328" lon="4.16425">
        <ele>128.6</ele>
        <time>2019-11-08T13:02:20Z</time>
      </trkpt>
      <trkpt lat="43.80327" lon="4.16418">
        <ele>129</ele>
        <time>2019-11-08T13:02:21Z</time>
      </trkpt>
      <trkpt lat="43.80323" lon="4.16407">
        <ele>129.4</ele>
        <time>2019-11-08T13:02:23Z</time>
      </trkpt>
      <trkpt lat="43.8032" lon="4.164">
        <ele>129.3</ele>
        <time>2019-11-08T13:02:25Z</time>
      </trkpt>
      <trkpt lat="43.80322" lon="4.16393">
        <ele>130</ele>
        <time>2019-11-08T13:02:28Z</time>
      </trkpt>
      <trkpt lat="43.80321" lon="4.16388">
        <ele>130.3</ele>
        <time>2019-11-08T13:02:31Z</time>
      </trkpt>
      <trkpt lat="43.80321" lon="4.16384">
        <ele>130.6</ele>
        <time>2019-11-08T13:02:33Z</time>
      </trkpt>
      <trkpt lat="43.8032" lon="4.16379">
        <ele>131.1</ele>
        <time>2019-11-08T13:02:34Z</time>
      </trkpt>
      <trkpt lat="43.80318" lon="4.16374">
        <ele>131</ele>
        <time>2019-11-08T13:02:36Z</time>
      </trkpt>
      <trkpt lat="43.80314" lon="4.16364">
        <ele>131.5</ele>
        <time>2019-11-08T13:02:38Z</time>
      </trkpt>
      <trkpt lat="43.80312" lon="4.1636">
        <ele>131.3</ele>
        <time>2019-11-08T13:02:39Z</time>
      </trkpt>
      <trkpt lat="43.80309" lon="4.16353">
        <ele>131</ele>
        <time>2019-11-08T13:02:41Z</time>
      </trkpt>
      <trkpt lat="43.80305" lon="4.16348">
        <ele>130.6</ele>
        <time>2019-11-08T13:02:44Z</time>
      </trkpt>
      <trkpt lat="43.80304" lon="4.16345">
        <ele>130.3</ele>
        <time>2019-11-08T13:02:45Z</time>
      </trkpt>
      <trkpt lat="43.80302" lon="4.16341">
        <ele>130.6</ele>
        <time>2019-11-08T13:02:46Z</time>
      </trkpt>
      <trkpt lat="43.80301" lon="4.16336">
        <ele>130.9</ele>
        <time>2019-11-08T13:02:47Z</time>
      </trkpt>
      <trkpt lat="43.803" lon="4.16328">
        <ele>131.1</ele>
        <time>2019-11-08T13:02:50Z</time>
      </trkpt>
      <trkpt lat="43.80298" lon="4.16319">
        <ele>131.7</ele>
        <time>2019-11-08T13:02:52Z</time>
      </trkpt>
      <trkpt lat="43.80298" lon="4.16314">
        <ele>132</ele>
        <time>2019-11-08T13:02:53Z</time>
      </trkpt>
      <trkpt lat="43.80295" lon="4.16303">
        <ele>132.3</ele>
        <time>2019-11-08T13:02:57Z</time>
      </trkpt>
      <trkpt lat="43.80294" lon="4.16296">
        <ele>132.6</ele>
        <time>2019-11-08T13:03:00Z</time>
      </trkpt>
      <trkpt lat="43.80294" lon="4.16292">
        <ele>132.5</ele>
        <time>2019-11-08T13:03:01Z</time>
      </trkpt>
      <trkpt lat="43.80294" lon="4.16285">
        <ele>132.6</ele>
        <time>2019-11-08T13:03:04Z</time>
      </trkpt>
      <trkpt lat="43.80293" lon="4.16276">
        <ele>133</ele>
        <time>2019-11-08T13:03:06Z</time>
      </trkpt>
      <trkpt lat="43.80291" lon="4.16272">
        <ele>132.6</ele>
        <time>2019-11-08T13:03:08Z</time>
      </trkpt>
      <trkpt lat="43.80289" lon="4.16266">
        <ele>132.9</ele>
        <time>2019-11-08T13:03:10Z</time>
      </trkpt>
      <trkpt lat="43.8029" lon="4.16262">
        <ele>132.9</ele>
        <time>2019-11-08T13:03:12Z</time>
      </trkpt>
      <trkpt lat="43.8029" lon="4.16257">
        <ele>133.2</ele>
        <time>2019-11-08T13:03:13Z</time>
      </trkpt>
      <trkpt lat="43.80291" lon="4.16252">
        <ele>134</ele>
        <time>2019-11-08T13:03:14Z</time>
      </trkpt>
      <trkpt lat="43.80293" lon="4.16248">
        <ele>134.2</ele>
        <time>2019-11-08T13:03:17Z</time>
      </trkpt>
      <trkpt lat="43.80296" lon="4.16242">
        <ele>135</ele>
        <time>2019-11-08T13:03:20Z</time>
      </trkpt>
      <trkpt lat="43.80298" lon="4.16238">
        <ele>136</ele>
        <time>2019-11-08T13:03:23Z</time>
      </trkpt>
      <trkpt lat="43.80299" lon="4.16235">
        <ele>136.1</ele>
        <time>2019-11-08T13:03:25Z</time>
      </trkpt>
      <trkpt lat="43.803" lon="4.1623">
        <ele>136.3</ele>
        <time>2019-11-08T13:03:26Z</time>
      </trkpt>
      <trkpt lat="43.80301" lon="4.16226">
        <ele>137.2</ele>
        <time>2019-11-08T13:03:28Z</time>
      </trkpt>
      <trkpt lat="43.80302" lon="4.16222">
        <ele>137.3</ele>
        <time>2019-11-08T13:03:29Z</time>
      </trkpt>
      <trkpt lat="43.80303" lon="4.16216">
        <ele>137.4</ele>
        <time>2019-11-08T13:03:32Z</time>
      </trkpt>
      <trkpt lat="43.80305" lon="4.16208">
        <ele>138.3</ele>
        <time>2019-11-08T13:03:35Z</time>
      </trkpt>
      <trkpt lat="43.80306" lon="4.16202">
        <ele>138.2</ele>
        <time>2019-11-08T13:03:37Z</time>
      </trkpt>
      <trkpt lat="43.80308" lon="4.16194">
        <ele>138.8</ele>
        <time>2019-11-08T13:03:39Z</time>
      </trkpt>
      <trkpt lat="43.8031" lon="4.16189">
        <ele>139.4</ele>
        <time>2019-11-08T13:03:42Z</time>
      </trkpt>
      <trkpt lat="43.80312" lon="4.16186">
        <ele>139.1</ele>
        <time>2019-11-08T13:03:43Z</time>
      </trkpt>
      <trkpt lat="43.80315" lon="4.16182">
        <ele>139.6</ele>
        <time>2019-11-08T13:03:46Z</time>
      </trkpt>
      <trkpt lat="43.80317" lon="4.16178">
        <ele>140</ele>
        <time>2019-11-08T13:03:49Z</time>
      </trkpt>
      <trkpt lat="43.80324" lon="4.16171">
        <ele>140.8</ele>
        <time>2019-11-08T13:03:52Z</time>
      </trkpt>
      <trkpt lat="43.80328" lon="4.16166">
        <ele>141.3</ele>
        <time>2019-11-08T13:03:54Z</time>
      </trkpt>
      <trkpt lat="43.80335" lon="4.16156">
        <ele>143</ele>
        <time>2019-11-08T13:03:57Z</time>
      </trkpt>
      <trkpt lat="43.80344" lon="4.16147">
        <ele>143.5</ele>
        <time>2019-11-08T13:03:59Z</time>
      </trkpt>
      <trkpt lat="43.80347" lon="4.16142">
        <ele>144.3</ele>
        <time>2019-11-08T13:04:01Z</time>
      </trkpt>
      <trkpt lat="43.80352" lon="4.16137">
        <ele>143.9</ele>
        <time>2019-11-08T13:04:02Z</time>
      </trkpt>
      <trkpt lat="43.80354" lon="4.16135">
        <ele>144.6</ele>
        <time>2019-11-08T13:04:03Z</time>
      </trkpt>
      <trkpt lat="43.80359" lon="4.16131">
        <ele>144.7</ele>
        <time>2019-11-08T13:04:05Z</time>
      </trkpt>
      <trkpt lat="43.80363" lon="4.16129">
        <ele>145.5</ele>
        <time>2019-11-08T13:04:07Z</time>
      </trkpt>
      <trkpt lat="43.80367" lon="4.16126">
        <ele>146.1</ele>
        <time>2019-11-08T13:04:08Z</time>
      </trkpt>
      <trkpt lat="43.80371" lon="4.1612">
        <ele>145.4</ele>
        <time>2019-11-08T13:04:09Z</time>
      </trkpt>
      <trkpt lat="43.80374" lon="4.16115">
        <ele>145.3</ele>
        <time>2019-11-08T13:04:11Z</time>
      </trkpt>
      <trkpt lat="43.80378" lon="4.16111">
        <ele>145.1</ele>
        <time>2019-11-08T13:04:13Z</time>
      </trkpt>
      <trkpt lat="43.80383" lon="4.16105">
        <ele>145.4</ele>
        <time>2019-11-08T13:04:14Z</time>
      </trkpt>
      <trkpt lat="43.80388" lon="4.16101">
        <ele>145.6</ele>
        <time>2019-11-08T13:04:16Z</time>
      </trkpt>
      <trkpt lat="43.80398" lon="4.16092">
        <ele>145.2</ele>
        <time>2019-11-08T13:04:18Z</time>
      </trkpt>
      <trkpt lat="43.80402" lon="4.1609">
        <ele>144.8</ele>
        <time>2019-11-08T13:04:19Z</time>
      </trkpt>
      <trkpt lat="43.80408" lon="4.16085">
        <ele>144.6</ele>
        <time>2019-11-08T13:04:20Z</time>
      </trkpt>
      <trkpt lat="43.80415" lon="4.16082">
        <ele>145</ele>
        <time>2019-11-08T13:04:23Z</time>
      </trkpt>
      <trkpt lat="43.80423" lon="4.16077">
        <ele>144.1</ele>
        <time>2019-11-08T13:04:24Z</time>
      </trkpt>
      <trkpt lat="43.80432" lon="4.16072">
        <ele>143.6</ele>
        <time>2019-11-08T13:04:26Z</time>
      </trkpt>
      <trkpt lat="43.80442" lon="4.16065">
        <ele>143.1</ele>
        <time>2019-11-08T13:04:28Z</time>
      </trkpt>
      <trkpt lat="43.80447" lon="4.16061">
        <ele>142.4</ele>
        <time>2019-11-08T13:04:29Z</time>
      </trkpt>
      <trkpt lat="43.80452" lon="4.16056">
        <ele>141.6</ele>
        <time>2019-11-08T13:04:30Z</time>
      </trkpt>
      <trkpt lat="43.80461" lon="4.16046">
        <ele>139.5</ele>
        <time>2019-11-08T13:04:32Z</time>
      </trkpt>
      <trkpt lat="43.80471" lon="4.1604">
        <ele>139</ele>
        <time>2019-11-08T13:04:34Z</time>
      </trkpt>
      <trkpt lat="43.80475" lon="4.1604">
        <ele>139.2</ele>
        <time>2019-11-08T13:04:35Z</time>
      </trkpt>
      <trkpt lat="43.80479" lon="4.16037">
        <ele>138.7</ele>
        <time>2019-11-08T13:04:36Z</time>
      </trkpt>
      <trkpt lat="43.80484" lon="4.16033">
        <ele>138.2</ele>
        <time>2019-11-08T13:04:37Z</time>
      </trkpt>
      <trkpt lat="43.80489" lon="4.16029">
        <ele>137.8</ele>
        <time>2019-11-08T13:04:38Z</time>
      </trkpt>
      <trkpt lat="43.80493" lon="4.16027">
        <ele>137.8</ele>
        <time>2019-11-08T13:04:39Z</time>
      </trkpt>
      <trkpt lat="43.80501" lon="4.16023">
        <ele>137.4</ele>
        <time>2019-11-08T13:04:41Z</time>
      </trkpt>
      <trkpt lat="43.8051" lon="4.16013">
        <ele>136.2</ele>
        <time>2019-11-08T13:04:43Z</time>
      </trkpt>
      <trkpt lat="43.80514" lon="4.16007">
        <ele>136</ele>
        <time>2019-11-08T13:04:44Z</time>
      </trkpt>
      <trkpt lat="43.80525" lon="4.15995">
        <ele>135.6</ele>
        <time>2019-11-08T13:04:46Z</time>
      </trkpt>
      <trkpt lat="43.80539" lon="4.15988">
        <ele>136.9</ele>
        <time>2019-11-08T13:04:48Z</time>
      </trkpt>
      <trkpt lat="43.80549" lon="4.15982">
        <ele>138.5</ele>
        <time>2019-11-08T13:04:50Z</time>
      </trkpt>
      <trkpt lat="43.80555" lon="4.15967">
        <ele>139.5</ele>
        <time>2019-11-08T13:04:52Z</time>
      </trkpt>
      <trkpt lat="43.80555" lon="4.15953">
        <ele>139.3</ele>
        <time>2019-11-08T13:04:54Z</time>
      </trkpt>
      <trkpt lat="43.80556" lon="4.15946">
        <ele>139.4</ele>
        <time>2019-11-08T13:04:55Z</time>
      </trkpt>
      <trkpt lat="43.80556" lon="4.15935">
        <ele>139.7</ele>
        <time>2019-11-08T13:04:57Z</time>
      </trkpt>
      <trkpt lat="43.80559" lon="4.15932">
        <ele>140.4</ele>
        <time>2019-11-08T13:04:59Z</time>
      </trkpt>
      <trkpt lat="43.80561" lon="4.1593">
        <ele>141.4</ele>
        <time>2019-11-08T13:05:01Z</time>
      </trkpt>
      <trkpt lat="43.80564" lon="4.15931">
        <ele>142.2</ele>
        <time>2019-11-08T13:05:03Z</time>
      </trkpt>
      <trkpt lat="43.8057" lon="4.1593">
        <ele>143.9</ele>
        <time>2019-11-08T13:05:09Z</time>
      </trkpt>
      <trkpt lat="43.80573" lon="4.15927">
        <ele>143.9</ele>
        <time>2019-11-08T13:05:10Z</time>
      </trkpt>
      <trkpt lat="43.80575" lon="4.15924">
        <ele>145.1</ele>
        <time>2019-11-08T13:05:12Z</time>
      </trkpt>
      <trkpt lat="43.80576" lon="4.15919">
        <ele>145.5</ele>
        <time>2019-11-08T13:05:15Z</time>
      </trkpt>
      <trkpt lat="43.80578" lon="4.15915">
        <ele>146.9</ele>
        <time>2019-11-08T13:05:18Z</time>
      </trkpt>
      <trkpt lat="43.80584" lon="4.15914">
        <ele>149.5</ele>
        <time>2019-11-08T13:05:22Z</time>
      </trkpt>
      <trkpt lat="43.80587" lon="4.15909">
        <ele>151</ele>
        <time>2019-11-08T13:05:24Z</time>
      </trkpt>
      <trkpt lat="43.80589" lon="4.15905">
        <ele>152.4</ele>
        <time>2019-11-08T13:05:25Z</time>
      </trkpt>
      <trkpt lat="43.80592" lon="4.15899">
        <ele>153.8</ele>
        <time>2019-11-08T13:05:29Z</time>
      </trkpt>
      <trkpt lat="43.80594" lon="4.15895">
        <ele>154.2</ele>
        <time>2019-11-08T13:05:33Z</time>
      </trkpt>
      <trkpt lat="43.80595" lon="4.15888">
        <ele>155.9</ele>
        <time>2019-11-08T13:05:36Z</time>
      </trkpt>
      <trkpt lat="43.80595" lon="4.15884">
        <ele>156.3</ele>
        <time>2019-11-08T13:05:38Z</time>
      </trkpt>
      <trkpt lat="43.80595" lon="4.15879">
        <ele>156</ele>
        <time>2019-11-08T13:05:39Z</time>
      </trkpt>
      <trkpt lat="43.80594" lon="4.15875">
        <ele>156.5</ele>
        <time>2019-11-08T13:05:41Z</time>
      </trkpt>
      <trkpt lat="43.80594" lon="4.1587">
        <ele>157</ele>
        <time>2019-11-08T13:05:42Z</time>
      </trkpt>
      <trkpt lat="43.80594" lon="4.15865">
        <ele>157.5</ele>
        <time>2019-11-08T13:05:44Z</time>
      </trkpt>
      <trkpt lat="43.80594" lon="4.1586">
        <ele>158.1</ele>
        <time>2019-11-08T13:05:45Z</time>
      </trkpt>
      <trkpt lat="43.80594" lon="4.15855">
        <ele>158.6</ele>
        <time>2019-11-08T13:05:47Z</time>
      </trkpt>
      <trkpt lat="43.80594" lon="4.15848">
        <ele>159.6</ele>
        <time>2019-11-08T13:05:49Z</time>
      </trkpt>
      <trkpt lat="43.80594" lon="4.15844">
        <ele>160.1</ele>
        <time>2019-11-08T13:05:50Z</time>
      </trkpt>
      <trkpt lat="43.80594" lon="4.15839">
        <ele>160.6</ele>
        <time>2019-11-08T13:05:51Z</time>
      </trkpt>
      <trkpt lat="43.80595" lon="4.15828">
        <ele>162.8</ele>
        <time>2019-11-08T13:05:54Z</time>
      </trkpt>
      <trkpt lat="43.80596" lon="4.15824">
        <ele>163.2</ele>
        <time>2019-11-08T13:05:55Z</time>
      </trkpt>
      <trkpt lat="43.80597" lon="4.15816">
        <ele>163.6</ele>
        <time>2019-11-08T13:05:58Z</time>
      </trkpt>
      <trkpt lat="43.806" lon="4.15807">
        <ele>164.9</ele>
        <time>2019-11-08T13:06:01Z</time>
      </trkpt>
      <trkpt lat="43.80602" lon="4.15799">
        <ele>166.1</ele>
        <time>2019-11-08T13:06:03Z</time>
      </trkpt>
      <trkpt lat="43.80603" lon="4.15794">
        <ele>166.7</ele>
        <time>2019-11-08T13:06:04Z</time>
      </trkpt>
      <trkpt lat="43.80604" lon="4.15788">
        <ele>167.1</ele>
        <time>2019-11-08T13:06:05Z</time>
      </trkpt>
      <trkpt lat="43.80604" lon="4.15781">
        <ele>167.8</ele>
        <time>2019-11-08T13:06:07Z</time>
      </trkpt>
      <trkpt lat="43.80605" lon="4.15774">
        <ele>168.4</ele>
        <time>2019-11-08T13:06:09Z</time>
      </trkpt>
      <trkpt lat="43.80606" lon="4.15765">
        <ele>168.8</ele>
        <time>2019-11-08T13:06:11Z</time>
      </trkpt>
      <trkpt lat="43.80607" lon="4.15761">
        <ele>169.2</ele>
        <time>2019-11-08T13:06:12Z</time>
      </trkpt>
      <trkpt lat="43.80609" lon="4.15758">
        <ele>169.3</ele>
        <time>2019-11-08T13:06:13Z</time>
      </trkpt>
      <trkpt lat="43.8061" lon="4.15752">
        <ele>169.3</ele>
        <time>2019-11-08T13:06:15Z</time>
      </trkpt>
      <trkpt lat="43.80611" lon="4.15747">
        <ele>169.5</ele>
        <time>2019-11-08T13:06:16Z</time>
      </trkpt>
      <trkpt lat="43.80612" lon="4.15742">
        <ele>169.5</ele>
        <time>2019-11-08T13:06:18Z</time>
      </trkpt>
      <trkpt lat="43.80613" lon="4.15738">
        <ele>169.5</ele>
        <time>2019-11-08T13:06:19Z</time>
      </trkpt>
      <trkpt lat="43.80613" lon="4.15728">
        <ele>169.5</ele>
        <time>2019-11-08T13:06:22Z</time>
      </trkpt>
      <trkpt lat="43.80614" lon="4.15724">
        <ele>169.4</ele>
        <time>2019-11-08T13:06:24Z</time>
      </trkpt>
      <trkpt lat="43.80616" lon="4.15719">
        <ele>169.3</ele>
        <time>2019-11-08T13:06:25Z</time>
      </trkpt>
      <trkpt lat="43.80617" lon="4.15713">
        <ele>169.2</ele>
        <time>2019-11-08T13:06:27Z</time>
      </trkpt>
      <trkpt lat="43.80618" lon="4.15708">
        <ele>168.8</ele>
        <time>2019-11-08T13:06:29Z</time>
      </trkpt>
      <trkpt lat="43.80618" lon="4.15701">
        <ele>168.5</ele>
        <time>2019-11-08T13:06:31Z</time>
      </trkpt>
      <trkpt lat="43.80618" lon="4.15696">
        <ele>168.2</ele>
        <time>2019-11-08T13:06:32Z</time>
      </trkpt>
      <trkpt lat="43.80621" lon="4.15688">
        <ele>167.6</ele>
        <time>2019-11-08T13:06:35Z</time>
      </trkpt>
      <trkpt lat="43.80623" lon="4.15685">
        <ele>167.4</ele>
        <time>2019-11-08T13:06:38Z</time>
      </trkpt>
      <trkpt lat="43.80625" lon="4.15682">
        <ele>167.4</ele>
        <time>2019-11-08T13:06:41Z</time>
      </trkpt>
      <trkpt lat="43.80628" lon="4.1568">
        <ele>167.2</ele>
        <time>2019-11-08T13:06:43Z</time>
      </trkpt>
      <trkpt lat="43.8063" lon="4.15677">
        <ele>167.1</ele>
        <time>2019-11-08T13:06:48Z</time>
      </trkpt>
      <trkpt lat="43.80632" lon="4.15674">
        <ele>167.2</ele>
        <time>2019-11-08T13:06:49Z</time>
      </trkpt>
      <trkpt lat="43.80637" lon="4.15669">
        <ele>167</ele>
        <time>2019-11-08T13:06:51Z</time>
      </trkpt>
      <trkpt lat="43.80639" lon="4.15666">
        <ele>167.2</ele>
        <time>2019-11-08T13:06:54Z</time>
      </trkpt>
      <trkpt lat="43.80642" lon="4.15662">
        <ele>167.2</ele>
        <time>2019-11-08T13:06:56Z</time>
      </trkpt>
      <trkpt lat="43.80644" lon="4.15658">
        <ele>167.3</ele>
        <time>2019-11-08T13:06:59Z</time>
      </trkpt>
      <trkpt lat="43.80646" lon="4.15655">
        <ele>167</ele>
        <time>2019-11-08T13:07:00Z</time>
      </trkpt>
      <trkpt lat="43.8065" lon="4.15652">
        <ele>167.2</ele>
        <time>2019-11-08T13:07:03Z</time>
      </trkpt>
      <trkpt lat="43.80654" lon="4.15652">
        <ele>167.2</ele>
        <time>2019-11-08T13:07:05Z</time>
      </trkpt>
      <trkpt lat="43.80659" lon="4.1565">
        <ele>167.6</ele>
        <time>2019-11-08T13:07:08Z</time>
      </trkpt>
      <trkpt lat="43.80663" lon="4.15649">
        <ele>168</ele>
        <time>2019-11-08T13:07:09Z</time>
      </trkpt>
      <trkpt lat="43.80669" lon="4.15648">
        <ele>168.5</ele>
        <time>2019-11-08T13:07:11Z</time>
      </trkpt>
      <trkpt lat="43.80673" lon="4.15648">
        <ele>168.7</ele>
        <time>2019-11-08T13:07:15Z</time>
      </trkpt>
      <trkpt lat="43.80679" lon="4.15648">
        <ele>169.2</ele>
        <time>2019-11-08T13:07:18Z</time>
      </trkpt>
      <trkpt lat="43.80684" lon="4.15649">
        <ele>169.4</ele>
        <time>2019-11-08T13:07:20Z</time>
      </trkpt>
      <trkpt lat="43.80688" lon="4.15651">
        <ele>169.9</ele>
        <time>2019-11-08T13:07:22Z</time>
      </trkpt>
      <trkpt lat="43.80691" lon="4.15651">
        <ele>169.9</ele>
        <time>2019-11-08T13:07:23Z</time>
      </trkpt>
      <trkpt lat="43.80693" lon="4.15652">
        <ele>170.1</ele>
        <time>2019-11-08T13:07:24Z</time>
      </trkpt>
      <trkpt lat="43.80696" lon="4.15653">
        <ele>170.5</ele>
        <time>2019-11-08T13:07:25Z</time>
      </trkpt>
      <trkpt lat="43.807" lon="4.15655">
        <ele>170.9</ele>
        <time>2019-11-08T13:07:28Z</time>
      </trkpt>
      <trkpt lat="43.80703" lon="4.15657">
        <ele>170.9</ele>
        <time>2019-11-08T13:07:30Z</time>
      </trkpt>
      <trkpt lat="43.80707" lon="4.15658">
        <ele>171.3</ele>
        <time>2019-11-08T13:07:31Z</time>
      </trkpt>
      <trkpt lat="43.80711" lon="4.15661">
        <ele>171.6</ele>
        <time>2019-11-08T13:07:33Z</time>
      </trkpt>
      <trkpt lat="43.80716" lon="4.15664">
        <ele>171.9</ele>
        <time>2019-11-08T13:07:35Z</time>
      </trkpt>
      <trkpt lat="43.80721" lon="4.15666">
        <ele>172.1</ele>
        <time>2019-11-08T13:07:37Z</time>
      </trkpt>
      <trkpt lat="43.80724" lon="4.15668">
        <ele>172.2</ele>
        <time>2019-11-08T13:07:38Z</time>
      </trkpt>
      <trkpt lat="43.8073" lon="4.15671">
        <ele>172.5</ele>
        <time>2019-11-08T13:07:40Z</time>
      </trkpt>
      <trkpt lat="43.80734" lon="4.15674">
        <ele>172.6</ele>
        <time>2019-11-08T13:07:42Z</time>
      </trkpt>
      <trkpt lat="43.80738" lon="4.15673">
        <ele>172.6</ele>
        <time>2019-11-08T13:07:43Z</time>
      </trkpt>
      <trkpt lat="43.80742" lon="4.15669">
        <ele>172.6</ele>
        <time>2019-11-08T13:07:44Z</time>
      </trkpt>
      <trkpt lat="43.80743" lon="4.15663">
        <ele>172.4</ele>
        <time>2019-11-08T13:07:46Z</time>
      </trkpt>
      <trkpt lat="43.80746" lon="4.15655">
        <ele>172.1</ele>
        <time>2019-11-08T13:07:47Z</time>
      </trkpt>
      <trkpt lat="43.80748" lon="4.15649">
        <ele>171.9</ele>
        <time>2019-11-08T13:07:48Z</time>
      </trkpt>
      <trkpt lat="43.8075" lon="4.15643">
        <ele>171.5</ele>
        <time>2019-11-08T13:07:49Z</time>
      </trkpt>
      <trkpt lat="43.80753" lon="4.15639">
        <ele>171.3</ele>
        <time>2019-11-08T13:07:50Z</time>
      </trkpt>
      <trkpt lat="43.80756" lon="4.15637">
        <ele>171.2</ele>
        <time>2019-11-08T13:07:52Z</time>
      </trkpt>
      <trkpt lat="43.8076" lon="4.15635">
        <ele>171</ele>
        <time>2019-11-08T13:07:53Z</time>
      </trkpt>
      <trkpt lat="43.8076" lon="4.15631">
        <ele>170.8</ele>
        <time>2019-11-08T13:07:54Z</time>
      </trkpt>
      <trkpt lat="43.8076" lon="4.15622">
        <ele>170.4</ele>
        <time>2019-11-08T13:07:56Z</time>
      </trkpt>
      <trkpt lat="43.80759" lon="4.15618">
        <ele>170.2</ele>
        <time>2019-11-08T13:07:57Z</time>
      </trkpt>
      <trkpt lat="43.80761" lon="4.1561">
        <ele>170</ele>
        <time>2019-11-08T13:07:58Z</time>
      </trkpt>
      <trkpt lat="43.80764" lon="4.15603">
        <ele>169.5</ele>
        <time>2019-11-08T13:08:00Z</time>
      </trkpt>
      <trkpt lat="43.80768" lon="4.15602">
        <ele>169.5</ele>
        <time>2019-11-08T13:08:01Z</time>
      </trkpt>
      <trkpt lat="43.80772" lon="4.15604">
        <ele>169.4</ele>
        <time>2019-11-08T13:08:02Z</time>
      </trkpt>
      <trkpt lat="43.80778" lon="4.15608">
        <ele>169.5</ele>
        <time>2019-11-08T13:08:03Z</time>
      </trkpt>
      <trkpt lat="43.80782" lon="4.15609">
        <ele>169.7</ele>
        <time>2019-11-08T13:08:05Z</time>
      </trkpt>
      <trkpt lat="43.80786" lon="4.1561">
        <ele>169.7</ele>
        <time>2019-11-08T13:08:06Z</time>
      </trkpt>
      <trkpt lat="43.80789" lon="4.1561">
        <ele>169.7</ele>
        <time>2019-11-08T13:08:07Z</time>
      </trkpt>
      <trkpt lat="43.80794" lon="4.15611">
        <ele>169.7</ele>
        <time>2019-11-08T13:08:08Z</time>
      </trkpt>
      <trkpt lat="43.80801" lon="4.15611">
        <ele>169.6</ele>
        <time>2019-11-08T13:08:09Z</time>
      </trkpt>
      <trkpt lat="43.80805" lon="4.1561">
        <ele>169.5</ele>
        <time>2019-11-08T13:08:10Z</time>
      </trkpt>
      <trkpt lat="43.8081" lon="4.15609">
        <ele>169.2</ele>
        <time>2019-11-08T13:08:12Z</time>
      </trkpt>
      <trkpt lat="43.80813" lon="4.15606">
        <ele>169</ele>
        <time>2019-11-08T13:08:13Z</time>
      </trkpt>
      <trkpt lat="43.80818" lon="4.156">
        <ele>168.4</ele>
        <time>2019-11-08T13:08:14Z</time>
      </trkpt>
      <trkpt lat="43.80822" lon="4.15597">
        <ele>168.1</ele>
        <time>2019-11-08T13:08:16Z</time>
      </trkpt>
      <trkpt lat="43.80827" lon="4.15596">
        <ele>167.7</ele>
        <time>2019-11-08T13:08:17Z</time>
      </trkpt>
      <trkpt lat="43.80835" lon="4.156">
        <ele>166.5</ele>
        <time>2019-11-08T13:08:19Z</time>
      </trkpt>
      <trkpt lat="43.80838" lon="4.15605">
        <ele>165.9</ele>
        <time>2019-11-08T13:08:20Z</time>
      </trkpt>
      <trkpt lat="43.80844" lon="4.15614">
        <ele>164.7</ele>
        <time>2019-11-08T13:08:22Z</time>
      </trkpt>
      <trkpt lat="43.80846" lon="4.15621">
        <ele>164.2</ele>
        <time>2019-11-08T13:08:23Z</time>
      </trkpt>
      <trkpt lat="43.80849" lon="4.15626">
        <ele>163.7</ele>
        <time>2019-11-08T13:08:24Z</time>
      </trkpt>
      <trkpt lat="43.80856" lon="4.15633">
        <ele>162.7</ele>
        <time>2019-11-08T13:08:26Z</time>
      </trkpt>
      <trkpt lat="43.8086" lon="4.15639">
        <ele>162.3</ele>
        <time>2019-11-08T13:08:27Z</time>
      </trkpt>
      <trkpt lat="43.80865" lon="4.15646">
        <ele>161.5</ele>
        <time>2019-11-08T13:08:29Z</time>
      </trkpt>
      <trkpt lat="43.80874" lon="4.15658">
        <ele>160.5</ele>
        <time>2019-11-08T13:08:31Z</time>
      </trkpt>
      <trkpt lat="43.80882" lon="4.15671">
        <ele>160</ele>
        <time>2019-11-08T13:08:33Z</time>
      </trkpt>
      <trkpt lat="43.80885" lon="4.15677">
        <ele>159.6</ele>
        <time>2019-11-08T13:08:34Z</time>
      </trkpt>
      <trkpt lat="43.80889" lon="4.15683">
        <ele>159</ele>
        <time>2019-11-08T13:08:35Z</time>
      </trkpt>
      <trkpt lat="43.80892" lon="4.15687">
        <ele>157.8</ele>
        <time>2019-11-08T13:08:36Z</time>
      </trkpt>
      <trkpt lat="43.80901" lon="4.15685">
        <ele>157.2</ele>
        <time>2019-11-08T13:08:38Z</time>
      </trkpt>
      <trkpt lat="43.80907" lon="4.15682">
        <ele>156.3</ele>
        <time>2019-11-08T13:08:39Z</time>
      </trkpt>
      <trkpt lat="43.80919" lon="4.15678">
        <ele>154.8</ele>
        <time>2019-11-08T13:08:41Z</time>
      </trkpt>
      <trkpt lat="43.80933" lon="4.15678">
        <ele>152.5</ele>
        <time>2019-11-08T13:08:43Z</time>
      </trkpt>
      <trkpt lat="43.8094" lon="4.15679">
        <ele>151.7</ele>
        <time>2019-11-08T13:08:44Z</time>
      </trkpt>
      <trkpt lat="43.80945" lon="4.1568">
        <ele>151</ele>
        <time>2019-11-08T13:08:45Z</time>
      </trkpt>
      <trkpt lat="43.80952" lon="4.15679">
        <ele>150.4</ele>
        <time>2019-11-08T13:08:47Z</time>
      </trkpt>
      <trkpt lat="43.80956" lon="4.15675">
        <ele>150.3</ele>
        <time>2019-11-08T13:08:49Z</time>
      </trkpt>
      <trkpt lat="43.80959" lon="4.15673">
        <ele>150.3</ele>
        <time>2019-11-08T13:08:50Z</time>
      </trkpt>
      <trkpt lat="43.80964" lon="4.15672">
        <ele>149.7</ele>
        <time>2019-11-08T13:08:51Z</time>
      </trkpt>
      <trkpt lat="43.8097" lon="4.15673">
        <ele>149.1</ele>
        <time>2019-11-08T13:08:53Z</time>
      </trkpt>
      <trkpt lat="43.80981" lon="4.15668">
        <ele>148.6</ele>
        <time>2019-11-08T13:08:55Z</time>
      </trkpt>
      <trkpt lat="43.80989" lon="4.15656">
        <ele>149.1</ele>
        <time>2019-11-08T13:08:57Z</time>
      </trkpt>
      <trkpt lat="43.80997" lon="4.15644">
        <ele>149.6</ele>
        <time>2019-11-08T13:08:59Z</time>
      </trkpt>
      <trkpt lat="43.81002" lon="4.15639">
        <ele>150.1</ele>
        <time>2019-11-08T13:09:00Z</time>
      </trkpt>
      <trkpt lat="43.81008" lon="4.15637">
        <ele>150.2</ele>
        <time>2019-11-08T13:09:01Z</time>
      </trkpt>
      <trkpt lat="43.81022" lon="4.15631">
        <ele>150.7</ele>
        <time>2019-11-08T13:09:03Z</time>
      </trkpt>
      <trkpt lat="43.81033" lon="4.1562">
        <ele>151.7</ele>
        <time>2019-11-08T13:09:05Z</time>
      </trkpt>
      <trkpt lat="43.81044" lon="4.15604">
        <ele>152.9</ele>
        <time>2019-11-08T13:09:07Z</time>
      </trkpt>
      <trkpt lat="43.8105" lon="4.15596">
        <ele>153.3</ele>
        <time>2019-11-08T13:09:08Z</time>
      </trkpt>
      <trkpt lat="43.81056" lon="4.1559">
        <ele>153.4</ele>
        <time>2019-11-08T13:09:09Z</time>
      </trkpt>
      <trkpt lat="43.81067" lon="4.15576">
        <ele>152.7</ele>
        <time>2019-11-08T13:09:11Z</time>
      </trkpt>
      <trkpt lat="43.81076" lon="4.15562">
        <ele>151.1</ele>
        <time>2019-11-08T13:09:13Z</time>
      </trkpt>
      <trkpt lat="43.81082" lon="4.15555">
        <ele>149.9</ele>
        <time>2019-11-08T13:09:14Z</time>
      </trkpt>
      <trkpt lat="43.81087" lon="4.15548">
        <ele>148.4</ele>
        <time>2019-11-08T13:09:15Z</time>
      </trkpt>
      <trkpt lat="43.81098" lon="4.15533">
        <ele>146</ele>
        <time>2019-11-08T13:09:17Z</time>
      </trkpt>
      <trkpt lat="43.81111" lon="4.15517">
        <ele>142.4</ele>
        <time>2019-11-08T13:09:19Z</time>
      </trkpt>
      <trkpt lat="43.81124" lon="4.15502">
        <ele>138</ele>
        <time>2019-11-08T13:09:21Z</time>
      </trkpt>
      <trkpt lat="43.8113" lon="4.15495">
        <ele>136</ele>
        <time>2019-11-08T13:09:22Z</time>
      </trkpt>
      <trkpt lat="43.81136" lon="4.1549">
        <ele>133.7</ele>
        <time>2019-11-08T13:09:23Z</time>
      </trkpt>
      <trkpt lat="43.81143" lon="4.1549">
        <ele>130.3</ele>
        <time>2019-11-08T13:09:24Z</time>
      </trkpt>
      <trkpt lat="43.8115" lon="4.15491">
        <ele>128.3</ele>
        <time>2019-11-08T13:09:25Z</time>
      </trkpt>
      <trkpt lat="43.81166" lon="4.15497">
        <ele>123.1</ele>
        <time>2019-11-08T13:09:27Z</time>
      </trkpt>
      <trkpt lat="43.81174" lon="4.155">
        <ele>120</ele>
        <time>2019-11-08T13:09:28Z</time>
      </trkpt>
      <trkpt lat="43.8119" lon="4.15506">
        <ele>114.6</ele>
        <time>2019-11-08T13:09:30Z</time>
      </trkpt>
      <trkpt lat="43.81203" lon="4.15513">
        <ele>111.5</ele>
        <time>2019-11-08T13:09:32Z</time>
      </trkpt>
      <trkpt lat="43.81214" lon="4.1552">
        <ele>111.1</ele>
        <time>2019-11-08T13:09:34Z</time>
      </trkpt>
      <trkpt lat="43.81218" lon="4.15525">
        <ele>111.6</ele>
        <time>2019-11-08T13:09:35Z</time>
      </trkpt>
      <trkpt lat="43.81223" lon="4.15529">
        <ele>112</ele>
        <time>2019-11-08T13:09:36Z</time>
      </trkpt>
      <trkpt lat="43.81227" lon="4.15533">
        <ele>112.8</ele>
        <time>2019-11-08T13:09:37Z</time>
      </trkpt>
      <trkpt lat="43.81234" lon="4.15539">
        <ele>113.5</ele>
        <time>2019-11-08T13:09:39Z</time>
      </trkpt>
      <trkpt lat="43.81238" lon="4.15539">
        <ele>113.7</ele>
        <time>2019-11-08T13:09:40Z</time>
      </trkpt>
      <trkpt lat="43.81241" lon="4.15537">
        <ele>113.8</ele>
        <time>2019-11-08T13:09:41Z</time>
      </trkpt>
      <trkpt lat="43.8125" lon="4.1553">
        <ele>113.4</ele>
        <time>2019-11-08T13:09:43Z</time>
      </trkpt>
      <trkpt lat="43.81255" lon="4.15527">
        <ele>112.9</ele>
        <time>2019-11-08T13:09:44Z</time>
      </trkpt>
      <trkpt lat="43.81259" lon="4.15527">
        <ele>112.6</ele>
        <time>2019-11-08T13:09:46Z</time>
      </trkpt>
      <trkpt lat="43.81259" lon="4.15537">
        <ele>112.6</ele>
        <time>2019-11-08T13:09:49Z</time>
      </trkpt>
      <trkpt lat="43.81259" lon="4.15541">
        <ele>112.7</ele>
        <time>2019-11-08T13:09:50Z</time>
      </trkpt>
      <trkpt lat="43.81262" lon="4.15544">
        <ele>112.4</ele>
        <time>2019-11-08T13:09:52Z</time>
      </trkpt>
      <trkpt lat="43.81267" lon="4.15542">
        <ele>111.9</ele>
        <time>2019-11-08T13:09:54Z</time>
      </trkpt>
      <trkpt lat="43.81272" lon="4.15541">
        <ele>111.7</ele>
        <time>2019-11-08T13:09:55Z</time>
      </trkpt>
      <trkpt lat="43.81277" lon="4.15544">
        <ele>111.6</ele>
        <time>2019-11-08T13:09:57Z</time>
      </trkpt>
      <trkpt lat="43.81284" lon="4.15552">
        <ele>112.2</ele>
        <time>2019-11-08T13:09:59Z</time>
      </trkpt>
      <trkpt lat="43.81288" lon="4.15556">
        <ele>112.6</ele>
        <time>2019-11-08T13:10:01Z</time>
      </trkpt>
      <trkpt lat="43.8129" lon="4.1556">
        <ele>113.2</ele>
        <time>2019-11-08T13:10:02Z</time>
      </trkpt>
      <trkpt lat="43.81292" lon="4.15565">
        <ele>113.7</ele>
        <time>2019-11-08T13:10:03Z</time>
      </trkpt>
      <trkpt lat="43.81293" lon="4.1557">
        <ele>114</ele>
        <time>2019-11-08T13:10:04Z</time>
      </trkpt>
      <trkpt lat="43.81294" lon="4.15575">
        <ele>114.2</ele>
        <time>2019-11-08T13:10:05Z</time>
      </trkpt>
      <trkpt lat="43.81295" lon="4.15582">
        <ele>114.9</ele>
        <time>2019-11-08T13:10:07Z</time>
      </trkpt>
      <trkpt lat="43.81297" lon="4.15592">
        <ele>115.2</ele>
        <time>2019-11-08T13:10:09Z</time>
      </trkpt>
      <trkpt lat="43.81299" lon="4.15598">
        <ele>115.8</ele>
        <time>2019-11-08T13:10:11Z</time>
      </trkpt>
      <trkpt lat="43.81299" lon="4.15605">
        <ele>115.9</ele>
        <time>2019-11-08T13:10:12Z</time>
      </trkpt>
      <trkpt lat="43.81298" lon="4.15609">
        <ele>115.9</ele>
        <time>2019-11-08T13:10:14Z</time>
      </trkpt>
      <trkpt lat="43.81298" lon="4.15615">
        <ele>116</ele>
        <time>2019-11-08T13:10:15Z</time>
      </trkpt>
      <trkpt lat="43.81298" lon="4.1562">
        <ele>116</ele>
        <time>2019-11-08T13:10:17Z</time>
      </trkpt>
      <trkpt lat="43.81298" lon="4.15625">
        <ele>115.7</ele>
        <time>2019-11-08T13:10:18Z</time>
      </trkpt>
      <trkpt lat="43.81297" lon="4.1563">
        <ele>115.9</ele>
        <time>2019-11-08T13:10:19Z</time>
      </trkpt>
      <trkpt lat="43.81296" lon="4.15635">
        <ele>116.1</ele>
        <time>2019-11-08T13:10:20Z</time>
      </trkpt>
      <trkpt lat="43.81296" lon="4.15642">
        <ele>116.6</ele>
        <time>2019-11-08T13:10:21Z</time>
      </trkpt>
      <trkpt lat="43.81297" lon="4.15647">
        <ele>116.9</ele>
        <time>2019-11-08T13:10:23Z</time>
      </trkpt>
      <trkpt lat="43.81298" lon="4.15652">
        <ele>117.6</ele>
        <time>2019-11-08T13:10:24Z</time>
      </trkpt>
      <trkpt lat="43.81298" lon="4.15659">
        <ele>117.8</ele>
        <time>2019-11-08T13:10:26Z</time>
      </trkpt>
      <trkpt lat="43.81299" lon="4.15664">
        <ele>117.9</ele>
        <time>2019-11-08T13:10:27Z</time>
      </trkpt>
      <trkpt lat="43.81301" lon="4.1567">
        <ele>118.2</ele>
        <time>2019-11-08T13:10:28Z</time>
      </trkpt>
      <trkpt lat="43.81302" lon="4.15674">
        <ele>118.4</ele>
        <time>2019-11-08T13:10:30Z</time>
      </trkpt>
      <trkpt lat="43.81305" lon="4.15681">
        <ele>118.6</ele>
        <time>2019-11-08T13:10:32Z</time>
      </trkpt>
      <trkpt lat="43.8131" lon="4.15688">
        <ele>118.9</ele>
        <time>2019-11-08T13:10:33Z</time>
      </trkpt>
      <trkpt lat="43.81312" lon="4.15693">
        <ele>119.1</ele>
        <time>2019-11-08T13:10:35Z</time>
      </trkpt>
      <trkpt lat="43.81318" lon="4.15706">
        <ele>119.6</ele>
        <time>2019-11-08T13:10:37Z</time>
      </trkpt>
      <trkpt lat="43.81322" lon="4.15712">
        <ele>119.8</ele>
        <time>2019-11-08T13:10:39Z</time>
      </trkpt>
      <trkpt lat="43.81325" lon="4.15716">
        <ele>120.1</ele>
        <time>2019-11-08T13:10:40Z</time>
      </trkpt>
      <trkpt lat="43.81328" lon="4.1572">
        <ele>120.4</ele>
        <time>2019-11-08T13:10:41Z</time>
      </trkpt>
      <trkpt lat="43.8133" lon="4.15724">
        <ele>120.7</ele>
        <time>2019-11-08T13:10:42Z</time>
      </trkpt>
      <trkpt lat="43.81333" lon="4.15728">
        <ele>121</ele>
        <time>2019-11-08T13:10:43Z</time>
      </trkpt>
      <trkpt lat="43.81337" lon="4.15734">
        <ele>121.1</ele>
        <time>2019-11-08T13:10:45Z</time>
      </trkpt>
      <trkpt lat="43.8134" lon="4.1574">
        <ele>121.2</ele>
        <time>2019-11-08T13:10:46Z</time>
      </trkpt>
      <trkpt lat="43.81343" lon="4.15745">
        <ele>121.3</ele>
        <time>2019-11-08T13:10:48Z</time>
      </trkpt>
      <trkpt lat="43.81348" lon="4.15756">
        <ele>121.5</ele>
        <time>2019-11-08T13:10:50Z</time>
      </trkpt>
      <trkpt lat="43.8135" lon="4.15759">
        <ele>121.5</ele>
        <time>2019-11-08T13:10:51Z</time>
      </trkpt>
      <trkpt lat="43.81354" lon="4.15764">
        <ele>122.2</ele>
        <time>2019-11-08T13:10:53Z</time>
      </trkpt>
      <trkpt lat="43.81357" lon="4.15767">
        <ele>122.7</ele>
        <time>2019-11-08T13:10:54Z</time>
      </trkpt>
      <trkpt lat="43.81358" lon="4.15771">
        <ele>122.7</ele>
        <time>2019-11-08T13:10:56Z</time>
      </trkpt>
      <trkpt lat="43.81359" lon="4.15776">
        <ele>122.8</ele>
        <time>2019-11-08T13:10:57Z</time>
      </trkpt>
      <trkpt lat="43.81362" lon="4.15781">
        <ele>123.6</ele>
        <time>2019-11-08T13:10:58Z</time>
      </trkpt>
      <trkpt lat="43.81365" lon="4.15784">
        <ele>123.9</ele>
        <time>2019-11-08T13:10:59Z</time>
      </trkpt>
      <trkpt lat="43.8137" lon="4.15788">
        <ele>124.8</ele>
        <time>2019-11-08T13:11:01Z</time>
      </trkpt>
      <trkpt lat="43.81373" lon="4.15791">
        <ele>125.3</ele>
        <time>2019-11-08T13:11:02Z</time>
      </trkpt>
      <trkpt lat="43.81376" lon="4.15795">
        <ele>125.9</ele>
        <time>2019-11-08T13:11:03Z</time>
      </trkpt>
      <trkpt lat="43.81379" lon="4.15801">
        <ele>126.5</ele>
        <time>2019-11-08T13:11:04Z</time>
      </trkpt>
      <trkpt lat="43.81383" lon="4.15807">
        <ele>127.3</ele>
        <time>2019-11-08T13:11:06Z</time>
      </trkpt>
      <trkpt lat="43.81385" lon="4.1581">
        <ele>127.6</ele>
        <time>2019-11-08T13:11:07Z</time>
      </trkpt>
      <trkpt lat="43.81388" lon="4.15815">
        <ele>127.8</ele>
        <time>2019-11-08T13:11:08Z</time>
      </trkpt>
      <trkpt lat="43.8139" lon="4.15819">
        <ele>128.3</ele>
        <time>2019-11-08T13:11:10Z</time>
      </trkpt>
      <trkpt lat="43.81393" lon="4.15826">
        <ele>128.8</ele>
        <time>2019-11-08T13:11:11Z</time>
      </trkpt>
      <trkpt lat="43.81396" lon="4.1583">
        <ele>129.1</ele>
        <time>2019-11-08T13:11:12Z</time>
      </trkpt>
      <trkpt lat="43.81397" lon="4.15834">
        <ele>129.4</ele>
        <time>2019-11-08T13:11:14Z</time>
      </trkpt>
      <trkpt lat="43.81403" lon="4.15846">
        <ele>130</ele>
        <time>2019-11-08T13:11:16Z</time>
      </trkpt>
      <trkpt lat="43.81404" lon="4.1585">
        <ele>130.5</ele>
        <time>2019-11-08T13:11:17Z</time>
      </trkpt>
      <trkpt lat="43.81405" lon="4.15857">
        <ele>130.6</ele>
        <time>2019-11-08T13:11:19Z</time>
      </trkpt>
      <trkpt lat="43.81406" lon="4.15862">
        <ele>130.8</ele>
        <time>2019-11-08T13:11:20Z</time>
      </trkpt>
      <trkpt lat="43.81407" lon="4.15867">
        <ele>131.4</ele>
        <time>2019-11-08T13:11:21Z</time>
      </trkpt>
      <trkpt lat="43.81408" lon="4.15871">
        <ele>131.5</ele>
        <time>2019-11-08T13:11:22Z</time>
      </trkpt>
      <trkpt lat="43.8141" lon="4.15877">
        <ele>132.4</ele>
        <time>2019-11-08T13:11:23Z</time>
      </trkpt>
      <trkpt lat="43.81412" lon="4.15882">
        <ele>132.6</ele>
        <time>2019-11-08T13:11:25Z</time>
      </trkpt>
      <trkpt lat="43.81412" lon="4.15887">
        <ele>132.7</ele>
        <time>2019-11-08T13:11:27Z</time>
      </trkpt>
      <trkpt lat="43.81409" lon="4.15893">
        <ele>132.3</ele>
        <time>2019-11-08T13:11:28Z</time>
      </trkpt>
      <trkpt lat="43.81407" lon="4.15898">
        <ele>132.6</ele>
        <time>2019-11-08T13:11:30Z</time>
      </trkpt>
      <trkpt lat="43.81406" lon="4.15902">
        <ele>132.8</ele>
        <time>2019-11-08T13:11:31Z</time>
      </trkpt>
      <trkpt lat="43.81405" lon="4.15908">
        <ele>132.5</ele>
        <time>2019-11-08T13:11:33Z</time>
      </trkpt>
      <trkpt lat="43.81403" lon="4.15915">
        <ele>132.9</ele>
        <time>2019-11-08T13:11:34Z</time>
      </trkpt>
      <trkpt lat="43.81401" lon="4.15924">
        <ele>133</ele>
        <time>2019-11-08T13:11:36Z</time>
      </trkpt>
      <trkpt lat="43.814" lon="4.15928">
        <ele>133</ele>
        <time>2019-11-08T13:11:38Z</time>
      </trkpt>
      <trkpt lat="43.81398" lon="4.15933">
        <ele>133.2</ele>
        <time>2019-11-08T13:11:39Z</time>
      </trkpt>
      <trkpt lat="43.81396" lon="4.15939">
        <ele>133.3</ele>
        <time>2019-11-08T13:11:40Z</time>
      </trkpt>
      <trkpt lat="43.81394" lon="4.15944">
        <ele>133.8</ele>
        <time>2019-11-08T13:11:42Z</time>
      </trkpt>
      <trkpt lat="43.81392" lon="4.1595">
        <ele>134.2</ele>
        <time>2019-11-08T13:11:44Z</time>
      </trkpt>
      <trkpt lat="43.81391" lon="4.15954">
        <ele>134.5</ele>
        <time>2019-11-08T13:11:45Z</time>
      </trkpt>
      <trkpt lat="43.81389" lon="4.15963">
        <ele>135.2</ele>
        <time>2019-11-08T13:11:47Z</time>
      </trkpt>
      <trkpt lat="43.81388" lon="4.15966">
        <ele>135.6</ele>
        <time>2019-11-08T13:11:48Z</time>
      </trkpt>
      <trkpt lat="43.81387" lon="4.15973">
        <ele>135.9</ele>
        <time>2019-11-08T13:11:50Z</time>
      </trkpt>
      <trkpt lat="43.81386" lon="4.15977">
        <ele>136.2</ele>
        <time>2019-11-08T13:11:51Z</time>
      </trkpt>
      <trkpt lat="43.81386" lon="4.15987">
        <ele>136.8</ele>
        <time>2019-11-08T13:11:53Z</time>
      </trkpt>
      <trkpt lat="43.81386" lon="4.15992">
        <ele>137.3</ele>
        <time>2019-11-08T13:11:54Z</time>
      </trkpt>
      <trkpt lat="43.81387" lon="4.15997">
        <ele>137.5</ele>
        <time>2019-11-08T13:11:56Z</time>
      </trkpt>
      <trkpt lat="43.81387" lon="4.16002">
        <ele>137.7</ele>
        <time>2019-11-08T13:11:57Z</time>
      </trkpt>
      <trkpt lat="43.81387" lon="4.16006">
        <ele>137.9</ele>
        <time>2019-11-08T13:11:58Z</time>
      </trkpt>
      <trkpt lat="43.81385" lon="4.1601">
        <ele>138.1</ele>
        <time>2019-11-08T13:12:00Z</time>
      </trkpt>
      <trkpt lat="43.81383" lon="4.16017">
        <ele>138.5</ele>
        <time>2019-11-08T13:12:01Z</time>
      </trkpt>
      <trkpt lat="43.81381" lon="4.16021">
        <ele>138.5</ele>
        <time>2019-11-08T13:12:02Z</time>
      </trkpt>
      <trkpt lat="43.8138" lon="4.16025">
        <ele>138.7</ele>
        <time>2019-11-08T13:12:03Z</time>
      </trkpt>
      <trkpt lat="43.81379" lon="4.1603">
        <ele>138.8</ele>
        <time>2019-11-08T13:12:05Z</time>
      </trkpt>
      <trkpt lat="43.81378" lon="4.16037">
        <ele>139.2</ele>
        <time>2019-11-08T13:12:06Z</time>
      </trkpt>
      <trkpt lat="43.81377" lon="4.16041">
        <ele>139.3</ele>
        <time>2019-11-08T13:12:07Z</time>
      </trkpt>
      <trkpt lat="43.81375" lon="4.16046">
        <ele>139.4</ele>
        <time>2019-11-08T13:12:09Z</time>
      </trkpt>
      <trkpt lat="43.81373" lon="4.1605">
        <ele>139.6</ele>
        <time>2019-11-08T13:12:10Z</time>
      </trkpt>
      <trkpt lat="43.81371" lon="4.16056">
        <ele>139.8</ele>
        <time>2019-11-08T13:12:12Z</time>
      </trkpt>
      <trkpt lat="43.81369" lon="4.16062">
        <ele>139.9</ele>
        <time>2019-11-08T13:12:14Z</time>
      </trkpt>
      <trkpt lat="43.81368" lon="4.1607">
        <ele>140.1</ele>
        <time>2019-11-08T13:12:16Z</time>
      </trkpt>
      <trkpt lat="43.81366" lon="4.16076">
        <ele>140.1</ele>
        <time>2019-11-08T13:12:17Z</time>
      </trkpt>
      <trkpt lat="43.81363" lon="4.16081">
        <ele>140.2</ele>
        <time>2019-11-08T13:12:19Z</time>
      </trkpt>
      <trkpt lat="43.8136" lon="4.16086">
        <ele>140.4</ele>
        <time>2019-11-08T13:12:20Z</time>
      </trkpt>
      <trkpt lat="43.81359" lon="4.16091">
        <ele>140.5</ele>
        <time>2019-11-08T13:12:21Z</time>
      </trkpt>
      <trkpt lat="43.81356" lon="4.16097">
        <ele>140.6</ele>
        <time>2019-11-08T13:12:23Z</time>
      </trkpt>
      <trkpt lat="43.81355" lon="4.161">
        <ele>140.7</ele>
        <time>2019-11-08T13:12:24Z</time>
      </trkpt>
      <trkpt lat="43.81353" lon="4.16105">
        <ele>140.8</ele>
        <time>2019-11-08T13:12:25Z</time>
      </trkpt>
      <trkpt lat="43.81351" lon="4.16109">
        <ele>140.9</ele>
        <time>2019-11-08T13:12:26Z</time>
      </trkpt>
      <trkpt lat="43.8135" lon="4.16112">
        <ele>140.9</ele>
        <time>2019-11-08T13:12:28Z</time>
      </trkpt>
      <trkpt lat="43.81347" lon="4.16119">
        <ele>140.9</ele>
        <time>2019-11-08T13:12:30Z</time>
      </trkpt>
      <trkpt lat="43.81346" lon="4.16124">
        <ele>141</ele>
        <time>2019-11-08T13:12:31Z</time>
      </trkpt>
      <trkpt lat="43.81347" lon="4.16134">
        <ele>141.3</ele>
        <time>2019-11-08T13:12:33Z</time>
      </trkpt>
      <trkpt lat="43.81348" lon="4.16138">
        <ele>141.5</ele>
        <time>2019-11-08T13:12:35Z</time>
      </trkpt>
      <trkpt lat="43.81348" lon="4.16143">
        <ele>141.6</ele>
        <time>2019-11-08T13:12:36Z</time>
      </trkpt>
      <trkpt lat="43.81348" lon="4.16148">
        <ele>141.7</ele>
        <time>2019-11-08T13:12:37Z</time>
      </trkpt>
      <trkpt lat="43.81348" lon="4.16152">
        <ele>141.7</ele>
        <time>2019-11-08T13:12:39Z</time>
      </trkpt>
      <trkpt lat="43.81347" lon="4.16159">
        <ele>141.7</ele>
        <time>2019-11-08T13:12:41Z</time>
      </trkpt>
      <trkpt lat="43.81346" lon="4.16166">
        <ele>141.8</ele>
        <time>2019-11-08T13:12:42Z</time>
      </trkpt>
      <trkpt lat="43.81346" lon="4.16171">
        <ele>141.8</ele>
        <time>2019-11-08T13:12:43Z</time>
      </trkpt>
      <trkpt lat="43.81345" lon="4.1618">
        <ele>142</ele>
        <time>2019-11-08T13:12:45Z</time>
      </trkpt>
      <trkpt lat="43.81345" lon="4.16186">
        <ele>142.1</ele>
        <time>2019-11-08T13:12:46Z</time>
      </trkpt>
      <trkpt lat="43.81345" lon="4.16193">
        <ele>142.4</ele>
        <time>2019-11-08T13:12:47Z</time>
      </trkpt>
      <trkpt lat="43.81345" lon="4.16198">
        <ele>142.5</ele>
        <time>2019-11-08T13:12:48Z</time>
      </trkpt>
      <trkpt lat="43.81344" lon="4.16203">
        <ele>142.7</ele>
        <time>2019-11-08T13:12:50Z</time>
      </trkpt>
      <trkpt lat="43.81344" lon="4.16208">
        <ele>142.8</ele>
        <time>2019-11-08T13:12:51Z</time>
      </trkpt>
      <trkpt lat="43.81342" lon="4.16214">
        <ele>143</ele>
        <time>2019-11-08T13:12:52Z</time>
      </trkpt>
      <trkpt lat="43.81339" lon="4.16219">
        <ele>143.4</ele>
        <time>2019-11-08T13:12:55Z</time>
      </trkpt>
      <trkpt lat="43.81337" lon="4.16215">
        <ele>143.1</ele>
        <time>2019-11-08T13:12:59Z</time>
      </trkpt>
      <trkpt lat="43.81334" lon="4.16209">
        <ele>142.6</ele>
        <time>2019-11-08T13:13:03Z</time>
      </trkpt>
      <trkpt lat="43.81333" lon="4.16205">
        <ele>142.4</ele>
        <time>2019-11-08T13:13:05Z</time>
      </trkpt>
      <trkpt lat="43.81329" lon="4.16199">
        <ele>142.2</ele>
        <time>2019-11-08T13:13:08Z</time>
      </trkpt>
      <trkpt lat="43.81325" lon="4.16193">
        <ele>142.1</ele>
        <time>2019-11-08T13:13:10Z</time>
      </trkpt>
      <trkpt lat="43.81322" lon="4.16188">
        <ele>141.8</ele>
        <time>2019-11-08T13:13:12Z</time>
      </trkpt>
      <trkpt lat="43.8132" lon="4.16181">
        <ele>141.6</ele>
        <time>2019-11-08T13:13:15Z</time>
      </trkpt>
      <trkpt lat="43.81319" lon="4.16177">
        <ele>141.6</ele>
        <time>2019-11-08T13:13:16Z</time>
      </trkpt>
      <trkpt lat="43.81316" lon="4.16173">
        <ele>141.4</ele>
        <time>2019-11-08T13:13:19Z</time>
      </trkpt>
      <trkpt lat="43.81313" lon="4.16167">
        <ele>141.4</ele>
        <time>2019-11-08T13:13:21Z</time>
      </trkpt>
      <trkpt lat="43.8131" lon="4.16163">
        <ele>141.3</ele>
        <time>2019-11-08T13:13:22Z</time>
      </trkpt>
      <trkpt lat="43.81308" lon="4.1616">
        <ele>141.5</ele>
        <time>2019-11-08T13:13:23Z</time>
      </trkpt>
      <trkpt lat="43.81305" lon="4.16158">
        <ele>141.6</ele>
        <time>2019-11-08T13:13:24Z</time>
      </trkpt>
      <trkpt lat="43.81302" lon="4.16158">
        <ele>142</ele>
        <time>2019-11-08T13:13:26Z</time>
      </trkpt>
      <trkpt lat="43.81299" lon="4.16159">
        <ele>142.6</ele>
        <time>2019-11-08T13:13:27Z</time>
      </trkpt>
      <trkpt lat="43.81298" lon="4.16163">
        <ele>142.8</ele>
        <time>2019-11-08T13:13:30Z</time>
      </trkpt>
      <trkpt lat="43.81297" lon="4.16168">
        <ele>143.5</ele>
        <time>2019-11-08T13:13:32Z</time>
      </trkpt>
      <trkpt lat="43.81295" lon="4.16171">
        <ele>143.5</ele>
        <time>2019-11-08T13:13:33Z</time>
      </trkpt>
      <trkpt lat="43.81294" lon="4.16176">
        <ele>144.3</ele>
        <time>2019-11-08T13:13:35Z</time>
      </trkpt>
      <trkpt lat="43.81291" lon="4.16181">
        <ele>145.4</ele>
        <time>2019-11-08T13:13:37Z</time>
      </trkpt>
      <trkpt lat="43.81288" lon="4.16185">
        <ele>146.2</ele>
        <time>2019-11-08T13:13:39Z</time>
      </trkpt>
      <trkpt lat="43.81286" lon="4.1619">
        <ele>146.4</ele>
        <time>2019-11-08T13:13:40Z</time>
      </trkpt>
      <trkpt lat="43.81282" lon="4.16199">
        <ele>147.3</ele>
        <time>2019-11-08T13:13:43Z</time>
      </trkpt>
      <trkpt lat="43.8128" lon="4.16203">
        <ele>147.9</ele>
        <time>2019-11-08T13:13:44Z</time>
      </trkpt>
      <trkpt lat="43.81279" lon="4.16208">
        <ele>148.6</ele>
        <time>2019-11-08T13:13:46Z</time>
      </trkpt>
      <trkpt lat="43.81278" lon="4.16212">
        <ele>148.6</ele>
        <time>2019-11-08T13:13:47Z</time>
      </trkpt>
      <trkpt lat="43.81276" lon="4.16215">
        <ele>148.7</ele>
        <time>2019-11-08T13:13:49Z</time>
      </trkpt>
      <trkpt lat="43.81273" lon="4.16209">
        <ele>149.6</ele>
        <time>2019-11-08T13:13:52Z</time>
      </trkpt>
      <trkpt lat="43.8127" lon="4.16202">
        <ele>149.6</ele>
        <time>2019-11-08T13:13:55Z</time>
      </trkpt>
      <trkpt lat="43.81269" lon="4.16197">
        <ele>150.2</ele>
        <time>2019-11-08T13:13:57Z</time>
      </trkpt>
      <trkpt lat="43.81267" lon="4.16194">
        <ele>150.1</ele>
        <time>2019-11-08T13:13:58Z</time>
      </trkpt>
      <trkpt lat="43.81265" lon="4.1619">
        <ele>150.8</ele>
        <time>2019-11-08T13:13:59Z</time>
      </trkpt>
      <trkpt lat="43.81262" lon="4.16188">
        <ele>151.5</ele>
        <time>2019-11-08T13:14:01Z</time>
      </trkpt>
      <trkpt lat="43.81258" lon="4.16186">
        <ele>152.1</ele>
        <time>2019-11-08T13:14:03Z</time>
      </trkpt>
      <trkpt lat="43.81254" lon="4.16181">
        <ele>153.5</ele>
        <time>2019-11-08T13:14:05Z</time>
      </trkpt>
      <trkpt lat="43.81249" lon="4.16178">
        <ele>154.2</ele>
        <time>2019-11-08T13:14:06Z</time>
      </trkpt>
      <trkpt lat="43.81245" lon="4.16175">
        <ele>154.8</ele>
        <time>2019-11-08T13:14:08Z</time>
      </trkpt>
      <trkpt lat="43.81242" lon="4.16171">
        <ele>155.4</ele>
        <time>2019-11-08T13:14:09Z</time>
      </trkpt>
      <trkpt lat="43.8124" lon="4.16168">
        <ele>155.8</ele>
        <time>2019-11-08T13:14:10Z</time>
      </trkpt>
      <trkpt lat="43.81237" lon="4.16165">
        <ele>156.2</ele>
        <time>2019-11-08T13:14:11Z</time>
      </trkpt>
      <trkpt lat="43.81234" lon="4.16162">
        <ele>156.5</ele>
        <time>2019-11-08T13:14:12Z</time>
      </trkpt>
      <trkpt lat="43.81231" lon="4.16159">
        <ele>156.8</ele>
        <time>2019-11-08T13:14:14Z</time>
      </trkpt>
      <trkpt lat="43.81228" lon="4.16157">
        <ele>156.9</ele>
        <time>2019-11-08T13:14:15Z</time>
      </trkpt>
      <trkpt lat="43.81225" lon="4.16155">
        <ele>157.2</ele>
        <time>2019-11-08T13:14:16Z</time>
      </trkpt>
      <trkpt lat="43.81221" lon="4.16152">
        <ele>157.2</ele>
        <time>2019-11-08T13:14:18Z</time>
      </trkpt>
      <trkpt lat="43.81218" lon="4.1615">
        <ele>157.4</ele>
        <time>2019-11-08T13:14:19Z</time>
      </trkpt>
      <trkpt lat="43.81214" lon="4.16149">
        <ele>157.3</ele>
        <time>2019-11-08T13:14:20Z</time>
      </trkpt>
      <trkpt lat="43.81209" lon="4.16146">
        <ele>157.3</ele>
        <time>2019-11-08T13:14:22Z</time>
      </trkpt>
      <trkpt lat="43.81206" lon="4.16144">
        <ele>157.3</ele>
        <time>2019-11-08T13:14:23Z</time>
      </trkpt>
      <trkpt lat="43.81201" lon="4.16142">
        <ele>157.4</ele>
        <time>2019-11-08T13:14:25Z</time>
      </trkpt>
      <trkpt lat="43.81197" lon="4.16139">
        <ele>157.2</ele>
        <time>2019-11-08T13:14:26Z</time>
      </trkpt>
      <trkpt lat="43.81192" lon="4.16137">
        <ele>157.1</ele>
        <time>2019-11-08T13:14:29Z</time>
      </trkpt>
      <trkpt lat="43.81188" lon="4.16135">
        <ele>157.2</ele>
        <time>2019-11-08T13:14:30Z</time>
      </trkpt>
      <trkpt lat="43.81183" lon="4.16133">
        <ele>157.3</ele>
        <time>2019-11-08T13:14:31Z</time>
      </trkpt>
      <trkpt lat="43.81179" lon="4.16133">
        <ele>157.3</ele>
        <time>2019-11-08T13:14:33Z</time>
      </trkpt>
      <trkpt lat="43.81173" lon="4.16133">
        <ele>157.4</ele>
        <time>2019-11-08T13:14:35Z</time>
      </trkpt>
      <trkpt lat="43.81161" lon="4.16134">
        <ele>157.5</ele>
        <time>2019-11-08T13:14:36Z</time>
      </trkpt>
      <trkpt lat="43.81147" lon="4.16139">
        <ele>157.8</ele>
        <time>2019-11-08T13:14:38Z</time>
      </trkpt>
      <trkpt lat="43.81142" lon="4.16144">
        <ele>158.1</ele>
        <time>2019-11-08T13:14:39Z</time>
      </trkpt>
      <trkpt lat="43.81137" lon="4.16147">
        <ele>158.4</ele>
        <time>2019-11-08T13:14:40Z</time>
      </trkpt>
      <trkpt lat="43.81124" lon="4.16152">
        <ele>158.5</ele>
        <time>2019-11-08T13:14:42Z</time>
      </trkpt>
      <trkpt lat="43.81117" lon="4.16154">
        <ele>158.2</ele>
        <time>2019-11-08T13:14:43Z</time>
      </trkpt>
      <trkpt lat="43.81104" lon="4.16156">
        <ele>157.9</ele>
        <time>2019-11-08T13:14:45Z</time>
      </trkpt>
      <trkpt lat="43.81092" lon="4.16149">
        <ele>156</ele>
        <time>2019-11-08T13:14:47Z</time>
      </trkpt>
      <trkpt lat="43.81086" lon="4.16143">
        <ele>155.1</ele>
        <time>2019-11-08T13:14:48Z</time>
      </trkpt>
      <trkpt lat="43.81075" lon="4.1613">
        <ele>152.9</ele>
        <time>2019-11-08T13:14:50Z</time>
      </trkpt>
      <trkpt lat="43.8107" lon="4.16124">
        <ele>151.4</ele>
        <time>2019-11-08T13:14:51Z</time>
      </trkpt>
      <trkpt lat="43.8106" lon="4.16109">
        <ele>149.6</ele>
        <time>2019-11-08T13:14:53Z</time>
      </trkpt>
      <trkpt lat="43.81055" lon="4.16102">
        <ele>148.3</ele>
        <time>2019-11-08T13:14:54Z</time>
      </trkpt>
      <trkpt lat="43.81046" lon="4.16089">
        <ele>146.4</ele>
        <time>2019-11-08T13:14:56Z</time>
      </trkpt>
      <trkpt lat="43.81036" lon="4.16079">
        <ele>145.1</ele>
        <time>2019-11-08T13:14:58Z</time>
      </trkpt>
      <trkpt lat="43.81026" lon="4.16069">
        <ele>143.8</ele>
        <time>2019-11-08T13:15:00Z</time>
      </trkpt>
      <trkpt lat="43.81016" lon="4.16063">
        <ele>142.4</ele>
        <time>2019-11-08T13:15:02Z</time>
      </trkpt>
      <trkpt lat="43.81012" lon="4.16064">
        <ele>142</ele>
        <time>2019-11-08T13:15:03Z</time>
      </trkpt>
      <trkpt lat="43.8101" lon="4.16066">
        <ele>142.5</ele>
        <time>2019-11-08T13:15:04Z</time>
      </trkpt>
      <trkpt lat="43.81008" lon="4.16069">
        <ele>142.8</ele>
        <time>2019-11-08T13:15:05Z</time>
      </trkpt>
      <trkpt lat="43.81004" lon="4.1608">
        <ele>143.3</ele>
        <time>2019-11-08T13:15:07Z</time>
      </trkpt>
      <trkpt lat="43.81" lon="4.16087">
        <ele>143.5</ele>
        <time>2019-11-08T13:15:08Z</time>
      </trkpt>
      <trkpt lat="43.80991" lon="4.161">
        <ele>144.2</ele>
        <time>2019-11-08T13:15:10Z</time>
      </trkpt>
      <trkpt lat="43.80987" lon="4.16109">
        <ele>144.6</ele>
        <time>2019-11-08T13:15:11Z</time>
      </trkpt>
      <trkpt lat="43.80979" lon="4.16127">
        <ele>145.2</ele>
        <time>2019-11-08T13:15:13Z</time>
      </trkpt>
      <trkpt lat="43.80971" lon="4.16147">
        <ele>146.1</ele>
        <time>2019-11-08T13:15:15Z</time>
      </trkpt>
      <trkpt lat="43.80963" lon="4.16165">
        <ele>146.4</ele>
        <time>2019-11-08T13:15:17Z</time>
      </trkpt>
      <trkpt lat="43.80957" lon="4.16181">
        <ele>146.6</ele>
        <time>2019-11-08T13:15:19Z</time>
      </trkpt>
      <trkpt lat="43.80954" lon="4.16189">
        <ele>146.8</ele>
        <time>2019-11-08T13:15:20Z</time>
      </trkpt>
      <trkpt lat="43.80952" lon="4.16194">
        <ele>146.9</ele>
        <time>2019-11-08T13:15:21Z</time>
      </trkpt>
      <trkpt lat="43.80949" lon="4.16198">
        <ele>146.9</ele>
        <time>2019-11-08T13:15:23Z</time>
      </trkpt>
      <trkpt lat="43.80946" lon="4.16194">
        <ele>146.5</ele>
        <time>2019-11-08T13:15:26Z</time>
      </trkpt>
      <trkpt lat="43.80944" lon="4.16189">
        <ele>146.2</ele>
        <time>2019-11-08T13:15:28Z</time>
      </trkpt>
      <trkpt lat="43.80939" lon="4.1619">
        <ele>146.1</ele>
        <time>2019-11-08T13:15:31Z</time>
      </trkpt>
      <trkpt lat="43.80935" lon="4.1619">
        <ele>146</ele>
        <time>2019-11-08T13:15:33Z</time>
      </trkpt>
      <trkpt lat="43.80933" lon="4.16193">
        <ele>146</ele>
        <time>2019-11-08T13:15:35Z</time>
      </trkpt>
      <trkpt lat="43.8093" lon="4.16197">
        <ele>145.9</ele>
        <time>2019-11-08T13:15:38Z</time>
      </trkpt>
      <trkpt lat="43.80928" lon="4.16201">
        <ele>145.9</ele>
        <time>2019-11-08T13:15:40Z</time>
      </trkpt>
      <trkpt lat="43.80928" lon="4.16205">
        <ele>146.1</ele>
        <time>2019-11-08T13:15:43Z</time>
      </trkpt>
      <trkpt lat="43.80928" lon="4.1621">
        <ele>146.3</ele>
        <time>2019-11-08T13:15:47Z</time>
      </trkpt>
      <trkpt lat="43.8093" lon="4.16216">
        <ele>146.6</ele>
        <time>2019-11-08T13:15:50Z</time>
      </trkpt>
      <trkpt lat="43.80932" lon="4.1622">
        <ele>146.8</ele>
        <time>2019-11-08T13:15:51Z</time>
      </trkpt>
      <trkpt lat="43.80935" lon="4.16224">
        <ele>147.1</ele>
        <time>2019-11-08T13:15:52Z</time>
      </trkpt>
      <trkpt lat="43.80937" lon="4.16228">
        <ele>147.4</ele>
        <time>2019-11-08T13:15:53Z</time>
      </trkpt>
      <trkpt lat="43.8094" lon="4.16233">
        <ele>147.8</ele>
        <time>2019-11-08T13:15:55Z</time>
      </trkpt>
      <trkpt lat="43.80942" lon="4.16236">
        <ele>148.1</ele>
        <time>2019-11-08T13:15:58Z</time>
      </trkpt>
      <trkpt lat="43.80944" lon="4.16241">
        <ele>148.3</ele>
        <time>2019-11-08T13:16:00Z</time>
      </trkpt>
      <trkpt lat="43.80946" lon="4.16246">
        <ele>148.6</ele>
        <time>2019-11-08T13:16:02Z</time>
      </trkpt>
      <trkpt lat="43.80951" lon="4.16252">
        <ele>149</ele>
        <time>2019-11-08T13:16:03Z</time>
      </trkpt>
      <trkpt lat="43.80958" lon="4.16256">
        <ele>149.4</ele>
        <time>2019-11-08T13:16:05Z</time>
      </trkpt>
      <trkpt lat="43.80962" lon="4.16257">
        <ele>149.4</ele>
        <time>2019-11-08T13:16:06Z</time>
      </trkpt>
      <trkpt lat="43.80968" lon="4.1626">
        <ele>149.8</ele>
        <time>2019-11-08T13:16:08Z</time>
      </trkpt>
      <trkpt lat="43.80971" lon="4.16262">
        <ele>150</ele>
        <time>2019-11-08T13:16:09Z</time>
      </trkpt>
      <trkpt lat="43.80975" lon="4.16266">
        <ele>150.2</ele>
        <time>2019-11-08T13:16:12Z</time>
      </trkpt>
      <trkpt lat="43.80982" lon="4.16273">
        <ele>150.9</ele>
        <time>2019-11-08T13:16:15Z</time>
      </trkpt>
      <trkpt lat="43.80985" lon="4.16277">
        <ele>150.9</ele>
        <time>2019-11-08T13:16:16Z</time>
      </trkpt>
      <trkpt lat="43.80989" lon="4.16283">
        <ele>151.3</ele>
        <time>2019-11-08T13:16:19Z</time>
      </trkpt>
      <trkpt lat="43.80993" lon="4.1629">
        <ele>151.5</ele>
        <time>2019-11-08T13:16:20Z</time>
      </trkpt>
      <trkpt lat="43.80996" lon="4.16295">
        <ele>151.7</ele>
        <time>2019-11-08T13:16:21Z</time>
      </trkpt>
      <trkpt lat="43.80998" lon="4.16298">
        <ele>151.9</ele>
        <time>2019-11-08T13:16:23Z</time>
      </trkpt>
      <trkpt lat="43.81001" lon="4.16301">
        <ele>152.1</ele>
        <time>2019-11-08T13:16:24Z</time>
      </trkpt>
      <trkpt lat="43.81006" lon="4.16304">
        <ele>152.3</ele>
        <time>2019-11-08T13:16:25Z</time>
      </trkpt>
      <trkpt lat="43.81011" lon="4.16307">
        <ele>152.7</ele>
        <time>2019-11-08T13:16:26Z</time>
      </trkpt>
      <trkpt lat="43.81014" lon="4.16308">
        <ele>153</ele>
        <time>2019-11-08T13:16:28Z</time>
      </trkpt>
      <trkpt lat="43.81017" lon="4.1631">
        <ele>153.1</ele>
        <time>2019-11-08T13:16:29Z</time>
      </trkpt>
      <trkpt lat="43.8102" lon="4.16314">
        <ele>153.2</ele>
        <time>2019-11-08T13:16:32Z</time>
      </trkpt>
      <trkpt lat="43.81006" lon="4.16324">
        <ele>151.6</ele>
        <time>2019-11-08T13:16:34Z</time>
      </trkpt>
      <trkpt lat="43.80963" lon="4.16333">
        <ele>149.7</ele>
        <time>2019-11-08T13:16:37Z</time>
      </trkpt>
      <trkpt lat="43.80989" lon="4.16334">
        <ele>150.5</ele>
        <time>2019-11-08T13:16:39Z</time>
      </trkpt>
      <trkpt lat="43.81012" lon="4.16323">
        <ele>152</ele>
        <time>2019-11-08T13:16:41Z</time>
      </trkpt>
      <trkpt lat="43.81016" lon="4.16325">
        <ele>152.2</ele>
        <time>2019-11-08T13:16:44Z</time>
      </trkpt>
      <trkpt lat="43.81019" lon="4.16332">
        <ele>152.4</ele>
        <time>2019-11-08T13:16:46Z</time>
      </trkpt>
      <trkpt lat="43.81022" lon="4.16334">
        <ele>152.4</ele>
        <time>2019-11-08T13:16:47Z</time>
      </trkpt>
      <trkpt lat="43.81025" lon="4.16336">
        <ele>152.8</ele>
        <time>2019-11-08T13:16:48Z</time>
      </trkpt>
      <trkpt lat="43.81029" lon="4.16339">
        <ele>152.9</ele>
        <time>2019-11-08T13:16:50Z</time>
      </trkpt>
      <trkpt lat="43.81049" lon="4.1635">
        <ele>153.9</ele>
        <time>2019-11-08T13:16:52Z</time>
      </trkpt>
      <trkpt lat="43.81066" lon="4.16358">
        <ele>154.6</ele>
        <time>2019-11-08T13:16:53Z</time>
      </trkpt>
      <trkpt lat="43.81073" lon="4.1636">
        <ele>155</ele>
        <time>2019-11-08T13:16:55Z</time>
      </trkpt>
      <trkpt lat="43.81079" lon="4.16361">
        <ele>155.3</ele>
        <time>2019-11-08T13:16:56Z</time>
      </trkpt>
      <trkpt lat="43.81083" lon="4.16362">
        <ele>155.5</ele>
        <time>2019-11-08T13:16:57Z</time>
      </trkpt>
      <trkpt lat="43.81089" lon="4.16366">
        <ele>155.7</ele>
        <time>2019-11-08T13:16:58Z</time>
      </trkpt>
      <trkpt lat="43.81093" lon="4.16368">
        <ele>155.9</ele>
        <time>2019-11-08T13:16:59Z</time>
      </trkpt>
      <trkpt lat="43.81097" lon="4.16371">
        <ele>156.1</ele>
        <time>2019-11-08T13:17:00Z</time>
      </trkpt>
      <trkpt lat="43.811" lon="4.16373">
        <ele>156.3</ele>
        <time>2019-11-08T13:17:01Z</time>
      </trkpt>
      <trkpt lat="43.81104" lon="4.16375">
        <ele>156.3</ele>
        <time>2019-11-08T13:17:02Z</time>
      </trkpt>
      <trkpt lat="43.81108" lon="4.16375">
        <ele>156.5</ele>
        <time>2019-11-08T13:17:04Z</time>
      </trkpt>
      <trkpt lat="43.81112" lon="4.16376">
        <ele>156.8</ele>
        <time>2019-11-08T13:17:05Z</time>
      </trkpt>
      <trkpt lat="43.81116" lon="4.16378">
        <ele>156.9</ele>
        <time>2019-11-08T13:17:06Z</time>
      </trkpt>
      <trkpt lat="43.8112" lon="4.16381">
        <ele>157.1</ele>
        <time>2019-11-08T13:17:08Z</time>
      </trkpt>
      <trkpt lat="43.81142" lon="4.16387">
        <ele>157.8</ele>
        <time>2019-11-08T13:17:10Z</time>
      </trkpt>
      <trkpt lat="43.81159" lon="4.1639">
        <ele>158.3</ele>
        <time>2019-11-08T13:17:11Z</time>
      </trkpt>
      <trkpt lat="43.81173" lon="4.16394">
        <ele>158.5</ele>
        <time>2019-11-08T13:17:12Z</time>
      </trkpt>
      <trkpt lat="43.81182" lon="4.16397">
        <ele>158.5</ele>
        <time>2019-11-08T13:17:13Z</time>
      </trkpt>
      <trkpt lat="43.81195" lon="4.164">
        <ele>158.5</ele>
        <time>2019-11-08T13:17:15Z</time>
      </trkpt>
      <trkpt lat="43.812" lon="4.16399">
        <ele>158.5</ele>
        <time>2019-11-08T13:17:17Z</time>
      </trkpt>
      <trkpt lat="43.81206" lon="4.164">
        <ele>158.5</ele>
        <time>2019-11-08T13:17:22Z</time>
      </trkpt>
      <trkpt lat="43.81208" lon="4.16403">
        <ele>158.5</ele>
        <time>2019-11-08T13:17:25Z</time>
      </trkpt>
      <trkpt lat="43.8121" lon="4.16406">
        <ele>158.4</ele>
        <time>2019-11-08T13:17:28Z</time>
      </trkpt>
      <trkpt lat="43.81212" lon="4.16408">
        <ele>158.4</ele>
        <time>2019-11-08T13:17:39Z</time>
      </trkpt>
      <trkpt lat="43.81214" lon="4.16411">
        <ele>158.4</ele>
        <time>2019-11-08T13:21:54Z</time>
      </trkpt>
      <trkpt lat="43.81216" lon="4.16414">
        <ele>158.4</ele>
        <time>2019-11-08T13:22:01Z</time>
      </trkpt>
      <trkpt lat="43.81218" lon="4.16417">
        <ele>158.4</ele>
        <time>2019-11-08T13:22:04Z</time>
      </trkpt>
      <trkpt lat="43.8122" lon="4.1642">
        <ele>158.4</ele>
        <time>2019-11-08T13:22:05Z</time>
      </trkpt>
      <trkpt lat="43.81225" lon="4.16425">
        <ele>158.4</ele>
        <time>2019-11-08T13:22:07Z</time>
      </trkpt>
      <trkpt lat="43.81227" lon="4.16428">
        <ele>158.4</ele>
        <time>2019-11-08T13:22:08Z</time>
      </trkpt>
      <trkpt lat="43.81228" lon="4.16436">
        <ele>158.6</ele>
        <time>2019-11-08T13:22:10Z</time>
      </trkpt>
      <trkpt lat="43.81225" lon="4.16441">
        <ele>158.6</ele>
        <time>2019-11-08T13:22:12Z</time>
      </trkpt>
      <trkpt lat="43.81221" lon="4.1645">
        <ele>158.8</ele>
        <time>2019-11-08T13:22:13Z</time>
      </trkpt>
      <trkpt lat="43.81219" lon="4.16455">
        <ele>159</ele>
        <time>2019-11-08T13:22:14Z</time>
      </trkpt>
      <trkpt lat="43.81215" lon="4.16461">
        <ele>159.1</ele>
        <time>2019-11-08T13:22:16Z</time>
      </trkpt>
      <trkpt lat="43.81214" lon="4.16464">
        <ele>159.1</ele>
        <time>2019-11-08T13:22:17Z</time>
      </trkpt>
      <trkpt lat="43.8121" lon="4.1647">
        <ele>159.2</ele>
        <time>2019-11-08T13:22:19Z</time>
      </trkpt>
      <trkpt lat="43.81207" lon="4.16474">
        <ele>159.3</ele>
        <time>2019-11-08T13:22:20Z</time>
      </trkpt>
      <trkpt lat="43.81204" lon="4.16481">
        <ele>159.5</ele>
        <time>2019-11-08T13:22:22Z</time>
      </trkpt>
      <trkpt lat="43.81201" lon="4.16486">
        <ele>159.5</ele>
        <time>2019-11-08T13:22:23Z</time>
      </trkpt>
      <trkpt lat="43.81199" lon="4.16493">
        <ele>159.7</ele>
        <time>2019-11-08T13:22:24Z</time>
      </trkpt>
      <trkpt lat="43.81198" lon="4.16498">
        <ele>159.8</ele>
        <time>2019-11-08T13:22:25Z</time>
      </trkpt>
      <trkpt lat="43.81198" lon="4.16504">
        <ele>159.9</ele>
        <time>2019-11-08T13:22:27Z</time>
      </trkpt>
      <trkpt lat="43.81197" lon="4.16512">
        <ele>160.2</ele>
        <time>2019-11-08T13:22:28Z</time>
      </trkpt>
      <trkpt lat="43.81196" lon="4.16519">
        <ele>160.4</ele>
        <time>2019-11-08T13:22:30Z</time>
      </trkpt>
      <trkpt lat="43.81195" lon="4.16524">
        <ele>160.5</ele>
        <time>2019-11-08T13:22:31Z</time>
      </trkpt>
      <trkpt lat="43.81194" lon="4.16532">
        <ele>160.6</ele>
        <time>2019-11-08T13:22:32Z</time>
      </trkpt>
      <trkpt lat="43.81187" lon="4.1654">
        <ele>160.6</ele>
        <time>2019-11-08T13:22:34Z</time>
      </trkpt>
      <trkpt lat="43.81181" lon="4.16545">
        <ele>160.4</ele>
        <time>2019-11-08T13:22:35Z</time>
      </trkpt>
      <trkpt lat="43.8117" lon="4.16554">
        <ele>159.9</ele>
        <time>2019-11-08T13:22:37Z</time>
      </trkpt>
      <trkpt lat="43.81157" lon="4.1656">
        <ele>158.9</ele>
        <time>2019-11-08T13:22:39Z</time>
      </trkpt>
      <trkpt lat="43.8115" lon="4.16564">
        <ele>158.5</ele>
        <time>2019-11-08T13:22:40Z</time>
      </trkpt>
      <trkpt lat="43.81143" lon="4.16567">
        <ele>157.9</ele>
        <time>2019-11-08T13:22:41Z</time>
      </trkpt>
      <trkpt lat="43.81128" lon="4.16572">
        <ele>157.2</ele>
        <time>2019-11-08T13:22:43Z</time>
      </trkpt>
      <trkpt lat="43.81111" lon="4.16571">
        <ele>156.3</ele>
        <time>2019-11-08T13:22:45Z</time>
      </trkpt>
      <trkpt lat="43.81103" lon="4.16568">
        <ele>155.8</ele>
        <time>2019-11-08T13:22:46Z</time>
      </trkpt>
      <trkpt lat="43.81096" lon="4.16566">
        <ele>155.4</ele>
        <time>2019-11-08T13:22:47Z</time>
      </trkpt>
      <trkpt lat="43.81083" lon="4.16563">
        <ele>155</ele>
        <time>2019-11-08T13:22:49Z</time>
      </trkpt>
      <trkpt lat="43.81076" lon="4.16562">
        <ele>154.7</ele>
        <time>2019-11-08T13:22:50Z</time>
      </trkpt>
      <trkpt lat="43.8107" lon="4.1656">
        <ele>154.5</ele>
        <time>2019-11-08T13:22:51Z</time>
      </trkpt>
      <trkpt lat="43.81056" lon="4.16554">
        <ele>154.2</ele>
        <time>2019-11-08T13:22:53Z</time>
      </trkpt>
      <trkpt lat="43.8105" lon="4.16551">
        <ele>153.9</ele>
        <time>2019-11-08T13:22:54Z</time>
      </trkpt>
      <trkpt lat="43.81037" lon="4.16543">
        <ele>153.4</ele>
        <time>2019-11-08T13:22:56Z</time>
      </trkpt>
      <trkpt lat="43.81028" lon="4.16533">
        <ele>152.8</ele>
        <time>2019-11-08T13:22:58Z</time>
      </trkpt>
      <trkpt lat="43.81024" lon="4.16528">
        <ele>152.6</ele>
        <time>2019-11-08T13:22:59Z</time>
      </trkpt>
      <trkpt lat="43.81014" lon="4.16517">
        <ele>152.1</ele>
        <time>2019-11-08T13:23:01Z</time>
      </trkpt>
      <trkpt lat="43.81009" lon="4.16512">
        <ele>152</ele>
        <time>2019-11-08T13:23:02Z</time>
      </trkpt>
      <trkpt lat="43.81004" lon="4.16508">
        <ele>151.9</ele>
        <time>2019-11-08T13:23:03Z</time>
      </trkpt>
      <trkpt lat="43.80993" lon="4.165">
        <ele>151.5</ele>
        <time>2019-11-08T13:23:05Z</time>
      </trkpt>
      <trkpt lat="43.80988" lon="4.16494">
        <ele>151.2</ele>
        <time>2019-11-08T13:23:06Z</time>
      </trkpt>
      <trkpt lat="43.80983" lon="4.16489">
        <ele>150.8</ele>
        <time>2019-11-08T13:23:07Z</time>
      </trkpt>
      <trkpt lat="43.80979" lon="4.16484">
        <ele>150.1</ele>
        <time>2019-11-08T13:23:08Z</time>
      </trkpt>
      <trkpt lat="43.8097" lon="4.16476">
        <ele>149.4</ele>
        <time>2019-11-08T13:23:10Z</time>
      </trkpt>
      <trkpt lat="43.80962" lon="4.16466">
        <ele>148.4</ele>
        <time>2019-11-08T13:23:12Z</time>
      </trkpt>
      <trkpt lat="43.80957" lon="4.16462">
        <ele>148</ele>
        <time>2019-11-08T13:23:13Z</time>
      </trkpt>
      <trkpt lat="43.80948" lon="4.16456">
        <ele>147.2</ele>
        <time>2019-11-08T13:23:15Z</time>
      </trkpt>
      <trkpt lat="43.80943" lon="4.16454">
        <ele>146.6</ele>
        <time>2019-11-08T13:23:16Z</time>
      </trkpt>
      <trkpt lat="43.80934" lon="4.16449">
        <ele>145.8</ele>
        <time>2019-11-08T13:23:18Z</time>
      </trkpt>
      <trkpt lat="43.8093" lon="4.16447">
        <ele>145.7</ele>
        <time>2019-11-08T13:23:19Z</time>
      </trkpt>
      <trkpt lat="43.80926" lon="4.16446">
        <ele>145.3</ele>
        <time>2019-11-08T13:23:20Z</time>
      </trkpt>
      <trkpt lat="43.80922" lon="4.16445">
        <ele>144.9</ele>
        <time>2019-11-08T13:23:21Z</time>
      </trkpt>
      <trkpt lat="43.80918" lon="4.16444">
        <ele>144.8</ele>
        <time>2019-11-08T13:23:22Z</time>
      </trkpt>
      <trkpt lat="43.80915" lon="4.16444">
        <ele>144.6</ele>
        <time>2019-11-08T13:23:24Z</time>
      </trkpt>
      <trkpt lat="43.80902" lon="4.16438">
        <ele>143.7</ele>
        <time>2019-11-08T13:23:26Z</time>
      </trkpt>
      <trkpt lat="43.8089" lon="4.16435">
        <ele>143</ele>
        <time>2019-11-08T13:23:28Z</time>
      </trkpt>
      <trkpt lat="43.80887" lon="4.16432">
        <ele>142.8</ele>
        <time>2019-11-08T13:23:29Z</time>
      </trkpt>
      <trkpt lat="43.80876" lon="4.16431">
        <ele>142.6</ele>
        <time>2019-11-08T13:23:31Z</time>
      </trkpt>
      <trkpt lat="43.80865" lon="4.1643">
        <ele>142.5</ele>
        <time>2019-11-08T13:23:33Z</time>
      </trkpt>
      <trkpt lat="43.8086" lon="4.1643">
        <ele>142.4</ele>
        <time>2019-11-08T13:23:34Z</time>
      </trkpt>
      <trkpt lat="43.80854" lon="4.1643">
        <ele>142.3</ele>
        <time>2019-11-08T13:23:35Z</time>
      </trkpt>
      <trkpt lat="43.80844" lon="4.1643">
        <ele>142.3</ele>
        <time>2019-11-08T13:23:37Z</time>
      </trkpt>
      <trkpt lat="43.80833" lon="4.1643">
        <ele>142.4</ele>
        <time>2019-11-08T13:23:39Z</time>
      </trkpt>
      <trkpt lat="43.80817" lon="4.16428">
        <ele>142.6</ele>
        <time>2019-11-08T13:23:41Z</time>
      </trkpt>
      <trkpt lat="43.80803" lon="4.1643">
        <ele>142.5</ele>
        <time>2019-11-08T13:23:43Z</time>
      </trkpt>
      <trkpt lat="43.80796" lon="4.16427">
        <ele>142.5</ele>
        <time>2019-11-08T13:23:45Z</time>
      </trkpt>
      <trkpt lat="43.80794" lon="4.16424">
        <ele>142.7</ele>
        <time>2019-11-08T13:23:46Z</time>
      </trkpt>
      <trkpt lat="43.80786" lon="4.16418">
        <ele>143.2</ele>
        <time>2019-11-08T13:23:48Z</time>
      </trkpt>
      <trkpt lat="43.8078" lon="4.16417">
        <ele>143.2</ele>
        <time>2019-11-08T13:23:50Z</time>
      </trkpt>
      <trkpt lat="43.80771" lon="4.16416">
        <ele>143.9</ele>
        <time>2019-11-08T13:23:51Z</time>
      </trkpt>
      <trkpt lat="43.80766" lon="4.16414">
        <ele>144</ele>
        <time>2019-11-08T13:23:54Z</time>
      </trkpt>
      <trkpt lat="43.80762" lon="4.16412">
        <ele>144</ele>
        <time>2019-11-08T13:23:55Z</time>
      </trkpt>
      <trkpt lat="43.80757" lon="4.16411">
        <ele>144.7</ele>
        <time>2019-11-08T13:23:56Z</time>
      </trkpt>
      <trkpt lat="43.80753" lon="4.1641">
        <ele>144.7</ele>
        <time>2019-11-08T13:23:57Z</time>
      </trkpt>
      <trkpt lat="43.80746" lon="4.1641">
        <ele>144.7</ele>
        <time>2019-11-08T13:23:58Z</time>
      </trkpt>
      <trkpt lat="43.80731" lon="4.16415">
        <ele>144</ele>
        <time>2019-11-08T13:24:01Z</time>
      </trkpt>
      <trkpt lat="43.80725" lon="4.16417">
        <ele>143.4</ele>
        <time>2019-11-08T13:24:02Z</time>
      </trkpt>
      <trkpt lat="43.80719" lon="4.16418">
        <ele>143.8</ele>
        <time>2019-11-08T13:24:04Z</time>
      </trkpt>
      <trkpt lat="43.80707" lon="4.16429">
        <ele>143.1</ele>
        <time>2019-11-08T13:24:07Z</time>
      </trkpt>
      <trkpt lat="43.80703" lon="4.16432">
        <ele>142.5</ele>
        <time>2019-11-08T13:24:08Z</time>
      </trkpt>
      <trkpt lat="43.80697" lon="4.16438">
        <ele>141.2</ele>
        <time>2019-11-08T13:24:10Z</time>
      </trkpt>
      <trkpt lat="43.80694" lon="4.16442">
        <ele>141.3</ele>
        <time>2019-11-08T13:24:11Z</time>
      </trkpt>
      <trkpt lat="43.8069" lon="4.16446">
        <ele>140.5</ele>
        <time>2019-11-08T13:24:12Z</time>
      </trkpt>
      <trkpt lat="43.80687" lon="4.16449">
        <ele>139.6</ele>
        <time>2019-11-08T13:24:15Z</time>
      </trkpt>
      <trkpt lat="43.80687" lon="4.16453">
        <ele>138.8</ele>
        <time>2019-11-08T13:24:16Z</time>
      </trkpt>
      <trkpt lat="43.80688" lon="4.16458">
        <ele>138.2</ele>
        <time>2019-11-08T13:24:18Z</time>
      </trkpt>
      <trkpt lat="43.80688" lon="4.16454">
        <ele>138.8</ele>
        <time>2019-11-08T13:24:19Z</time>
      </trkpt>
      <trkpt lat="43.80691" lon="4.16451">
        <ele>138.9</ele>
        <time>2019-11-08T13:24:20Z</time>
      </trkpt>
      <trkpt lat="43.80686" lon="4.16452">
        <ele>138.8</ele>
        <time>2019-11-08T13:24:23Z</time>
      </trkpt>
      <trkpt lat="43.80681" lon="4.16453">
        <ele>138.6</ele>
        <time>2019-11-08T13:24:26Z</time>
      </trkpt>
      <trkpt lat="43.80677" lon="4.16454">
        <ele>138.5</ele>
        <time>2019-11-08T13:24:27Z</time>
      </trkpt>
      <trkpt lat="43.80673" lon="4.16455">
        <ele>137.7</ele>
        <time>2019-11-08T13:24:28Z</time>
      </trkpt>
      <trkpt lat="43.80667" lon="4.16456">
        <ele>137.4</ele>
        <time>2019-11-08T13:24:30Z</time>
      </trkpt>
      <trkpt lat="43.80656" lon="4.16456">
        <ele>136.7</ele>
        <time>2019-11-08T13:24:32Z</time>
      </trkpt>
      <trkpt lat="43.80642" lon="4.16455">
        <ele>136.5</ele>
        <time>2019-11-08T13:24:33Z</time>
      </trkpt>
      <trkpt lat="43.80627" lon="4.16456">
        <ele>136.3</ele>
        <time>2019-11-08T13:24:34Z</time>
      </trkpt>
      <trkpt lat="43.80605" lon="4.16458">
        <ele>136.3</ele>
        <time>2019-11-08T13:24:36Z</time>
      </trkpt>
      <trkpt lat="43.8059" lon="4.16458">
        <ele>136.4</ele>
        <time>2019-11-08T13:24:38Z</time>
      </trkpt>
      <trkpt lat="43.80575" lon="4.1646">
        <ele>136.4</ele>
        <time>2019-11-08T13:24:40Z</time>
      </trkpt>
      <trkpt lat="43.80567" lon="4.16463">
        <ele>136.4</ele>
        <time>2019-11-08T13:24:41Z</time>
      </trkpt>
      <trkpt lat="43.80554" lon="4.16466">
        <ele>136.4</ele>
        <time>2019-11-08T13:24:43Z</time>
      </trkpt>
      <trkpt lat="43.8055" lon="4.16469">
        <ele>136.4</ele>
        <time>2019-11-08T13:24:44Z</time>
      </trkpt>
      <trkpt lat="43.80545" lon="4.16467">
        <ele>136.3</ele>
        <time>2019-11-08T13:24:45Z</time>
      </trkpt>
      <trkpt lat="43.80542" lon="4.16472">
        <ele>136.2</ele>
        <time>2019-11-08T13:24:46Z</time>
      </trkpt>
      <trkpt lat="43.80538" lon="4.16478">
        <ele>136.1</ele>
        <time>2019-11-08T13:24:48Z</time>
      </trkpt>
      <trkpt lat="43.80533" lon="4.16483">
        <ele>136</ele>
        <time>2019-11-08T13:24:49Z</time>
      </trkpt>
      <trkpt lat="43.80528" lon="4.16485">
        <ele>135.9</ele>
        <time>2019-11-08T13:24:50Z</time>
      </trkpt>
      <trkpt lat="43.80524" lon="4.16487">
        <ele>135.8</ele>
        <time>2019-11-08T13:24:51Z</time>
      </trkpt>
      <trkpt lat="43.80518" lon="4.16488">
        <ele>135.6</ele>
        <time>2019-11-08T13:24:53Z</time>
      </trkpt>
      <trkpt lat="43.80514" lon="4.16487">
        <ele>135.5</ele>
        <time>2019-11-08T13:24:54Z</time>
      </trkpt>
      <trkpt lat="43.80503" lon="4.16482">
        <ele>135.2</ele>
        <time>2019-11-08T13:24:56Z</time>
      </trkpt>
      <trkpt lat="43.80498" lon="4.16479">
        <ele>135.1</ele>
        <time>2019-11-08T13:24:57Z</time>
      </trkpt>
      <trkpt lat="43.80491" lon="4.16475">
        <ele>135.1</ele>
        <time>2019-11-08T13:24:59Z</time>
      </trkpt>
      <trkpt lat="43.80485" lon="4.16471">
        <ele>135</ele>
        <time>2019-11-08T13:25:00Z</time>
      </trkpt>
      <trkpt lat="43.80476" lon="4.16466">
        <ele>135</ele>
        <time>2019-11-08T13:25:02Z</time>
      </trkpt>
      <trkpt lat="43.80468" lon="4.16463">
        <ele>134.9</ele>
        <time>2019-11-08T13:25:03Z</time>
      </trkpt>
      <trkpt lat="43.80461" lon="4.16461">
        <ele>134.8</ele>
        <time>2019-11-08T13:25:04Z</time>
      </trkpt>
      <trkpt lat="43.80449" lon="4.16457">
        <ele>134.6</ele>
        <time>2019-11-08T13:25:06Z</time>
      </trkpt>
      <trkpt lat="43.80443" lon="4.16456">
        <ele>134.4</ele>
        <time>2019-11-08T13:25:07Z</time>
      </trkpt>
      <trkpt lat="43.80438" lon="4.16456">
        <ele>134.3</ele>
        <time>2019-11-08T13:25:08Z</time>
      </trkpt>
      <trkpt lat="43.80429" lon="4.16461">
        <ele>133.6</ele>
        <time>2019-11-08T13:25:10Z</time>
      </trkpt>
      <trkpt lat="43.80424" lon="4.16465">
        <ele>133.4</ele>
        <time>2019-11-08T13:25:11Z</time>
      </trkpt>
      <trkpt lat="43.80412" lon="4.16466">
        <ele>132.6</ele>
        <time>2019-11-08T13:25:13Z</time>
      </trkpt>
      <trkpt lat="43.80405" lon="4.16465">
        <ele>132.2</ele>
        <time>2019-11-08T13:25:14Z</time>
      </trkpt>
      <trkpt lat="43.80393" lon="4.16462">
        <ele>131.3</ele>
        <time>2019-11-08T13:25:16Z</time>
      </trkpt>
      <trkpt lat="43.80382" lon="4.16463">
        <ele>130.5</ele>
        <time>2019-11-08T13:25:18Z</time>
      </trkpt>
      <trkpt lat="43.80376" lon="4.16464">
        <ele>129.9</ele>
        <time>2019-11-08T13:25:19Z</time>
      </trkpt>
      <trkpt lat="43.8037" lon="4.16466">
        <ele>129.4</ele>
        <time>2019-11-08T13:25:20Z</time>
      </trkpt>
      <trkpt lat="43.8036" lon="4.16467">
        <ele>128.4</ele>
        <time>2019-11-08T13:25:22Z</time>
      </trkpt>
      <trkpt lat="43.80347" lon="4.16466">
        <ele>126.9</ele>
        <time>2019-11-08T13:25:24Z</time>
      </trkpt>
      <trkpt lat="43.80336" lon="4.16465">
        <ele>125</ele>
        <time>2019-11-08T13:25:26Z</time>
      </trkpt>
      <trkpt lat="43.80327" lon="4.16458">
        <ele>124</ele>
        <time>2019-11-08T13:25:28Z</time>
      </trkpt>
      <trkpt lat="43.80316" lon="4.16451">
        <ele>122.7</ele>
        <time>2019-11-08T13:25:30Z</time>
      </trkpt>
      <trkpt lat="43.80306" lon="4.1645">
        <ele>121.7</ele>
        <time>2019-11-08T13:25:32Z</time>
      </trkpt>
      <trkpt lat="43.80297" lon="4.16452">
        <ele>120.7</ele>
        <time>2019-11-08T13:25:34Z</time>
      </trkpt>
      <trkpt lat="43.80285" lon="4.16452">
        <ele>119.5</ele>
        <time>2019-11-08T13:25:36Z</time>
      </trkpt>
      <trkpt lat="43.80279" lon="4.16451">
        <ele>119.1</ele>
        <time>2019-11-08T13:25:37Z</time>
      </trkpt>
      <trkpt lat="43.80273" lon="4.16449">
        <ele>118.6</ele>
        <time>2019-11-08T13:25:38Z</time>
      </trkpt>
      <trkpt lat="43.80262" lon="4.16443">
        <ele>117.8</ele>
        <time>2019-11-08T13:25:40Z</time>
      </trkpt>
      <trkpt lat="43.8025" lon="4.16441">
        <ele>117.3</ele>
        <time>2019-11-08T13:25:42Z</time>
      </trkpt>
      <trkpt lat="43.80239" lon="4.16439">
        <ele>116.9</ele>
        <time>2019-11-08T13:25:44Z</time>
      </trkpt>
      <trkpt lat="43.80235" lon="4.16436">
        <ele>116.8</ele>
        <time>2019-11-08T13:25:45Z</time>
      </trkpt>
      <trkpt lat="43.80226" lon="4.16424">
        <ele>116.6</ele>
        <time>2019-11-08T13:25:47Z</time>
      </trkpt>
      <trkpt lat="43.8022" lon="4.16422">
        <ele>116.6</ele>
        <time>2019-11-08T13:25:48Z</time>
      </trkpt>
      <trkpt lat="43.80208" lon="4.16421">
        <ele>116.8</ele>
        <time>2019-11-08T13:25:50Z</time>
      </trkpt>
      <trkpt lat="43.80202" lon="4.16419">
        <ele>116.9</ele>
        <time>2019-11-08T13:25:51Z</time>
      </trkpt>
      <trkpt lat="43.80197" lon="4.16416">
        <ele>117.1</ele>
        <time>2019-11-08T13:25:52Z</time>
      </trkpt>
      <trkpt lat="43.80187" lon="4.16409">
        <ele>117.3</ele>
        <time>2019-11-08T13:25:54Z</time>
      </trkpt>
      <trkpt lat="43.80177" lon="4.16404">
        <ele>117.4</ele>
        <time>2019-11-08T13:25:56Z</time>
      </trkpt>
      <trkpt lat="43.80172" lon="4.16401">
        <ele>117.4</ele>
        <time>2019-11-08T13:25:57Z</time>
      </trkpt>
      <trkpt lat="43.80164" lon="4.16393">
        <ele>117.4</ele>
        <time>2019-11-08T13:25:59Z</time>
      </trkpt>
      <trkpt lat="43.80159" lon="4.16388">
        <ele>117.3</ele>
        <time>2019-11-08T13:26:00Z</time>
      </trkpt>
      <trkpt lat="43.80148" lon="4.16381">
        <ele>117.2</ele>
        <time>2019-11-08T13:26:02Z</time>
      </trkpt>
      <trkpt lat="43.80142" lon="4.16378">
        <ele>117</ele>
        <time>2019-11-08T13:26:03Z</time>
      </trkpt>
      <trkpt lat="43.8013" lon="4.16373">
        <ele>116.7</ele>
        <time>2019-11-08T13:26:05Z</time>
      </trkpt>
      <trkpt lat="43.80126" lon="4.16369">
        <ele>116.6</ele>
        <time>2019-11-08T13:26:06Z</time>
      </trkpt>
      <trkpt lat="43.80117" lon="4.16362">
        <ele>116.3</ele>
        <time>2019-11-08T13:26:08Z</time>
      </trkpt>
      <trkpt lat="43.80108" lon="4.16358">
        <ele>116</ele>
        <time>2019-11-08T13:26:10Z</time>
      </trkpt>
      <trkpt lat="43.801" lon="4.16353">
        <ele>115.6</ele>
        <time>2019-11-08T13:26:12Z</time>
      </trkpt>
      <trkpt lat="43.80096" lon="4.1635">
        <ele>115.4</ele>
        <time>2019-11-08T13:26:13Z</time>
      </trkpt>
      <trkpt lat="43.80086" lon="4.16343">
        <ele>115.1</ele>
        <time>2019-11-08T13:26:15Z</time>
      </trkpt>
      <trkpt lat="43.80079" lon="4.16337">
        <ele>114.8</ele>
        <time>2019-11-08T13:26:17Z</time>
      </trkpt>
      <trkpt lat="43.80074" lon="4.16335">
        <ele>114.7</ele>
        <time>2019-11-08T13:26:18Z</time>
      </trkpt>
      <trkpt lat="43.80064" lon="4.16331">
        <ele>114.5</ele>
        <time>2019-11-08T13:26:20Z</time>
      </trkpt>
      <trkpt lat="43.80052" lon="4.16327">
        <ele>114.2</ele>
        <time>2019-11-08T13:26:22Z</time>
      </trkpt>
      <trkpt lat="43.80045" lon="4.16325">
        <ele>114.1</ele>
        <time>2019-11-08T13:26:23Z</time>
      </trkpt>
      <trkpt lat="43.80033" lon="4.16318">
        <ele>113.9</ele>
        <time>2019-11-08T13:26:27Z</time>
      </trkpt>
      <trkpt lat="43.80024" lon="4.16311">
        <ele>114</ele>
        <time>2019-11-08T13:26:29Z</time>
      </trkpt>
      <trkpt lat="43.80019" lon="4.16308">
        <ele>114</ele>
        <time>2019-11-08T13:26:31Z</time>
      </trkpt>
      <trkpt lat="43.80013" lon="4.16305">
        <ele>114.2</ele>
        <time>2019-11-08T13:26:32Z</time>
      </trkpt>
      <trkpt lat="43.80003" lon="4.163">
        <ele>114.4</ele>
        <time>2019-11-08T13:26:34Z</time>
      </trkpt>
      <trkpt lat="43.79999" lon="4.16298">
        <ele>114.6</ele>
        <time>2019-11-08T13:26:35Z</time>
      </trkpt>
      <trkpt lat="43.79994" lon="4.16298">
        <ele>114.7</ele>
        <time>2019-11-08T13:26:37Z</time>
      </trkpt>
      <trkpt lat="43.79991" lon="4.163">
        <ele>114.8</ele>
        <time>2019-11-08T13:26:38Z</time>
      </trkpt>
      <trkpt lat="43.79984" lon="4.16305">
        <ele>115.1</ele>
        <time>2019-11-08T13:26:40Z</time>
      </trkpt>
      <trkpt lat="43.79979" lon="4.16308">
        <ele>115.2</ele>
        <time>2019-11-08T13:26:41Z</time>
      </trkpt>
      <trkpt lat="43.79974" lon="4.16312">
        <ele>115.4</ele>
        <time>2019-11-08T13:26:42Z</time>
      </trkpt>
      <trkpt lat="43.7997" lon="4.16316">
        <ele>115.6</ele>
        <time>2019-11-08T13:26:44Z</time>
      </trkpt>
      <trkpt lat="43.79963" lon="4.16319">
        <ele>115.8</ele>
        <time>2019-11-08T13:26:46Z</time>
      </trkpt>
      <trkpt lat="43.79959" lon="4.16321">
        <ele>116</ele>
        <time>2019-11-08T13:26:47Z</time>
      </trkpt>
      <trkpt lat="43.79953" lon="4.16323">
        <ele>116.4</ele>
        <time>2019-11-08T13:26:48Z</time>
      </trkpt>
      <trkpt lat="43.79947" lon="4.16326">
        <ele>116.8</ele>
        <time>2019-11-08T13:26:49Z</time>
      </trkpt>
      <trkpt lat="43.79939" lon="4.16333">
        <ele>117.4</ele>
        <time>2019-11-08T13:26:50Z</time>
      </trkpt>
      <trkpt lat="43.79934" lon="4.16338">
        <ele>117.7</ele>
        <time>2019-11-08T13:26:51Z</time>
      </trkpt>
      <trkpt lat="43.79931" lon="4.16342">
        <ele>118.1</ele>
        <time>2019-11-08T13:26:52Z</time>
      </trkpt>
      <trkpt lat="43.79928" lon="4.16346">
        <ele>118.4</ele>
        <time>2019-11-08T13:26:53Z</time>
      </trkpt>
      <trkpt lat="43.79924" lon="4.1635">
        <ele>118.8</ele>
        <time>2019-11-08T13:26:55Z</time>
      </trkpt>
      <trkpt lat="43.79921" lon="4.16355">
        <ele>119.3</ele>
        <time>2019-11-08T13:26:56Z</time>
      </trkpt>
      <trkpt lat="43.79916" lon="4.16361">
        <ele>119.9</ele>
        <time>2019-11-08T13:26:57Z</time>
      </trkpt>
      <trkpt lat="43.79913" lon="4.16366">
        <ele>120.3</ele>
        <time>2019-11-08T13:26:58Z</time>
      </trkpt>
      <trkpt lat="43.7991" lon="4.16369">
        <ele>120.6</ele>
        <time>2019-11-08T13:27:00Z</time>
      </trkpt>
      <trkpt lat="43.79907" lon="4.16374">
        <ele>121</ele>
        <time>2019-11-08T13:27:01Z</time>
      </trkpt>
      <trkpt lat="43.79903" lon="4.1638">
        <ele>121.4</ele>
        <time>2019-11-08T13:27:02Z</time>
      </trkpt>
      <trkpt lat="43.79895" lon="4.16392">
        <ele>122.5</ele>
        <time>2019-11-08T13:27:04Z</time>
      </trkpt>
      <trkpt lat="43.79891" lon="4.16398">
        <ele>122.9</ele>
        <time>2019-11-08T13:27:05Z</time>
      </trkpt>
      <trkpt lat="43.79887" lon="4.164">
        <ele>123.3</ele>
        <time>2019-11-08T13:27:06Z</time>
      </trkpt>
      <trkpt lat="43.79886" lon="4.16406">
        <ele>123.6</ele>
        <time>2019-11-08T13:27:07Z</time>
      </trkpt>
      <trkpt lat="43.79884" lon="4.16412">
        <ele>124</ele>
        <time>2019-11-08T13:27:08Z</time>
      </trkpt>
      <trkpt lat="43.79881" lon="4.16418">
        <ele>124.3</ele>
        <time>2019-11-08T13:27:09Z</time>
      </trkpt>
      <trkpt lat="43.79878" lon="4.16424">
        <ele>124.9</ele>
        <time>2019-11-08T13:27:10Z</time>
      </trkpt>
      <trkpt lat="43.79872" lon="4.16438">
        <ele>125.9</ele>
        <time>2019-11-08T13:27:13Z</time>
      </trkpt>
      <trkpt lat="43.79867" lon="4.16451">
        <ele>126.6</ele>
        <time>2019-11-08T13:27:15Z</time>
      </trkpt>
      <trkpt lat="43.79865" lon="4.16458">
        <ele>127</ele>
        <time>2019-11-08T13:27:16Z</time>
      </trkpt>
      <trkpt lat="43.79864" lon="4.16465">
        <ele>127.4</ele>
        <time>2019-11-08T13:27:17Z</time>
      </trkpt>
      <trkpt lat="43.79861" lon="4.16472">
        <ele>127.7</ele>
        <time>2019-11-08T13:27:18Z</time>
      </trkpt>
      <trkpt lat="43.79859" lon="4.1648">
        <ele>128.1</ele>
        <time>2019-11-08T13:27:19Z</time>
      </trkpt>
      <trkpt lat="43.79853" lon="4.16494">
        <ele>128.8</ele>
        <time>2019-11-08T13:27:21Z</time>
      </trkpt>
      <trkpt lat="43.79849" lon="4.16507">
        <ele>129.3</ele>
        <time>2019-11-08T13:27:23Z</time>
      </trkpt>
      <trkpt lat="43.79843" lon="4.16519">
        <ele>129.6</ele>
        <time>2019-11-08T13:27:25Z</time>
      </trkpt>
      <trkpt lat="43.7984" lon="4.16525">
        <ele>129.6</ele>
        <time>2019-11-08T13:27:26Z</time>
      </trkpt>
      <trkpt lat="43.79836" lon="4.16531">
        <ele>129.6</ele>
        <time>2019-11-08T13:27:27Z</time>
      </trkpt>
      <trkpt lat="43.79827" lon="4.16547">
        <ele>129.3</ele>
        <time>2019-11-08T13:27:29Z</time>
      </trkpt>
      <trkpt lat="43.79823" lon="4.16555">
        <ele>128.9</ele>
        <time>2019-11-08T13:27:30Z</time>
      </trkpt>
      <trkpt lat="43.79814" lon="4.16572">
        <ele>128</ele>
        <time>2019-11-08T13:27:32Z</time>
      </trkpt>
      <trkpt lat="43.79812" lon="4.1658">
        <ele>127.5</ele>
        <time>2019-11-08T13:27:33Z</time>
      </trkpt>
      <trkpt lat="43.79807" lon="4.16593">
        <ele>127.5</ele>
        <time>2019-11-08T13:27:35Z</time>
      </trkpt>
      <trkpt lat="43.79804" lon="4.16599">
        <ele>127.6</ele>
        <time>2019-11-08T13:27:36Z</time>
      </trkpt>
      <trkpt lat="43.79799" lon="4.16614">
        <ele>127.9</ele>
        <time>2019-11-08T13:27:38Z</time>
      </trkpt>
      <trkpt lat="43.79798" lon="4.16622">
        <ele>128</ele>
        <time>2019-11-08T13:27:39Z</time>
      </trkpt>
      <trkpt lat="43.79797" lon="4.16629">
        <ele>128.1</ele>
        <time>2019-11-08T13:27:40Z</time>
      </trkpt>
      <trkpt lat="43.79796" lon="4.16636">
        <ele>128.1</ele>
        <time>2019-11-08T13:27:41Z</time>
      </trkpt>
      <trkpt lat="43.79794" lon="4.16649">
        <ele>128.2</ele>
        <time>2019-11-08T13:27:43Z</time>
      </trkpt>
      <trkpt lat="43.79793" lon="4.16655">
        <ele>128.2</ele>
        <time>2019-11-08T13:27:44Z</time>
      </trkpt>
      <trkpt lat="43.79792" lon="4.16661">
        <ele>128.2</ele>
        <time>2019-11-08T13:27:45Z</time>
      </trkpt>
      <trkpt lat="43.7979" lon="4.16667">
        <ele>128.1</ele>
        <time>2019-11-08T13:27:46Z</time>
      </trkpt>
      <trkpt lat="43.79786" lon="4.16676">
        <ele>128</ele>
        <time>2019-11-08T13:27:48Z</time>
      </trkpt>
      <trkpt lat="43.79785" lon="4.1668">
        <ele>127.9</ele>
        <time>2019-11-08T13:27:49Z</time>
      </trkpt>
      <trkpt lat="43.79786" lon="4.16685">
        <ele>127.9</ele>
        <time>2019-11-08T13:27:51Z</time>
      </trkpt>
      <trkpt lat="43.79783" lon="4.16688">
        <ele>127.8</ele>
        <time>2019-11-08T13:27:52Z</time>
      </trkpt>
      <trkpt lat="43.7978" lon="4.16695">
        <ele>127.7</ele>
        <time>2019-11-08T13:27:53Z</time>
      </trkpt>
      <trkpt lat="43.79778" lon="4.16702">
        <ele>127.6</ele>
        <time>2019-11-08T13:27:55Z</time>
      </trkpt>
      <trkpt lat="43.79775" lon="4.16718">
        <ele>127.2</ele>
        <time>2019-11-08T13:27:57Z</time>
      </trkpt>
      <trkpt lat="43.79771" lon="4.16737">
        <ele>126.5</ele>
        <time>2019-11-08T13:27:59Z</time>
      </trkpt>
      <trkpt lat="43.7977" lon="4.16758">
        <ele>125.5</ele>
        <time>2019-11-08T13:28:01Z</time>
      </trkpt>
      <trkpt lat="43.79769" lon="4.16767">
        <ele>125</ele>
        <time>2019-11-08T13:28:02Z</time>
      </trkpt>
      <trkpt lat="43.7977" lon="4.16788">
        <ele>124</ele>
        <time>2019-11-08T13:28:04Z</time>
      </trkpt>
      <trkpt lat="43.79772" lon="4.16798">
        <ele>123.6</ele>
        <time>2019-11-08T13:28:05Z</time>
      </trkpt>
      <trkpt lat="43.79774" lon="4.16807">
        <ele>123.3</ele>
        <time>2019-11-08T13:28:06Z</time>
      </trkpt>
      <trkpt lat="43.79776" lon="4.16816">
        <ele>123</ele>
        <time>2019-11-08T13:28:07Z</time>
      </trkpt>
      <trkpt lat="43.79777" lon="4.16825">
        <ele>122.5</ele>
        <time>2019-11-08T13:28:08Z</time>
      </trkpt>
      <trkpt lat="43.79777" lon="4.16836">
        <ele>121.8</ele>
        <time>2019-11-08T13:28:09Z</time>
      </trkpt>
      <trkpt lat="43.79775" lon="4.16846">
        <ele>120.9</ele>
        <time>2019-11-08T13:28:10Z</time>
      </trkpt>
      <trkpt lat="43.79772" lon="4.16853">
        <ele>120.3</ele>
        <time>2019-11-08T13:28:11Z</time>
      </trkpt>
      <trkpt lat="43.79768" lon="4.16867">
        <ele>119.3</ele>
        <time>2019-11-08T13:28:13Z</time>
      </trkpt>
      <trkpt lat="43.79773" lon="4.16886">
        <ele>118.3</ele>
        <time>2019-11-08T13:28:15Z</time>
      </trkpt>
      <trkpt lat="43.79777" lon="4.16895">
        <ele>118</ele>
        <time>2019-11-08T13:28:16Z</time>
      </trkpt>
      <trkpt lat="43.7978" lon="4.16903">
        <ele>117.8</ele>
        <time>2019-11-08T13:28:17Z</time>
      </trkpt>
      <trkpt lat="43.79788" lon="4.16915">
        <ele>117.6</ele>
        <time>2019-11-08T13:28:19Z</time>
      </trkpt>
      <trkpt lat="43.79792" lon="4.16921">
        <ele>117.6</ele>
        <time>2019-11-08T13:28:20Z</time>
      </trkpt>
      <trkpt lat="43.79797" lon="4.16926">
        <ele>117.6</ele>
        <time>2019-11-08T13:28:21Z</time>
      </trkpt>
      <trkpt lat="43.79802" lon="4.16938">
        <ele>117.8</ele>
        <time>2019-11-08T13:28:23Z</time>
      </trkpt>
      <trkpt lat="43.79801" lon="4.1695">
        <ele>118.1</ele>
        <time>2019-11-08T13:28:25Z</time>
      </trkpt>
      <trkpt lat="43.79797" lon="4.1696">
        <ele>118.4</ele>
        <time>2019-11-08T13:28:27Z</time>
      </trkpt>
      <trkpt lat="43.79795" lon="4.16963">
        <ele>118.5</ele>
        <time>2019-11-08T13:28:28Z</time>
      </trkpt>
      <trkpt lat="43.79792" lon="4.16967">
        <ele>118.9</ele>
        <time>2019-11-08T13:28:30Z</time>
      </trkpt>
      <trkpt lat="43.79788" lon="4.16972">
        <ele>118.9</ele>
        <time>2019-11-08T13:28:33Z</time>
      </trkpt>
      <trkpt lat="43.79785" lon="4.16975">
        <ele>118.9</ele>
        <time>2019-11-08T13:28:34Z</time>
      </trkpt>
      <trkpt lat="43.79782" lon="4.16977">
        <ele>118.8</ele>
        <time>2019-11-08T13:28:35Z</time>
      </trkpt>
      <trkpt lat="43.79779" lon="4.16983">
        <ele>118.7</ele>
        <time>2019-11-08T13:28:38Z</time>
      </trkpt>
      <trkpt lat="43.79777" lon="4.16991">
        <ele>118.9</ele>
        <time>2019-11-08T13:28:41Z</time>
      </trkpt>
      <trkpt lat="43.79775" lon="4.16995">
        <ele>119</ele>
        <time>2019-11-08T13:28:42Z</time>
      </trkpt>
      <trkpt lat="43.79772" lon="4.17001">
        <ele>119.1</ele>
        <time>2019-11-08T13:28:46Z</time>
      </trkpt>
      <trkpt lat="43.79769" lon="4.17004">
        <ele>119.2</ele>
        <time>2019-11-08T13:28:48Z</time>
      </trkpt>
      <trkpt lat="43.79766" lon="4.17009">
        <ele>119.4</ele>
        <time>2019-11-08T13:28:50Z</time>
      </trkpt>
      <trkpt lat="43.79764" lon="4.17016">
        <ele>119.3</ele>
        <time>2019-11-08T13:28:53Z</time>
      </trkpt>
      <trkpt lat="43.79762" lon="4.17019">
        <ele>119.3</ele>
        <time>2019-11-08T13:28:55Z</time>
      </trkpt>
      <trkpt lat="43.7976" lon="4.17022">
        <ele>119.4</ele>
        <time>2019-11-08T13:28:56Z</time>
      </trkpt>
      <trkpt lat="43.79756" lon="4.17028">
        <ele>119.6</ele>
        <time>2019-11-08T13:28:59Z</time>
      </trkpt>
      <trkpt lat="43.79754" lon="4.17033">
        <ele>120.1</ele>
        <time>2019-11-08T13:29:00Z</time>
      </trkpt>
      <trkpt lat="43.79753" lon="4.17037">
        <ele>120.4</ele>
        <time>2019-11-08T13:29:01Z</time>
      </trkpt>
      <trkpt lat="43.79751" lon="4.17041">
        <ele>120.8</ele>
        <time>2019-11-08T13:29:04Z</time>
      </trkpt>
      <trkpt lat="43.7975" lon="4.17046">
        <ele>120.8</ele>
        <time>2019-11-08T13:29:07Z</time>
      </trkpt>
      <trkpt lat="43.79749" lon="4.1705">
        <ele>121.2</ele>
        <time>2019-11-08T13:29:08Z</time>
      </trkpt>
      <trkpt lat="43.79747" lon="4.17057">
        <ele>122</ele>
        <time>2019-11-08T13:29:10Z</time>
      </trkpt>
      <trkpt lat="43.79747" lon="4.17062">
        <ele>122.1</ele>
        <time>2019-11-08T13:29:11Z</time>
      </trkpt>
      <trkpt lat="43.79746" lon="4.17066">
        <ele>122.2</ele>
        <time>2019-11-08T13:29:13Z</time>
      </trkpt>
      <trkpt lat="43.79746" lon="4.1707">
        <ele>121.7</ele>
        <time>2019-11-08T13:29:15Z</time>
      </trkpt>
      <trkpt lat="43.79746" lon="4.17077">
        <ele>122.2</ele>
        <time>2019-11-08T13:29:17Z</time>
      </trkpt>
      <trkpt lat="43.79746" lon="4.17084">
        <ele>122.2</ele>
        <time>2019-11-08T13:29:19Z</time>
      </trkpt>
      <trkpt lat="43.79745" lon="4.17089">
        <ele>122.3</ele>
        <time>2019-11-08T13:29:20Z</time>
      </trkpt>
      <trkpt lat="43.7974" lon="4.17104">
        <ele>122.8</ele>
        <time>2019-11-08T13:29:24Z</time>
      </trkpt>
      <trkpt lat="43.7974" lon="4.17108">
        <ele>122.8</ele>
        <time>2019-11-08T13:29:25Z</time>
      </trkpt>
      <trkpt lat="43.7974" lon="4.17114">
        <ele>122.8</ele>
        <time>2019-11-08T13:29:26Z</time>
      </trkpt>
      <trkpt lat="43.79739" lon="4.17119">
        <ele>122</ele>
        <time>2019-11-08T13:29:28Z</time>
      </trkpt>
      <trkpt lat="43.79738" lon="4.17124">
        <ele>122.3</ele>
        <time>2019-11-08T13:29:29Z</time>
      </trkpt>
      <trkpt lat="43.79737" lon="4.17131">
        <ele>122.3</ele>
        <time>2019-11-08T13:29:30Z</time>
      </trkpt>
      <trkpt lat="43.79736" lon="4.17138">
        <ele>121.7</ele>
        <time>2019-11-08T13:29:31Z</time>
      </trkpt>
      <trkpt lat="43.79736" lon="4.17144">
        <ele>121.6</ele>
        <time>2019-11-08T13:29:33Z</time>
      </trkpt>
      <trkpt lat="43.79735" lon="4.17153">
        <ele>121.7</ele>
        <time>2019-11-08T13:29:34Z</time>
      </trkpt>
      <trkpt lat="43.79734" lon="4.17159">
        <ele>121.6</ele>
        <time>2019-11-08T13:29:35Z</time>
      </trkpt>
      <trkpt lat="43.79733" lon="4.17164">
        <ele>120.5</ele>
        <time>2019-11-08T13:29:36Z</time>
      </trkpt>
      <trkpt lat="43.79733" lon="4.17174">
        <ele>120.1</ele>
        <time>2019-11-08T13:29:38Z</time>
      </trkpt>
      <trkpt lat="43.79734" lon="4.17184">
        <ele>120.4</ele>
        <time>2019-11-08T13:29:39Z</time>
      </trkpt>
      <trkpt lat="43.79735" lon="4.17192">
        <ele>119.7</ele>
        <time>2019-11-08T13:29:41Z</time>
      </trkpt>
      <trkpt lat="43.7974" lon="4.17198">
        <ele>119.7</ele>
        <time>2019-11-08T13:29:43Z</time>
      </trkpt>
      <trkpt lat="43.79742" lon="4.17203">
        <ele>119.9</ele>
        <time>2019-11-08T13:29:44Z</time>
      </trkpt>
      <trkpt lat="43.79743" lon="4.17209">
        <ele>120.1</ele>
        <time>2019-11-08T13:29:45Z</time>
      </trkpt>
      <trkpt lat="43.79742" lon="4.17228">
        <ele>117.9</ele>
        <time>2019-11-08T13:29:48Z</time>
      </trkpt>
      <trkpt lat="43.79742" lon="4.17246">
        <ele>116.8</ele>
        <time>2019-11-08T13:29:50Z</time>
      </trkpt>
      <trkpt lat="43.79741" lon="4.17255">
        <ele>116</ele>
        <time>2019-11-08T13:29:51Z</time>
      </trkpt>
      <trkpt lat="43.79738" lon="4.1726">
        <ele>114.8</ele>
        <time>2019-11-08T13:29:53Z</time>
      </trkpt>
      <trkpt lat="43.79729" lon="4.1727">
        <ele>112.2</ele>
        <time>2019-11-08T13:29:55Z</time>
      </trkpt>
      <trkpt lat="43.79723" lon="4.17277">
        <ele>110</ele>
        <time>2019-11-08T13:29:57Z</time>
      </trkpt>
      <trkpt lat="43.79715" lon="4.17289">
        <ele>107.6</ele>
        <time>2019-11-08T13:30:00Z</time>
      </trkpt>
      <trkpt lat="43.79708" lon="4.17294">
        <ele>105.7</ele>
        <time>2019-11-08T13:30:03Z</time>
      </trkpt>
      <trkpt lat="43.79704" lon="4.17295">
        <ele>104.9</ele>
        <time>2019-11-08T13:30:04Z</time>
      </trkpt>
      <trkpt lat="43.79699" lon="4.17297">
        <ele>104.2</ele>
        <time>2019-11-08T13:30:07Z</time>
      </trkpt>
      <trkpt lat="43.79699" lon="4.17305">
        <ele>103.3</ele>
        <time>2019-11-08T13:30:09Z</time>
      </trkpt>
      <trkpt lat="43.79699" lon="4.17311">
        <ele>102.9</ele>
        <time>2019-11-08T13:30:10Z</time>
      </trkpt>
      <trkpt lat="43.79701" lon="4.17325">
        <ele>101.9</ele>
        <time>2019-11-08T13:30:12Z</time>
      </trkpt>
      <trkpt lat="43.79705" lon="4.17338">
        <ele>101.1</ele>
        <time>2019-11-08T13:30:14Z</time>
      </trkpt>
      <trkpt lat="43.79707" lon="4.17342">
        <ele>101</ele>
        <time>2019-11-08T13:30:15Z</time>
      </trkpt>
      <trkpt lat="43.79707" lon="4.17348">
        <ele>100.8</ele>
        <time>2019-11-08T13:30:16Z</time>
      </trkpt>
      <trkpt lat="43.79703" lon="4.17364">
        <ele>100</ele>
        <time>2019-11-08T13:30:18Z</time>
      </trkpt>
      <trkpt lat="43.79702" lon="4.17372">
        <ele>99.7</ele>
        <time>2019-11-08T13:30:19Z</time>
      </trkpt>
      <trkpt lat="43.79699" lon="4.17378">
        <ele>99.4</ele>
        <time>2019-11-08T13:30:22Z</time>
      </trkpt>
      <trkpt lat="43.79693" lon="4.17384">
        <ele>99</ele>
        <time>2019-11-08T13:30:25Z</time>
      </trkpt>
      <trkpt lat="43.79691" lon="4.17385">
        <ele>98.9</ele>
        <time>2019-11-08T13:30:28Z</time>
      </trkpt>
      <trkpt lat="43.79688" lon="4.17387">
        <ele>98.7</ele>
        <time>2019-11-08T13:30:29Z</time>
      </trkpt>
      <trkpt lat="43.79684" lon="4.1739">
        <ele>98.4</ele>
        <time>2019-11-08T13:30:31Z</time>
      </trkpt>
      <trkpt lat="43.79679" lon="4.17402">
        <ele>98</ele>
        <time>2019-11-08T13:30:34Z</time>
      </trkpt>
      <trkpt lat="43.79675" lon="4.17406">
        <ele>97.8</ele>
        <time>2019-11-08T13:30:35Z</time>
      </trkpt>
      <trkpt lat="43.79669" lon="4.17409">
        <ele>97.5</ele>
        <time>2019-11-08T13:30:37Z</time>
      </trkpt>
      <trkpt lat="43.79664" lon="4.17411">
        <ele>97.3</ele>
        <time>2019-11-08T13:30:38Z</time>
      </trkpt>
      <trkpt lat="43.79661" lon="4.17413">
        <ele>97.1</ele>
        <time>2019-11-08T13:30:40Z</time>
      </trkpt>
      <trkpt lat="43.79658" lon="4.17417">
        <ele>97</ele>
        <time>2019-11-08T13:30:41Z</time>
      </trkpt>
      <trkpt lat="43.79657" lon="4.17421">
        <ele>96.9</ele>
        <time>2019-11-08T13:30:42Z</time>
      </trkpt>
      <trkpt lat="43.79655" lon="4.17427">
        <ele>96.8</ele>
        <time>2019-11-08T13:30:44Z</time>
      </trkpt>
      <trkpt lat="43.79654" lon="4.1743">
        <ele>96.8</ele>
        <time>2019-11-08T13:30:45Z</time>
      </trkpt>
      <trkpt lat="43.79648" lon="4.17437">
        <ele>96.7</ele>
        <time>2019-11-08T13:30:48Z</time>
      </trkpt>
      <trkpt lat="43.79644" lon="4.1744">
        <ele>96.6</ele>
        <time>2019-11-08T13:30:50Z</time>
      </trkpt>
      <trkpt lat="43.79642" lon="4.17443">
        <ele>96.6</ele>
        <time>2019-11-08T13:30:51Z</time>
      </trkpt>
      <trkpt lat="43.79639" lon="4.17447">
        <ele>96.6</ele>
        <time>2019-11-08T13:30:52Z</time>
      </trkpt>
      <trkpt lat="43.79637" lon="4.17451">
        <ele>96.5</ele>
        <time>2019-11-08T13:30:53Z</time>
      </trkpt>
      <trkpt lat="43.79635" lon="4.17456">
        <ele>96.5</ele>
        <time>2019-11-08T13:30:54Z</time>
      </trkpt>
      <trkpt lat="43.79631" lon="4.17463">
        <ele>96.4</ele>
        <time>2019-11-08T13:30:56Z</time>
      </trkpt>
      <trkpt lat="43.79629" lon="4.17468">
        <ele>96.4</ele>
        <time>2019-11-08T13:30:58Z</time>
      </trkpt>
      <trkpt lat="43.79628" lon="4.17473">
        <ele>96.4</ele>
        <time>2019-11-08T13:30:59Z</time>
      </trkpt>
      <trkpt lat="43.79627" lon="4.17477">
        <ele>96.4</ele>
        <time>2019-11-08T13:31:00Z</time>
      </trkpt>
      <trkpt lat="43.79626" lon="4.17481">
        <ele>96.3</ele>
        <time>2019-11-08T13:31:02Z</time>
      </trkpt>
      <trkpt lat="43.79624" lon="4.17486">
        <ele>96.3</ele>
        <time>2019-11-08T13:31:03Z</time>
      </trkpt>
      <trkpt lat="43.79623" lon="4.17492">
        <ele>96.3</ele>
        <time>2019-11-08T13:31:04Z</time>
      </trkpt>
      <trkpt lat="43.79622" lon="4.17496">
        <ele>96.3</ele>
        <time>2019-11-08T13:31:06Z</time>
      </trkpt>
      <trkpt lat="43.7962" lon="4.17501">
        <ele>96.2</ele>
        <time>2019-11-08T13:31:07Z</time>
      </trkpt>
      <trkpt lat="43.79618" lon="4.17504">
        <ele>96.2</ele>
        <time>2019-11-08T13:31:08Z</time>
      </trkpt>
      <trkpt lat="43.79615" lon="4.17506">
        <ele>96.2</ele>
        <time>2019-11-08T13:31:09Z</time>
      </trkpt>
      <trkpt lat="43.79612" lon="4.1751">
        <ele>96.2</ele>
        <time>2019-11-08T13:31:11Z</time>
      </trkpt>
      <trkpt lat="43.79611" lon="4.17513">
        <ele>96.1</ele>
        <time>2019-11-08T13:31:12Z</time>
      </trkpt>
      <trkpt lat="43.79609" lon="4.1752">
        <ele>96.1</ele>
        <time>2019-11-08T13:31:13Z</time>
      </trkpt>
      <trkpt lat="43.79607" lon="4.17526">
        <ele>96.1</ele>
        <time>2019-11-08T13:31:15Z</time>
      </trkpt>
      <trkpt lat="43.79603" lon="4.17534">
        <ele>96</ele>
        <time>2019-11-08T13:31:17Z</time>
      </trkpt>
      <trkpt lat="43.796" lon="4.17542">
        <ele>96</ele>
        <time>2019-11-08T13:31:18Z</time>
      </trkpt>
      <trkpt lat="43.796" lon="4.17548">
        <ele>95.9</ele>
        <time>2019-11-08T13:31:20Z</time>
      </trkpt>
      <trkpt lat="43.79598" lon="4.17553">
        <ele>95.9</ele>
        <time>2019-11-08T13:31:22Z</time>
      </trkpt>
      <trkpt lat="43.79598" lon="4.17558">
        <ele>95.9</ele>
        <time>2019-11-08T13:31:23Z</time>
      </trkpt>
      <trkpt lat="43.79596" lon="4.17566">
        <ele>95.8</ele>
        <time>2019-11-08T13:31:24Z</time>
      </trkpt>
      <trkpt lat="43.79596" lon="4.17573">
        <ele>95.8</ele>
        <time>2019-11-08T13:31:26Z</time>
      </trkpt>
      <trkpt lat="43.79595" lon="4.17578">
        <ele>95.8</ele>
        <time>2019-11-08T13:31:27Z</time>
      </trkpt>
      <trkpt lat="43.79594" lon="4.17584">
        <ele>95.7</ele>
        <time>2019-11-08T13:31:28Z</time>
      </trkpt>
      <trkpt lat="43.79592" lon="4.17588">
        <ele>95.7</ele>
        <time>2019-11-08T13:31:30Z</time>
      </trkpt>
      <trkpt lat="43.79591" lon="4.17593">
        <ele>95.7</ele>
        <time>2019-11-08T13:31:31Z</time>
      </trkpt>
      <trkpt lat="43.79589" lon="4.17597">
        <ele>95.7</ele>
        <time>2019-11-08T13:31:32Z</time>
      </trkpt>
      <trkpt lat="43.79587" lon="4.17601">
        <ele>95.7</ele>
        <time>2019-11-08T13:31:33Z</time>
      </trkpt>
      <trkpt lat="43.79582" lon="4.17615">
        <ele>95.7</ele>
        <time>2019-11-08T13:31:35Z</time>
      </trkpt>
      <trkpt lat="43.7958" lon="4.1762">
        <ele>95.7</ele>
        <time>2019-11-08T13:31:36Z</time>
      </trkpt>
      <trkpt lat="43.7957" lon="4.17634">
        <ele>96</ele>
        <time>2019-11-08T13:31:38Z</time>
      </trkpt>
      <trkpt lat="43.79564" lon="4.17643">
        <ele>96.3</ele>
        <time>2019-11-08T13:31:39Z</time>
      </trkpt>
      <trkpt lat="43.79553" lon="4.17661">
        <ele>96.5</ele>
        <time>2019-11-08T13:31:41Z</time>
      </trkpt>
      <trkpt lat="43.79543" lon="4.17679">
        <ele>96.8</ele>
        <time>2019-11-08T13:31:43Z</time>
      </trkpt>
      <trkpt lat="43.79534" lon="4.177">
        <ele>97.2</ele>
        <time>2019-11-08T13:31:45Z</time>
      </trkpt>
      <trkpt lat="43.7953" lon="4.17709">
        <ele>97.3</ele>
        <time>2019-11-08T13:31:46Z</time>
      </trkpt>
      <trkpt lat="43.79523" lon="4.17722">
        <ele>97.5</ele>
        <time>2019-11-08T13:31:48Z</time>
      </trkpt>
      <trkpt lat="43.79512" lon="4.17731">
        <ele>97.6</ele>
        <time>2019-11-08T13:31:50Z</time>
      </trkpt>
      <trkpt lat="43.79505" lon="4.17734">
        <ele>97.6</ele>
        <time>2019-11-08T13:31:51Z</time>
      </trkpt>
      <trkpt lat="43.7949" lon="4.17737">
        <ele>97.6</ele>
        <time>2019-11-08T13:31:53Z</time>
      </trkpt>
      <trkpt lat="43.79477" lon="4.17747">
        <ele>97.5</ele>
        <time>2019-11-08T13:31:55Z</time>
      </trkpt>
      <trkpt lat="43.79471" lon="4.17756">
        <ele>97.4</ele>
        <time>2019-11-08T13:31:56Z</time>
      </trkpt>
      <trkpt lat="43.79466" lon="4.17764">
        <ele>97.3</ele>
        <time>2019-11-08T13:31:57Z</time>
      </trkpt>
      <trkpt lat="43.79459" lon="4.17769">
        <ele>97.3</ele>
        <time>2019-11-08T13:31:58Z</time>
      </trkpt>
      <trkpt lat="43.79444" lon="4.17773">
        <ele>97.1</ele>
        <time>2019-11-08T13:32:00Z</time>
      </trkpt>
      <trkpt lat="43.79433" lon="4.17774">
        <ele>97</ele>
        <time>2019-11-08T13:32:02Z</time>
      </trkpt>
      <trkpt lat="43.7943" lon="4.17775">
        <ele>97</ele>
        <time>2019-11-08T13:32:03Z</time>
      </trkpt>
      <trkpt lat="43.79427" lon="4.17778">
        <ele>96.9</ele>
        <time>2019-11-08T13:32:05Z</time>
      </trkpt>
      <trkpt lat="43.79425" lon="4.17786">
        <ele>96.8</ele>
        <time>2019-11-08T13:32:07Z</time>
      </trkpt>
      <trkpt lat="43.79424" lon="4.17791">
        <ele>96.7</ele>
        <time>2019-11-08T13:32:08Z</time>
      </trkpt>
      <trkpt lat="43.79422" lon="4.17795">
        <ele>96.6</ele>
        <time>2019-11-08T13:32:09Z</time>
      </trkpt>
      <trkpt lat="43.79419" lon="4.17798">
        <ele>96.4</ele>
        <time>2019-11-08T13:32:10Z</time>
      </trkpt>
      <trkpt lat="43.79416" lon="4.17799">
        <ele>96.3</ele>
        <time>2019-11-08T13:32:13Z</time>
      </trkpt>
      <trkpt lat="43.79412" lon="4.17798">
        <ele>96.2</ele>
        <time>2019-11-08T13:32:14Z</time>
      </trkpt>
      <trkpt lat="43.79408" lon="4.17796">
        <ele>96</ele>
        <time>2019-11-08T13:32:15Z</time>
      </trkpt>
      <trkpt lat="43.79404" lon="4.17794">
        <ele>93.3</ele>
        <time>2019-11-08T13:32:16Z</time>
      </trkpt>
      <trkpt lat="43.79401" lon="4.17792">
        <ele>93.4</ele>
        <time>2019-11-08T13:32:17Z</time>
      </trkpt>
      <trkpt lat="43.79398" lon="4.17787">
        <ele>93.5</ele>
        <time>2019-11-08T13:32:19Z</time>
      </trkpt>
      <trkpt lat="43.79399" lon="4.17782">
        <ele>93.5</ele>
        <time>2019-11-08T13:32:20Z</time>
      </trkpt>
      <trkpt lat="43.79401" lon="4.17775">
        <ele>93.7</ele>
        <time>2019-11-08T13:32:21Z</time>
      </trkpt>
      <trkpt lat="43.79404" lon="4.1777">
        <ele>93.8</ele>
        <time>2019-11-08T13:32:22Z</time>
      </trkpt>
      <trkpt lat="43.79407" lon="4.17762">
        <ele>94</ele>
        <time>2019-11-08T13:32:24Z</time>
      </trkpt>
      <trkpt lat="43.79409" lon="4.17756">
        <ele>94</ele>
        <time>2019-11-08T13:32:25Z</time>
      </trkpt>
      <trkpt lat="43.7941" lon="4.17748">
        <ele>94.2</ele>
        <time>2019-11-08T13:32:26Z</time>
      </trkpt>
      <trkpt lat="43.79409" lon="4.17739">
        <ele>94.3</ele>
        <time>2019-11-08T13:32:28Z</time>
      </trkpt>
      <trkpt lat="43.79404" lon="4.17727">
        <ele>93</ele>
        <time>2019-11-08T13:32:30Z</time>
      </trkpt>
      <trkpt lat="43.79401" lon="4.17721">
        <ele>92.6</ele>
        <time>2019-11-08T13:32:31Z</time>
      </trkpt>
      <trkpt lat="43.79394" lon="4.17709">
        <ele>91.5</ele>
        <time>2019-11-08T13:32:33Z</time>
      </trkpt>
      <trkpt lat="43.79391" lon="4.17703">
        <ele>91.1</ele>
        <time>2019-11-08T13:32:34Z</time>
      </trkpt>
      <trkpt lat="43.79387" lon="4.17696">
        <ele>90.7</ele>
        <time>2019-11-08T13:32:35Z</time>
      </trkpt>
      <trkpt lat="43.79378" lon="4.17682">
        <ele>89.9</ele>
        <time>2019-11-08T13:32:37Z</time>
      </trkpt>
      <trkpt lat="43.79371" lon="4.17666">
        <ele>88.9</ele>
        <time>2019-11-08T13:32:39Z</time>
      </trkpt>
      <trkpt lat="43.79367" lon="4.17657">
        <ele>88.5</ele>
        <time>2019-11-08T13:32:40Z</time>
      </trkpt>
      <trkpt lat="43.79363" lon="4.17649">
        <ele>88.3</ele>
        <time>2019-11-08T13:32:41Z</time>
      </trkpt>
      <trkpt lat="43.79359" lon="4.17639">
        <ele>88</ele>
        <time>2019-11-08T13:32:42Z</time>
      </trkpt>
      <trkpt lat="43.79356" lon="4.1763">
        <ele>87.7</ele>
        <time>2019-11-08T13:32:43Z</time>
      </trkpt>
      <trkpt lat="43.79352" lon="4.17622">
        <ele>87.4</ele>
        <time>2019-11-08T13:32:44Z</time>
      </trkpt>
      <trkpt lat="43.79348" lon="4.17614">
        <ele>87.1</ele>
        <time>2019-11-08T13:32:45Z</time>
      </trkpt>
      <trkpt lat="43.79344" lon="4.17606">
        <ele>87</ele>
        <time>2019-11-08T13:32:46Z</time>
      </trkpt>
      <trkpt lat="43.79336" lon="4.1759">
        <ele>86.6</ele>
        <time>2019-11-08T13:32:48Z</time>
      </trkpt>
      <trkpt lat="43.79327" lon="4.17575">
        <ele>86.3</ele>
        <time>2019-11-08T13:32:50Z</time>
      </trkpt>
      <trkpt lat="43.79323" lon="4.17568">
        <ele>86.2</ele>
        <time>2019-11-08T13:32:51Z</time>
      </trkpt>
      <trkpt lat="43.79319" lon="4.1756">
        <ele>86.2</ele>
        <time>2019-11-08T13:32:52Z</time>
      </trkpt>
      <trkpt lat="43.79312" lon="4.17546">
        <ele>86</ele>
        <time>2019-11-08T13:32:54Z</time>
      </trkpt>
      <trkpt lat="43.79304" lon="4.17531">
        <ele>85.8</ele>
        <time>2019-11-08T13:32:56Z</time>
      </trkpt>
      <trkpt lat="43.79297" lon="4.17518">
        <ele>85.6</ele>
        <time>2019-11-08T13:32:58Z</time>
      </trkpt>
      <trkpt lat="43.79288" lon="4.17505">
        <ele>85.3</ele>
        <time>2019-11-08T13:33:00Z</time>
      </trkpt>
      <trkpt lat="43.79283" lon="4.17499">
        <ele>85.1</ele>
        <time>2019-11-08T13:33:01Z</time>
      </trkpt>
      <trkpt lat="43.79279" lon="4.17494">
        <ele>85</ele>
        <time>2019-11-08T13:33:02Z</time>
      </trkpt>
      <trkpt lat="43.79275" lon="4.17488">
        <ele>84.8</ele>
        <time>2019-11-08T13:33:03Z</time>
      </trkpt>
      <trkpt lat="43.79271" lon="4.17482">
        <ele>84.5</ele>
        <time>2019-11-08T13:33:04Z</time>
      </trkpt>
      <trkpt lat="43.79262" lon="4.17469">
        <ele>84.2</ele>
        <time>2019-11-08T13:33:06Z</time>
      </trkpt>
      <trkpt lat="43.79254" lon="4.17456">
        <ele>83.8</ele>
        <time>2019-11-08T13:33:08Z</time>
      </trkpt>
      <trkpt lat="43.79246" lon="4.17443">
        <ele>83.6</ele>
        <time>2019-11-08T13:33:10Z</time>
      </trkpt>
      <trkpt lat="43.79242" lon="4.17438">
        <ele>83.6</ele>
        <time>2019-11-08T13:33:11Z</time>
      </trkpt>
      <trkpt lat="43.79239" lon="4.17431">
        <ele>83.5</ele>
        <time>2019-11-08T13:33:12Z</time>
      </trkpt>
      <trkpt lat="43.79236" lon="4.17424">
        <ele>83.5</ele>
        <time>2019-11-08T13:33:13Z</time>
      </trkpt>
      <trkpt lat="43.79235" lon="4.17407">
        <ele>83.8</ele>
        <time>2019-11-08T13:33:15Z</time>
      </trkpt>
      <trkpt lat="43.79235" lon="4.17391">
        <ele>84</ele>
        <time>2019-11-08T13:33:17Z</time>
      </trkpt>
      <trkpt lat="43.79235" lon="4.17383">
        <ele>84.2</ele>
        <time>2019-11-08T13:33:18Z</time>
      </trkpt>
      <trkpt lat="43.79236" lon="4.17375">
        <ele>84.3</ele>
        <time>2019-11-08T13:33:19Z</time>
      </trkpt>
      <trkpt lat="43.79236" lon="4.17368">
        <ele>84.4</ele>
        <time>2019-11-08T13:33:20Z</time>
      </trkpt>
      <trkpt lat="43.79237" lon="4.17355">
        <ele>84.6</ele>
        <time>2019-11-08T13:33:22Z</time>
      </trkpt>
      <trkpt lat="43.79237" lon="4.17348">
        <ele>84.6</ele>
        <time>2019-11-08T13:33:23Z</time>
      </trkpt>
      <trkpt lat="43.79238" lon="4.17333">
        <ele>84.7</ele>
        <time>2019-11-08T13:33:25Z</time>
      </trkpt>
      <trkpt lat="43.79238" lon="4.17326">
        <ele>84.8</ele>
        <time>2019-11-08T13:33:26Z</time>
      </trkpt>
      <trkpt lat="43.79238" lon="4.1731">
        <ele>84.9</ele>
        <time>2019-11-08T13:33:28Z</time>
      </trkpt>
      <trkpt lat="43.79236" lon="4.17295">
        <ele>85</ele>
        <time>2019-11-08T13:33:30Z</time>
      </trkpt>
      <trkpt lat="43.79232" lon="4.17281">
        <ele>85</ele>
        <time>2019-11-08T13:33:32Z</time>
      </trkpt>
      <trkpt lat="43.79229" lon="4.17266">
        <ele>84.9</ele>
        <time>2019-11-08T13:33:34Z</time>
      </trkpt>
      <trkpt lat="43.79227" lon="4.17258">
        <ele>84.9</ele>
        <time>2019-11-08T13:33:35Z</time>
      </trkpt>
      <trkpt lat="43.79224" lon="4.17244">
        <ele>84.8</ele>
        <time>2019-11-08T13:33:37Z</time>
      </trkpt>
      <trkpt lat="43.7922" lon="4.17229">
        <ele>84.7</ele>
        <time>2019-11-08T13:33:39Z</time>
      </trkpt>
      <trkpt lat="43.79215" lon="4.17215">
        <ele>84.5</ele>
        <time>2019-11-08T13:33:41Z</time>
      </trkpt>
      <trkpt lat="43.79212" lon="4.17207">
        <ele>84.4</ele>
        <time>2019-11-08T13:33:42Z</time>
      </trkpt>
      <trkpt lat="43.79206" lon="4.17194">
        <ele>84.3</ele>
        <time>2019-11-08T13:33:44Z</time>
      </trkpt>
      <trkpt lat="43.79202" lon="4.17187">
        <ele>84.2</ele>
        <time>2019-11-08T13:33:45Z</time>
      </trkpt>
      <trkpt lat="43.79195" lon="4.17174">
        <ele>84.1</ele>
        <time>2019-11-08T13:33:47Z</time>
      </trkpt>
      <trkpt lat="43.79191" lon="4.17168">
        <ele>84</ele>
        <time>2019-11-08T13:33:48Z</time>
      </trkpt>
      <trkpt lat="43.79186" lon="4.17163">
        <ele>83.9</ele>
        <time>2019-11-08T13:33:49Z</time>
      </trkpt>
      <trkpt lat="43.79176" lon="4.17153">
        <ele>83.6</ele>
        <time>2019-11-08T13:33:51Z</time>
      </trkpt>
      <trkpt lat="43.79164" lon="4.17146">
        <ele>83.3</ele>
        <time>2019-11-08T13:33:53Z</time>
      </trkpt>
      <trkpt lat="43.7915" lon="4.17139">
        <ele>82.9</ele>
        <time>2019-11-08T13:33:55Z</time>
      </trkpt>
      <trkpt lat="43.79143" lon="4.17136">
        <ele>82.7</ele>
        <time>2019-11-08T13:33:56Z</time>
      </trkpt>
      <trkpt lat="43.79129" lon="4.17131">
        <ele>82.3</ele>
        <time>2019-11-08T13:33:58Z</time>
      </trkpt>
      <trkpt lat="43.79122" lon="4.17128">
        <ele>82.2</ele>
        <time>2019-11-08T13:33:59Z</time>
      </trkpt>
      <trkpt lat="43.79108" lon="4.17124">
        <ele>82.1</ele>
        <time>2019-11-08T13:34:01Z</time>
      </trkpt>
      <trkpt lat="43.79101" lon="4.17123">
        <ele>82.1</ele>
        <time>2019-11-08T13:34:02Z</time>
      </trkpt>
      <trkpt lat="43.79086" lon="4.1712">
        <ele>82.1</ele>
        <time>2019-11-08T13:34:04Z</time>
      </trkpt>
      <trkpt lat="43.79073" lon="4.17116">
        <ele>82.1</ele>
        <time>2019-11-08T13:34:06Z</time>
      </trkpt>
      <trkpt lat="43.79066" lon="4.17114">
        <ele>82.1</ele>
        <time>2019-11-08T13:34:07Z</time>
      </trkpt>
      <trkpt lat="43.79052" lon="4.1711">
        <ele>81.8</ele>
        <time>2019-11-08T13:34:09Z</time>
      </trkpt>
      <trkpt lat="43.79038" lon="4.17105">
        <ele>81.5</ele>
        <time>2019-11-08T13:34:11Z</time>
      </trkpt>
      <trkpt lat="43.79032" lon="4.17103">
        <ele>81.4</ele>
        <time>2019-11-08T13:34:12Z</time>
      </trkpt>
      <trkpt lat="43.79026" lon="4.171">
        <ele>81.4</ele>
        <time>2019-11-08T13:34:13Z</time>
      </trkpt>
      <trkpt lat="43.7902" lon="4.17097">
        <ele>81.4</ele>
        <time>2019-11-08T13:34:14Z</time>
      </trkpt>
      <trkpt lat="43.79014" lon="4.17093">
        <ele>81.5</ele>
        <time>2019-11-08T13:34:15Z</time>
      </trkpt>
      <trkpt lat="43.79002" lon="4.17088">
        <ele>81.9</ele>
        <time>2019-11-08T13:34:17Z</time>
      </trkpt>
      <trkpt lat="43.78996" lon="4.17085">
        <ele>82</ele>
        <time>2019-11-08T13:34:18Z</time>
      </trkpt>
      <trkpt lat="43.78985" lon="4.17077">
        <ele>82.1</ele>
        <time>2019-11-08T13:34:20Z</time>
      </trkpt>
      <trkpt lat="43.78974" lon="4.1707">
        <ele>82.2</ele>
        <time>2019-11-08T13:34:22Z</time>
      </trkpt>
      <trkpt lat="43.78964" lon="4.17064">
        <ele>82.2</ele>
        <time>2019-11-08T13:34:24Z</time>
      </trkpt>
      <trkpt lat="43.78958" lon="4.17062">
        <ele>82.2</ele>
        <time>2019-11-08T13:34:25Z</time>
      </trkpt>
      <trkpt lat="43.78949" lon="4.17058">
        <ele>82.2</ele>
        <time>2019-11-08T13:34:27Z</time>
      </trkpt>
      <trkpt lat="43.78944" lon="4.17056">
        <ele>82.2</ele>
        <time>2019-11-08T13:34:28Z</time>
      </trkpt>
      <trkpt lat="43.78939" lon="4.17053">
        <ele>82.2</ele>
        <time>2019-11-08T13:34:29Z</time>
      </trkpt>
      <trkpt lat="43.78928" lon="4.17049">
        <ele>82.2</ele>
        <time>2019-11-08T13:34:31Z</time>
      </trkpt>
      <trkpt lat="43.78917" lon="4.17044">
        <ele>82.2</ele>
        <time>2019-11-08T13:34:33Z</time>
      </trkpt>
      <trkpt lat="43.78911" lon="4.17042">
        <ele>82.2</ele>
        <time>2019-11-08T13:34:34Z</time>
      </trkpt>
      <trkpt lat="43.789" lon="4.17038">
        <ele>82.3</ele>
        <time>2019-11-08T13:34:36Z</time>
      </trkpt>
      <trkpt lat="43.7889" lon="4.17039">
        <ele>82.3</ele>
        <time>2019-11-08T13:34:38Z</time>
      </trkpt>
      <trkpt lat="43.78884" lon="4.17042">
        <ele>82.4</ele>
        <time>2019-11-08T13:34:39Z</time>
      </trkpt>
      <trkpt lat="43.7888" lon="4.17046">
        <ele>82.5</ele>
        <time>2019-11-08T13:34:40Z</time>
      </trkpt>
      <trkpt lat="43.78877" lon="4.17052">
        <ele>82.7</ele>
        <time>2019-11-08T13:34:41Z</time>
      </trkpt>
      <trkpt lat="43.78873" lon="4.1706">
        <ele>82.9</ele>
        <time>2019-11-08T13:34:43Z</time>
      </trkpt>
      <trkpt lat="43.78868" lon="4.1706">
        <ele>83.3</ele>
        <time>2019-11-08T13:34:45Z</time>
      </trkpt>
      <trkpt lat="43.78864" lon="4.17054">
        <ele>83.3</ele>
        <time>2019-11-08T13:34:47Z</time>
      </trkpt>
      <trkpt lat="43.78863" lon="4.17049">
        <ele>83.4</ele>
        <time>2019-11-08T13:34:48Z</time>
      </trkpt>
      <trkpt lat="43.78863" lon="4.17039">
        <ele>83.4</ele>
        <time>2019-11-08T13:34:50Z</time>
      </trkpt>
      <trkpt lat="43.78864" lon="4.17035">
        <ele>83.5</ele>
        <time>2019-11-08T13:34:52Z</time>
      </trkpt>
      <trkpt lat="43.78865" lon="4.17029">
        <ele>83.5</ele>
        <time>2019-11-08T13:34:54Z</time>
      </trkpt>
      <trkpt lat="43.78867" lon="4.17026">
        <ele>83.6</ele>
        <time>2019-11-08T13:34:57Z</time>
      </trkpt>
      <trkpt lat="43.7887" lon="4.17021">
        <ele>83.6</ele>
        <time>2019-11-08T13:34:59Z</time>
      </trkpt>
      <trkpt lat="43.78871" lon="4.17016">
        <ele>84.8</ele>
        <time>2019-11-08T13:35:03Z</time>
      </trkpt>
      <trkpt lat="43.78869" lon="4.17012">
        <ele>85.2</ele>
        <time>2019-11-08T13:35:04Z</time>
      </trkpt>
      <trkpt lat="43.78866" lon="4.17008">
        <ele>85.8</ele>
        <time>2019-11-08T13:35:08Z</time>
      </trkpt>
      <trkpt lat="43.78861" lon="4.17003">
        <ele>86.7</ele>
        <time>2019-11-08T13:35:10Z</time>
      </trkpt>
      <trkpt lat="43.78859" lon="4.16999">
        <ele>87.2</ele>
        <time>2019-11-08T13:35:13Z</time>
      </trkpt>
      <trkpt lat="43.78855" lon="4.16997">
        <ele>87.9</ele>
        <time>2019-11-08T13:35:17Z</time>
      </trkpt>
      <trkpt lat="43.78852" lon="4.16994">
        <ele>88.8</ele>
        <time>2019-11-08T13:35:22Z</time>
      </trkpt>
      <trkpt lat="43.78851" lon="4.16989">
        <ele>89.5</ele>
        <time>2019-11-08T13:35:24Z</time>
      </trkpt>
      <trkpt lat="43.78848" lon="4.16986">
        <ele>90.3</ele>
        <time>2019-11-08T13:35:29Z</time>
      </trkpt>
      <trkpt lat="43.78844" lon="4.16983">
        <ele>91.2</ele>
        <time>2019-11-08T13:35:32Z</time>
      </trkpt>
      <trkpt lat="43.7884" lon="4.16982">
        <ele>91.9</ele>
        <time>2019-11-08T13:35:34Z</time>
      </trkpt>
      <trkpt lat="43.78834" lon="4.16978">
        <ele>93.5</ele>
        <time>2019-11-08T13:35:39Z</time>
      </trkpt>
      <trkpt lat="43.7883" lon="4.16975">
        <ele>94.4</ele>
        <time>2019-11-08T13:35:42Z</time>
      </trkpt>
      <trkpt lat="43.78827" lon="4.16973">
        <ele>95.3</ele>
        <time>2019-11-08T13:35:46Z</time>
      </trkpt>
      <trkpt lat="43.78823" lon="4.16971">
        <ele>96</ele>
        <time>2019-11-08T13:35:49Z</time>
      </trkpt>
      <trkpt lat="43.78821" lon="4.16969">
        <ele>96.6</ele>
        <time>2019-11-08T13:35:50Z</time>
      </trkpt>
      <trkpt lat="43.78817" lon="4.16966">
        <ele>97.3</ele>
        <time>2019-11-08T13:35:55Z</time>
      </trkpt>
      <trkpt lat="43.78811" lon="4.1696">
        <ele>98.6</ele>
        <time>2019-11-08T13:35:59Z</time>
      </trkpt>
      <trkpt lat="43.78807" lon="4.16956">
        <ele>99.6</ele>
        <time>2019-11-08T13:36:00Z</time>
      </trkpt>
      <trkpt lat="43.78803" lon="4.16953">
        <ele>100.3</ele>
        <time>2019-11-08T13:36:01Z</time>
      </trkpt>
      <trkpt lat="43.78795" lon="4.16947">
        <ele>101.9</ele>
        <time>2019-11-08T13:36:04Z</time>
      </trkpt>
      <trkpt lat="43.78793" lon="4.16946">
        <ele>102.4</ele>
        <time>2019-11-08T13:36:05Z</time>
      </trkpt>
      <trkpt lat="43.78789" lon="4.16944">
        <ele>103.2</ele>
        <time>2019-11-08T13:36:06Z</time>
      </trkpt>
      <trkpt lat="43.78784" lon="4.16942">
        <ele>103.9</ele>
        <time>2019-11-08T13:36:07Z</time>
      </trkpt>
      <trkpt lat="43.78781" lon="4.16939">
        <ele>104</ele>
        <time>2019-11-08T13:36:10Z</time>
      </trkpt>
      <trkpt lat="43.78776" lon="4.16938">
        <ele>104.1</ele>
        <time>2019-11-08T13:36:12Z</time>
      </trkpt>
      <trkpt lat="43.78766" lon="4.16932">
        <ele>104.4</ele>
        <time>2019-11-08T13:36:18Z</time>
      </trkpt>
      <trkpt lat="43.78762" lon="4.16928">
        <ele>104.5</ele>
        <time>2019-11-08T13:36:19Z</time>
      </trkpt>
      <trkpt lat="43.78759" lon="4.16925">
        <ele>104.6</ele>
        <time>2019-11-08T13:36:20Z</time>
      </trkpt>
      <trkpt lat="43.78756" lon="4.16924">
        <ele>104.7</ele>
        <time>2019-11-08T13:36:23Z</time>
      </trkpt>
      <trkpt lat="43.78749" lon="4.16925">
        <ele>104.8</ele>
        <time>2019-11-08T13:36:25Z</time>
      </trkpt>
      <trkpt lat="43.78745" lon="4.16926">
        <ele>104.8</ele>
        <time>2019-11-08T13:36:26Z</time>
      </trkpt>
      <trkpt lat="43.78742" lon="4.16928">
        <ele>104.8</ele>
        <time>2019-11-08T13:36:27Z</time>
      </trkpt>
      <trkpt lat="43.78739" lon="4.1693">
        <ele>104.9</ele>
        <time>2019-11-08T13:36:29Z</time>
      </trkpt>
      <trkpt lat="43.78735" lon="4.16933">
        <ele>104.9</ele>
        <time>2019-11-08T13:36:30Z</time>
      </trkpt>
      <trkpt lat="43.78731" lon="4.16939">
        <ele>104.9</ele>
        <time>2019-11-08T13:36:33Z</time>
      </trkpt>
      <trkpt lat="43.78729" lon="4.16942">
        <ele>104.9</ele>
        <time>2019-11-08T13:36:34Z</time>
      </trkpt>
      <trkpt lat="43.78727" lon="4.16946">
        <ele>104.9</ele>
        <time>2019-11-08T13:36:37Z</time>
      </trkpt>
      <trkpt lat="43.78725" lon="4.16949">
        <ele>104.9</ele>
        <time>2019-11-08T13:36:38Z</time>
      </trkpt>
      <trkpt lat="43.78719" lon="4.16955">
        <ele>105.4</ele>
        <time>2019-11-08T13:36:41Z</time>
      </trkpt>
      <trkpt lat="43.78711" lon="4.16961">
        <ele>105.8</ele>
        <time>2019-11-08T13:36:43Z</time>
      </trkpt>
      <trkpt lat="43.78708" lon="4.16966">
        <ele>106.2</ele>
        <time>2019-11-08T13:36:45Z</time>
      </trkpt>
      <trkpt lat="43.78705" lon="4.1697">
        <ele>106.4</ele>
        <time>2019-11-08T13:36:48Z</time>
      </trkpt>
      <trkpt lat="43.787" lon="4.16977">
        <ele>106.8</ele>
        <time>2019-11-08T13:36:50Z</time>
      </trkpt>
      <trkpt lat="43.78696" lon="4.1698">
        <ele>107</ele>
        <time>2019-11-08T13:36:54Z</time>
      </trkpt>
      <trkpt lat="43.7869" lon="4.16985">
        <ele>107.2</ele>
        <time>2019-11-08T13:36:56Z</time>
      </trkpt>
      <trkpt lat="43.78687" lon="4.16989">
        <ele>107.4</ele>
        <time>2019-11-08T13:36:59Z</time>
      </trkpt>
      <trkpt lat="43.78685" lon="4.16994">
        <ele>107.6</ele>
        <time>2019-11-08T13:37:00Z</time>
      </trkpt>
      <trkpt lat="43.7868" lon="4.17001">
        <ele>108</ele>
        <time>2019-11-08T13:37:04Z</time>
      </trkpt>
      <trkpt lat="43.78678" lon="4.17004">
        <ele>108.2</ele>
        <time>2019-11-08T13:37:05Z</time>
      </trkpt>
      <trkpt lat="43.78677" lon="4.17007">
        <ele>108.4</ele>
        <time>2019-11-08T13:37:08Z</time>
      </trkpt>
      <trkpt lat="43.78673" lon="4.17016">
        <ele>108.5</ele>
        <time>2019-11-08T13:37:10Z</time>
      </trkpt>
      <trkpt lat="43.78671" lon="4.1702">
        <ele>108.5</ele>
        <time>2019-11-08T13:37:13Z</time>
      </trkpt>
      <trkpt lat="43.7867" lon="4.17023">
        <ele>108.5</ele>
        <time>2019-11-08T13:37:14Z</time>
      </trkpt>
      <trkpt lat="43.78666" lon="4.17029">
        <ele>108.4</ele>
        <time>2019-11-08T13:37:16Z</time>
      </trkpt>
      <trkpt lat="43.78662" lon="4.17033">
        <ele>108.4</ele>
        <time>2019-11-08T13:37:18Z</time>
      </trkpt>
      <trkpt lat="43.78658" lon="4.17046">
        <ele>108.2</ele>
        <time>2019-11-08T13:37:22Z</time>
      </trkpt>
      <trkpt lat="43.78655" lon="4.17055">
        <ele>108.1</ele>
        <time>2019-11-08T13:37:25Z</time>
      </trkpt>
      <trkpt lat="43.78653" lon="4.17059">
        <ele>108</ele>
        <time>2019-11-08T13:37:26Z</time>
      </trkpt>
      <trkpt lat="43.78651" lon="4.17063">
        <ele>107.9</ele>
        <time>2019-11-08T13:37:28Z</time>
      </trkpt>
      <trkpt lat="43.78647" lon="4.17065">
        <ele>107.7</ele>
        <time>2019-11-08T13:37:30Z</time>
      </trkpt>
      <trkpt lat="43.78644" lon="4.17068">
        <ele>107.6</ele>
        <time>2019-11-08T13:37:32Z</time>
      </trkpt>
      <trkpt lat="43.78643" lon="4.1707">
        <ele>107.6</ele>
        <time>2019-11-08T13:37:33Z</time>
      </trkpt>
      <trkpt lat="43.78641" lon="4.17073">
        <ele>107.5</ele>
        <time>2019-11-08T13:37:35Z</time>
      </trkpt>
      <trkpt lat="43.78636" lon="4.17085">
        <ele>107.1</ele>
        <time>2019-11-08T13:37:37Z</time>
      </trkpt>
      <trkpt lat="43.78634" lon="4.1709">
        <ele>106.9</ele>
        <time>2019-11-08T13:37:39Z</time>
      </trkpt>
      <trkpt lat="43.78632" lon="4.17096">
        <ele>106.7</ele>
        <time>2019-11-08T13:37:40Z</time>
      </trkpt>
      <trkpt lat="43.78623" lon="4.17106">
        <ele>105.9</ele>
        <time>2019-11-08T13:37:43Z</time>
      </trkpt>
      <trkpt lat="43.7862" lon="4.17108">
        <ele>105.7</ele>
        <time>2019-11-08T13:37:44Z</time>
      </trkpt>
      <trkpt lat="43.78615" lon="4.17115">
        <ele>105.2</ele>
        <time>2019-11-08T13:37:45Z</time>
      </trkpt>
      <trkpt lat="43.78612" lon="4.1712">
        <ele>104.9</ele>
        <time>2019-11-08T13:37:47Z</time>
      </trkpt>
      <trkpt lat="43.78606" lon="4.17122">
        <ele>104.5</ele>
        <time>2019-11-08T13:37:50Z</time>
      </trkpt>
      <trkpt lat="43.78602" lon="4.17123">
        <ele>104.3</ele>
        <time>2019-11-08T13:37:51Z</time>
      </trkpt>
      <trkpt lat="43.78596" lon="4.17124">
        <ele>103.8</ele>
        <time>2019-11-08T13:37:53Z</time>
      </trkpt>
      <trkpt lat="43.78589" lon="4.17126">
        <ele>104.4</ele>
        <time>2019-11-08T13:37:54Z</time>
      </trkpt>
      <trkpt lat="43.78585" lon="4.17128">
        <ele>104.9</ele>
        <time>2019-11-08T13:37:56Z</time>
      </trkpt>
      <trkpt lat="43.78579" lon="4.17129">
        <ele>105.3</ele>
        <time>2019-11-08T13:37:57Z</time>
      </trkpt>
      <trkpt lat="43.78574" lon="4.17129">
        <ele>105.7</ele>
        <time>2019-11-08T13:37:58Z</time>
      </trkpt>
      <trkpt lat="43.7857" lon="4.1713">
        <ele>106.2</ele>
        <time>2019-11-08T13:38:01Z</time>
      </trkpt>
      <trkpt lat="43.78566" lon="4.17131">
        <ele>106.6</ele>
        <time>2019-11-08T13:38:02Z</time>
      </trkpt>
      <trkpt lat="43.78557" lon="4.17134">
        <ele>107.6</ele>
        <time>2019-11-08T13:38:03Z</time>
      </trkpt>
      <trkpt lat="43.78553" lon="4.17136">
        <ele>108</ele>
        <time>2019-11-08T13:38:04Z</time>
      </trkpt>
      <trkpt lat="43.78546" lon="4.17137">
        <ele>108.6</ele>
        <time>2019-11-08T13:38:07Z</time>
      </trkpt>
      <trkpt lat="43.78533" lon="4.17139">
        <ele>110.3</ele>
        <time>2019-11-08T13:38:10Z</time>
      </trkpt>
      <trkpt lat="43.78528" lon="4.1714">
        <ele>110.9</ele>
        <time>2019-11-08T13:38:11Z</time>
      </trkpt>
      <trkpt lat="43.78506" lon="4.17151">
        <ele>113.6</ele>
        <time>2019-11-08T13:38:14Z</time>
      </trkpt>
      <trkpt lat="43.785" lon="4.17157">
        <ele>114.3</ele>
        <time>2019-11-08T13:38:16Z</time>
      </trkpt>
      <trkpt lat="43.78491" lon="4.17167">
        <ele>115.7</ele>
        <time>2019-11-08T13:38:19Z</time>
      </trkpt>
      <trkpt lat="43.78489" lon="4.17172">
        <ele>116.2</ele>
        <time>2019-11-08T13:38:20Z</time>
      </trkpt>
      <trkpt lat="43.7849" lon="4.17186">
        <ele>115.9</ele>
        <time>2019-11-08T13:38:21Z</time>
      </trkpt>
      <trkpt lat="43.7849" lon="4.17192">
        <ele>115.8</ele>
        <time>2019-11-08T13:38:22Z</time>
      </trkpt>
      <trkpt lat="43.78489" lon="4.17199">
        <ele>115.7</ele>
        <time>2019-11-08T13:38:25Z</time>
      </trkpt>
      <trkpt lat="43.78481" lon="4.17214">
        <ele>113.9</ele>
        <time>2019-11-08T13:38:27Z</time>
      </trkpt>
      <trkpt lat="43.78479" lon="4.17219">
        <ele>113.7</ele>
        <time>2019-11-08T13:38:29Z</time>
      </trkpt>
      <trkpt lat="43.78477" lon="4.17224">
        <ele>113.6</ele>
        <time>2019-11-08T13:38:30Z</time>
      </trkpt>
      <trkpt lat="43.78475" lon="4.17235">
        <ele>113.3</ele>
        <time>2019-11-08T13:38:35Z</time>
      </trkpt>
      <trkpt lat="43.78473" lon="4.17241">
        <ele>113.1</ele>
        <time>2019-11-08T13:38:36Z</time>
      </trkpt>
      <trkpt lat="43.78473" lon="4.17247">
        <ele>112.9</ele>
        <time>2019-11-08T13:38:37Z</time>
      </trkpt>
      <trkpt lat="43.78473" lon="4.17256">
        <ele>112.6</ele>
        <time>2019-11-08T13:38:38Z</time>
      </trkpt>
      <trkpt lat="43.78475" lon="4.17263">
        <ele>112.4</ele>
        <time>2019-11-08T13:38:40Z</time>
      </trkpt>
      <trkpt lat="43.78476" lon="4.17268">
        <ele>112.3</ele>
        <time>2019-11-08T13:38:41Z</time>
      </trkpt>
      <trkpt lat="43.78477" lon="4.17276">
        <ele>112.2</ele>
        <time>2019-11-08T13:38:44Z</time>
      </trkpt>
      <trkpt lat="43.78478" lon="4.1728">
        <ele>112.1</ele>
        <time>2019-11-08T13:38:45Z</time>
      </trkpt>
      <trkpt lat="43.78479" lon="4.17288">
        <ele>112</ele>
        <time>2019-11-08T13:38:47Z</time>
      </trkpt>
      <trkpt lat="43.78481" lon="4.17296">
        <ele>111.9</ele>
        <time>2019-11-08T13:38:48Z</time>
      </trkpt>
      <trkpt lat="43.78483" lon="4.17304">
        <ele>111.8</ele>
        <time>2019-11-08T13:38:49Z</time>
      </trkpt>
      <trkpt lat="43.78486" lon="4.17313">
        <ele>111.7</ele>
        <time>2019-11-08T13:38:51Z</time>
      </trkpt>
      <trkpt lat="43.78489" lon="4.1732">
        <ele>111.7</ele>
        <time>2019-11-08T13:38:53Z</time>
      </trkpt>
      <trkpt lat="43.78496" lon="4.17336">
        <ele>111.6</ele>
        <time>2019-11-08T13:38:55Z</time>
      </trkpt>
      <trkpt lat="43.78499" lon="4.17346">
        <ele>111.6</ele>
        <time>2019-11-08T13:38:57Z</time>
      </trkpt>
      <trkpt lat="43.78504" lon="4.17366">
        <ele>111.3</ele>
        <time>2019-11-08T13:38:58Z</time>
      </trkpt>
      <trkpt lat="43.78506" lon="4.17383">
        <ele>111</ele>
        <time>2019-11-08T13:39:01Z</time>
      </trkpt>
      <trkpt lat="43.78508" lon="4.17405">
        <ele>112.2</ele>
        <time>2019-11-08T13:39:03Z</time>
      </trkpt>
      <trkpt lat="43.78509" lon="4.17412">
        <ele>112.7</ele>
        <time>2019-11-08T13:39:05Z</time>
      </trkpt>
      <trkpt lat="43.7851" lon="4.17419">
        <ele>112.1</ele>
        <time>2019-11-08T13:39:06Z</time>
      </trkpt>
      <trkpt lat="43.78516" lon="4.17426">
        <ele>111.7</ele>
        <time>2019-11-08T13:39:09Z</time>
      </trkpt>
      <trkpt lat="43.78523" lon="4.17437">
        <ele>109.7</ele>
        <time>2019-11-08T13:39:12Z</time>
      </trkpt>
      <trkpt lat="43.78529" lon="4.17444">
        <ele>108.6</ele>
        <time>2019-11-08T13:39:15Z</time>
      </trkpt>
      <trkpt lat="43.78534" lon="4.17447">
        <ele>108</ele>
        <time>2019-11-08T13:39:16Z</time>
      </trkpt>
      <trkpt lat="43.78536" lon="4.17449">
        <ele>107.2</ele>
        <time>2019-11-08T13:39:17Z</time>
      </trkpt>
      <trkpt lat="43.78539" lon="4.17455">
        <ele>106.8</ele>
        <time>2019-11-08T13:39:19Z</time>
      </trkpt>
      <trkpt lat="43.78542" lon="4.17461">
        <ele>106.7</ele>
        <time>2019-11-08T13:39:21Z</time>
      </trkpt>
      <trkpt lat="43.78543" lon="4.17466">
        <ele>107</ele>
        <time>2019-11-08T13:39:23Z</time>
      </trkpt>
      <trkpt lat="43.78546" lon="4.17476">
        <ele>107.2</ele>
        <time>2019-11-08T13:39:24Z</time>
      </trkpt>
      <trkpt lat="43.78551" lon="4.17496">
        <ele>107.4</ele>
        <time>2019-11-08T13:39:26Z</time>
      </trkpt>
      <trkpt lat="43.78555" lon="4.17513">
        <ele>108.1</ele>
        <time>2019-11-08T13:39:28Z</time>
      </trkpt>
      <trkpt lat="43.78557" lon="4.17521">
        <ele>108</ele>
        <time>2019-11-08T13:39:29Z</time>
      </trkpt>
      <trkpt lat="43.78559" lon="4.1753">
        <ele>108.7</ele>
        <time>2019-11-08T13:39:30Z</time>
      </trkpt>
      <trkpt lat="43.78563" lon="4.17548">
        <ele>108.7</ele>
        <time>2019-11-08T13:39:32Z</time>
      </trkpt>
      <trkpt lat="43.78565" lon="4.17558">
        <ele>109.6</ele>
        <time>2019-11-08T13:39:33Z</time>
      </trkpt>
      <trkpt lat="43.78567" lon="4.17568">
        <ele>109.6</ele>
        <time>2019-11-08T13:39:34Z</time>
      </trkpt>
      <trkpt lat="43.7857" lon="4.17586">
        <ele>110.6</ele>
        <time>2019-11-08T13:39:36Z</time>
      </trkpt>
      <trkpt lat="43.78575" lon="4.17603">
        <ele>110.6</ele>
        <time>2019-11-08T13:39:38Z</time>
      </trkpt>
      <trkpt lat="43.78578" lon="4.17611">
        <ele>111</ele>
        <time>2019-11-08T13:39:39Z</time>
      </trkpt>
      <trkpt lat="43.7858" lon="4.17618">
        <ele>110.6</ele>
        <time>2019-11-08T13:39:40Z</time>
      </trkpt>
      <trkpt lat="43.78587" lon="4.17633">
        <ele>109.3</ele>
        <time>2019-11-08T13:39:42Z</time>
      </trkpt>
      <trkpt lat="43.78594" lon="4.17649">
        <ele>107</ele>
        <time>2019-11-08T13:39:44Z</time>
      </trkpt>
      <trkpt lat="43.78597" lon="4.17658">
        <ele>106.2</ele>
        <time>2019-11-08T13:39:45Z</time>
      </trkpt>
      <trkpt lat="43.786" lon="4.17675">
        <ele>106.2</ele>
        <time>2019-11-08T13:39:47Z</time>
      </trkpt>
      <trkpt lat="43.78601" lon="4.17693">
        <ele>104.8</ele>
        <time>2019-11-08T13:39:49Z</time>
      </trkpt>
      <trkpt lat="43.78602" lon="4.17713">
        <ele>103.9</ele>
        <time>2019-11-08T13:39:51Z</time>
      </trkpt>
      <trkpt lat="43.78602" lon="4.17722">
        <ele>103.3</ele>
        <time>2019-11-08T13:39:52Z</time>
      </trkpt>
      <trkpt lat="43.78604" lon="4.17739">
        <ele>100.9</ele>
        <time>2019-11-08T13:39:54Z</time>
      </trkpt>
      <trkpt lat="43.78604" lon="4.17747">
        <ele>100.1</ele>
        <time>2019-11-08T13:39:55Z</time>
      </trkpt>
      <trkpt lat="43.78605" lon="4.17756">
        <ele>99.1</ele>
        <time>2019-11-08T13:39:56Z</time>
      </trkpt>
      <trkpt lat="43.78605" lon="4.17773">
        <ele>97.2</ele>
        <time>2019-11-08T13:39:58Z</time>
      </trkpt>
      <trkpt lat="43.78605" lon="4.17781">
        <ele>96.7</ele>
        <time>2019-11-08T13:39:59Z</time>
      </trkpt>
      <trkpt lat="43.78605" lon="4.17788">
        <ele>95.7</ele>
        <time>2019-11-08T13:40:00Z</time>
      </trkpt>
      <trkpt lat="43.78605" lon="4.17796">
        <ele>94.8</ele>
        <time>2019-11-08T13:40:01Z</time>
      </trkpt>
      <trkpt lat="43.78606" lon="4.17804">
        <ele>93.7</ele>
        <time>2019-11-08T13:40:02Z</time>
      </trkpt>
      <trkpt lat="43.78606" lon="4.17812">
        <ele>92.7</ele>
        <time>2019-11-08T13:40:03Z</time>
      </trkpt>
      <trkpt lat="43.78605" lon="4.17821">
        <ele>91.8</ele>
        <time>2019-11-08T13:40:04Z</time>
      </trkpt>
      <trkpt lat="43.78604" lon="4.17836">
        <ele>90.5</ele>
        <time>2019-11-08T13:40:06Z</time>
      </trkpt>
      <trkpt lat="43.78602" lon="4.17844">
        <ele>90.3</ele>
        <time>2019-11-08T13:40:07Z</time>
      </trkpt>
      <trkpt lat="43.78595" lon="4.17859">
        <ele>89.5</ele>
        <time>2019-11-08T13:40:09Z</time>
      </trkpt>
      <trkpt lat="43.78591" lon="4.17865">
        <ele>89.6</ele>
        <time>2019-11-08T13:40:10Z</time>
      </trkpt>
      <trkpt lat="43.7858" lon="4.17871">
        <ele>91.2</ele>
        <time>2019-11-08T13:40:12Z</time>
      </trkpt>
      <trkpt lat="43.78569" lon="4.17874">
        <ele>92.7</ele>
        <time>2019-11-08T13:40:14Z</time>
      </trkpt>
      <trkpt lat="43.78564" lon="4.17876">
        <ele>93</ele>
        <time>2019-11-08T13:40:15Z</time>
      </trkpt>
      <trkpt lat="43.78553" lon="4.17881">
        <ele>93.8</ele>
        <time>2019-11-08T13:40:17Z</time>
      </trkpt>
      <trkpt lat="43.78548" lon="4.17882">
        <ele>94.5</ele>
        <time>2019-11-08T13:40:18Z</time>
      </trkpt>
      <trkpt lat="43.78537" lon="4.17885">
        <ele>95.4</ele>
        <time>2019-11-08T13:40:20Z</time>
      </trkpt>
      <trkpt lat="43.78534" lon="4.17887">
        <ele>95.8</ele>
        <time>2019-11-08T13:40:21Z</time>
      </trkpt>
      <trkpt lat="43.78537" lon="4.17892">
        <ele>94.8</ele>
        <time>2019-11-08T13:40:23Z</time>
      </trkpt>
      <trkpt lat="43.78539" lon="4.17898">
        <ele>93.3</ele>
        <time>2019-11-08T13:40:24Z</time>
      </trkpt>
      <trkpt lat="43.78541" lon="4.17906">
        <ele>92</ele>
        <time>2019-11-08T13:40:25Z</time>
      </trkpt>
      <trkpt lat="43.78543" lon="4.17916">
        <ele>91.3</ele>
        <time>2019-11-08T13:40:27Z</time>
      </trkpt>
      <trkpt lat="43.7855" lon="4.17922">
        <ele>90.8</ele>
        <time>2019-11-08T13:40:28Z</time>
      </trkpt>
      <trkpt lat="43.78555" lon="4.17926">
        <ele>90.4</ele>
        <time>2019-11-08T13:40:31Z</time>
      </trkpt>
      <trkpt lat="43.78561" lon="4.17939">
        <ele>90</ele>
        <time>2019-11-08T13:40:35Z</time>
      </trkpt>
      <trkpt lat="43.78564" lon="4.17943">
        <ele>89.9</ele>
        <time>2019-11-08T13:40:37Z</time>
      </trkpt>
      <trkpt lat="43.78566" lon="4.17946">
        <ele>89.8</ele>
        <time>2019-11-08T13:40:38Z</time>
      </trkpt>
      <trkpt lat="43.78568" lon="4.1795">
        <ele>89.8</ele>
        <time>2019-11-08T13:40:41Z</time>
      </trkpt>
      <trkpt lat="43.7857" lon="4.17954">
        <ele>89.9</ele>
        <time>2019-11-08T13:40:42Z</time>
      </trkpt>
      <trkpt lat="43.78573" lon="4.17959">
        <ele>90</ele>
        <time>2019-11-08T13:40:46Z</time>
      </trkpt>
      <trkpt lat="43.78574" lon="4.17968">
        <ele>90.3</ele>
        <time>2019-11-08T13:40:50Z</time>
      </trkpt>
      <trkpt lat="43.78577" lon="4.17976">
        <ele>90.7</ele>
        <time>2019-11-08T13:40:52Z</time>
      </trkpt>
      <trkpt lat="43.78581" lon="4.17985">
        <ele>91.1</ele>
        <time>2019-11-08T13:40:56Z</time>
      </trkpt>
      <trkpt lat="43.78582" lon="4.17989">
        <ele>91.3</ele>
        <time>2019-11-08T13:41:00Z</time>
      </trkpt>
      <trkpt lat="43.78582" lon="4.17993">
        <ele>91.4</ele>
        <time>2019-11-08T13:41:04Z</time>
      </trkpt>
      <trkpt lat="43.78583" lon="4.17998">
        <ele>91.5</ele>
        <time>2019-11-08T13:41:05Z</time>
      </trkpt>
      <trkpt lat="43.78585" lon="4.18004">
        <ele>91.6</ele>
        <time>2019-11-08T13:41:07Z</time>
      </trkpt>
      <trkpt lat="43.78586" lon="4.1801">
        <ele>91.7</ele>
        <time>2019-11-08T13:41:08Z</time>
      </trkpt>
      <trkpt lat="43.78587" lon="4.18017">
        <ele>91.7</ele>
        <time>2019-11-08T13:41:09Z</time>
      </trkpt>
      <trkpt lat="43.78588" lon="4.18038">
        <ele>91.7</ele>
        <time>2019-11-08T13:41:12Z</time>
      </trkpt>
      <trkpt lat="43.78588" lon="4.18051">
        <ele>91.5</ele>
        <time>2019-11-08T13:41:13Z</time>
      </trkpt>
      <trkpt lat="43.78588" lon="4.18065">
        <ele>91.1</ele>
        <time>2019-11-08T13:41:14Z</time>
      </trkpt>
      <trkpt lat="43.78588" lon="4.18092">
        <ele>89.9</ele>
        <time>2019-11-08T13:41:16Z</time>
      </trkpt>
      <trkpt lat="43.7859" lon="4.18116">
        <ele>88.4</ele>
        <time>2019-11-08T13:41:18Z</time>
      </trkpt>
      <trkpt lat="43.78592" lon="4.18138">
        <ele>87</ele>
        <time>2019-11-08T13:41:20Z</time>
      </trkpt>
      <trkpt lat="43.78593" lon="4.18148">
        <ele>86.4</ele>
        <time>2019-11-08T13:41:21Z</time>
      </trkpt>
      <trkpt lat="43.78594" lon="4.18157">
        <ele>85.9</ele>
        <time>2019-11-08T13:41:22Z</time>
      </trkpt>
      <trkpt lat="43.78596" lon="4.18172">
        <ele>85</ele>
        <time>2019-11-08T13:41:24Z</time>
      </trkpt>
      <trkpt lat="43.78596" lon="4.18178">
        <ele>84.7</ele>
        <time>2019-11-08T13:41:25Z</time>
      </trkpt>
      <trkpt lat="43.78596" lon="4.18184">
        <ele>84.1</ele>
        <time>2019-11-08T13:41:26Z</time>
      </trkpt>
      <trkpt lat="43.78594" lon="4.18194">
        <ele>83.6</ele>
        <time>2019-11-08T13:41:28Z</time>
      </trkpt>
      <trkpt lat="43.78593" lon="4.18199">
        <ele>83.4</ele>
        <time>2019-11-08T13:41:29Z</time>
      </trkpt>
      <trkpt lat="43.78591" lon="4.18202">
        <ele>83.3</ele>
        <time>2019-11-08T13:41:30Z</time>
      </trkpt>
      <trkpt lat="43.78588" lon="4.18211">
        <ele>83</ele>
        <time>2019-11-08T13:41:31Z</time>
      </trkpt>
      <trkpt lat="43.78587" lon="4.1822">
        <ele>82.9</ele>
        <time>2019-11-08T13:41:34Z</time>
      </trkpt>
      <trkpt lat="43.78585" lon="4.18225">
        <ele>82.9</ele>
        <time>2019-11-08T13:41:35Z</time>
      </trkpt>
      <trkpt lat="43.78579" lon="4.18232">
        <ele>83.1</ele>
        <time>2019-11-08T13:41:36Z</time>
      </trkpt>
      <trkpt lat="43.78575" lon="4.18237">
        <ele>83.3</ele>
        <time>2019-11-08T13:41:39Z</time>
      </trkpt>
      <trkpt lat="43.78569" lon="4.18245">
        <ele>83.7</ele>
        <time>2019-11-08T13:41:41Z</time>
      </trkpt>
      <trkpt lat="43.78565" lon="4.18252">
        <ele>84.2</ele>
        <time>2019-11-08T13:41:46Z</time>
      </trkpt>
      <trkpt lat="43.78562" lon="4.18258">
        <ele>84.6</ele>
        <time>2019-11-08T13:41:48Z</time>
      </trkpt>
      <trkpt lat="43.78561" lon="4.18261">
        <ele>84.9</ele>
        <time>2019-11-08T13:41:49Z</time>
      </trkpt>
      <trkpt lat="43.7856" lon="4.18267">
        <ele>85.3</ele>
        <time>2019-11-08T13:41:51Z</time>
      </trkpt>
      <trkpt lat="43.78559" lon="4.18271">
        <ele>85.6</ele>
        <time>2019-11-08T13:41:52Z</time>
      </trkpt>
      <trkpt lat="43.78555" lon="4.18277">
        <ele>86.3</ele>
        <time>2019-11-08T13:41:55Z</time>
      </trkpt>
      <trkpt lat="43.78552" lon="4.18281">
        <ele>86.8</ele>
        <time>2019-11-08T13:41:57Z</time>
      </trkpt>
      <trkpt lat="43.78548" lon="4.18286">
        <ele>87.4</ele>
        <time>2019-11-08T13:41:59Z</time>
      </trkpt>
      <trkpt lat="43.78545" lon="4.18291">
        <ele>87.9</ele>
        <time>2019-11-08T13:42:01Z</time>
      </trkpt>
      <trkpt lat="43.78541" lon="4.18299">
        <ele>88.6</ele>
        <time>2019-11-08T13:42:04Z</time>
      </trkpt>
      <trkpt lat="43.78538" lon="4.18305">
        <ele>89.2</ele>
        <time>2019-11-08T13:42:06Z</time>
      </trkpt>
      <trkpt lat="43.78536" lon="4.18308">
        <ele>97.2</ele>
        <time>2019-11-08T13:42:07Z</time>
      </trkpt>
      <trkpt lat="43.78532" lon="4.18312">
        <ele>97.9</ele>
        <time>2019-11-08T13:42:10Z</time>
      </trkpt>
      <trkpt lat="43.78535" lon="4.18311">
        <ele>98.3</ele>
        <time>2019-11-08T13:42:21Z</time>
      </trkpt>
      <trkpt lat="43.78535" lon="4.18305">
        <ele>98.7</ele>
        <time>2019-11-08T13:42:23Z</time>
      </trkpt>
      <trkpt lat="43.78533" lon="4.18301">
        <ele>99.1</ele>
        <time>2019-11-08T13:42:27Z</time>
      </trkpt>
      <trkpt lat="43.78532" lon="4.18298">
        <ele>99.4</ele>
        <time>2019-11-08T13:42:29Z</time>
      </trkpt>
      <trkpt lat="43.78531" lon="4.18287">
        <ele>100.3</ele>
        <time>2019-11-08T13:42:31Z</time>
      </trkpt>
      <trkpt lat="43.78531" lon="4.1828">
        <ele>100.8</ele>
        <time>2019-11-08T13:42:35Z</time>
      </trkpt>
      <trkpt lat="43.7853" lon="4.18277">
        <ele>101</ele>
        <time>2019-11-08T13:42:36Z</time>
      </trkpt>
      <trkpt lat="43.78529" lon="4.18273">
        <ele>101.3</ele>
        <time>2019-11-08T13:42:39Z</time>
      </trkpt>
      <trkpt lat="43.78528" lon="4.18262">
        <ele>101.9</ele>
        <time>2019-11-08T13:42:43Z</time>
      </trkpt>
      <trkpt lat="43.78526" lon="4.18255">
        <ele>102.3</ele>
        <time>2019-11-08T13:42:45Z</time>
      </trkpt>
      <trkpt lat="43.78525" lon="4.18247">
        <ele>102.7</ele>
        <time>2019-11-08T13:42:47Z</time>
      </trkpt>
      <trkpt lat="43.78522" lon="4.18234">
        <ele>103.4</ele>
        <time>2019-11-08T13:42:51Z</time>
      </trkpt>
      <trkpt lat="43.7852" lon="4.18229">
        <ele>103.7</ele>
        <time>2019-11-08T13:42:52Z</time>
      </trkpt>
      <trkpt lat="43.78518" lon="4.18221">
        <ele>104.1</ele>
        <time>2019-11-08T13:42:56Z</time>
      </trkpt>
      <trkpt lat="43.78513" lon="4.18205">
        <ele>104.8</ele>
        <time>2019-11-08T13:42:59Z</time>
      </trkpt>
      <trkpt lat="43.7851" lon="4.18201">
        <ele>105</ele>
        <time>2019-11-08T13:43:00Z</time>
      </trkpt>
      <trkpt lat="43.78507" lon="4.18189">
        <ele>105.6</ele>
        <time>2019-11-08T13:43:02Z</time>
      </trkpt>
      <trkpt lat="43.78505" lon="4.18184">
        <ele>105.9</ele>
        <time>2019-11-08T13:43:04Z</time>
      </trkpt>
      <trkpt lat="43.78502" lon="4.1818">
        <ele>106.2</ele>
        <time>2019-11-08T13:43:05Z</time>
      </trkpt>
      <trkpt lat="43.78497" lon="4.1817">
        <ele>107.1</ele>
        <time>2019-11-08T13:43:08Z</time>
      </trkpt>
      <trkpt lat="43.78491" lon="4.18166">
        <ele>107.7</ele>
        <time>2019-11-08T13:43:11Z</time>
      </trkpt>
      <trkpt lat="43.78489" lon="4.18164">
        <ele>108</ele>
        <time>2019-11-08T13:43:12Z</time>
      </trkpt>
      <trkpt lat="43.78483" lon="4.1816">
        <ele>108.8</ele>
        <time>2019-11-08T13:43:14Z</time>
      </trkpt>
      <trkpt lat="43.78479" lon="4.18156">
        <ele>109.6</ele>
        <time>2019-11-08T13:43:15Z</time>
      </trkpt>
      <trkpt lat="43.78476" lon="4.18153">
        <ele>110.2</ele>
        <time>2019-11-08T13:43:18Z</time>
      </trkpt>
      <trkpt lat="43.78473" lon="4.18152">
        <ele>110.6</ele>
        <time>2019-11-08T13:43:19Z</time>
      </trkpt>
      <trkpt lat="43.78468" lon="4.18147">
        <ele>111.4</ele>
        <time>2019-11-08T13:43:21Z</time>
      </trkpt>
      <trkpt lat="43.78466" lon="4.18144">
        <ele>111.8</ele>
        <time>2019-11-08T13:43:22Z</time>
      </trkpt>
      <trkpt lat="43.78464" lon="4.1814">
        <ele>112.5</ele>
        <time>2019-11-08T13:43:24Z</time>
      </trkpt>
      <trkpt lat="43.78461" lon="4.18136">
        <ele>113</ele>
        <time>2019-11-08T13:43:25Z</time>
      </trkpt>
      <trkpt lat="43.78458" lon="4.1813">
        <ele>114</ele>
        <time>2019-11-08T13:43:29Z</time>
      </trkpt>
      <trkpt lat="43.78457" lon="4.18126">
        <ele>114.4</ele>
        <time>2019-11-08T13:43:30Z</time>
      </trkpt>
      <trkpt lat="43.78457" lon="4.18119">
        <ele>115.1</ele>
        <time>2019-11-08T13:43:32Z</time>
      </trkpt>
      <trkpt lat="43.78456" lon="4.18108">
        <ele>116.4</ele>
        <time>2019-11-08T13:43:38Z</time>
      </trkpt>
      <trkpt lat="43.78454" lon="4.181">
        <ele>117.2</ele>
        <time>2019-11-08T13:43:40Z</time>
      </trkpt>
      <trkpt lat="43.78453" lon="4.18094">
        <ele>118</ele>
        <time>2019-11-08T13:43:42Z</time>
      </trkpt>
      <trkpt lat="43.78452" lon="4.1809">
        <ele>118.4</ele>
        <time>2019-11-08T13:43:43Z</time>
      </trkpt>
      <trkpt lat="43.78451" lon="4.18084">
        <ele>119.1</ele>
        <time>2019-11-08T13:43:47Z</time>
      </trkpt>
      <trkpt lat="43.78448" lon="4.18079">
        <ele>119.8</ele>
        <time>2019-11-08T13:43:48Z</time>
      </trkpt>
      <trkpt lat="43.78445" lon="4.18074">
        <ele>120.6</ele>
        <time>2019-11-08T13:43:52Z</time>
      </trkpt>
      <trkpt lat="43.78441" lon="4.18071">
        <ele>121.2</ele>
        <time>2019-11-08T13:43:54Z</time>
      </trkpt>
      <trkpt lat="43.78438" lon="4.18068">
        <ele>121.9</ele>
        <time>2019-11-08T13:43:55Z</time>
      </trkpt>
      <trkpt lat="43.78436" lon="4.18066">
        <ele>122.4</ele>
        <time>2019-11-08T13:43:59Z</time>
      </trkpt>
      <trkpt lat="43.78432" lon="4.18062">
        <ele>123.2</ele>
        <time>2019-11-08T13:44:01Z</time>
      </trkpt>
      <trkpt lat="43.78426" lon="4.18056">
        <ele>124.4</ele>
        <time>2019-11-08T13:44:04Z</time>
      </trkpt>
      <trkpt lat="43.78423" lon="4.18054">
        <ele>125</ele>
        <time>2019-11-08T13:44:08Z</time>
      </trkpt>
      <trkpt lat="43.7842" lon="4.18053">
        <ele>125.5</ele>
        <time>2019-11-08T13:44:09Z</time>
      </trkpt>
      <trkpt lat="43.78417" lon="4.18047">
        <ele>126.4</ele>
        <time>2019-11-08T13:44:12Z</time>
      </trkpt>
      <trkpt lat="43.78413" lon="4.18044">
        <ele>127.2</ele>
        <time>2019-11-08T13:44:14Z</time>
      </trkpt>
      <trkpt lat="43.7841" lon="4.18041">
        <ele>127.8</ele>
        <time>2019-11-08T13:44:17Z</time>
      </trkpt>
      <trkpt lat="43.78401" lon="4.18037">
        <ele>129.3</ele>
        <time>2019-11-08T13:44:21Z</time>
      </trkpt>
      <trkpt lat="43.78395" lon="4.18034">
        <ele>130.2</ele>
        <time>2019-11-08T13:44:23Z</time>
      </trkpt>
      <trkpt lat="43.78389" lon="4.18033">
        <ele>131</ele>
        <time>2019-11-08T13:44:26Z</time>
      </trkpt>
      <trkpt lat="43.78384" lon="4.18031">
        <ele>131.8</ele>
        <time>2019-11-08T13:44:28Z</time>
      </trkpt>
      <trkpt lat="43.78378" lon="4.18029">
        <ele>132.6</ele>
        <time>2019-11-08T13:44:32Z</time>
      </trkpt>
      <trkpt lat="43.78375" lon="4.18028">
        <ele>133.1</ele>
        <time>2019-11-08T13:44:33Z</time>
      </trkpt>
      <trkpt lat="43.7837" lon="4.1803">
        <ele>133.7</ele>
        <time>2019-11-08T13:44:37Z</time>
      </trkpt>
      <trkpt lat="43.78366" lon="4.18027">
        <ele>134.3</ele>
        <time>2019-11-08T13:44:39Z</time>
      </trkpt>
      <trkpt lat="43.7836" lon="4.18026">
        <ele>135.1</ele>
        <time>2019-11-08T13:44:40Z</time>
      </trkpt>
      <trkpt lat="43.78356" lon="4.18026">
        <ele>135.5</ele>
        <time>2019-11-08T13:44:42Z</time>
      </trkpt>
      <trkpt lat="43.78353" lon="4.18026">
        <ele>135.9</ele>
        <time>2019-11-08T13:44:43Z</time>
      </trkpt>
      <trkpt lat="43.7835" lon="4.18025">
        <ele>136.3</ele>
        <time>2019-11-08T13:44:44Z</time>
      </trkpt>
      <trkpt lat="43.78347" lon="4.18025">
        <ele>136.6</ele>
        <time>2019-11-08T13:44:45Z</time>
      </trkpt>
      <trkpt lat="43.78344" lon="4.18025">
        <ele>136.9</ele>
        <time>2019-11-08T13:44:47Z</time>
      </trkpt>
      <trkpt lat="43.7834" lon="4.18024">
        <ele>137.3</ele>
        <time>2019-11-08T13:44:50Z</time>
      </trkpt>
      <trkpt lat="43.78337" lon="4.18023">
        <ele>137.6</ele>
        <time>2019-11-08T13:44:52Z</time>
      </trkpt>
      <trkpt lat="43.78331" lon="4.18023">
        <ele>138.2</ele>
        <time>2019-11-08T13:44:55Z</time>
      </trkpt>
      <trkpt lat="43.78325" lon="4.18021">
        <ele>138.7</ele>
        <time>2019-11-08T13:44:58Z</time>
      </trkpt>
      <trkpt lat="43.78319" lon="4.1802">
        <ele>139.4</ele>
        <time>2019-11-08T13:45:00Z</time>
      </trkpt>
      <trkpt lat="43.78313" lon="4.1802">
        <ele>140.1</ele>
        <time>2019-11-08T13:45:02Z</time>
      </trkpt>
      <trkpt lat="43.7831" lon="4.1802">
        <ele>140.4</ele>
        <time>2019-11-08T13:45:03Z</time>
      </trkpt>
      <trkpt lat="43.78305" lon="4.1802">
        <ele>140.9</ele>
        <time>2019-11-08T13:45:06Z</time>
      </trkpt>
      <trkpt lat="43.78299" lon="4.18021">
        <ele>141.4</ele>
        <time>2019-11-08T13:45:08Z</time>
      </trkpt>
      <trkpt lat="43.78292" lon="4.18018">
        <ele>142.1</ele>
        <time>2019-11-08T13:45:11Z</time>
      </trkpt>
      <trkpt lat="43.78289" lon="4.18017">
        <ele>142.3</ele>
        <time>2019-11-08T13:45:12Z</time>
      </trkpt>
      <trkpt lat="43.78286" lon="4.18016">
        <ele>142.5</ele>
        <time>2019-11-08T13:45:14Z</time>
      </trkpt>
      <trkpt lat="43.78282" lon="4.18016">
        <ele>142.7</ele>
        <time>2019-11-08T13:45:16Z</time>
      </trkpt>
      <trkpt lat="43.78277" lon="4.18016">
        <ele>143</ele>
        <time>2019-11-08T13:45:18Z</time>
      </trkpt>
      <trkpt lat="43.78268" lon="4.18015">
        <ele>143.6</ele>
        <time>2019-11-08T13:45:19Z</time>
      </trkpt>
      <trkpt lat="43.78264" lon="4.18015">
        <ele>144</ele>
        <time>2019-11-08T13:45:20Z</time>
      </trkpt>
      <trkpt lat="43.7826" lon="4.18016">
        <ele>144.3</ele>
        <time>2019-11-08T13:45:22Z</time>
      </trkpt>
      <trkpt lat="43.78256" lon="4.18016">
        <ele>144.6</ele>
        <time>2019-11-08T13:45:25Z</time>
      </trkpt>
      <trkpt lat="43.78252" lon="4.18017">
        <ele>144.9</ele>
        <time>2019-11-08T13:45:26Z</time>
      </trkpt>
      <trkpt lat="43.78242" lon="4.18018">
        <ele>145.6</ele>
        <time>2019-11-08T13:45:28Z</time>
      </trkpt>
      <trkpt lat="43.78239" lon="4.18021">
        <ele>145.9</ele>
        <time>2019-11-08T13:45:29Z</time>
      </trkpt>
      <trkpt lat="43.78234" lon="4.18024">
        <ele>146.3</ele>
        <time>2019-11-08T13:45:32Z</time>
      </trkpt>
      <trkpt lat="43.78228" lon="4.18031">
        <ele>147.2</ele>
        <time>2019-11-08T13:45:34Z</time>
      </trkpt>
      <trkpt lat="43.78225" lon="4.18035">
        <ele>147.7</ele>
        <time>2019-11-08T13:45:35Z</time>
      </trkpt>
      <trkpt lat="43.78222" lon="4.18038">
        <ele>147.9</ele>
        <time>2019-11-08T13:45:36Z</time>
      </trkpt>
      <trkpt lat="43.78219" lon="4.18042">
        <ele>148.2</ele>
        <time>2019-11-08T13:45:37Z</time>
      </trkpt>
      <trkpt lat="43.78215" lon="4.18047">
        <ele>148.8</ele>
        <time>2019-11-08T13:45:39Z</time>
      </trkpt>
      <trkpt lat="43.78213" lon="4.18051">
        <ele>149.3</ele>
        <time>2019-11-08T13:45:40Z</time>
      </trkpt>
      <trkpt lat="43.78211" lon="4.18057">
        <ele>149.9</ele>
        <time>2019-11-08T13:45:43Z</time>
      </trkpt>
      <trkpt lat="43.78208" lon="4.18067">
        <ele>150.9</ele>
        <time>2019-11-08T13:45:46Z</time>
      </trkpt>
      <trkpt lat="43.78207" lon="4.18075">
        <ele>151.7</ele>
        <time>2019-11-08T13:45:47Z</time>
      </trkpt>
      <trkpt lat="43.78207" lon="4.18083">
        <ele>152.3</ele>
        <time>2019-11-08T13:45:51Z</time>
      </trkpt>
      <trkpt lat="43.78207" lon="4.18087">
        <ele>152.6</ele>
        <time>2019-11-08T13:45:52Z</time>
      </trkpt>
      <trkpt lat="43.78206" lon="4.18093">
        <ele>153.3</ele>
        <time>2019-11-08T13:45:53Z</time>
      </trkpt>
      <trkpt lat="43.78206" lon="4.18101">
        <ele>153.8</ele>
        <time>2019-11-08T13:45:56Z</time>
      </trkpt>
      <trkpt lat="43.78207" lon="4.18107">
        <ele>154.2</ele>
        <time>2019-11-08T13:45:57Z</time>
      </trkpt>
      <trkpt lat="43.78208" lon="4.18112">
        <ele>154.5</ele>
        <time>2019-11-08T13:45:59Z</time>
      </trkpt>
      <trkpt lat="43.78209" lon="4.18117">
        <ele>154.8</ele>
        <time>2019-11-08T13:46:00Z</time>
      </trkpt>
      <trkpt lat="43.78211" lon="4.18137">
        <ele>156.1</ele>
        <time>2019-11-08T13:46:02Z</time>
      </trkpt>
      <trkpt lat="43.7821" lon="4.18147">
        <ele>156.5</ele>
        <time>2019-11-08T13:46:05Z</time>
      </trkpt>
      <trkpt lat="43.7821" lon="4.18152">
        <ele>156.7</ele>
        <time>2019-11-08T13:46:06Z</time>
      </trkpt>
      <trkpt lat="43.78209" lon="4.18173">
        <ele>157.8</ele>
        <time>2019-11-08T13:46:08Z</time>
      </trkpt>
      <trkpt lat="43.78208" lon="4.18183">
        <ele>158.6</ele>
        <time>2019-11-08T13:46:09Z</time>
      </trkpt>
      <trkpt lat="43.78207" lon="4.18191">
        <ele>158.6</ele>
        <time>2019-11-08T13:46:10Z</time>
      </trkpt>
      <trkpt lat="43.78204" lon="4.18203">
        <ele>158.8</ele>
        <time>2019-11-08T13:46:12Z</time>
      </trkpt>
      <trkpt lat="43.78202" lon="4.18212">
        <ele>158.9</ele>
        <time>2019-11-08T13:46:13Z</time>
      </trkpt>
      <trkpt lat="43.782" lon="4.18219">
        <ele>159</ele>
        <time>2019-11-08T13:46:16Z</time>
      </trkpt>
      <trkpt lat="43.78198" lon="4.18225">
        <ele>159</ele>
        <time>2019-11-08T13:46:17Z</time>
      </trkpt>
      <trkpt lat="43.78194" lon="4.18239">
        <ele>159.6</ele>
        <time>2019-11-08T13:46:19Z</time>
      </trkpt>
      <trkpt lat="43.78194" lon="4.18244">
        <ele>159.8</ele>
        <time>2019-11-08T13:46:21Z</time>
      </trkpt>
      <trkpt lat="43.78192" lon="4.18258">
        <ele>160.3</ele>
        <time>2019-11-08T13:46:23Z</time>
      </trkpt>
      <trkpt lat="43.78189" lon="4.18265">
        <ele>160.6</ele>
        <time>2019-11-08T13:46:24Z</time>
      </trkpt>
      <trkpt lat="43.78188" lon="4.18269">
        <ele>160.7</ele>
        <time>2019-11-08T13:46:26Z</time>
      </trkpt>
      <trkpt lat="43.78186" lon="4.18272">
        <ele>160.8</ele>
        <time>2019-11-08T13:46:28Z</time>
      </trkpt>
      <trkpt lat="43.78184" lon="4.18276">
        <ele>161</ele>
        <time>2019-11-08T13:46:29Z</time>
      </trkpt>
      <trkpt lat="43.78181" lon="4.18285">
        <ele>161.2</ele>
        <time>2019-11-08T13:46:30Z</time>
      </trkpt>
      <trkpt lat="43.78179" lon="4.18289">
        <ele>161.3</ele>
        <time>2019-11-08T13:46:31Z</time>
      </trkpt>
      <trkpt lat="43.78177" lon="4.18293">
        <ele>161.4</ele>
        <time>2019-11-08T13:46:32Z</time>
      </trkpt>
      <trkpt lat="43.78176" lon="4.18298">
        <ele>161.5</ele>
        <time>2019-11-08T13:46:34Z</time>
      </trkpt>
      <trkpt lat="43.78176" lon="4.18305">
        <ele>161.7</ele>
        <time>2019-11-08T13:46:35Z</time>
      </trkpt>
      <trkpt lat="43.78175" lon="4.18313">
        <ele>161.8</ele>
        <time>2019-11-08T13:46:38Z</time>
      </trkpt>
      <trkpt lat="43.78172" lon="4.18323">
        <ele>162</ele>
        <time>2019-11-08T13:46:40Z</time>
      </trkpt>
      <trkpt lat="43.7817" lon="4.18328">
        <ele>162</ele>
        <time>2019-11-08T13:46:41Z</time>
      </trkpt>
      <trkpt lat="43.78166" lon="4.18338">
        <ele>161.9</ele>
        <time>2019-11-08T13:46:42Z</time>
      </trkpt>
      <trkpt lat="43.78165" lon="4.18343">
        <ele>161.8</ele>
        <time>2019-11-08T13:46:43Z</time>
      </trkpt>
      <trkpt lat="43.78162" lon="4.18352">
        <ele>161.6</ele>
        <time>2019-11-08T13:46:46Z</time>
      </trkpt>
      <trkpt lat="43.78159" lon="4.18359">
        <ele>161.4</ele>
        <time>2019-11-08T13:46:48Z</time>
      </trkpt>
      <trkpt lat="43.78155" lon="4.18371">
        <ele>160.8</ele>
        <time>2019-11-08T13:46:51Z</time>
      </trkpt>
      <trkpt lat="43.78153" lon="4.18382">
        <ele>160.3</ele>
        <time>2019-11-08T13:46:52Z</time>
      </trkpt>
      <trkpt lat="43.78158" lon="4.184">
        <ele>159.3</ele>
        <time>2019-11-08T13:46:54Z</time>
      </trkpt>
      <trkpt lat="43.7816" lon="4.18408">
        <ele>159.1</ele>
        <time>2019-11-08T13:46:56Z</time>
      </trkpt>
      <trkpt lat="43.78154" lon="4.18416">
        <ele>156.6</ele>
        <time>2019-11-08T13:46:59Z</time>
      </trkpt>
      <trkpt lat="43.78151" lon="4.18419">
        <ele>155.9</ele>
        <time>2019-11-08T13:47:00Z</time>
      </trkpt>
      <trkpt lat="43.78153" lon="4.18429">
        <ele>154.4</ele>
        <time>2019-11-08T13:47:03Z</time>
      </trkpt>
      <trkpt lat="43.78155" lon="4.18434">
        <ele>153.6</ele>
        <time>2019-11-08T13:47:04Z</time>
      </trkpt>
      <trkpt lat="43.78161" lon="4.18446">
        <ele>151.7</ele>
        <time>2019-11-08T13:47:06Z</time>
      </trkpt>
      <trkpt lat="43.78159" lon="4.18453">
        <ele>150.7</ele>
        <time>2019-11-08T13:47:08Z</time>
      </trkpt>
      <trkpt lat="43.78158" lon="4.18461">
        <ele>149.5</ele>
        <time>2019-11-08T13:47:09Z</time>
      </trkpt>
      <trkpt lat="43.78159" lon="4.18469">
        <ele>148.4</ele>
        <time>2019-11-08T13:47:10Z</time>
      </trkpt>
      <trkpt lat="43.78159" lon="4.18477">
        <ele>147</ele>
        <time>2019-11-08T13:47:12Z</time>
      </trkpt>
      <trkpt lat="43.78161" lon="4.18487">
        <ele>145.6</ele>
        <time>2019-11-08T13:47:14Z</time>
      </trkpt>
      <trkpt lat="43.78165" lon="4.18503">
        <ele>143.4</ele>
        <time>2019-11-08T13:47:17Z</time>
      </trkpt>
      <trkpt lat="43.78169" lon="4.1851">
        <ele>142.3</ele>
        <time>2019-11-08T13:47:20Z</time>
      </trkpt>
      <trkpt lat="43.78171" lon="4.18513">
        <ele>141.9</ele>
        <time>2019-11-08T13:47:21Z</time>
      </trkpt>
      <trkpt lat="43.78178" lon="4.18516">
        <ele>140.8</ele>
        <time>2019-11-08T13:47:24Z</time>
      </trkpt>
      <trkpt lat="43.78181" lon="4.18518">
        <ele>140.5</ele>
        <time>2019-11-08T13:47:25Z</time>
      </trkpt>
      <trkpt lat="43.78185" lon="4.18519">
        <ele>140.1</ele>
        <time>2019-11-08T13:47:27Z</time>
      </trkpt>
      <trkpt lat="43.7819" lon="4.18519">
        <ele>139.6</ele>
        <time>2019-11-08T13:47:29Z</time>
      </trkpt>
      <trkpt lat="43.78202" lon="4.18517">
        <ele>138.5</ele>
        <time>2019-11-08T13:47:31Z</time>
      </trkpt>
      <trkpt lat="43.78209" lon="4.18514">
        <ele>137.7</ele>
        <time>2019-11-08T13:47:32Z</time>
      </trkpt>
      <trkpt lat="43.78219" lon="4.18506">
        <ele>136.1</ele>
        <time>2019-11-08T13:47:34Z</time>
      </trkpt>
      <trkpt lat="43.78225" lon="4.18503">
        <ele>135.4</ele>
        <time>2019-11-08T13:47:35Z</time>
      </trkpt>
      <trkpt lat="43.78236" lon="4.18498">
        <ele>133.9</ele>
        <time>2019-11-08T13:47:37Z</time>
      </trkpt>
      <trkpt lat="43.78241" lon="4.18495">
        <ele>133.4</ele>
        <time>2019-11-08T13:47:38Z</time>
      </trkpt>
      <trkpt lat="43.78245" lon="4.18492">
        <ele>133</ele>
        <time>2019-11-08T13:47:39Z</time>
      </trkpt>
      <trkpt lat="43.78252" lon="4.18487">
        <ele>132.3</ele>
        <time>2019-11-08T13:47:41Z</time>
      </trkpt>
      <trkpt lat="43.78267" lon="4.18485">
        <ele>131.5</ele>
        <time>2019-11-08T13:47:44Z</time>
      </trkpt>
      <trkpt lat="43.78272" lon="4.18487">
        <ele>131.2</ele>
        <time>2019-11-08T13:47:45Z</time>
      </trkpt>
      <trkpt lat="43.78284" lon="4.1849">
        <ele>130.3</ele>
        <time>2019-11-08T13:47:47Z</time>
      </trkpt>
      <trkpt lat="43.78291" lon="4.18492">
        <ele>129.6</ele>
        <time>2019-11-08T13:47:48Z</time>
      </trkpt>
      <trkpt lat="43.78299" lon="4.18494">
        <ele>128.9</ele>
        <time>2019-11-08T13:47:49Z</time>
      </trkpt>
      <trkpt lat="43.7831" lon="4.18497">
        <ele>127.5</ele>
        <time>2019-11-08T13:47:51Z</time>
      </trkpt>
      <trkpt lat="43.78312" lon="4.18501">
        <ele>127</ele>
        <time>2019-11-08T13:47:55Z</time>
      </trkpt>
      <trkpt lat="43.78302" lon="4.18505">
        <ele>125.2</ele>
        <time>2019-11-08T13:47:57Z</time>
      </trkpt>
      <trkpt lat="43.78297" lon="4.18507">
        <ele>124.3</ele>
        <time>2019-11-08T13:47:58Z</time>
      </trkpt>
      <trkpt lat="43.78292" lon="4.1851">
        <ele>123.4</ele>
        <time>2019-11-08T13:47:59Z</time>
      </trkpt>
      <trkpt lat="43.78281" lon="4.18518">
        <ele>121.5</ele>
        <time>2019-11-08T13:48:01Z</time>
      </trkpt>
      <trkpt lat="43.78276" lon="4.18523">
        <ele>120.4</ele>
        <time>2019-11-08T13:48:02Z</time>
      </trkpt>
      <trkpt lat="43.78272" lon="4.18527">
        <ele>119.6</ele>
        <time>2019-11-08T13:48:03Z</time>
      </trkpt>
      <trkpt lat="43.78269" lon="4.18533">
        <ele>119</ele>
        <time>2019-11-08T13:48:04Z</time>
      </trkpt>
      <trkpt lat="43.78262" lon="4.1854">
        <ele>117.8</ele>
        <time>2019-11-08T13:48:07Z</time>
      </trkpt>
      <trkpt lat="43.78259" lon="4.18543">
        <ele>117.3</ele>
        <time>2019-11-08T13:48:08Z</time>
      </trkpt>
      <trkpt lat="43.78256" lon="4.18547">
        <ele>116.9</ele>
        <time>2019-11-08T13:48:10Z</time>
      </trkpt>
      <trkpt lat="43.78248" lon="4.18552">
        <ele>116.1</ele>
        <time>2019-11-08T13:48:12Z</time>
      </trkpt>
      <trkpt lat="43.78242" lon="4.18555">
        <ele>115.4</ele>
        <time>2019-11-08T13:48:13Z</time>
      </trkpt>
      <trkpt lat="43.78238" lon="4.18559">
        <ele>115.1</ele>
        <time>2019-11-08T13:48:14Z</time>
      </trkpt>
      <trkpt lat="43.78225" lon="4.18568">
        <ele>114.4</ele>
        <time>2019-11-08T13:48:17Z</time>
      </trkpt>
      <trkpt lat="43.78219" lon="4.18574">
        <ele>114.1</ele>
        <time>2019-11-08T13:48:18Z</time>
      </trkpt>
      <trkpt lat="43.78207" lon="4.18585">
        <ele>113.7</ele>
        <time>2019-11-08T13:48:20Z</time>
      </trkpt>
      <trkpt lat="43.78199" lon="4.1859">
        <ele>113.6</ele>
        <time>2019-11-08T13:48:21Z</time>
      </trkpt>
      <trkpt lat="43.78183" lon="4.18599">
        <ele>113.3</ele>
        <time>2019-11-08T13:48:23Z</time>
      </trkpt>
      <trkpt lat="43.78176" lon="4.18603">
        <ele>113.1</ele>
        <time>2019-11-08T13:48:24Z</time>
      </trkpt>
      <trkpt lat="43.78163" lon="4.18606">
        <ele>112.8</ele>
        <time>2019-11-08T13:48:26Z</time>
      </trkpt>
      <trkpt lat="43.78154" lon="4.18603">
        <ele>123.2</ele>
        <time>2019-11-08T13:48:28Z</time>
      </trkpt>
      <trkpt lat="43.7815" lon="4.18597">
        <ele>124</ele>
        <time>2019-11-08T13:48:30Z</time>
      </trkpt>
      <trkpt lat="43.78146" lon="4.18595">
        <ele>124.6</ele>
        <time>2019-11-08T13:48:32Z</time>
      </trkpt>
      <trkpt lat="43.78141" lon="4.1859">
        <ele>125.6</ele>
        <time>2019-11-08T13:48:34Z</time>
      </trkpt>
      <trkpt lat="43.78135" lon="4.18581">
        <ele>127</ele>
        <time>2019-11-08T13:48:35Z</time>
      </trkpt>
      <trkpt lat="43.7813" lon="4.18575">
        <ele>128.1</ele>
        <time>2019-11-08T13:48:37Z</time>
      </trkpt>
      <trkpt lat="43.78128" lon="4.18571">
        <ele>128.7</ele>
        <time>2019-11-08T13:48:39Z</time>
      </trkpt>
      <trkpt lat="43.78126" lon="4.18568">
        <ele>129.3</ele>
        <time>2019-11-08T13:48:40Z</time>
      </trkpt>
      <trkpt lat="43.78123" lon="4.1856">
        <ele>129.9</ele>
        <time>2019-11-08T13:48:42Z</time>
      </trkpt>
      <trkpt lat="43.78121" lon="4.18556">
        <ele>130.1</ele>
        <time>2019-11-08T13:48:44Z</time>
      </trkpt>
      <trkpt lat="43.78119" lon="4.18551">
        <ele>130.3</ele>
        <time>2019-11-08T13:48:45Z</time>
      </trkpt>
      <trkpt lat="43.78115" lon="4.1854">
        <ele>130.9</ele>
        <time>2019-11-08T13:48:46Z</time>
      </trkpt>
      <trkpt lat="43.78113" lon="4.18535">
        <ele>131.2</ele>
        <time>2019-11-08T13:48:47Z</time>
      </trkpt>
      <trkpt lat="43.7811" lon="4.18529">
        <ele>131.4</ele>
        <time>2019-11-08T13:48:48Z</time>
      </trkpt>
      <trkpt lat="43.78106" lon="4.18517">
        <ele>131.9</ele>
        <time>2019-11-08T13:48:50Z</time>
      </trkpt>
      <trkpt lat="43.78103" lon="4.18508">
        <ele>132.2</ele>
        <time>2019-11-08T13:48:51Z</time>
      </trkpt>
      <trkpt lat="43.78101" lon="4.18501">
        <ele>132.5</ele>
        <time>2019-11-08T13:48:54Z</time>
      </trkpt>
      <trkpt lat="43.78099" lon="4.18494">
        <ele>132.7</ele>
        <time>2019-11-08T13:48:55Z</time>
      </trkpt>
      <trkpt lat="43.78096" lon="4.18481">
        <ele>133.2</ele>
        <time>2019-11-08T13:48:57Z</time>
      </trkpt>
      <trkpt lat="43.78095" lon="4.18476">
        <ele>133.5</ele>
        <time>2019-11-08T13:48:59Z</time>
      </trkpt>
      <trkpt lat="43.78093" lon="4.18462">
        <ele>133.8</ele>
        <time>2019-11-08T13:49:02Z</time>
      </trkpt>
      <trkpt lat="43.78092" lon="4.18456">
        <ele>134</ele>
        <time>2019-11-08T13:49:03Z</time>
      </trkpt>
      <trkpt lat="43.78088" lon="4.18437">
        <ele>134.5</ele>
        <time>2019-11-08T13:49:06Z</time>
      </trkpt>
      <trkpt lat="43.78087" lon="4.18421">
        <ele>134.7</ele>
        <time>2019-11-08T13:49:07Z</time>
      </trkpt>
      <trkpt lat="43.78085" lon="4.18415">
        <ele>134.8</ele>
        <time>2019-11-08T13:49:09Z</time>
      </trkpt>
      <trkpt lat="43.78084" lon="4.18409">
        <ele>134.9</ele>
        <time>2019-11-08T13:49:10Z</time>
      </trkpt>
      <trkpt lat="43.78082" lon="4.18401">
        <ele>135</ele>
        <time>2019-11-08T13:49:11Z</time>
      </trkpt>
      <trkpt lat="43.78081" lon="4.18385">
        <ele>135.1</ele>
        <time>2019-11-08T13:49:14Z</time>
      </trkpt>
      <trkpt lat="43.78081" lon="4.18378">
        <ele>135.1</ele>
        <time>2019-11-08T13:49:15Z</time>
      </trkpt>
      <trkpt lat="43.78081" lon="4.1837">
        <ele>135.1</ele>
        <time>2019-11-08T13:49:16Z</time>
      </trkpt>
      <trkpt lat="43.7808" lon="4.18355">
        <ele>135.1</ele>
        <time>2019-11-08T13:49:18Z</time>
      </trkpt>
      <trkpt lat="43.7808" lon="4.18348">
        <ele>135.1</ele>
        <time>2019-11-08T13:49:19Z</time>
      </trkpt>
      <trkpt lat="43.7808" lon="4.18341">
        <ele>135.1</ele>
        <time>2019-11-08T13:49:20Z</time>
      </trkpt>
      <trkpt lat="43.78082" lon="4.18326">
        <ele>135</ele>
        <time>2019-11-08T13:49:22Z</time>
      </trkpt>
      <trkpt lat="43.78082" lon="4.18319">
        <ele>135</ele>
        <time>2019-11-08T13:49:23Z</time>
      </trkpt>
      <trkpt lat="43.78084" lon="4.18306">
        <ele>135</ele>
        <time>2019-11-08T13:49:25Z</time>
      </trkpt>
      <trkpt lat="43.78085" lon="4.18299">
        <ele>135</ele>
        <time>2019-11-08T13:49:26Z</time>
      </trkpt>
      <trkpt lat="43.78088" lon="4.18284">
        <ele>134.9</ele>
        <time>2019-11-08T13:49:28Z</time>
      </trkpt>
      <trkpt lat="43.78089" lon="4.18277">
        <ele>134.9</ele>
        <time>2019-11-08T13:49:29Z</time>
      </trkpt>
      <trkpt lat="43.78091" lon="4.18271">
        <ele>134.9</ele>
        <time>2019-11-08T13:49:30Z</time>
      </trkpt>
      <trkpt lat="43.78092" lon="4.18265">
        <ele>134.8</ele>
        <time>2019-11-08T13:49:31Z</time>
      </trkpt>
      <trkpt lat="43.78094" lon="4.18253">
        <ele>134.7</ele>
        <time>2019-11-08T13:49:33Z</time>
      </trkpt>
      <trkpt lat="43.78095" lon="4.18247">
        <ele>134.7</ele>
        <time>2019-11-08T13:49:34Z</time>
      </trkpt>
      <trkpt lat="43.781" lon="4.18232">
        <ele>134.4</ele>
        <time>2019-11-08T13:49:36Z</time>
      </trkpt>
      <trkpt lat="43.78102" lon="4.18224">
        <ele>134.2</ele>
        <time>2019-11-08T13:49:37Z</time>
      </trkpt>
      <trkpt lat="43.78105" lon="4.18216">
        <ele>133.9</ele>
        <time>2019-11-08T13:49:38Z</time>
      </trkpt>
      <trkpt lat="43.78109" lon="4.182">
        <ele>133.4</ele>
        <time>2019-11-08T13:49:40Z</time>
      </trkpt>
      <trkpt lat="43.78109" lon="4.18191">
        <ele>133.1</ele>
        <time>2019-11-08T13:49:41Z</time>
      </trkpt>
      <trkpt lat="43.78108" lon="4.18183">
        <ele>132.9</ele>
        <time>2019-11-08T13:49:42Z</time>
      </trkpt>
      <trkpt lat="43.78104" lon="4.18168">
        <ele>132.6</ele>
        <time>2019-11-08T13:49:44Z</time>
      </trkpt>
      <trkpt lat="43.78103" lon="4.1816">
        <ele>132.4</ele>
        <time>2019-11-08T13:49:45Z</time>
      </trkpt>
      <trkpt lat="43.78103" lon="4.18152">
        <ele>132.4</ele>
        <time>2019-11-08T13:49:46Z</time>
      </trkpt>
      <trkpt lat="43.78101" lon="4.18145">
        <ele>132.3</ele>
        <time>2019-11-08T13:49:47Z</time>
      </trkpt>
      <trkpt lat="43.78097" lon="4.18131">
        <ele>132.4</ele>
        <time>2019-11-08T13:49:49Z</time>
      </trkpt>
      <trkpt lat="43.78092" lon="4.18117">
        <ele>132.4</ele>
        <time>2019-11-08T13:49:51Z</time>
      </trkpt>
      <trkpt lat="43.78091" lon="4.1811">
        <ele>132.5</ele>
        <time>2019-11-08T13:49:52Z</time>
      </trkpt>
      <trkpt lat="43.78091" lon="4.18104">
        <ele>132.6</ele>
        <time>2019-11-08T13:49:53Z</time>
      </trkpt>
      <trkpt lat="43.7809" lon="4.18093">
        <ele>132.7</ele>
        <time>2019-11-08T13:49:55Z</time>
      </trkpt>
      <trkpt lat="43.78091" lon="4.18087">
        <ele>132.8</ele>
        <time>2019-11-08T13:49:56Z</time>
      </trkpt>
      <trkpt lat="43.78095" lon="4.18076">
        <ele>132.9</ele>
        <time>2019-11-08T13:49:58Z</time>
      </trkpt>
      <trkpt lat="43.78099" lon="4.18069">
        <ele>132.9</ele>
        <time>2019-11-08T13:50:00Z</time>
      </trkpt>
      <trkpt lat="43.78102" lon="4.18061">
        <ele>132.7</ele>
        <time>2019-11-08T13:50:01Z</time>
      </trkpt>
      <trkpt lat="43.78105" lon="4.18055">
        <ele>132.5</ele>
        <time>2019-11-08T13:50:02Z</time>
      </trkpt>
      <trkpt lat="43.78107" lon="4.18046">
        <ele>132.3</ele>
        <time>2019-11-08T13:50:03Z</time>
      </trkpt>
      <trkpt lat="43.78112" lon="4.1803">
        <ele>131.8</ele>
        <time>2019-11-08T13:50:05Z</time>
      </trkpt>
      <trkpt lat="43.78113" lon="4.18022">
        <ele>131.3</ele>
        <time>2019-11-08T13:50:06Z</time>
      </trkpt>
      <trkpt lat="43.78115" lon="4.18003">
        <ele>130.4</ele>
        <time>2019-11-08T13:50:08Z</time>
      </trkpt>
      <trkpt lat="43.78116" lon="4.17994">
        <ele>130.1</ele>
        <time>2019-11-08T13:50:09Z</time>
      </trkpt>
      <trkpt lat="43.78116" lon="4.17986">
        <ele>129.8</ele>
        <time>2019-11-08T13:50:10Z</time>
      </trkpt>
      <trkpt lat="43.78119" lon="4.1797">
        <ele>129</ele>
        <time>2019-11-08T13:50:12Z</time>
      </trkpt>
      <trkpt lat="43.78119" lon="4.17965">
        <ele>128.7</ele>
        <time>2019-11-08T13:50:13Z</time>
      </trkpt>
      <trkpt lat="43.78116" lon="4.17955">
        <ele>127.9</ele>
        <time>2019-11-08T13:50:15Z</time>
      </trkpt>
      <trkpt lat="43.78111" lon="4.17948">
        <ele>127.1</ele>
        <time>2019-11-08T13:50:17Z</time>
      </trkpt>
      <trkpt lat="43.78103" lon="4.17945">
        <ele>125.3</ele>
        <time>2019-11-08T13:50:19Z</time>
      </trkpt>
      <trkpt lat="43.78099" lon="4.17944">
        <ele>124.8</ele>
        <time>2019-11-08T13:50:20Z</time>
      </trkpt>
      <trkpt lat="43.78095" lon="4.17942">
        <ele>124.1</ele>
        <time>2019-11-08T13:50:21Z</time>
      </trkpt>
      <trkpt lat="43.78089" lon="4.1794">
        <ele>122.7</ele>
        <time>2019-11-08T13:50:23Z</time>
      </trkpt>
      <trkpt lat="43.78083" lon="4.17939">
        <ele>121.6</ele>
        <time>2019-11-08T13:50:25Z</time>
      </trkpt>
      <trkpt lat="43.78074" lon="4.17937">
        <ele>119.7</ele>
        <time>2019-11-08T13:50:27Z</time>
      </trkpt>
      <trkpt lat="43.7806" lon="4.17933">
        <ele>116.9</ele>
        <time>2019-11-08T13:50:29Z</time>
      </trkpt>
      <trkpt lat="43.78053" lon="4.17932">
        <ele>115.2</ele>
        <time>2019-11-08T13:50:30Z</time>
      </trkpt>
      <trkpt lat="43.78047" lon="4.17931">
        <ele>113.9</ele>
        <time>2019-11-08T13:50:31Z</time>
      </trkpt>
      <trkpt lat="43.78038" lon="4.17929">
        <ele>111.6</ele>
        <time>2019-11-08T13:50:33Z</time>
      </trkpt>
      <trkpt lat="43.78026" lon="4.17932">
        <ele>107.8</ele>
        <time>2019-11-08T13:50:39Z</time>
      </trkpt>
      <trkpt lat="43.78025" lon="4.17935">
        <ele>107.5</ele>
        <time>2019-11-08T13:50:40Z</time>
      </trkpt>
      <trkpt lat="43.78023" lon="4.17946">
        <ele>105.3</ele>
        <time>2019-11-08T13:50:42Z</time>
      </trkpt>
      <trkpt lat="43.78017" lon="4.17948">
        <ele>104</ele>
        <time>2019-11-08T13:50:44Z</time>
      </trkpt>
      <trkpt lat="43.78015" lon="4.17948">
        <ele>103.3</ele>
        <time>2019-11-08T13:50:45Z</time>
      </trkpt>
      <trkpt lat="43.78009" lon="4.17944">
        <ele>101.9</ele>
        <time>2019-11-08T13:50:48Z</time>
      </trkpt>
      <trkpt lat="43.78002" lon="4.1794">
        <ele>99.2</ele>
        <time>2019-11-08T13:50:50Z</time>
      </trkpt>
      <trkpt lat="43.77995" lon="4.17937">
        <ele>97.7</ele>
        <time>2019-11-08T13:50:51Z</time>
      </trkpt>
      <trkpt lat="43.7799" lon="4.17941">
        <ele>96.3</ele>
        <time>2019-11-08T13:50:54Z</time>
      </trkpt>
      <trkpt lat="43.77977" lon="4.17961">
        <ele>91.1</ele>
        <time>2019-11-08T13:50:56Z</time>
      </trkpt>
      <trkpt lat="43.77965" lon="4.17979">
        <ele>87.6</ele>
        <time>2019-11-08T13:50:58Z</time>
      </trkpt>
      <trkpt lat="43.77962" lon="4.17985">
        <ele>86.6</ele>
        <time>2019-11-08T13:50:59Z</time>
      </trkpt>
      <trkpt lat="43.7796" lon="4.17988">
        <ele>85.5</ele>
        <time>2019-11-08T13:51:00Z</time>
      </trkpt>
      <trkpt lat="43.77948" lon="4.17997">
        <ele>82.6</ele>
        <time>2019-11-08T13:51:03Z</time>
      </trkpt>
      <trkpt lat="43.77942" lon="4.18">
        <ele>81.1</ele>
        <time>2019-11-08T13:51:05Z</time>
      </trkpt>
      <trkpt lat="43.77942" lon="4.1801">
        <ele>81.1</ele>
        <time>2019-11-08T13:51:08Z</time>
      </trkpt>
      <trkpt lat="43.77945" lon="4.18015">
        <ele>81</ele>
        <time>2019-11-08T13:51:09Z</time>
      </trkpt>
      <trkpt lat="43.77951" lon="4.18027">
        <ele>80.8</ele>
        <time>2019-11-08T13:51:11Z</time>
      </trkpt>
      <trkpt lat="43.77952" lon="4.18034">
        <ele>80.7</ele>
        <time>2019-11-08T13:51:12Z</time>
      </trkpt>
      <trkpt lat="43.77954" lon="4.1804">
        <ele>80.5</ele>
        <time>2019-11-08T13:51:13Z</time>
      </trkpt>
      <trkpt lat="43.77956" lon="4.18046">
        <ele>80.4</ele>
        <time>2019-11-08T13:51:14Z</time>
      </trkpt>
      <trkpt lat="43.77957" lon="4.18053">
        <ele>80.1</ele>
        <time>2019-11-08T13:51:15Z</time>
      </trkpt>
      <trkpt lat="43.77956" lon="4.18065">
        <ele>79.7</ele>
        <time>2019-11-08T13:51:17Z</time>
      </trkpt>
      <trkpt lat="43.77953" lon="4.18071">
        <ele>79.4</ele>
        <time>2019-11-08T13:51:18Z</time>
      </trkpt>
      <trkpt lat="43.77945" lon="4.18082">
        <ele>78.9</ele>
        <time>2019-11-08T13:51:20Z</time>
      </trkpt>
      <trkpt lat="43.77934" lon="4.18093">
        <ele>78.3</ele>
        <time>2019-11-08T13:51:22Z</time>
      </trkpt>
      <trkpt lat="43.77929" lon="4.181">
        <ele>77.9</ele>
        <time>2019-11-08T13:51:23Z</time>
      </trkpt>
      <trkpt lat="43.77919" lon="4.18113">
        <ele>76.7</ele>
        <time>2019-11-08T13:51:25Z</time>
      </trkpt>
      <trkpt lat="43.77913" lon="4.1812">
        <ele>76.2</ele>
        <time>2019-11-08T13:51:26Z</time>
      </trkpt>
      <trkpt lat="43.7791" lon="4.18128">
        <ele>75.8</ele>
        <time>2019-11-08T13:51:27Z</time>
      </trkpt>
      <trkpt lat="43.77907" lon="4.18136">
        <ele>75.3</ele>
        <time>2019-11-08T13:51:28Z</time>
      </trkpt>
      <trkpt lat="43.77903" lon="4.18145">
        <ele>74.7</ele>
        <time>2019-11-08T13:51:29Z</time>
      </trkpt>
      <trkpt lat="43.77895" lon="4.18163">
        <ele>73.8</ele>
        <time>2019-11-08T13:51:31Z</time>
      </trkpt>
      <trkpt lat="43.77886" lon="4.18181">
        <ele>72.7</ele>
        <time>2019-11-08T13:51:33Z</time>
      </trkpt>
      <trkpt lat="43.77875" lon="4.18199">
        <ele>71.2</ele>
        <time>2019-11-08T13:51:35Z</time>
      </trkpt>
      <trkpt lat="43.77863" lon="4.18211">
        <ele>70</ele>
        <time>2019-11-08T13:51:37Z</time>
      </trkpt>
      <trkpt lat="43.77859" lon="4.18216">
        <ele>69.6</ele>
        <time>2019-11-08T13:51:38Z</time>
      </trkpt>
      <trkpt lat="43.77858" lon="4.18221">
        <ele>69.4</ele>
        <time>2019-11-08T13:51:39Z</time>
      </trkpt>
      <trkpt lat="43.77857" lon="4.18227">
        <ele>69.1</ele>
        <time>2019-11-08T13:51:40Z</time>
      </trkpt>
      <trkpt lat="43.77858" lon="4.18241">
        <ele>69.4</ele>
        <time>2019-11-08T13:51:42Z</time>
      </trkpt>
      <trkpt lat="43.7786" lon="4.1825">
        <ele>69.6</ele>
        <time>2019-11-08T13:51:43Z</time>
      </trkpt>
      <trkpt lat="43.77862" lon="4.18259">
        <ele>69.8</ele>
        <time>2019-11-08T13:51:44Z</time>
      </trkpt>
      <trkpt lat="43.77865" lon="4.18269">
        <ele>70</ele>
        <time>2019-11-08T13:51:45Z</time>
      </trkpt>
      <trkpt lat="43.77873" lon="4.18285">
        <ele>70.8</ele>
        <time>2019-11-08T13:51:47Z</time>
      </trkpt>
      <trkpt lat="43.77881" lon="4.18296">
        <ele>71.3</ele>
        <time>2019-11-08T13:51:49Z</time>
      </trkpt>
      <trkpt lat="43.77885" lon="4.18301">
        <ele>71.6</ele>
        <time>2019-11-08T13:51:50Z</time>
      </trkpt>
      <trkpt lat="43.77893" lon="4.18312">
        <ele>72.1</ele>
        <time>2019-11-08T13:51:52Z</time>
      </trkpt>
      <trkpt lat="43.77899" lon="4.18326">
        <ele>72.7</ele>
        <time>2019-11-08T13:51:54Z</time>
      </trkpt>
      <trkpt lat="43.77901" lon="4.18334">
        <ele>73.1</ele>
        <time>2019-11-08T13:51:55Z</time>
      </trkpt>
      <trkpt lat="43.77904" lon="4.18342">
        <ele>73.6</ele>
        <time>2019-11-08T13:51:56Z</time>
      </trkpt>
      <trkpt lat="43.77911" lon="4.18354">
        <ele>74.7</ele>
        <time>2019-11-08T13:51:58Z</time>
      </trkpt>
      <trkpt lat="43.77918" lon="4.18365">
        <ele>75.6</ele>
        <time>2019-11-08T13:52:00Z</time>
      </trkpt>
      <trkpt lat="43.77922" lon="4.18371">
        <ele>76.1</ele>
        <time>2019-11-08T13:52:01Z</time>
      </trkpt>
      <trkpt lat="43.77929" lon="4.18383">
        <ele>77.5</ele>
        <time>2019-11-08T13:52:03Z</time>
      </trkpt>
      <trkpt lat="43.7793" lon="4.1839">
        <ele>77.5</ele>
        <time>2019-11-08T13:52:04Z</time>
      </trkpt>
      <trkpt lat="43.77931" lon="4.18397">
        <ele>77.5</ele>
        <time>2019-11-08T13:52:05Z</time>
      </trkpt>
      <trkpt lat="43.77932" lon="4.18405">
        <ele>77.5</ele>
        <time>2019-11-08T13:52:06Z</time>
      </trkpt>
      <trkpt lat="43.77933" lon="4.18413">
        <ele>77.5</ele>
        <time>2019-11-08T13:52:07Z</time>
      </trkpt>
      <trkpt lat="43.77934" lon="4.1842">
        <ele>77.5</ele>
        <time>2019-11-08T13:52:08Z</time>
      </trkpt>
      <trkpt lat="43.77935" lon="4.18427">
        <ele>77.5</ele>
        <time>2019-11-08T13:52:09Z</time>
      </trkpt>
      <trkpt lat="43.77936" lon="4.18434">
        <ele>77.5</ele>
        <time>2019-11-08T13:52:10Z</time>
      </trkpt>
      <trkpt lat="43.77939" lon="4.18449">
        <ele>77.4</ele>
        <time>2019-11-08T13:52:12Z</time>
      </trkpt>
      <trkpt lat="43.77941" lon="4.18457">
        <ele>77.4</ele>
        <time>2019-11-08T13:52:13Z</time>
      </trkpt>
      <trkpt lat="43.77942" lon="4.18464">
        <ele>77.3</ele>
        <time>2019-11-08T13:52:14Z</time>
      </trkpt>
      <trkpt lat="43.77944" lon="4.18472">
        <ele>77.3</ele>
        <time>2019-11-08T13:52:15Z</time>
      </trkpt>
      <trkpt lat="43.77945" lon="4.18481">
        <ele>77.2</ele>
        <time>2019-11-08T13:52:16Z</time>
      </trkpt>
      <trkpt lat="43.77947" lon="4.18498">
        <ele>77.1</ele>
        <time>2019-11-08T13:52:18Z</time>
      </trkpt>
      <trkpt lat="43.77949" lon="4.18515">
        <ele>77.1</ele>
        <time>2019-11-08T13:52:20Z</time>
      </trkpt>
      <trkpt lat="43.77951" lon="4.18532">
        <ele>76.9</ele>
        <time>2019-11-08T13:52:22Z</time>
      </trkpt>
      <trkpt lat="43.77951" lon="4.1854">
        <ele>76.8</ele>
        <time>2019-11-08T13:52:23Z</time>
      </trkpt>
      <trkpt lat="43.77952" lon="4.18549">
        <ele>76.7</ele>
        <time>2019-11-08T13:52:24Z</time>
      </trkpt>
      <trkpt lat="43.77954" lon="4.18567">
        <ele>76.5</ele>
        <time>2019-11-08T13:52:26Z</time>
      </trkpt>
      <trkpt lat="43.77956" lon="4.18584">
        <ele>76.3</ele>
        <time>2019-11-08T13:52:28Z</time>
      </trkpt>
      <trkpt lat="43.77959" lon="4.18598">
        <ele>76.2</ele>
        <time>2019-11-08T13:52:30Z</time>
      </trkpt>
      <trkpt lat="43.77959" lon="4.18603">
        <ele>75.5</ele>
        <time>2019-11-08T13:52:31Z</time>
      </trkpt>
      <trkpt lat="43.77954" lon="4.18609">
        <ele>74.9</ele>
        <time>2019-11-08T13:52:33Z</time>
      </trkpt>
      <trkpt lat="43.77942" lon="4.18608">
        <ele>73.7</ele>
        <time>2019-11-08T13:52:35Z</time>
      </trkpt>
      <trkpt lat="43.77934" lon="4.18607">
        <ele>72.9</ele>
        <time>2019-11-08T13:52:36Z</time>
      </trkpt>
      <trkpt lat="43.77918" lon="4.18608">
        <ele>71.1</ele>
        <time>2019-11-08T13:52:38Z</time>
      </trkpt>
      <trkpt lat="43.779" lon="4.18613">
        <ele>69</ele>
        <time>2019-11-08T13:52:40Z</time>
      </trkpt>
      <trkpt lat="43.77891" lon="4.18615">
        <ele>67.8</ele>
        <time>2019-11-08T13:52:41Z</time>
      </trkpt>
      <trkpt lat="43.77873" lon="4.18616">
        <ele>64.9</ele>
        <time>2019-11-08T13:52:43Z</time>
      </trkpt>
      <trkpt lat="43.77864" lon="4.18616">
        <ele>63.7</ele>
        <time>2019-11-08T13:52:44Z</time>
      </trkpt>
      <trkpt lat="43.77851" lon="4.18618">
        <ele>62.2</ele>
        <time>2019-11-08T13:52:46Z</time>
      </trkpt>
      <trkpt lat="43.77846" lon="4.18619">
        <ele>61.8</ele>
        <time>2019-11-08T13:52:47Z</time>
      </trkpt>
      <trkpt lat="43.77839" lon="4.18627">
        <ele>61.4</ele>
        <time>2019-11-08T13:52:49Z</time>
      </trkpt>
      <trkpt lat="43.77837" lon="4.18643">
        <ele>60.6</ele>
        <time>2019-11-08T13:52:51Z</time>
      </trkpt>
      <trkpt lat="43.77836" lon="4.18661">
        <ele>59.9</ele>
        <time>2019-11-08T13:52:53Z</time>
      </trkpt>
      <trkpt lat="43.77835" lon="4.18671">
        <ele>59.6</ele>
        <time>2019-11-08T13:52:54Z</time>
      </trkpt>
      <trkpt lat="43.77833" lon="4.1869">
        <ele>59.2</ele>
        <time>2019-11-08T13:52:56Z</time>
      </trkpt>
      <trkpt lat="43.77832" lon="4.1871">
        <ele>58.8</ele>
        <time>2019-11-08T13:52:58Z</time>
      </trkpt>
      <trkpt lat="43.77831" lon="4.1873">
        <ele>58.6</ele>
        <time>2019-11-08T13:53:00Z</time>
      </trkpt>
      <trkpt lat="43.77832" lon="4.18738">
        <ele>58.5</ele>
        <time>2019-11-08T13:53:01Z</time>
      </trkpt>
      <trkpt lat="43.77832" lon="4.18745">
        <ele>58.4</ele>
        <time>2019-11-08T13:53:02Z</time>
      </trkpt>
      <trkpt lat="43.77831" lon="4.18751">
        <ele>58.3</ele>
        <time>2019-11-08T13:53:04Z</time>
      </trkpt>
      <trkpt lat="43.77822" lon="4.18759">
        <ele>57.3</ele>
        <time>2019-11-08T13:53:07Z</time>
      </trkpt>
      <trkpt lat="43.77818" lon="4.18762">
        <ele>57</ele>
        <time>2019-11-08T13:53:08Z</time>
      </trkpt>
      <trkpt lat="43.77814" lon="4.18765">
        <ele>56.7</ele>
        <time>2019-11-08T13:53:11Z</time>
      </trkpt>
      <trkpt lat="43.77811" lon="4.18767">
        <ele>56.5</ele>
        <time>2019-11-08T13:53:12Z</time>
      </trkpt>
      <trkpt lat="43.77804" lon="4.18775">
        <ele>55.9</ele>
        <time>2019-11-08T13:53:14Z</time>
      </trkpt>
      <trkpt lat="43.77806" lon="4.18792">
        <ele>55.9</ele>
        <time>2019-11-08T13:53:16Z</time>
      </trkpt>
      <trkpt lat="43.7781" lon="4.18808">
        <ele>55.8</ele>
        <time>2019-11-08T13:53:18Z</time>
      </trkpt>
      <trkpt lat="43.77811" lon="4.18817">
        <ele>55.6</ele>
        <time>2019-11-08T13:53:19Z</time>
      </trkpt>
      <trkpt lat="43.77812" lon="4.18825">
        <ele>55.5</ele>
        <time>2019-11-08T13:53:20Z</time>
      </trkpt>
      <trkpt lat="43.77816" lon="4.18845">
        <ele>55</ele>
        <time>2019-11-08T13:53:22Z</time>
      </trkpt>
      <trkpt lat="43.77818" lon="4.18855">
        <ele>54.7</ele>
        <time>2019-11-08T13:53:23Z</time>
      </trkpt>
      <trkpt lat="43.77823" lon="4.18878">
        <ele>54.3</ele>
        <time>2019-11-08T13:53:25Z</time>
      </trkpt>
      <trkpt lat="43.77825" lon="4.18889">
        <ele>54.1</ele>
        <time>2019-11-08T13:53:26Z</time>
      </trkpt>
      <trkpt lat="43.77827" lon="4.189">
        <ele>54</ele>
        <time>2019-11-08T13:53:27Z</time>
      </trkpt>
      <trkpt lat="43.77829" lon="4.18912">
        <ele>53.8</ele>
        <time>2019-11-08T13:53:28Z</time>
      </trkpt>
      <trkpt lat="43.77831" lon="4.18933">
        <ele>53.4</ele>
        <time>2019-11-08T13:53:30Z</time>
      </trkpt>
      <trkpt lat="43.77833" lon="4.18944">
        <ele>53.3</ele>
        <time>2019-11-08T13:53:31Z</time>
      </trkpt>
      <trkpt lat="43.77834" lon="4.18964">
        <ele>53</ele>
        <time>2019-11-08T13:53:33Z</time>
      </trkpt>
      <trkpt lat="43.77835" lon="4.18974">
        <ele>52.8</ele>
        <time>2019-11-08T13:53:34Z</time>
      </trkpt>
      <trkpt lat="43.77836" lon="4.18983">
        <ele>52.7</ele>
        <time>2019-11-08T13:53:35Z</time>
      </trkpt>
      <trkpt lat="43.77838" lon="4.18994">
        <ele>52.5</ele>
        <time>2019-11-08T13:53:36Z</time>
      </trkpt>
      <trkpt lat="43.77847" lon="4.19011">
        <ele>52.5</ele>
        <time>2019-11-08T13:53:38Z</time>
      </trkpt>
      <trkpt lat="43.77861" lon="4.19018">
        <ele>52.5</ele>
        <time>2019-11-08T13:53:40Z</time>
      </trkpt>
      <trkpt lat="43.77873" lon="4.19021">
        <ele>52.6</ele>
        <time>2019-11-08T13:53:42Z</time>
      </trkpt>
      <trkpt lat="43.7788" lon="4.19029">
        <ele>52.8</ele>
        <time>2019-11-08T13:53:44Z</time>
      </trkpt>
      <trkpt lat="43.77887" lon="4.19038">
        <ele>53.2</ele>
        <time>2019-11-08T13:53:46Z</time>
      </trkpt>
      <trkpt lat="43.77889" lon="4.19044">
        <ele>53.6</ele>
        <time>2019-11-08T13:53:47Z</time>
      </trkpt>
      <trkpt lat="43.77895" lon="4.19057">
        <ele>54.5</ele>
        <time>2019-11-08T13:53:49Z</time>
      </trkpt>
      <trkpt lat="43.77902" lon="4.19072">
        <ele>55.4</ele>
        <time>2019-11-08T13:53:51Z</time>
      </trkpt>
      <trkpt lat="43.7791" lon="4.19091">
        <ele>55.5</ele>
        <time>2019-11-08T13:53:53Z</time>
      </trkpt>
      <trkpt lat="43.77916" lon="4.19108">
        <ele>54.9</ele>
        <time>2019-11-08T13:53:55Z</time>
      </trkpt>
      <trkpt lat="43.77918" lon="4.19116">
        <ele>54.6</ele>
        <time>2019-11-08T13:53:56Z</time>
      </trkpt>
      <trkpt lat="43.77924" lon="4.19134">
        <ele>53.9</ele>
        <time>2019-11-08T13:53:58Z</time>
      </trkpt>
      <trkpt lat="43.77928" lon="4.19142">
        <ele>53.5</ele>
        <time>2019-11-08T13:53:59Z</time>
      </trkpt>
    </trkseg>
  </trk>
</gpx>